<?xml version="1.0" encoding="UTF-8" standalone="no" ?>
<gpx xmlns="http://www.topografix.com/GPX/1/1" xmlns:xsi="http://www.w3.org/2001/XMLSchema-instance" xsi:schemaLocation="http://www.topografix.com/GPX/1/1 http://www.topografix.com/GPX/1/1/gpx.xsd" version="1.1" creator="VisuGPX - https://www.visugpx.com">
  <metadata>
    <name>La Motte/Valavoire / St Genès /Chateaufort</name>
    <desc><![CDATA[Un circui dejà fait maintes fois mais refait cette fois à e-VTT en partant de La Motte, le VAE est beaucoup plus adapté car un peu (trop ?) de goudron. Toujours les paysages sublimes . La descente du ravin de la Péne est a présent très caillouteuse et demande de l'attention]]></desc>
  </metadata>
  <trk>
    <name><![CDATA[Tracé 11 sept. 2019 11:04:06]]></name>
    <trkseg>
      <trkpt lat="44.34304" lon="6.02727">
        <ele>707.9594063</ele>
        <time>2019-09-11T09:04:06Z</time>
      </trkpt>
      <trkpt lat="44.34302" lon="6.02738">
        <ele>705.9592568</ele>
        <time>2019-09-11T09:04:55Z</time>
      </trkpt>
      <trkpt lat="44.34294" lon="6.02747">
        <ele>705.9591507</ele>
        <time>2019-09-11T09:05:00Z</time>
      </trkpt>
      <trkpt lat="44.34286" lon="6.02752">
        <ele>705.9591056</ele>
        <time>2019-09-11T09:05:04Z</time>
      </trkpt>
      <trkpt lat="44.34277" lon="6.02749">
        <ele>705.9592043</ele>
        <time>2019-09-11T09:05:08Z</time>
      </trkpt>
      <trkpt lat="44.34267" lon="6.02737">
        <ele>706.9594163</ele>
        <time>2019-09-11T09:05:12Z</time>
      </trkpt>
      <trkpt lat="44.3425" lon="6.02729">
        <ele>706.9596085</ele>
        <time>2019-09-11T09:05:17Z</time>
      </trkpt>
      <trkpt lat="44.34236" lon="6.0273">
        <ele>705.9596637</ele>
        <time>2019-09-11T09:05:21Z</time>
      </trkpt>
      <trkpt lat="44.34217" lon="6.02732">
        <ele>706.959704</ele>
        <time>2019-09-11T09:05:26Z</time>
      </trkpt>
      <trkpt lat="44.34201" lon="6.02736">
        <ele>707.9597183</ele>
        <time>2019-09-11T09:05:31Z</time>
      </trkpt>
      <trkpt lat="44.34187" lon="6.02739">
        <ele>707.9597444</ele>
        <time>2019-09-11T09:05:35Z</time>
      </trkpt>
      <trkpt lat="44.3417" lon="6.02741">
        <ele>705.9597808</ele>
        <time>2019-09-11T09:05:39Z</time>
      </trkpt>
      <trkpt lat="44.3415" lon="6.02746">
        <ele>706.9598019</ele>
        <time>2019-09-11T09:05:43Z</time>
      </trkpt>
      <trkpt lat="44.34137" lon="6.02748">
        <ele>707.9598314</ele>
        <time>2019-09-11T09:05:47Z</time>
      </trkpt>
      <trkpt lat="44.34125" lon="6.02747">
        <ele>707.9598925</ele>
        <time>2019-09-11T09:05:52Z</time>
      </trkpt>
      <trkpt lat="44.34113" lon="6.02747">
        <ele>706.9599398</ele>
        <time>2019-09-11T09:05:56Z</time>
      </trkpt>
      <trkpt lat="44.34116" lon="6.02758">
        <ele>704.9597725</ele>
        <time>2019-09-11T09:06:04Z</time>
      </trkpt>
      <trkpt lat="44.34128" lon="6.02757">
        <ele>705.9597345</ele>
        <time>2019-09-11T09:06:08Z</time>
      </trkpt>
      <trkpt lat="44.34137" lon="6.02776">
        <ele>705.9594158</ele>
        <time>2019-09-11T09:06:13Z</time>
      </trkpt>
      <trkpt lat="44.34129" lon="6.02792">
        <ele>705.9592191</ele>
        <time>2019-09-11T09:06:17Z</time>
      </trkpt>
      <trkpt lat="44.3411" lon="6.02812">
        <ele>705.9590066</ele>
        <time>2019-09-11T09:06:22Z</time>
      </trkpt>
      <trkpt lat="44.34092" lon="6.02833">
        <ele>704.9587962</ele>
        <time>2019-09-11T09:06:26Z</time>
      </trkpt>
      <trkpt lat="44.34076" lon="6.0285">
        <ele>704.9586099</ele>
        <time>2019-09-11T09:06:30Z</time>
      </trkpt>
      <trkpt lat="44.34063" lon="6.02865">
        <ele>702.9584568</ele>
        <time>2019-09-11T09:06:34Z</time>
      </trkpt>
      <trkpt lat="44.34044" lon="6.02882">
        <ele>701.9583014</ele>
        <time>2019-09-11T09:06:39Z</time>
      </trkpt>
      <trkpt lat="44.34027" lon="6.02899">
        <ele>702.9581351</ele>
        <time>2019-09-11T09:06:43Z</time>
      </trkpt>
      <trkpt lat="44.34007" lon="6.02917">
        <ele>699.9579655</ele>
        <time>2019-09-11T09:06:48Z</time>
      </trkpt>
      <trkpt lat="44.33991" lon="6.02934">
        <ele>698.9577981</ele>
        <time>2019-09-11T09:06:52Z</time>
      </trkpt>
      <trkpt lat="44.33977" lon="6.02963">
        <ele>696.9574494</ele>
        <time>2019-09-11T09:06:56Z</time>
      </trkpt>
      <trkpt lat="44.33966" lon="6.02989">
        <ele>695.9571155</ele>
        <time>2019-09-11T09:07:00Z</time>
      </trkpt>
      <trkpt lat="44.33955" lon="6.0302">
        <ele>694.9567375</ele>
        <time>2019-09-11T09:07:05Z</time>
      </trkpt>
      <trkpt lat="44.3395" lon="6.03042">
        <ele>696.9564429</ele>
        <time>2019-09-11T09:07:09Z</time>
      </trkpt>
      <trkpt lat="44.33947" lon="6.03056">
        <ele>696.9562508</ele>
        <time>2019-09-11T09:07:12Z</time>
      </trkpt>
      <trkpt lat="44.33942" lon="6.03073">
        <ele>696.9560422</ele>
        <time>2019-09-11T09:07:16Z</time>
      </trkpt>
      <trkpt lat="44.33917" lon="6.03075">
        <ele>695.9561323</ele>
        <time>2019-09-11T09:07:21Z</time>
      </trkpt>
      <trkpt lat="44.33888" lon="6.03069">
        <ele>694.9563545</ele>
        <time>2019-09-11T09:07:26Z</time>
      </trkpt>
      <trkpt lat="44.33862" lon="6.0307">
        <ele>694.9564658</ele>
        <time>2019-09-11T09:07:30Z</time>
      </trkpt>
      <trkpt lat="44.33831" lon="6.03066">
        <ele>693.9566803</ele>
        <time>2019-09-11T09:07:35Z</time>
      </trkpt>
      <trkpt lat="44.33805" lon="6.03065">
        <ele>693.9568249</ele>
        <time>2019-09-11T09:07:39Z</time>
      </trkpt>
      <trkpt lat="44.3378" lon="6.03059">
        <ele>690.9570247</ele>
        <time>2019-09-11T09:07:43Z</time>
      </trkpt>
      <trkpt lat="44.33749" lon="6.03056">
        <ele>689.9572151</ele>
        <time>2019-09-11T09:07:48Z</time>
      </trkpt>
      <trkpt lat="44.33722" lon="6.03057">
        <ele>687.9573349</ele>
        <time>2019-09-11T09:07:52Z</time>
      </trkpt>
      <trkpt lat="44.33691" lon="6.03066">
        <ele>687.95737</ele>
        <time>2019-09-11T09:07:57Z</time>
      </trkpt>
      <trkpt lat="44.33666" lon="6.03074">
        <ele>686.9573722</ele>
        <time>2019-09-11T09:08:01Z</time>
      </trkpt>
      <trkpt lat="44.3364" lon="6.03082">
        <ele>686.9573992</ele>
        <time>2019-09-11T09:08:05Z</time>
      </trkpt>
      <trkpt lat="44.33609" lon="6.0309">
        <ele>685.9574437</ele>
        <time>2019-09-11T09:08:10Z</time>
      </trkpt>
      <trkpt lat="44.33583" lon="6.03096">
        <ele>685.9574817</ele>
        <time>2019-09-11T09:08:14Z</time>
      </trkpt>
      <trkpt lat="44.3355" lon="6.031">
        <ele>684.9575955</ele>
        <time>2019-09-11T09:08:19Z</time>
      </trkpt>
      <trkpt lat="44.33516" lon="6.03099">
        <ele>683.9577768</ele>
        <time>2019-09-11T09:08:24Z</time>
      </trkpt>
      <trkpt lat="44.33482" lon="6.031">
        <ele>683.9579322</ele>
        <time>2019-09-11T09:08:29Z</time>
      </trkpt>
      <trkpt lat="44.33454" lon="6.03103">
        <ele>684.9580282</ele>
        <time>2019-09-11T09:08:33Z</time>
      </trkpt>
      <trkpt lat="44.33422" lon="6.03105">
        <ele>682.9581651</ele>
        <time>2019-09-11T09:08:38Z</time>
      </trkpt>
      <trkpt lat="44.33397" lon="6.03108">
        <ele>683.9582474</ele>
        <time>2019-09-11T09:08:42Z</time>
      </trkpt>
      <trkpt lat="44.33367" lon="6.0311">
        <ele>683.9583713</ele>
        <time>2019-09-11T09:08:47Z</time>
      </trkpt>
      <trkpt lat="44.33341" lon="6.03109">
        <ele>682.9585071</ele>
        <time>2019-09-11T09:08:51Z</time>
      </trkpt>
      <trkpt lat="44.33308" lon="6.03115">
        <ele>680.958595</ele>
        <time>2019-09-11T09:08:56Z</time>
      </trkpt>
      <trkpt lat="44.33281" lon="6.03127">
        <ele>679.958568</ele>
        <time>2019-09-11T09:09:00Z</time>
      </trkpt>
      <trkpt lat="44.33248" lon="6.03135">
        <ele>678.9586298</ele>
        <time>2019-09-11T09:09:05Z</time>
      </trkpt>
      <trkpt lat="44.33222" lon="6.03137">
        <ele>677.9587295</ele>
        <time>2019-09-11T09:09:09Z</time>
      </trkpt>
      <trkpt lat="44.33197" lon="6.03143">
        <ele>676.9587791</ele>
        <time>2019-09-11T09:09:13Z</time>
      </trkpt>
      <trkpt lat="44.33172" lon="6.03151">
        <ele>676.9587991</ele>
        <time>2019-09-11T09:09:17Z</time>
      </trkpt>
      <trkpt lat="44.33142" lon="6.03162">
        <ele>675.9588117</ele>
        <time>2019-09-11T09:09:22Z</time>
      </trkpt>
      <trkpt lat="44.33112" lon="6.03173">
        <ele>674.9588164</ele>
        <time>2019-09-11T09:09:27Z</time>
      </trkpt>
      <trkpt lat="44.3308" lon="6.03183">
        <ele>674.9588436</ele>
        <time>2019-09-11T09:09:32Z</time>
      </trkpt>
      <trkpt lat="44.33049" lon="6.03194">
        <ele>672.9588646</ele>
        <time>2019-09-11T09:09:37Z</time>
      </trkpt>
      <trkpt lat="44.33026" lon="6.03202">
        <ele>673.9588772</ele>
        <time>2019-09-11T09:09:41Z</time>
      </trkpt>
      <trkpt lat="44.33003" lon="6.03209">
        <ele>672.9589112</ele>
        <time>2019-09-11T09:09:45Z</time>
      </trkpt>
      <trkpt lat="44.32979" lon="6.03215">
        <ele>672.958955</ele>
        <time>2019-09-11T09:09:49Z</time>
      </trkpt>
      <trkpt lat="44.3295" lon="6.03224">
        <ele>670.9589886</ele>
        <time>2019-09-11T09:09:54Z</time>
      </trkpt>
      <trkpt lat="44.32928" lon="6.03231">
        <ele>669.9590132</ele>
        <time>2019-09-11T09:09:58Z</time>
      </trkpt>
      <trkpt lat="44.32899" lon="6.03241">
        <ele>671.9590355</ele>
        <time>2019-09-11T09:10:03Z</time>
      </trkpt>
      <trkpt lat="44.3287" lon="6.03249">
        <ele>670.959093</ele>
        <time>2019-09-11T09:10:08Z</time>
      </trkpt>
      <trkpt lat="44.32842" lon="6.03257">
        <ele>669.9591347</ele>
        <time>2019-09-11T09:10:13Z</time>
      </trkpt>
      <trkpt lat="44.3282" lon="6.03265">
        <ele>668.9591496</ele>
        <time>2019-09-11T09:10:17Z</time>
      </trkpt>
      <trkpt lat="44.32799" lon="6.03272">
        <ele>669.9591681</ele>
        <time>2019-09-11T09:10:21Z</time>
      </trkpt>
      <trkpt lat="44.32779" lon="6.03275">
        <ele>670.9592378</ele>
        <time>2019-09-11T09:10:25Z</time>
      </trkpt>
      <trkpt lat="44.32756" lon="6.03279">
        <ele>670.9593047</ele>
        <time>2019-09-11T09:10:30Z</time>
      </trkpt>
      <trkpt lat="44.32731" lon="6.0328">
        <ele>670.9594216</ele>
        <time>2019-09-11T09:10:35Z</time>
      </trkpt>
      <trkpt lat="44.32711" lon="6.03282">
        <ele>671.9595109</ele>
        <time>2019-09-11T09:10:39Z</time>
      </trkpt>
      <trkpt lat="44.32688" lon="6.03283">
        <ele>670.9596143</ele>
        <time>2019-09-11T09:10:44Z</time>
      </trkpt>
      <trkpt lat="44.32668" lon="6.03288">
        <ele>670.9596574</ele>
        <time>2019-09-11T09:10:48Z</time>
      </trkpt>
      <trkpt lat="44.32645" lon="6.03288">
        <ele>667.9597825</ele>
        <time>2019-09-11T09:10:53Z</time>
      </trkpt>
      <trkpt lat="44.32624" lon="6.03291">
        <ele>666.9598492</ele>
        <time>2019-09-11T09:10:57Z</time>
      </trkpt>
      <trkpt lat="44.32597" lon="6.03295">
        <ele>666.9599546</ele>
        <time>2019-09-11T09:11:02Z</time>
      </trkpt>
      <trkpt lat="44.32573" lon="6.033">
        <ele>666.9600126</ele>
        <time>2019-09-11T09:11:06Z</time>
      </trkpt>
      <trkpt lat="44.32545" lon="6.03303">
        <ele>666.9601278</ele>
        <time>2019-09-11T09:11:11Z</time>
      </trkpt>
      <trkpt lat="44.32522" lon="6.03306">
        <ele>665.9602115</ele>
        <time>2019-09-11T09:11:15Z</time>
      </trkpt>
      <trkpt lat="44.32497" lon="6.0331">
        <ele>663.9602996</ele>
        <time>2019-09-11T09:11:20Z</time>
      </trkpt>
      <trkpt lat="44.32477" lon="6.03322">
        <ele>663.9602618</ele>
        <time>2019-09-11T09:11:24Z</time>
      </trkpt>
      <trkpt lat="44.32455" lon="6.03342">
        <ele>662.9601356</ele>
        <time>2019-09-11T09:11:29Z</time>
      </trkpt>
      <trkpt lat="44.3244" lon="6.03366">
        <ele>664.9599312</ele>
        <time>2019-09-11T09:11:34Z</time>
      </trkpt>
      <trkpt lat="44.32432" lon="6.03385">
        <ele>666.9597518</ele>
        <time>2019-09-11T09:11:38Z</time>
      </trkpt>
      <trkpt lat="44.32424" lon="6.03399">
        <ele>668.95963</ele>
        <time>2019-09-11T09:11:42Z</time>
      </trkpt>
      <trkpt lat="44.3241" lon="6.03415">
        <ele>670.9595083</ele>
        <time>2019-09-11T09:11:47Z</time>
      </trkpt>
      <trkpt lat="44.32396" lon="6.03432">
        <ele>669.9593905</ele>
        <time>2019-09-11T09:11:51Z</time>
      </trkpt>
      <trkpt lat="44.32378" lon="6.03447">
        <ele>667.9593168</ele>
        <time>2019-09-11T09:11:56Z</time>
      </trkpt>
      <trkpt lat="44.32361" lon="6.0346">
        <ele>666.9592513</ele>
        <time>2019-09-11T09:12:00Z</time>
      </trkpt>
      <trkpt lat="44.32339" lon="6.0347">
        <ele>667.9592483</ele>
        <time>2019-09-11T09:12:05Z</time>
      </trkpt>
      <trkpt lat="44.3232" lon="6.03482">
        <ele>666.9592197</ele>
        <time>2019-09-11T09:12:09Z</time>
      </trkpt>
      <trkpt lat="44.32295" lon="6.03498">
        <ele>665.959171</ele>
        <time>2019-09-11T09:12:14Z</time>
      </trkpt>
      <trkpt lat="44.32276" lon="6.03509">
        <ele>667.9591551</ele>
        <time>2019-09-11T09:12:18Z</time>
      </trkpt>
      <trkpt lat="44.32259" lon="6.03526">
        <ele>665.959053</ele>
        <time>2019-09-11T09:12:23Z</time>
      </trkpt>
      <trkpt lat="44.32254" lon="6.03533">
        <ele>666.9589964</ele>
        <time>2019-09-11T09:12:43Z</time>
      </trkpt>
      <trkpt lat="44.32246" lon="6.03541">
        <ele>667.9589497</ele>
        <time>2019-09-11T09:12:47Z</time>
      </trkpt>
      <trkpt lat="44.3223" lon="6.03549">
        <ele>666.9589389</ele>
        <time>2019-09-11T09:12:52Z</time>
      </trkpt>
      <trkpt lat="44.32219" lon="6.03555">
        <ele>665.958942</ele>
        <time>2019-09-11T09:12:56Z</time>
      </trkpt>
      <trkpt lat="44.32206" lon="6.03563">
        <ele>664.9589244</ele>
        <time>2019-09-11T09:13:00Z</time>
      </trkpt>
      <trkpt lat="44.32197" lon="6.03571">
        <ele>664.9588818</ele>
        <time>2019-09-11T09:13:04Z</time>
      </trkpt>
      <trkpt lat="44.32184" lon="6.03581">
        <ele>664.9588407</ele>
        <time>2019-09-11T09:13:08Z</time>
      </trkpt>
      <trkpt lat="44.3217" lon="6.0359">
        <ele>663.9588105</ele>
        <time>2019-09-11T09:13:12Z</time>
      </trkpt>
      <trkpt lat="44.32155" lon="6.03603">
        <ele>663.9587541</ele>
        <time>2019-09-11T09:13:17Z</time>
      </trkpt>
      <trkpt lat="44.32144" lon="6.03611">
        <ele>663.9587266</ele>
        <time>2019-09-11T09:13:21Z</time>
      </trkpt>
      <trkpt lat="44.32129" lon="6.03623">
        <ele>662.958681</ele>
        <time>2019-09-11T09:13:26Z</time>
      </trkpt>
      <trkpt lat="44.32115" lon="6.03633">
        <ele>663.9586404</ele>
        <time>2019-09-11T09:13:30Z</time>
      </trkpt>
      <trkpt lat="44.321" lon="6.03648">
        <ele>663.9585608</ele>
        <time>2019-09-11T09:13:35Z</time>
      </trkpt>
      <trkpt lat="44.32086" lon="6.03659">
        <ele>662.9585167</ele>
        <time>2019-09-11T09:13:39Z</time>
      </trkpt>
      <trkpt lat="44.32071" lon="6.03671">
        <ele>661.9584682</ele>
        <time>2019-09-11T09:13:44Z</time>
      </trkpt>
      <trkpt lat="44.3206" lon="6.03679">
        <ele>662.9584399</ele>
        <time>2019-09-11T09:13:48Z</time>
      </trkpt>
      <trkpt lat="44.32053" lon="6.03693">
        <ele>662.9583309</ele>
        <time>2019-09-11T09:13:52Z</time>
      </trkpt>
      <trkpt lat="44.3204" lon="6.03707">
        <ele>662.9582378</ele>
        <time>2019-09-11T09:13:57Z</time>
      </trkpt>
      <trkpt lat="44.32027" lon="6.03715">
        <ele>663.9582334</ele>
        <time>2019-09-11T09:14:01Z</time>
      </trkpt>
      <trkpt lat="44.32013" lon="6.03718">
        <ele>662.9582835</ele>
        <time>2019-09-11T09:14:05Z</time>
      </trkpt>
      <trkpt lat="44.31999" lon="6.03723">
        <ele>661.9583113</ele>
        <time>2019-09-11T09:14:09Z</time>
      </trkpt>
      <trkpt lat="44.31985" lon="6.03724">
        <ele>660.9583793</ele>
        <time>2019-09-11T09:14:13Z</time>
      </trkpt>
      <trkpt lat="44.31967" lon="6.03725">
        <ele>659.9584738</ele>
        <time>2019-09-11T09:14:18Z</time>
      </trkpt>
      <trkpt lat="44.3195" lon="6.03727">
        <ele>658.958555</ele>
        <time>2019-09-11T09:14:22Z</time>
      </trkpt>
      <trkpt lat="44.31937" lon="6.03729">
        <ele>659.9586149</ele>
        <time>2019-09-11T09:14:26Z</time>
      </trkpt>
      <trkpt lat="44.31923" lon="6.03733">
        <ele>659.9586551</ele>
        <time>2019-09-11T09:14:30Z</time>
      </trkpt>
      <trkpt lat="44.3191" lon="6.03746">
        <ele>660.9585886</ele>
        <time>2019-09-11T09:14:34Z</time>
      </trkpt>
      <trkpt lat="44.31895" lon="6.03764">
        <ele>661.9584768</ele>
        <time>2019-09-11T09:14:39Z</time>
      </trkpt>
      <trkpt lat="44.31883" lon="6.03779">
        <ele>661.958383</ele>
        <time>2019-09-11T09:14:43Z</time>
      </trkpt>
      <trkpt lat="44.31872" lon="6.03796">
        <ele>662.9582632</ele>
        <time>2019-09-11T09:14:47Z</time>
      </trkpt>
      <trkpt lat="44.31859" lon="6.03811">
        <ele>663.9581798</ele>
        <time>2019-09-11T09:14:52Z</time>
      </trkpt>
      <trkpt lat="44.31849" lon="6.03822">
        <ele>663.9581205</ele>
        <time>2019-09-11T09:14:56Z</time>
      </trkpt>
      <trkpt lat="44.31841" lon="6.0383">
        <ele>663.9580788</ele>
        <time>2019-09-11T09:15:00Z</time>
      </trkpt>
      <trkpt lat="44.31827" lon="6.03837">
        <ele>663.9580858</ele>
        <time>2019-09-11T09:15:05Z</time>
      </trkpt>
      <trkpt lat="44.3182" lon="6.03844">
        <ele>663.9580593</ele>
        <time>2019-09-11T09:15:09Z</time>
      </trkpt>
      <trkpt lat="44.31811" lon="6.03855">
        <ele>665.9579863</ele>
        <time>2019-09-11T09:15:14Z</time>
      </trkpt>
      <trkpt lat="44.31802" lon="6.03864">
        <ele>664.9579517</ele>
        <time>2019-09-11T09:15:18Z</time>
      </trkpt>
      <trkpt lat="44.31786" lon="6.03877">
        <ele>665.9579103</ele>
        <time>2019-09-11T09:15:22Z</time>
      </trkpt>
      <trkpt lat="44.31774" lon="6.03887">
        <ele>665.9578715</ele>
        <time>2019-09-11T09:15:26Z</time>
      </trkpt>
      <trkpt lat="44.31765" lon="6.03895">
        <ele>665.957848</ele>
        <time>2019-09-11T09:15:30Z</time>
      </trkpt>
      <trkpt lat="44.31753" lon="6.03899">
        <ele>664.9578744</ele>
        <time>2019-09-11T09:15:34Z</time>
      </trkpt>
      <trkpt lat="44.31743" lon="6.03903">
        <ele>665.9578907</ele>
        <time>2019-09-11T09:15:38Z</time>
      </trkpt>
      <trkpt lat="44.31729" lon="6.0391">
        <ele>666.9578992</ele>
        <time>2019-09-11T09:15:43Z</time>
      </trkpt>
      <trkpt lat="44.31718" lon="6.03918">
        <ele>667.9578942</ele>
        <time>2019-09-11T09:15:47Z</time>
      </trkpt>
      <trkpt lat="44.31709" lon="6.03926">
        <ele>668.9578555</ele>
        <time>2019-09-11T09:15:51Z</time>
      </trkpt>
      <trkpt lat="44.317" lon="6.03936">
        <ele>668.957805</ele>
        <time>2019-09-11T09:15:55Z</time>
      </trkpt>
      <trkpt lat="44.3169" lon="6.03946">
        <ele>668.9577675</ele>
        <time>2019-09-11T09:15:59Z</time>
      </trkpt>
      <trkpt lat="44.31676" lon="6.03954">
        <ele>668.9577638</ele>
        <time>2019-09-11T09:16:03Z</time>
      </trkpt>
      <trkpt lat="44.31661" lon="6.03964">
        <ele>667.9577556</ele>
        <time>2019-09-11T09:16:08Z</time>
      </trkpt>
      <trkpt lat="44.31649" lon="6.03972">
        <ele>667.9577513</ele>
        <time>2019-09-11T09:16:12Z</time>
      </trkpt>
      <trkpt lat="44.31626" lon="6.03983">
        <ele>664.9577746</ele>
        <time>2019-09-11T09:16:17Z</time>
      </trkpt>
      <trkpt lat="44.31606" lon="6.03991">
        <ele>662.9578192</ele>
        <time>2019-09-11T09:16:22Z</time>
      </trkpt>
      <trkpt lat="44.31589" lon="6.03995">
        <ele>658.9578766</ele>
        <time>2019-09-11T09:16:26Z</time>
      </trkpt>
      <trkpt lat="44.31573" lon="6.04003">
        <ele>659.9579063</ele>
        <time>2019-09-11T09:16:31Z</time>
      </trkpt>
      <trkpt lat="44.3156" lon="6.04011">
        <ele>658.9579024</ele>
        <time>2019-09-11T09:16:35Z</time>
      </trkpt>
      <trkpt lat="44.31547" lon="6.04018">
        <ele>658.9579116</ele>
        <time>2019-09-11T09:16:39Z</time>
      </trkpt>
      <trkpt lat="44.31533" lon="6.04019">
        <ele>658.9579903</ele>
        <time>2019-09-11T09:16:43Z</time>
      </trkpt>
      <trkpt lat="44.31518" lon="6.04018">
        <ele>657.958097</ele>
        <time>2019-09-11T09:16:47Z</time>
      </trkpt>
      <trkpt lat="44.31501" lon="6.04019">
        <ele>656.9581975</ele>
        <time>2019-09-11T09:16:51Z</time>
      </trkpt>
      <trkpt lat="44.31484" lon="6.0402">
        <ele>656.958296</ele>
        <time>2019-09-11T09:16:55Z</time>
      </trkpt>
      <trkpt lat="44.31471" lon="6.04019">
        <ele>656.9583847</ele>
        <time>2019-09-11T09:17:00Z</time>
      </trkpt>
      <trkpt lat="44.31451" lon="6.04015">
        <ele>654.9585576</ele>
        <time>2019-09-11T09:17:04Z</time>
      </trkpt>
      <trkpt lat="44.31431" lon="6.04007">
        <ele>652.958768</ele>
        <time>2019-09-11T09:17:09Z</time>
      </trkpt>
      <trkpt lat="44.3142" lon="6.04001">
        <ele>652.9589092</ele>
        <time>2019-09-11T09:17:13Z</time>
      </trkpt>
      <trkpt lat="44.31413" lon="6.03997">
        <ele>654.9589921</ele>
        <time>2019-09-11T09:17:43Z</time>
      </trkpt>
      <trkpt lat="44.31408" lon="6.03988">
        <ele>655.9591129</ele>
        <time>2019-09-11T09:17:46Z</time>
      </trkpt>
      <trkpt lat="44.31398" lon="6.03978">
        <ele>655.959284</ele>
        <time>2019-09-11T09:17:51Z</time>
      </trkpt>
      <trkpt lat="44.31392" lon="6.03972">
        <ele>654.959375</ele>
        <time>2019-09-11T09:17:56Z</time>
      </trkpt>
      <trkpt lat="44.31385" lon="6.03966">
        <ele>659.959481</ele>
        <time>2019-09-11T09:18:10Z</time>
      </trkpt>
      <trkpt lat="44.31379" lon="6.03959">
        <ele>660.9595942</ele>
        <time>2019-09-11T09:18:14Z</time>
      </trkpt>
      <trkpt lat="44.31361" lon="6.03955">
        <ele>662.9597509</ele>
        <time>2019-09-11T09:18:19Z</time>
      </trkpt>
      <trkpt lat="44.31348" lon="6.03958">
        <ele>663.959799</ele>
        <time>2019-09-11T09:18:24Z</time>
      </trkpt>
      <trkpt lat="44.31338" lon="6.03953">
        <ele>663.9599151</ele>
        <time>2019-09-11T09:18:28Z</time>
      </trkpt>
      <trkpt lat="44.31324" lon="6.03946">
        <ele>663.9600695</ele>
        <time>2019-09-11T09:18:32Z</time>
      </trkpt>
      <trkpt lat="44.31307" lon="6.03945">
        <ele>663.9601844</ele>
        <time>2019-09-11T09:18:36Z</time>
      </trkpt>
      <trkpt lat="44.3129" lon="6.03948">
        <ele>661.9602663</ele>
        <time>2019-09-11T09:18:41Z</time>
      </trkpt>
      <trkpt lat="44.31272" lon="6.03951">
        <ele>661.9603503</ele>
        <time>2019-09-11T09:18:46Z</time>
      </trkpt>
      <trkpt lat="44.3126" lon="6.03956">
        <ele>661.9603728</ele>
        <time>2019-09-11T09:18:50Z</time>
      </trkpt>
      <trkpt lat="44.31251" lon="6.03959">
        <ele>661.960399</ele>
        <time>2019-09-11T09:18:54Z</time>
      </trkpt>
      <trkpt lat="44.31239" lon="6.03957">
        <ele>661.9604985</ele>
        <time>2019-09-11T09:18:58Z</time>
      </trkpt>
      <trkpt lat="44.31227" lon="6.03965">
        <ele>660.9604968</ele>
        <time>2019-09-11T09:19:03Z</time>
      </trkpt>
      <trkpt lat="44.31219" lon="6.03973">
        <ele>663.9604668</ele>
        <time>2019-09-11T09:19:06Z</time>
      </trkpt>
      <trkpt lat="44.31207" lon="6.03976">
        <ele>663.9605121</ele>
        <time>2019-09-11T09:19:09Z</time>
      </trkpt>
      <trkpt lat="44.31188" lon="6.03982">
        <ele>662.9605822</ele>
        <time>2019-09-11T09:19:14Z</time>
      </trkpt>
      <trkpt lat="44.31175" lon="6.03994">
        <ele>661.960541</ele>
        <time>2019-09-11T09:19:19Z</time>
      </trkpt>
      <trkpt lat="44.31166" lon="6.03996">
        <ele>661.9605769</ele>
        <time>2019-09-11T09:19:23Z</time>
      </trkpt>
      <trkpt lat="44.31151" lon="6.04">
        <ele>662.9606376</ele>
        <time>2019-09-11T09:19:28Z</time>
      </trkpt>
      <trkpt lat="44.31137" lon="6.04007">
        <ele>661.9606573</ele>
        <time>2019-09-11T09:19:33Z</time>
      </trkpt>
      <trkpt lat="44.31124" lon="6.04009">
        <ele>661.9607207</ele>
        <time>2019-09-11T09:19:37Z</time>
      </trkpt>
      <trkpt lat="44.31112" lon="6.04012">
        <ele>660.9607628</ele>
        <time>2019-09-11T09:19:41Z</time>
      </trkpt>
      <trkpt lat="44.31096" lon="6.04016">
        <ele>658.9608297</ele>
        <time>2019-09-11T09:19:46Z</time>
      </trkpt>
      <trkpt lat="44.31085" lon="6.04024">
        <ele>656.9608223</ele>
        <time>2019-09-11T09:19:51Z</time>
      </trkpt>
      <trkpt lat="44.31075" lon="6.04029">
        <ele>657.9608315</ele>
        <time>2019-09-11T09:19:55Z</time>
      </trkpt>
      <trkpt lat="44.31065" lon="6.04031">
        <ele>655.960888</ele>
        <time>2019-09-11T09:19:59Z</time>
      </trkpt>
      <trkpt lat="44.31054" lon="6.04029">
        <ele>656.96098</ele>
        <time>2019-09-11T09:20:04Z</time>
      </trkpt>
      <trkpt lat="44.31045" lon="6.04031">
        <ele>658.9610177</ele>
        <time>2019-09-11T09:20:09Z</time>
      </trkpt>
      <trkpt lat="44.31041" lon="6.04039">
        <ele>656.9609646</ele>
        <time>2019-09-11T09:20:13Z</time>
      </trkpt>
      <trkpt lat="44.31045" lon="6.04059">
        <ele>655.9607464</ele>
        <time>2019-09-11T09:20:18Z</time>
      </trkpt>
      <trkpt lat="44.31046" lon="6.04076">
        <ele>655.960567</ele>
        <time>2019-09-11T09:20:22Z</time>
      </trkpt>
      <trkpt lat="44.31048" lon="6.04094">
        <ele>656.9603836</ele>
        <time>2019-09-11T09:20:26Z</time>
      </trkpt>
      <trkpt lat="44.31048" lon="6.04117">
        <ele>655.9601653</ele>
        <time>2019-09-11T09:20:31Z</time>
      </trkpt>
      <trkpt lat="44.31049" lon="6.04132">
        <ele>656.9600051</ele>
        <time>2019-09-11T09:20:35Z</time>
      </trkpt>
      <trkpt lat="44.3105" lon="6.04149">
        <ele>656.9598404</ele>
        <time>2019-09-11T09:20:39Z</time>
      </trkpt>
      <trkpt lat="44.3105" lon="6.04166">
        <ele>656.9596759</ele>
        <time>2019-09-11T09:20:43Z</time>
      </trkpt>
      <trkpt lat="44.3105" lon="6.04181">
        <ele>657.9595303</ele>
        <time>2019-09-11T09:20:47Z</time>
      </trkpt>
      <trkpt lat="44.31051" lon="6.04199">
        <ele>658.9593479</ele>
        <time>2019-09-11T09:20:52Z</time>
      </trkpt>
      <trkpt lat="44.31052" lon="6.04213">
        <ele>659.9592075</ele>
        <time>2019-09-11T09:20:56Z</time>
      </trkpt>
      <trkpt lat="44.31053" lon="6.04232">
        <ele>660.9590162</ele>
        <time>2019-09-11T09:21:01Z</time>
      </trkpt>
      <trkpt lat="44.31053" lon="6.04245">
        <ele>660.9588839</ele>
        <time>2019-09-11T09:21:06Z</time>
      </trkpt>
      <trkpt lat="44.31056" lon="6.04256">
        <ele>660.9587668</ele>
        <time>2019-09-11T09:24:42Z</time>
      </trkpt>
      <trkpt lat="44.31056" lon="6.04278">
        <ele>658.9585482</ele>
        <time>2019-09-11T09:24:46Z</time>
      </trkpt>
      <trkpt lat="44.31057" lon="6.04302">
        <ele>658.958307</ele>
        <time>2019-09-11T09:24:50Z</time>
      </trkpt>
      <trkpt lat="44.31057" lon="6.04329">
        <ele>658.9580447</ele>
        <time>2019-09-11T09:24:54Z</time>
      </trkpt>
      <trkpt lat="44.31054" lon="6.04354">
        <ele>656.9578276</ele>
        <time>2019-09-11T09:24:58Z</time>
      </trkpt>
      <trkpt lat="44.31051" lon="6.04381">
        <ele>656.9575846</ele>
        <time>2019-09-11T09:25:03Z</time>
      </trkpt>
      <trkpt lat="44.31049" lon="6.04406">
        <ele>656.9573567</ele>
        <time>2019-09-11T09:25:07Z</time>
      </trkpt>
      <trkpt lat="44.31046" lon="6.04435">
        <ele>655.9570993</ele>
        <time>2019-09-11T09:25:11Z</time>
      </trkpt>
      <trkpt lat="44.31041" lon="6.04476">
        <ele>654.9567425</ele>
        <time>2019-09-11T09:25:16Z</time>
      </trkpt>
      <trkpt lat="44.31035" lon="6.04506">
        <ele>654.9564869</ele>
        <time>2019-09-11T09:25:21Z</time>
      </trkpt>
      <trkpt lat="44.31027" lon="6.04532">
        <ele>653.9562993</ele>
        <time>2019-09-11T09:25:25Z</time>
      </trkpt>
      <trkpt lat="44.31019" lon="6.04566">
        <ele>654.956027</ele>
        <time>2019-09-11T09:25:30Z</time>
      </trkpt>
      <trkpt lat="44.31017" lon="6.04597">
        <ele>653.955752</ele>
        <time>2019-09-11T09:25:34Z</time>
      </trkpt>
      <trkpt lat="44.31021" lon="6.04625">
        <ele>653.9554477</ele>
        <time>2019-09-11T09:25:38Z</time>
      </trkpt>
      <trkpt lat="44.31033" lon="6.04655">
        <ele>652.9550645</ele>
        <time>2019-09-11T09:25:43Z</time>
      </trkpt>
      <trkpt lat="44.31046" lon="6.0468">
        <ele>651.9547354</ele>
        <time>2019-09-11T09:25:47Z</time>
      </trkpt>
      <trkpt lat="44.31058" lon="6.04702">
        <ele>651.954426</ele>
        <time>2019-09-11T09:25:51Z</time>
      </trkpt>
      <trkpt lat="44.31069" lon="6.04724">
        <ele>650.9541311</ele>
        <time>2019-09-11T09:25:55Z</time>
      </trkpt>
      <trkpt lat="44.3108" lon="6.04743">
        <ele>650.9538591</ele>
        <time>2019-09-11T09:25:59Z</time>
      </trkpt>
      <trkpt lat="44.31094" lon="6.04767">
        <ele>650.953514</ele>
        <time>2019-09-11T09:26:04Z</time>
      </trkpt>
      <trkpt lat="44.31109" lon="6.04793">
        <ele>651.9531518</ele>
        <time>2019-09-11T09:26:09Z</time>
      </trkpt>
      <trkpt lat="44.31119" lon="6.04809">
        <ele>652.9529169</ele>
        <time>2019-09-11T09:26:14Z</time>
      </trkpt>
      <trkpt lat="44.31126" lon="6.04821">
        <ele>653.9527428</ele>
        <time>2019-09-11T09:26:18Z</time>
      </trkpt>
      <trkpt lat="44.31136" lon="6.04835">
        <ele>654.9525342</ele>
        <time>2019-09-11T09:26:23Z</time>
      </trkpt>
      <trkpt lat="44.31144" lon="6.04851">
        <ele>655.9523129</ele>
        <time>2019-09-11T09:26:28Z</time>
      </trkpt>
      <trkpt lat="44.31152" lon="6.04865">
        <ele>656.9521199</ele>
        <time>2019-09-11T09:26:32Z</time>
      </trkpt>
      <trkpt lat="44.31157" lon="6.04882">
        <ele>657.9519089</ele>
        <time>2019-09-11T09:26:37Z</time>
      </trkpt>
      <trkpt lat="44.31162" lon="6.0489">
        <ele>657.9517818</ele>
        <time>2019-09-11T09:26:41Z</time>
      </trkpt>
      <trkpt lat="44.31168" lon="6.04899">
        <ele>657.9516583</ele>
        <time>2019-09-11T09:27:34Z</time>
      </trkpt>
      <trkpt lat="44.31177" lon="6.04917">
        <ele>657.9514113</ele>
        <time>2019-09-11T09:27:39Z</time>
      </trkpt>
      <trkpt lat="44.31185" lon="6.04935">
        <ele>656.9511664</ele>
        <time>2019-09-11T09:27:43Z</time>
      </trkpt>
      <trkpt lat="44.31196" lon="6.04956">
        <ele>655.9508626</ele>
        <time>2019-09-11T09:27:48Z</time>
      </trkpt>
      <trkpt lat="44.31207" lon="6.04979">
        <ele>656.9505599</ele>
        <time>2019-09-11T09:27:53Z</time>
      </trkpt>
      <trkpt lat="44.31216" lon="6.04996">
        <ele>656.9503121</ele>
        <time>2019-09-11T09:27:57Z</time>
      </trkpt>
      <trkpt lat="44.31224" lon="6.05013">
        <ele>656.9500747</ele>
        <time>2019-09-11T09:28:01Z</time>
      </trkpt>
      <trkpt lat="44.31235" lon="6.05033">
        <ele>657.9497911</ele>
        <time>2019-09-11T09:28:06Z</time>
      </trkpt>
      <trkpt lat="44.31246" lon="6.05054">
        <ele>659.949491</ele>
        <time>2019-09-11T09:28:11Z</time>
      </trkpt>
      <trkpt lat="44.31256" lon="6.05066">
        <ele>660.9492934</ele>
        <time>2019-09-11T09:28:15Z</time>
      </trkpt>
      <trkpt lat="44.31266" lon="6.05079">
        <ele>660.9490869</ele>
        <time>2019-09-11T09:28:20Z</time>
      </trkpt>
      <trkpt lat="44.31267" lon="6.05091">
        <ele>662.9489533</ele>
        <time>2019-09-11T09:28:49Z</time>
      </trkpt>
      <trkpt lat="44.31275" lon="6.05109">
        <ele>661.9487061</ele>
        <time>2019-09-11T09:28:53Z</time>
      </trkpt>
      <trkpt lat="44.31284" lon="6.05129">
        <ele>662.9484336</ele>
        <time>2019-09-11T09:28:58Z</time>
      </trkpt>
      <trkpt lat="44.31293" lon="6.0515">
        <ele>662.9481448</ele>
        <time>2019-09-11T09:29:02Z</time>
      </trkpt>
      <trkpt lat="44.31302" lon="6.05171">
        <ele>660.9478571</ele>
        <time>2019-09-11T09:29:06Z</time>
      </trkpt>
      <trkpt lat="44.31309" lon="6.05193">
        <ele>660.9475782</ele>
        <time>2019-09-11T09:29:10Z</time>
      </trkpt>
      <trkpt lat="44.31317" lon="6.05217">
        <ele>659.9472712</ele>
        <time>2019-09-11T09:29:14Z</time>
      </trkpt>
      <trkpt lat="44.31325" lon="6.05238">
        <ele>659.946997</ele>
        <time>2019-09-11T09:29:19Z</time>
      </trkpt>
      <trkpt lat="44.31332" lon="6.05263">
        <ele>661.9466751</ele>
        <time>2019-09-11T09:29:23Z</time>
      </trkpt>
      <trkpt lat="44.31339" lon="6.05282">
        <ele>662.9464333</ele>
        <time>2019-09-11T09:29:28Z</time>
      </trkpt>
      <trkpt lat="44.31347" lon="6.05305">
        <ele>661.9461295</ele>
        <time>2019-09-11T09:29:32Z</time>
      </trkpt>
      <trkpt lat="44.31357" lon="6.05328">
        <ele>660.9458142</ele>
        <time>2019-09-11T09:29:37Z</time>
      </trkpt>
      <trkpt lat="44.31364" lon="6.05345">
        <ele>661.9455832</ele>
        <time>2019-09-11T09:29:41Z</time>
      </trkpt>
      <trkpt lat="44.31363" lon="6.05361">
        <ele>661.9454183</ele>
        <time>2019-09-11T09:29:45Z</time>
      </trkpt>
      <trkpt lat="44.31351" lon="6.05376">
        <ele>663.9453714</ele>
        <time>2019-09-11T09:29:50Z</time>
      </trkpt>
      <trkpt lat="44.3134" lon="6.05385">
        <ele>664.9453779</ele>
        <time>2019-09-11T09:29:55Z</time>
      </trkpt>
      <trkpt lat="44.31329" lon="6.05397">
        <ele>663.9453504</ele>
        <time>2019-09-11T09:29:59Z</time>
      </trkpt>
      <trkpt lat="44.3132" lon="6.0541">
        <ele>664.9452923</ele>
        <time>2019-09-11T09:30:03Z</time>
      </trkpt>
      <trkpt lat="44.31304" lon="6.05426">
        <ele>664.9452759</ele>
        <time>2019-09-11T09:30:08Z</time>
      </trkpt>
      <trkpt lat="44.31292" lon="6.05439">
        <ele>662.9452492</ele>
        <time>2019-09-11T09:30:12Z</time>
      </trkpt>
      <trkpt lat="44.3128" lon="6.05449">
        <ele>661.9452439</ele>
        <time>2019-09-11T09:30:16Z</time>
      </trkpt>
      <trkpt lat="44.31267" lon="6.05467">
        <ele>662.9451857</ele>
        <time>2019-09-11T09:30:20Z</time>
      </trkpt>
      <trkpt lat="44.31256" lon="6.05484">
        <ele>662.9451084</ele>
        <time>2019-09-11T09:30:25Z</time>
      </trkpt>
      <trkpt lat="44.31239" lon="6.05504">
        <ele>661.945065</ele>
        <time>2019-09-11T09:30:30Z</time>
      </trkpt>
      <trkpt lat="44.31223" lon="6.0552">
        <ele>660.9450417</ele>
        <time>2019-09-11T09:30:34Z</time>
      </trkpt>
      <trkpt lat="44.31209" lon="6.05538">
        <ele>659.9449836</ele>
        <time>2019-09-11T09:30:38Z</time>
      </trkpt>
      <trkpt lat="44.31196" lon="6.05565">
        <ele>658.9448312</ele>
        <time>2019-09-11T09:30:43Z</time>
      </trkpt>
      <trkpt lat="44.3119" lon="6.05588">
        <ele>659.944655</ele>
        <time>2019-09-11T09:30:47Z</time>
      </trkpt>
      <trkpt lat="44.31184" lon="6.05607">
        <ele>660.9445236</ele>
        <time>2019-09-11T09:30:51Z</time>
      </trkpt>
      <trkpt lat="44.31176" lon="6.05625">
        <ele>661.9444117</ele>
        <time>2019-09-11T09:30:56Z</time>
      </trkpt>
      <trkpt lat="44.31172" lon="6.05643">
        <ele>662.9442766</ele>
        <time>2019-09-11T09:31:00Z</time>
      </trkpt>
      <trkpt lat="44.31173" lon="6.05659">
        <ele>664.9441081</ele>
        <time>2019-09-11T09:31:04Z</time>
      </trkpt>
      <trkpt lat="44.31177" lon="6.0568">
        <ele>667.9438658</ele>
        <time>2019-09-11T09:31:09Z</time>
      </trkpt>
      <trkpt lat="44.31179" lon="6.05699">
        <ele>668.9436535</ele>
        <time>2019-09-11T09:31:14Z</time>
      </trkpt>
      <trkpt lat="44.31181" lon="6.05714">
        <ele>671.9434979</ele>
        <time>2019-09-11T09:31:18Z</time>
      </trkpt>
      <trkpt lat="44.31178" lon="6.05734">
        <ele>672.9433222</ele>
        <time>2019-09-11T09:31:23Z</time>
      </trkpt>
      <trkpt lat="44.31172" lon="6.05754">
        <ele>673.9431738</ele>
        <time>2019-09-11T09:31:28Z</time>
      </trkpt>
      <trkpt lat="44.31168" lon="6.05768">
        <ele>675.9430705</ele>
        <time>2019-09-11T09:31:32Z</time>
      </trkpt>
      <trkpt lat="44.31168" lon="6.05787">
        <ele>677.9428888</ele>
        <time>2019-09-11T09:31:37Z</time>
      </trkpt>
      <trkpt lat="44.31173" lon="6.058">
        <ele>681.9427108</ele>
        <time>2019-09-11T09:31:41Z</time>
      </trkpt>
      <trkpt lat="44.31181" lon="6.05813">
        <ele>684.9425121</ele>
        <time>2019-09-11T09:31:46Z</time>
      </trkpt>
      <trkpt lat="44.31193" lon="6.05823">
        <ele>685.9423078</ele>
        <time>2019-09-11T09:31:50Z</time>
      </trkpt>
      <trkpt lat="44.31204" lon="6.0583">
        <ele>686.9421371</ele>
        <time>2019-09-11T09:31:54Z</time>
      </trkpt>
      <trkpt lat="44.31212" lon="6.05839">
        <ele>687.9419629</ele>
        <time>2019-09-11T09:31:58Z</time>
      </trkpt>
      <trkpt lat="44.31222" lon="6.05855">
        <ele>688.9417131</ele>
        <time>2019-09-11T09:32:03Z</time>
      </trkpt>
      <trkpt lat="44.3123" lon="6.05871">
        <ele>689.9414709</ele>
        <time>2019-09-11T09:32:08Z</time>
      </trkpt>
      <trkpt lat="44.31235" lon="6.05885">
        <ele>691.9412869</ele>
        <time>2019-09-11T09:32:12Z</time>
      </trkpt>
      <trkpt lat="44.31238" lon="6.05899">
        <ele>693.9411221</ele>
        <time>2019-09-11T09:32:16Z</time>
      </trkpt>
      <trkpt lat="44.31239" lon="6.05914">
        <ele>693.9409682</ele>
        <time>2019-09-11T09:32:20Z</time>
      </trkpt>
      <trkpt lat="44.31242" lon="6.05928">
        <ele>695.940804</ele>
        <time>2019-09-11T09:32:24Z</time>
      </trkpt>
      <trkpt lat="44.31246" lon="6.05942">
        <ele>697.9406212</ele>
        <time>2019-09-11T09:32:28Z</time>
      </trkpt>
      <trkpt lat="44.31248" lon="6.05956">
        <ele>698.9404618</ele>
        <time>2019-09-11T09:32:32Z</time>
      </trkpt>
      <trkpt lat="44.31247" lon="6.05975">
        <ele>698.9402791</ele>
        <time>2019-09-11T09:32:37Z</time>
      </trkpt>
      <trkpt lat="44.31247" lon="6.05989">
        <ele>698.9401399</ele>
        <time>2019-09-11T09:32:41Z</time>
      </trkpt>
      <trkpt lat="44.31248" lon="6.06007">
        <ele>700.9399489</ele>
        <time>2019-09-11T09:32:46Z</time>
      </trkpt>
      <trkpt lat="44.31247" lon="6.06026">
        <ele>701.9397659</ele>
        <time>2019-09-11T09:32:50Z</time>
      </trkpt>
      <trkpt lat="44.3124" lon="6.06038">
        <ele>702.9397139</ele>
        <time>2019-09-11T09:32:55Z</time>
      </trkpt>
      <trkpt lat="44.31227" lon="6.0604">
        <ele>702.9398254</ele>
        <time>2019-09-11T09:33:00Z</time>
      </trkpt>
      <trkpt lat="44.31217" lon="6.06034">
        <ele>701.9399799</ele>
        <time>2019-09-11T09:33:04Z</time>
      </trkpt>
      <trkpt lat="44.31204" lon="6.06027">
        <ele>701.940173</ele>
        <time>2019-09-11T09:33:09Z</time>
      </trkpt>
      <trkpt lat="44.31189" lon="6.06023">
        <ele>703.9403546</ele>
        <time>2019-09-11T09:33:14Z</time>
      </trkpt>
      <trkpt lat="44.3118" lon="6.0602">
        <ele>703.9404746</ele>
        <time>2019-09-11T09:33:18Z</time>
      </trkpt>
      <trkpt lat="44.31173" lon="6.06022">
        <ele>704.9405293</ele>
        <time>2019-09-11T09:33:22Z</time>
      </trkpt>
      <trkpt lat="44.31165" lon="6.06028">
        <ele>704.9405446</ele>
        <time>2019-09-11T09:33:26Z</time>
      </trkpt>
      <trkpt lat="44.31156" lon="6.06039">
        <ele>705.940519</ele>
        <time>2019-09-11T09:33:31Z</time>
      </trkpt>
      <trkpt lat="44.31145" lon="6.06042">
        <ele>707.9405962</ele>
        <time>2019-09-11T09:33:35Z</time>
      </trkpt>
      <trkpt lat="44.31135" lon="6.06042">
        <ele>709.9406892</ele>
        <time>2019-09-11T09:33:40Z</time>
      </trkpt>
      <trkpt lat="44.31125" lon="6.06041">
        <ele>709.9407963</ele>
        <time>2019-09-11T09:33:44Z</time>
      </trkpt>
      <trkpt lat="44.31115" lon="6.06037">
        <ele>710.9409336</ele>
        <time>2019-09-11T09:33:49Z</time>
      </trkpt>
      <trkpt lat="44.31105" lon="6.06034">
        <ele>708.9410547</ele>
        <time>2019-09-11T09:33:53Z</time>
      </trkpt>
      <trkpt lat="44.31114" lon="6.06029">
        <ele>708.9410234</ele>
        <time>2019-09-11T09:37:06Z</time>
      </trkpt>
      <trkpt lat="44.31108" lon="6.0601">
        <ele>709.9412654</ele>
        <time>2019-09-11T09:37:11Z</time>
      </trkpt>
      <trkpt lat="44.31106" lon="6.05994">
        <ele>710.9414451</ele>
        <time>2019-09-11T09:37:14Z</time>
      </trkpt>
      <trkpt lat="44.31104" lon="6.05977">
        <ele>710.9416232</ele>
        <time>2019-09-11T09:37:19Z</time>
      </trkpt>
      <trkpt lat="44.311" lon="6.05963">
        <ele>710.9418014</ele>
        <time>2019-09-11T09:37:23Z</time>
      </trkpt>
      <trkpt lat="44.31091" lon="6.0595">
        <ele>710.942009</ele>
        <time>2019-09-11T09:37:27Z</time>
      </trkpt>
      <trkpt lat="44.31076" lon="6.05951">
        <ele>712.9421488</ele>
        <time>2019-09-11T09:37:32Z</time>
      </trkpt>
      <trkpt lat="44.31064" lon="6.05955">
        <ele>714.9422231</ele>
        <time>2019-09-11T09:37:36Z</time>
      </trkpt>
      <trkpt lat="44.31048" lon="6.05953">
        <ele>716.9423927</ele>
        <time>2019-09-11T09:37:41Z</time>
      </trkpt>
      <trkpt lat="44.31036" lon="6.05948">
        <ele>720.9425507</ele>
        <time>2019-09-11T09:37:45Z</time>
      </trkpt>
      <trkpt lat="44.31026" lon="6.05939">
        <ele>721.9427334</ele>
        <time>2019-09-11T09:37:50Z</time>
      </trkpt>
      <trkpt lat="44.31017" lon="6.05932">
        <ele>722.9428911</ele>
        <time>2019-09-11T09:37:53Z</time>
      </trkpt>
      <trkpt lat="44.31008" lon="6.05923">
        <ele>724.9430631</ele>
        <time>2019-09-11T09:37:58Z</time>
      </trkpt>
      <trkpt lat="44.31001" lon="6.05911">
        <ele>727.9432506</ele>
        <time>2019-09-11T09:38:02Z</time>
      </trkpt>
      <trkpt lat="44.30992" lon="6.05899">
        <ele>726.9434466</ele>
        <time>2019-09-11T09:38:06Z</time>
      </trkpt>
      <trkpt lat="44.30982" lon="6.05888">
        <ele>726.9436468</ele>
        <time>2019-09-11T09:38:11Z</time>
      </trkpt>
      <trkpt lat="44.30969" lon="6.05878">
        <ele>725.9438573</ele>
        <time>2019-09-11T09:38:14Z</time>
      </trkpt>
      <trkpt lat="44.30959" lon="6.05874">
        <ele>727.9439993</ele>
        <time>2019-09-11T09:38:19Z</time>
      </trkpt>
      <trkpt lat="44.30944" lon="6.0587">
        <ele>728.9441772</ele>
        <time>2019-09-11T09:38:23Z</time>
      </trkpt>
      <trkpt lat="44.3093" lon="6.05866">
        <ele>729.9443466</ele>
        <time>2019-09-11T09:38:28Z</time>
      </trkpt>
      <trkpt lat="44.30918" lon="6.05861">
        <ele>727.9445061</ele>
        <time>2019-09-11T09:38:32Z</time>
      </trkpt>
      <trkpt lat="44.30905" lon="6.05855">
        <ele>727.9446814</ele>
        <time>2019-09-11T09:38:36Z</time>
      </trkpt>
      <trkpt lat="44.30892" lon="6.05843">
        <ele>728.9449137</ele>
        <time>2019-09-11T09:38:41Z</time>
      </trkpt>
      <trkpt lat="44.30882" lon="6.05828">
        <ele>729.9451478</ele>
        <time>2019-09-11T09:38:46Z</time>
      </trkpt>
      <trkpt lat="44.30874" lon="6.05814">
        <ele>730.9453627</ele>
        <time>2019-09-11T09:38:50Z</time>
      </trkpt>
      <trkpt lat="44.30864" lon="6.05802">
        <ele>730.9455688</ele>
        <time>2019-09-11T09:38:54Z</time>
      </trkpt>
      <trkpt lat="44.30851" lon="6.0579">
        <ele>731.9457974</ele>
        <time>2019-09-11T09:38:59Z</time>
      </trkpt>
      <trkpt lat="44.30839" lon="6.05776">
        <ele>727.9460401</ele>
        <time>2019-09-11T09:39:03Z</time>
      </trkpt>
      <trkpt lat="44.30827" lon="6.05763">
        <ele>729.9462713</ele>
        <time>2019-09-11T09:39:07Z</time>
      </trkpt>
      <trkpt lat="44.30818" lon="6.05753">
        <ele>730.9464532</ele>
        <time>2019-09-11T09:39:12Z</time>
      </trkpt>
      <trkpt lat="44.30807" lon="6.05739">
        <ele>731.9466855</ele>
        <time>2019-09-11T09:39:17Z</time>
      </trkpt>
      <trkpt lat="44.30798" lon="6.05729">
        <ele>733.9468521</ele>
        <time>2019-09-11T09:39:21Z</time>
      </trkpt>
      <trkpt lat="44.30788" lon="6.05714">
        <ele>735.9470853</ele>
        <time>2019-09-11T09:39:26Z</time>
      </trkpt>
      <trkpt lat="44.30779" lon="6.05704">
        <ele>736.9472584</ele>
        <time>2019-09-11T09:39:30Z</time>
      </trkpt>
      <trkpt lat="44.30769" lon="6.05689">
        <ele>738.9474856</ele>
        <time>2019-09-11T09:39:35Z</time>
      </trkpt>
      <trkpt lat="44.3076" lon="6.05679">
        <ele>739.947658</ele>
        <time>2019-09-11T09:39:39Z</time>
      </trkpt>
      <trkpt lat="44.30747" lon="6.0567">
        <ele>739.9478657</ele>
        <time>2019-09-11T09:39:44Z</time>
      </trkpt>
      <trkpt lat="44.30735" lon="6.05662">
        <ele>739.9480455</ele>
        <time>2019-09-11T09:39:48Z</time>
      </trkpt>
      <trkpt lat="44.30721" lon="6.05653">
        <ele>738.9482551</ele>
        <time>2019-09-11T09:39:53Z</time>
      </trkpt>
      <trkpt lat="44.30708" lon="6.05645">
        <ele>739.9484509</ele>
        <time>2019-09-11T09:39:58Z</time>
      </trkpt>
      <trkpt lat="44.30698" lon="6.05638">
        <ele>740.9485964</ele>
        <time>2019-09-11T09:40:02Z</time>
      </trkpt>
      <trkpt lat="44.30688" lon="6.05633">
        <ele>742.948737</ele>
        <time>2019-09-11T09:40:06Z</time>
      </trkpt>
      <trkpt lat="44.3068" lon="6.05628">
        <ele>743.9488491</ele>
        <time>2019-09-11T09:40:09Z</time>
      </trkpt>
      <trkpt lat="44.30669" lon="6.05622">
        <ele>747.9490042</ele>
        <time>2019-09-11T09:40:13Z</time>
      </trkpt>
      <trkpt lat="44.3066" lon="6.05615">
        <ele>749.9491474</ele>
        <time>2019-09-11T09:40:18Z</time>
      </trkpt>
      <trkpt lat="44.30649" lon="6.05606">
        <ele>754.9493325</ele>
        <time>2019-09-11T09:40:23Z</time>
      </trkpt>
      <trkpt lat="44.30637" lon="6.05603">
        <ele>755.9494666</ele>
        <time>2019-09-11T09:40:27Z</time>
      </trkpt>
      <trkpt lat="44.30624" lon="6.05601">
        <ele>754.9496084</ele>
        <time>2019-09-11T09:40:32Z</time>
      </trkpt>
      <trkpt lat="44.30609" lon="6.056">
        <ele>752.9497469</ele>
        <time>2019-09-11T09:40:37Z</time>
      </trkpt>
      <trkpt lat="44.30597" lon="6.056">
        <ele>751.9498527</ele>
        <time>2019-09-11T09:40:41Z</time>
      </trkpt>
      <trkpt lat="44.30585" lon="6.05598">
        <ele>751.9499772</ele>
        <time>2019-09-11T09:40:45Z</time>
      </trkpt>
      <trkpt lat="44.30574" lon="6.05589">
        <ele>753.9501583</ele>
        <time>2019-09-11T09:40:50Z</time>
      </trkpt>
      <trkpt lat="44.30564" lon="6.05577">
        <ele>756.9503534</ele>
        <time>2019-09-11T09:40:54Z</time>
      </trkpt>
      <trkpt lat="44.30556" lon="6.05563">
        <ele>754.9505526</ele>
        <time>2019-09-11T09:40:59Z</time>
      </trkpt>
      <trkpt lat="44.30544" lon="6.05549">
        <ele>751.9507801</ele>
        <time>2019-09-11T09:41:04Z</time>
      </trkpt>
      <trkpt lat="44.30531" lon="6.05546">
        <ele>752.9509227</ele>
        <time>2019-09-11T09:41:08Z</time>
      </trkpt>
      <trkpt lat="44.30517" lon="6.05543">
        <ele>752.9510767</ele>
        <time>2019-09-11T09:41:13Z</time>
      </trkpt>
      <trkpt lat="44.30506" lon="6.05534">
        <ele>754.9512417</ele>
        <time>2019-09-11T09:41:18Z</time>
      </trkpt>
      <trkpt lat="44.30499" lon="6.05525">
        <ele>756.9513914</ele>
        <time>2019-09-11T09:41:22Z</time>
      </trkpt>
      <trkpt lat="44.30491" lon="6.0551">
        <ele>757.9515906</ele>
        <time>2019-09-11T09:41:27Z</time>
      </trkpt>
      <trkpt lat="44.3048" lon="6.055">
        <ele>758.9517687</ele>
        <time>2019-09-11T09:41:31Z</time>
      </trkpt>
      <trkpt lat="44.30469" lon="6.05494">
        <ele>756.9519211</ele>
        <time>2019-09-11T09:41:35Z</time>
      </trkpt>
      <trkpt lat="44.30454" lon="6.05496">
        <ele>754.9520391</ele>
        <time>2019-09-11T09:41:40Z</time>
      </trkpt>
      <trkpt lat="44.30443" lon="6.05509">
        <ele>754.9520192</ele>
        <time>2019-09-11T09:41:45Z</time>
      </trkpt>
      <trkpt lat="44.30436" lon="6.05523">
        <ele>754.9519722</ele>
        <time>2019-09-11T09:41:49Z</time>
      </trkpt>
      <trkpt lat="44.30431" lon="6.05538">
        <ele>754.9518777</ele>
        <time>2019-09-11T09:41:53Z</time>
      </trkpt>
      <trkpt lat="44.30432" lon="6.05556">
        <ele>754.9517106</ele>
        <time>2019-09-11T09:41:57Z</time>
      </trkpt>
      <trkpt lat="44.30441" lon="6.05566">
        <ele>753.9515379</ele>
        <time>2019-09-11T09:42:01Z</time>
      </trkpt>
      <trkpt lat="44.3045" lon="6.05581">
        <ele>753.95134</ele>
        <time>2019-09-11T09:42:05Z</time>
      </trkpt>
      <trkpt lat="44.30436" lon="6.05592">
        <ele>752.9513627</ele>
        <time>2019-09-11T09:42:10Z</time>
      </trkpt>
      <trkpt lat="44.3042" lon="6.05597">
        <ele>753.9514653</ele>
        <time>2019-09-11T09:42:14Z</time>
      </trkpt>
      <trkpt lat="44.30404" lon="6.05609">
        <ele>751.9515026</ele>
        <time>2019-09-11T09:42:19Z</time>
      </trkpt>
      <trkpt lat="44.30394" lon="6.05629">
        <ele>752.9514144</ele>
        <time>2019-09-11T09:42:24Z</time>
      </trkpt>
      <trkpt lat="44.30385" lon="6.05656">
        <ele>749.9512668</ele>
        <time>2019-09-11T09:42:28Z</time>
      </trkpt>
      <trkpt lat="44.3037" lon="6.05693">
        <ele>749.9510835</ele>
        <time>2019-09-11T09:42:33Z</time>
      </trkpt>
      <trkpt lat="44.30356" lon="6.05711">
        <ele>750.9510572</ele>
        <time>2019-09-11T09:42:37Z</time>
      </trkpt>
      <trkpt lat="44.30341" lon="6.05718">
        <ele>748.9511336</ele>
        <time>2019-09-11T09:42:41Z</time>
      </trkpt>
      <trkpt lat="44.30334" lon="6.05706">
        <ele>752.9512988</ele>
        <time>2019-09-11T09:42:45Z</time>
      </trkpt>
      <trkpt lat="44.30332" lon="6.05687">
        <ele>751.9514865</ele>
        <time>2019-09-11T09:42:49Z</time>
      </trkpt>
      <trkpt lat="44.30334" lon="6.05662">
        <ele>751.9516733</ele>
        <time>2019-09-11T09:42:54Z</time>
      </trkpt>
      <trkpt lat="44.30332" lon="6.05647">
        <ele>751.9518216</ele>
        <time>2019-09-11T09:42:58Z</time>
      </trkpt>
      <trkpt lat="44.30316" lon="6.0564">
        <ele>749.95203</ele>
        <time>2019-09-11T09:43:02Z</time>
      </trkpt>
      <trkpt lat="44.30304" lon="6.05637">
        <ele>751.9521566</ele>
        <time>2019-09-11T09:43:06Z</time>
      </trkpt>
      <trkpt lat="44.30288" lon="6.0563">
        <ele>753.952372</ele>
        <time>2019-09-11T09:43:11Z</time>
      </trkpt>
      <trkpt lat="44.30277" lon="6.05612">
        <ele>755.9526181</ele>
        <time>2019-09-11T09:43:16Z</time>
      </trkpt>
      <trkpt lat="44.3027" lon="6.05596">
        <ele>756.9528156</ele>
        <time>2019-09-11T09:43:20Z</time>
      </trkpt>
      <trkpt lat="44.30262" lon="6.05583">
        <ele>758.9529982</ele>
        <time>2019-09-11T09:43:24Z</time>
      </trkpt>
      <trkpt lat="44.30253" lon="6.05571">
        <ele>759.9531804</ele>
        <time>2019-09-11T09:43:28Z</time>
      </trkpt>
      <trkpt lat="44.30241" lon="6.05558">
        <ele>758.9533968</ele>
        <time>2019-09-11T09:43:33Z</time>
      </trkpt>
      <trkpt lat="44.30231" lon="6.05551">
        <ele>759.953547</ele>
        <time>2019-09-11T09:43:37Z</time>
      </trkpt>
      <trkpt lat="44.30216" lon="6.05543">
        <ele>761.9537382</ele>
        <time>2019-09-11T09:43:42Z</time>
      </trkpt>
      <trkpt lat="44.30205" lon="6.05538">
        <ele>761.9538776</ele>
        <time>2019-09-11T09:43:46Z</time>
      </trkpt>
      <trkpt lat="44.30194" lon="6.05532">
        <ele>761.9540215</ele>
        <time>2019-09-11T09:43:50Z</time>
      </trkpt>
      <trkpt lat="44.3018" lon="6.05525">
        <ele>761.9542061</ele>
        <time>2019-09-11T09:43:55Z</time>
      </trkpt>
      <trkpt lat="44.30165" lon="6.0552">
        <ele>762.954386</ele>
        <time>2019-09-11T09:44:00Z</time>
      </trkpt>
      <trkpt lat="44.30156" lon="6.05518">
        <ele>763.9544793</ele>
        <time>2019-09-11T09:44:04Z</time>
      </trkpt>
      <trkpt lat="44.30146" lon="6.0552">
        <ele>761.9545488</ele>
        <time>2019-09-11T09:44:08Z</time>
      </trkpt>
      <trkpt lat="44.30134" lon="6.0553">
        <ele>758.9545715</ele>
        <time>2019-09-11T09:44:12Z</time>
      </trkpt>
      <trkpt lat="44.30125" lon="6.0554">
        <ele>757.9545697</ele>
        <time>2019-09-11T09:44:16Z</time>
      </trkpt>
      <trkpt lat="44.3011" lon="6.05549">
        <ele>756.9546328</ele>
        <time>2019-09-11T09:44:21Z</time>
      </trkpt>
      <trkpt lat="44.30096" lon="6.05552">
        <ele>756.9547283</ele>
        <time>2019-09-11T09:44:25Z</time>
      </trkpt>
      <trkpt lat="44.30083" lon="6.05558">
        <ele>758.9547995</ele>
        <time>2019-09-11T09:44:30Z</time>
      </trkpt>
      <trkpt lat="44.30071" lon="6.05566">
        <ele>759.9548352</ele>
        <time>2019-09-11T09:44:35Z</time>
      </trkpt>
      <trkpt lat="44.30062" lon="6.05577">
        <ele>760.9548353</ele>
        <time>2019-09-11T09:44:39Z</time>
      </trkpt>
      <trkpt lat="44.30051" lon="6.05584">
        <ele>763.9548741</ele>
        <time>2019-09-11T09:44:44Z</time>
      </trkpt>
      <trkpt lat="44.3004" lon="6.05581">
        <ele>766.9549939</ele>
        <time>2019-09-11T09:44:48Z</time>
      </trkpt>
      <trkpt lat="44.30032" lon="6.05571">
        <ele>769.955149</ele>
        <time>2019-09-11T09:44:52Z</time>
      </trkpt>
      <trkpt lat="44.30024" lon="6.05558">
        <ele>771.9553192</ele>
        <time>2019-09-11T09:44:57Z</time>
      </trkpt>
      <trkpt lat="44.30017" lon="6.05547">
        <ele>772.9554732</ele>
        <time>2019-09-11T09:45:01Z</time>
      </trkpt>
      <trkpt lat="44.30008" lon="6.05533">
        <ele>772.9556706</ele>
        <time>2019-09-11T09:45:06Z</time>
      </trkpt>
      <trkpt lat="44.29997" lon="6.05516">
        <ele>773.9559016</ele>
        <time>2019-09-11T09:45:11Z</time>
      </trkpt>
      <trkpt lat="44.29994" lon="6.05504">
        <ele>773.9560221</ele>
        <time>2019-09-11T09:45:16Z</time>
      </trkpt>
      <trkpt lat="44.2999" lon="6.05485">
        <ele>775.9562083</ele>
        <time>2019-09-11T09:45:21Z</time>
      </trkpt>
      <trkpt lat="44.29993" lon="6.0547">
        <ele>775.9563073</ele>
        <time>2019-09-11T09:45:25Z</time>
      </trkpt>
      <trkpt lat="44.3" lon="6.05455">
        <ele>775.9563585</ele>
        <time>2019-09-11T09:45:29Z</time>
      </trkpt>
      <trkpt lat="44.30007" lon="6.05442">
        <ele>775.9564077</ele>
        <time>2019-09-11T09:45:34Z</time>
      </trkpt>
      <trkpt lat="44.30013" lon="6.0543">
        <ele>776.956448</ele>
        <time>2019-09-11T09:45:39Z</time>
      </trkpt>
      <trkpt lat="44.30021" lon="6.05419">
        <ele>776.9564647</ele>
        <time>2019-09-11T09:45:43Z</time>
      </trkpt>
      <trkpt lat="44.30029" lon="6.05407">
        <ele>777.9564946</ele>
        <time>2019-09-11T09:45:47Z</time>
      </trkpt>
      <trkpt lat="44.30039" lon="6.05393">
        <ele>774.9565227</ele>
        <time>2019-09-11T09:45:52Z</time>
      </trkpt>
      <trkpt lat="44.30044" lon="6.05382">
        <ele>776.9565628</ele>
        <time>2019-09-11T09:45:56Z</time>
      </trkpt>
      <trkpt lat="44.30036" lon="6.05373">
        <ele>774.9567039</ele>
        <time>2019-09-11T09:46:00Z</time>
      </trkpt>
      <trkpt lat="44.30026" lon="6.05376">
        <ele>772.9567683</ele>
        <time>2019-09-11T09:46:04Z</time>
      </trkpt>
      <trkpt lat="44.30014" lon="6.05384">
        <ele>772.9568136</ele>
        <time>2019-09-11T09:46:09Z</time>
      </trkpt>
      <trkpt lat="44.30001" lon="6.05388">
        <ele>773.9568827</ele>
        <time>2019-09-11T09:46:14Z</time>
      </trkpt>
      <trkpt lat="44.29991" lon="6.0539">
        <ele>774.9569575</ele>
        <time>2019-09-11T09:46:18Z</time>
      </trkpt>
      <trkpt lat="44.2998" lon="6.05392">
        <ele>774.9570389</ele>
        <time>2019-09-11T09:46:22Z</time>
      </trkpt>
      <trkpt lat="44.29971" lon="6.05396">
        <ele>775.9570866</ele>
        <time>2019-09-11T09:46:26Z</time>
      </trkpt>
      <trkpt lat="44.29958" lon="6.05403">
        <ele>776.9571354</ele>
        <time>2019-09-11T09:46:31Z</time>
      </trkpt>
      <trkpt lat="44.29946" lon="6.05406">
        <ele>776.957217</ele>
        <time>2019-09-11T09:46:35Z</time>
      </trkpt>
      <trkpt lat="44.29935" lon="6.05406">
        <ele>777.9573145</ele>
        <time>2019-09-11T09:46:39Z</time>
      </trkpt>
      <trkpt lat="44.29925" lon="6.05404">
        <ele>781.9574191</ele>
        <time>2019-09-11T09:46:43Z</time>
      </trkpt>
      <trkpt lat="44.29915" lon="6.05401">
        <ele>782.9575271</ele>
        <time>2019-09-11T09:46:47Z</time>
      </trkpt>
      <trkpt lat="44.29906" lon="6.05398">
        <ele>784.9576277</ele>
        <time>2019-09-11T09:46:51Z</time>
      </trkpt>
      <trkpt lat="44.29895" lon="6.05394">
        <ele>783.9577579</ele>
        <time>2019-09-11T09:46:55Z</time>
      </trkpt>
      <trkpt lat="44.29886" lon="6.05392">
        <ele>786.9578446</ele>
        <time>2019-09-11T09:46:59Z</time>
      </trkpt>
      <trkpt lat="44.29877" lon="6.0539">
        <ele>788.9579466</ele>
        <time>2019-09-11T09:47:03Z</time>
      </trkpt>
      <trkpt lat="44.29865" lon="6.05385">
        <ele>790.9580832</ele>
        <time>2019-09-11T09:47:08Z</time>
      </trkpt>
      <trkpt lat="44.29855" lon="6.0538">
        <ele>790.9582074</ele>
        <time>2019-09-11T09:47:12Z</time>
      </trkpt>
      <trkpt lat="44.29846" lon="6.05377">
        <ele>791.9583079</ele>
        <time>2019-09-11T09:47:16Z</time>
      </trkpt>
      <trkpt lat="44.29835" lon="6.05373">
        <ele>794.9584415</ele>
        <time>2019-09-11T09:47:21Z</time>
      </trkpt>
      <trkpt lat="44.29827" lon="6.0537">
        <ele>796.9585261</ele>
        <time>2019-09-11T09:47:25Z</time>
      </trkpt>
      <trkpt lat="44.29818" lon="6.0536">
        <ele>796.9586838</ele>
        <time>2019-09-11T09:47:30Z</time>
      </trkpt>
      <trkpt lat="44.29809" lon="6.05351">
        <ele>798.9588337</ele>
        <time>2019-09-11T09:47:34Z</time>
      </trkpt>
      <trkpt lat="44.29801" lon="6.05339">
        <ele>801.9589833</ele>
        <time>2019-09-11T09:47:38Z</time>
      </trkpt>
      <trkpt lat="44.29796" lon="6.05328">
        <ele>802.9591192</ele>
        <time>2019-09-11T09:47:42Z</time>
      </trkpt>
      <trkpt lat="44.29792" lon="6.05317">
        <ele>804.9592409</ele>
        <time>2019-09-11T09:47:46Z</time>
      </trkpt>
      <trkpt lat="44.29785" lon="6.05303">
        <ele>803.9593991</ele>
        <time>2019-09-11T09:47:50Z</time>
      </trkpt>
      <trkpt lat="44.29779" lon="6.05295">
        <ele>805.9595148</ele>
        <time>2019-09-11T09:47:54Z</time>
      </trkpt>
      <trkpt lat="44.29771" lon="6.05286">
        <ele>805.9596452</ele>
        <time>2019-09-11T09:47:58Z</time>
      </trkpt>
      <trkpt lat="44.29763" lon="6.05279">
        <ele>805.9597772</ele>
        <time>2019-09-11T09:48:03Z</time>
      </trkpt>
      <trkpt lat="44.29752" lon="6.0527">
        <ele>805.9599351</ele>
        <time>2019-09-11T09:48:08Z</time>
      </trkpt>
      <trkpt lat="44.29745" lon="6.05262">
        <ele>806.9600509</ele>
        <time>2019-09-11T09:48:12Z</time>
      </trkpt>
      <trkpt lat="44.29739" lon="6.05253">
        <ele>805.9601709</ele>
        <time>2019-09-11T09:48:16Z</time>
      </trkpt>
      <trkpt lat="44.2973" lon="6.05246">
        <ele>805.960302</ele>
        <time>2019-09-11T09:48:21Z</time>
      </trkpt>
      <trkpt lat="44.29722" lon="6.05248">
        <ele>806.9603526</ele>
        <time>2019-09-11T09:48:25Z</time>
      </trkpt>
      <trkpt lat="44.29715" lon="6.0526">
        <ele>807.9603186</ele>
        <time>2019-09-11T09:48:30Z</time>
      </trkpt>
      <trkpt lat="44.29715" lon="6.05273">
        <ele>807.960227</ele>
        <time>2019-09-11T09:48:34Z</time>
      </trkpt>
      <trkpt lat="44.29715" lon="6.05285">
        <ele>808.9601338</ele>
        <time>2019-09-11T09:48:38Z</time>
      </trkpt>
      <trkpt lat="44.29718" lon="6.05295">
        <ele>808.9600245</ele>
        <time>2019-09-11T09:48:42Z</time>
      </trkpt>
      <trkpt lat="44.29723" lon="6.05307">
        <ele>809.9598971</ele>
        <time>2019-09-11T09:48:46Z</time>
      </trkpt>
      <trkpt lat="44.2973" lon="6.0532">
        <ele>810.9597397</ele>
        <time>2019-09-11T09:48:50Z</time>
      </trkpt>
      <trkpt lat="44.29736" lon="6.05327">
        <ele>810.9596338</ele>
        <time>2019-09-11T09:48:54Z</time>
      </trkpt>
      <trkpt lat="44.29746" lon="6.0534">
        <ele>811.9594551</ele>
        <time>2019-09-11T09:48:59Z</time>
      </trkpt>
      <trkpt lat="44.29751" lon="6.05347">
        <ele>811.9593602</ele>
        <time>2019-09-11T09:49:03Z</time>
      </trkpt>
      <trkpt lat="44.29755" lon="6.05356">
        <ele>811.9592546</ele>
        <time>2019-09-11T09:49:07Z</time>
      </trkpt>
      <trkpt lat="44.29762" lon="6.05365">
        <ele>816.9591305</ele>
        <time>2019-09-11T09:49:12Z</time>
      </trkpt>
      <trkpt lat="44.29766" lon="6.05376">
        <ele>816.9590105</ele>
        <time>2019-09-11T09:49:16Z</time>
      </trkpt>
      <trkpt lat="44.2977" lon="6.05386">
        <ele>815.9588902</ele>
        <time>2019-09-11T09:49:20Z</time>
      </trkpt>
      <trkpt lat="44.29777" lon="6.05401">
        <ele>816.9587243</ele>
        <time>2019-09-11T09:49:25Z</time>
      </trkpt>
      <trkpt lat="44.29784" lon="6.05411">
        <ele>818.9585821</ele>
        <time>2019-09-11T09:49:29Z</time>
      </trkpt>
      <trkpt lat="44.29786" lon="6.05424">
        <ele>817.9584628</ele>
        <time>2019-09-11T09:49:33Z</time>
      </trkpt>
      <trkpt lat="44.29777" lon="6.05425">
        <ele>816.9585419</ele>
        <time>2019-09-11T09:49:38Z</time>
      </trkpt>
      <trkpt lat="44.29769" lon="6.05415">
        <ele>815.9586826</ele>
        <time>2019-09-11T09:49:42Z</time>
      </trkpt>
      <trkpt lat="44.29761" lon="6.05406">
        <ele>815.9588136</ele>
        <time>2019-09-11T09:49:46Z</time>
      </trkpt>
      <trkpt lat="44.29753" lon="6.05397">
        <ele>817.9589572</ele>
        <time>2019-09-11T09:49:51Z</time>
      </trkpt>
      <trkpt lat="44.29744" lon="6.05394">
        <ele>822.9590627</ele>
        <time>2019-09-11T09:49:56Z</time>
      </trkpt>
      <trkpt lat="44.29734" lon="6.05387">
        <ele>825.9591978</ele>
        <time>2019-09-11T09:50:01Z</time>
      </trkpt>
      <trkpt lat="44.29726" lon="6.05384">
        <ele>827.9592959</ele>
        <time>2019-09-11T09:50:05Z</time>
      </trkpt>
      <trkpt lat="44.29714" lon="6.05386">
        <ele>826.9593726</ele>
        <time>2019-09-11T09:50:10Z</time>
      </trkpt>
      <trkpt lat="44.29707" lon="6.05394">
        <ele>826.959372</ele>
        <time>2019-09-11T09:50:14Z</time>
      </trkpt>
      <trkpt lat="44.297" lon="6.05403">
        <ele>827.9593675</ele>
        <time>2019-09-11T09:50:18Z</time>
      </trkpt>
      <trkpt lat="44.29694" lon="6.05412">
        <ele>828.9593529</ele>
        <time>2019-09-11T09:50:22Z</time>
      </trkpt>
      <trkpt lat="44.29686" lon="6.05423">
        <ele>828.9593446</ele>
        <time>2019-09-11T09:50:27Z</time>
      </trkpt>
      <trkpt lat="44.29678" lon="6.05431">
        <ele>829.9593494</ele>
        <time>2019-09-11T09:50:32Z</time>
      </trkpt>
      <trkpt lat="44.2967" lon="6.05437">
        <ele>832.9593712</ele>
        <time>2019-09-11T09:50:36Z</time>
      </trkpt>
      <trkpt lat="44.29663" lon="6.05443">
        <ele>834.959392</ele>
        <time>2019-09-11T09:50:40Z</time>
      </trkpt>
      <trkpt lat="44.29655" lon="6.05446">
        <ele>833.9594411</ele>
        <time>2019-09-11T09:50:44Z</time>
      </trkpt>
      <trkpt lat="44.29647" lon="6.05447">
        <ele>836.9595014</ele>
        <time>2019-09-11T09:50:48Z</time>
      </trkpt>
      <trkpt lat="44.2964" lon="6.05447">
        <ele>836.9595599</ele>
        <time>2019-09-11T09:50:52Z</time>
      </trkpt>
      <trkpt lat="44.2963" lon="6.05451">
        <ele>839.9596176</ele>
        <time>2019-09-11T09:50:57Z</time>
      </trkpt>
      <trkpt lat="44.29621" lon="6.05454">
        <ele>838.9596768</ele>
        <time>2019-09-11T09:51:01Z</time>
      </trkpt>
      <trkpt lat="44.29609" lon="6.05461">
        <ele>838.95973</ele>
        <time>2019-09-11T09:51:06Z</time>
      </trkpt>
      <trkpt lat="44.29601" lon="6.05471">
        <ele>839.9597281</ele>
        <time>2019-09-11T09:51:11Z</time>
      </trkpt>
      <trkpt lat="44.29595" lon="6.05483">
        <ele>841.9596934</ele>
        <time>2019-09-11T09:51:15Z</time>
      </trkpt>
      <trkpt lat="44.2959" lon="6.05497">
        <ele>842.9596276</ele>
        <time>2019-09-11T09:51:19Z</time>
      </trkpt>
      <trkpt lat="44.29586" lon="6.0551">
        <ele>843.959566</ele>
        <time>2019-09-11T09:51:23Z</time>
      </trkpt>
      <trkpt lat="44.29583" lon="6.05523">
        <ele>845.9595022</ele>
        <time>2019-09-11T09:51:27Z</time>
      </trkpt>
      <trkpt lat="44.2958" lon="6.05538">
        <ele>849.9594136</ele>
        <time>2019-09-11T09:51:32Z</time>
      </trkpt>
      <trkpt lat="44.29577" lon="6.05551">
        <ele>850.9593496</ele>
        <time>2019-09-11T09:51:36Z</time>
      </trkpt>
      <trkpt lat="44.29577" lon="6.05562">
        <ele>852.959272</ele>
        <time>2019-09-11T09:51:41Z</time>
      </trkpt>
      <trkpt lat="44.29571" lon="6.05568">
        <ele>853.9592816</ele>
        <time>2019-09-11T09:51:45Z</time>
      </trkpt>
      <trkpt lat="44.29558" lon="6.0557">
        <ele>854.9593754</ele>
        <time>2019-09-11T09:51:50Z</time>
      </trkpt>
      <trkpt lat="44.29549" lon="6.0557">
        <ele>855.9594612</ele>
        <time>2019-09-11T09:51:54Z</time>
      </trkpt>
      <trkpt lat="44.2954" lon="6.05569">
        <ele>855.9595459</ele>
        <time>2019-09-11T09:51:58Z</time>
      </trkpt>
      <trkpt lat="44.29529" lon="6.05569">
        <ele>854.959642</ele>
        <time>2019-09-11T09:52:02Z</time>
      </trkpt>
      <trkpt lat="44.29521" lon="6.05571">
        <ele>852.9597036</ele>
        <time>2019-09-11T09:52:06Z</time>
      </trkpt>
      <trkpt lat="44.29508" lon="6.05573">
        <ele>853.9597998</ele>
        <time>2019-09-11T09:52:11Z</time>
      </trkpt>
      <trkpt lat="44.29497" lon="6.05578">
        <ele>852.9598621</ele>
        <time>2019-09-11T09:52:16Z</time>
      </trkpt>
      <trkpt lat="44.29487" lon="6.05585">
        <ele>853.9599035</ele>
        <time>2019-09-11T09:52:21Z</time>
      </trkpt>
      <trkpt lat="44.29479" lon="6.05589">
        <ele>853.9599438</ele>
        <time>2019-09-11T09:52:25Z</time>
      </trkpt>
      <trkpt lat="44.2947" lon="6.05597">
        <ele>854.9599741</ele>
        <time>2019-09-11T09:52:30Z</time>
      </trkpt>
      <trkpt lat="44.29461" lon="6.05606">
        <ele>855.9599856</ele>
        <time>2019-09-11T09:52:35Z</time>
      </trkpt>
      <trkpt lat="44.29455" lon="6.05615">
        <ele>855.9599779</ele>
        <time>2019-09-11T09:52:39Z</time>
      </trkpt>
      <trkpt lat="44.29453" lon="6.05623">
        <ele>856.9599448</ele>
        <time>2019-09-11T09:52:43Z</time>
      </trkpt>
      <trkpt lat="44.29451" lon="6.05641">
        <ele>857.9598271</ele>
        <time>2019-09-11T09:52:48Z</time>
      </trkpt>
      <trkpt lat="44.29451" lon="6.05653">
        <ele>859.9597393</ele>
        <time>2019-09-11T09:52:52Z</time>
      </trkpt>
      <trkpt lat="44.29455" lon="6.05665">
        <ele>860.959617</ele>
        <time>2019-09-11T09:52:56Z</time>
      </trkpt>
      <trkpt lat="44.29455" lon="6.05678">
        <ele>861.9595267</ele>
        <time>2019-09-11T09:53:00Z</time>
      </trkpt>
      <trkpt lat="44.29449" lon="6.05689">
        <ele>863.9595061</ele>
        <time>2019-09-11T09:53:05Z</time>
      </trkpt>
      <trkpt lat="44.29439" lon="6.05692">
        <ele>862.9595734</ele>
        <time>2019-09-11T09:53:09Z</time>
      </trkpt>
      <trkpt lat="44.2943" lon="6.05684">
        <ele>863.9597093</ele>
        <time>2019-09-11T09:53:14Z</time>
      </trkpt>
      <trkpt lat="44.29427" lon="6.05674">
        <ele>862.9598099</ele>
        <time>2019-09-11T09:53:18Z</time>
      </trkpt>
      <trkpt lat="44.2942" lon="6.05665">
        <ele>865.9599369</ele>
        <time>2019-09-11T09:53:22Z</time>
      </trkpt>
      <trkpt lat="44.29412" lon="6.05659">
        <ele>867.9600572</ele>
        <time>2019-09-11T09:53:26Z</time>
      </trkpt>
      <trkpt lat="44.29403" lon="6.05654">
        <ele>868.9601719</ele>
        <time>2019-09-11T09:53:30Z</time>
      </trkpt>
      <trkpt lat="44.29395" lon="6.05649">
        <ele>870.9602734</ele>
        <time>2019-09-11T09:53:34Z</time>
      </trkpt>
      <trkpt lat="44.29387" lon="6.05644">
        <ele>871.9603805</ele>
        <time>2019-09-11T09:53:38Z</time>
      </trkpt>
      <trkpt lat="44.29375" lon="6.0564">
        <ele>871.9605231</ele>
        <time>2019-09-11T09:53:43Z</time>
      </trkpt>
      <trkpt lat="44.29364" lon="6.05634">
        <ele>871.96066</ele>
        <time>2019-09-11T09:53:48Z</time>
      </trkpt>
      <trkpt lat="44.29356" lon="6.0563">
        <ele>872.960765</ele>
        <time>2019-09-11T09:53:52Z</time>
      </trkpt>
      <trkpt lat="44.29346" lon="6.05626">
        <ele>873.9608825</ele>
        <time>2019-09-11T09:53:57Z</time>
      </trkpt>
      <trkpt lat="44.29337" lon="6.0562">
        <ele>874.9609993</ele>
        <time>2019-09-11T09:54:01Z</time>
      </trkpt>
      <trkpt lat="44.29327" lon="6.05613">
        <ele>874.9611357</ele>
        <time>2019-09-11T09:54:06Z</time>
      </trkpt>
      <trkpt lat="44.2932" lon="6.05607">
        <ele>874.9612495</ele>
        <time>2019-09-11T09:54:10Z</time>
      </trkpt>
      <trkpt lat="44.2931" lon="6.05601">
        <ele>873.9613765</ele>
        <time>2019-09-11T09:54:15Z</time>
      </trkpt>
      <trkpt lat="44.29301" lon="6.05599">
        <ele>874.9614754</ele>
        <time>2019-09-11T09:54:19Z</time>
      </trkpt>
      <trkpt lat="44.29288" lon="6.05596">
        <ele>877.96161</ele>
        <time>2019-09-11T09:54:24Z</time>
      </trkpt>
      <trkpt lat="44.29279" lon="6.05595">
        <ele>874.9616919</ele>
        <time>2019-09-11T09:54:28Z</time>
      </trkpt>
      <trkpt lat="44.29271" lon="6.05594">
        <ele>879.9617767</ele>
        <time>2019-09-11T09:54:33Z</time>
      </trkpt>
      <trkpt lat="44.29261" lon="6.05597">
        <ele>878.961842</ele>
        <time>2019-09-11T09:54:37Z</time>
      </trkpt>
      <trkpt lat="44.29252" lon="6.05597">
        <ele>877.9619259</ele>
        <time>2019-09-11T09:54:41Z</time>
      </trkpt>
      <trkpt lat="44.29243" lon="6.05599">
        <ele>877.9619945</ele>
        <time>2019-09-11T09:54:45Z</time>
      </trkpt>
      <trkpt lat="44.29233" lon="6.05601">
        <ele>879.9620667</ele>
        <time>2019-09-11T09:54:50Z</time>
      </trkpt>
      <trkpt lat="44.29221" lon="6.05602">
        <ele>879.9621704</ele>
        <time>2019-09-11T09:54:55Z</time>
      </trkpt>
      <trkpt lat="44.2921" lon="6.05604">
        <ele>879.9622448</ele>
        <time>2019-09-11T09:54:59Z</time>
      </trkpt>
      <trkpt lat="44.292" lon="6.05606">
        <ele>880.9623338</ele>
        <time>2019-09-11T09:55:03Z</time>
      </trkpt>
      <trkpt lat="44.29189" lon="6.05605">
        <ele>880.9624313</ele>
        <time>2019-09-11T09:55:07Z</time>
      </trkpt>
      <trkpt lat="44.29178" lon="6.05605">
        <ele>880.9625261</ele>
        <time>2019-09-11T09:55:12Z</time>
      </trkpt>
      <trkpt lat="44.29169" lon="6.05607">
        <ele>880.9625956</ele>
        <time>2019-09-11T09:55:16Z</time>
      </trkpt>
      <trkpt lat="44.29158" lon="6.05609">
        <ele>880.962682</ele>
        <time>2019-09-11T09:55:21Z</time>
      </trkpt>
      <trkpt lat="44.29148" lon="6.05614">
        <ele>879.9627375</ele>
        <time>2019-09-11T09:55:26Z</time>
      </trkpt>
      <trkpt lat="44.2914" lon="6.05619">
        <ele>880.9627822</ele>
        <time>2019-09-11T09:55:30Z</time>
      </trkpt>
      <trkpt lat="44.2913" lon="6.05626">
        <ele>881.9628211</ele>
        <time>2019-09-11T09:55:34Z</time>
      </trkpt>
      <trkpt lat="44.29121" lon="6.05637">
        <ele>882.9628346</ele>
        <time>2019-09-11T09:55:39Z</time>
      </trkpt>
      <trkpt lat="44.29111" lon="6.05645">
        <ele>882.9628673</ele>
        <time>2019-09-11T09:55:44Z</time>
      </trkpt>
      <trkpt lat="44.29102" lon="6.05651">
        <ele>882.9629067</ele>
        <time>2019-09-11T09:55:49Z</time>
      </trkpt>
      <trkpt lat="44.29095" lon="6.05658">
        <ele>883.9629257</ele>
        <time>2019-09-11T09:55:53Z</time>
      </trkpt>
      <trkpt lat="44.29085" lon="6.05666">
        <ele>883.9629654</ele>
        <time>2019-09-11T09:55:58Z</time>
      </trkpt>
      <trkpt lat="44.29077" lon="6.05673">
        <ele>884.9629911</ele>
        <time>2019-09-11T09:56:02Z</time>
      </trkpt>
      <trkpt lat="44.29066" lon="6.05682">
        <ele>884.9630324</ele>
        <time>2019-09-11T09:56:07Z</time>
      </trkpt>
      <trkpt lat="44.29058" lon="6.05689">
        <ele>884.9630623</ele>
        <time>2019-09-11T09:56:11Z</time>
      </trkpt>
      <trkpt lat="44.2905" lon="6.05699">
        <ele>884.9630773</ele>
        <time>2019-09-11T09:56:15Z</time>
      </trkpt>
      <trkpt lat="44.2904" lon="6.05701">
        <ele>886.9631495</ele>
        <time>2019-09-11T09:56:20Z</time>
      </trkpt>
      <trkpt lat="44.2903" lon="6.05709">
        <ele>886.9631875</ele>
        <time>2019-09-11T09:56:24Z</time>
      </trkpt>
      <trkpt lat="44.29018" lon="6.05714">
        <ele>886.9632654</ele>
        <time>2019-09-11T09:56:28Z</time>
      </trkpt>
      <trkpt lat="44.29009" lon="6.0572">
        <ele>886.9633091</ele>
        <time>2019-09-11T09:56:32Z</time>
      </trkpt>
      <trkpt lat="44.28999" lon="6.05728">
        <ele>886.9633464</ele>
        <time>2019-09-11T09:56:37Z</time>
      </trkpt>
      <trkpt lat="44.28992" lon="6.05742">
        <ele>887.9633216</ele>
        <time>2019-09-11T09:56:41Z</time>
      </trkpt>
      <trkpt lat="44.28987" lon="6.05753">
        <ele>886.9632966</ele>
        <time>2019-09-11T09:56:45Z</time>
      </trkpt>
      <trkpt lat="44.28982" lon="6.05764">
        <ele>892.9632816</ele>
        <time>2019-09-11T09:57:56Z</time>
      </trkpt>
      <trkpt lat="44.28978" lon="6.05773">
        <ele>887.9632531</ele>
        <time>2019-09-11T10:01:30Z</time>
      </trkpt>
      <trkpt lat="44.28972" lon="6.05786">
        <ele>887.9632295</ele>
        <time>2019-09-11T10:01:34Z</time>
      </trkpt>
      <trkpt lat="44.28964" lon="6.05797">
        <ele>888.963237</ele>
        <time>2019-09-11T10:01:38Z</time>
      </trkpt>
      <trkpt lat="44.28957" lon="6.05809">
        <ele>888.9632201</ele>
        <time>2019-09-11T10:01:42Z</time>
      </trkpt>
      <trkpt lat="44.28951" lon="6.05822">
        <ele>890.9631982</ele>
        <time>2019-09-11T10:01:46Z</time>
      </trkpt>
      <trkpt lat="44.28947" lon="6.05837">
        <ele>889.9631371</ele>
        <time>2019-09-11T10:01:50Z</time>
      </trkpt>
      <trkpt lat="44.28945" lon="6.05857">
        <ele>890.9630297</ele>
        <time>2019-09-11T10:01:55Z</time>
      </trkpt>
      <trkpt lat="44.28945" lon="6.05877">
        <ele>891.9629089</ele>
        <time>2019-09-11T10:01:59Z</time>
      </trkpt>
      <trkpt lat="44.28944" lon="6.05895">
        <ele>892.9628034</ele>
        <time>2019-09-11T10:02:04Z</time>
      </trkpt>
      <trkpt lat="44.28942" lon="6.05919">
        <ele>893.9626677</ele>
        <time>2019-09-11T10:02:08Z</time>
      </trkpt>
      <trkpt lat="44.28942" lon="6.05937">
        <ele>893.9625544</ele>
        <time>2019-09-11T10:02:13Z</time>
      </trkpt>
      <trkpt lat="44.28941" lon="6.05958">
        <ele>895.9624389</ele>
        <time>2019-09-11T10:02:18Z</time>
      </trkpt>
      <trkpt lat="44.28937" lon="6.05975">
        <ele>895.9623658</ele>
        <time>2019-09-11T10:02:23Z</time>
      </trkpt>
      <trkpt lat="44.28929" lon="6.05985">
        <ele>896.9623777</ele>
        <time>2019-09-11T10:02:27Z</time>
      </trkpt>
      <trkpt lat="44.28921" lon="6.05998">
        <ele>896.9623769</ele>
        <time>2019-09-11T10:02:32Z</time>
      </trkpt>
      <trkpt lat="44.28916" lon="6.06008">
        <ele>899.9623556</ele>
        <time>2019-09-11T10:02:36Z</time>
      </trkpt>
      <trkpt lat="44.28913" lon="6.06019">
        <ele>899.9623164</ele>
        <time>2019-09-11T10:02:40Z</time>
      </trkpt>
      <trkpt lat="44.28915" lon="6.06032">
        <ele>900.9622154</ele>
        <time>2019-09-11T10:02:45Z</time>
      </trkpt>
      <trkpt lat="44.28918" lon="6.06044">
        <ele>899.9621093</ele>
        <time>2019-09-11T10:02:49Z</time>
      </trkpt>
      <trkpt lat="44.28926" lon="6.06056">
        <ele>899.9619594</ele>
        <time>2019-09-11T10:02:54Z</time>
      </trkpt>
      <trkpt lat="44.28932" lon="6.06066">
        <ele>898.9618438</ele>
        <time>2019-09-11T10:02:58Z</time>
      </trkpt>
      <trkpt lat="44.28935" lon="6.06076">
        <ele>900.9617475</ele>
        <time>2019-09-11T10:03:02Z</time>
      </trkpt>
      <trkpt lat="44.28934" lon="6.06087">
        <ele>901.9616835</ele>
        <time>2019-09-11T10:03:05Z</time>
      </trkpt>
      <trkpt lat="44.28929" lon="6.06099">
        <ele>904.9616563</ele>
        <time>2019-09-11T10:03:10Z</time>
      </trkpt>
      <trkpt lat="44.28921" lon="6.06106">
        <ele>907.9616894</ele>
        <time>2019-09-11T10:03:14Z</time>
      </trkpt>
      <trkpt lat="44.28914" lon="6.06119">
        <ele>907.9616794</ele>
        <time>2019-09-11T10:03:19Z</time>
      </trkpt>
      <trkpt lat="44.28909" lon="6.06132">
        <ele>908.9616466</ele>
        <time>2019-09-11T10:03:23Z</time>
      </trkpt>
      <trkpt lat="44.289" lon="6.06152">
        <ele>906.9616095</ele>
        <time>2019-09-11T10:03:27Z</time>
      </trkpt>
      <trkpt lat="44.28891" lon="6.06182">
        <ele>905.961522</ele>
        <time>2019-09-11T10:03:32Z</time>
      </trkpt>
      <trkpt lat="44.28886" lon="6.06199">
        <ele>907.9614573</ele>
        <time>2019-09-11T10:03:37Z</time>
      </trkpt>
      <trkpt lat="44.2888" lon="6.06216">
        <ele>905.961411</ele>
        <time>2019-09-11T10:03:42Z</time>
      </trkpt>
      <trkpt lat="44.28865" lon="6.06219">
        <ele>904.9615425</ele>
        <time>2019-09-11T10:03:46Z</time>
      </trkpt>
      <trkpt lat="44.2885" lon="6.062">
        <ele>902.9618105</ele>
        <time>2019-09-11T10:03:50Z</time>
      </trkpt>
      <trkpt lat="44.28842" lon="6.06174">
        <ele>899.9620466</ele>
        <time>2019-09-11T10:03:55Z</time>
      </trkpt>
      <trkpt lat="44.28821" lon="6.06155">
        <ele>896.9623759</ele>
        <time>2019-09-11T10:04:00Z</time>
      </trkpt>
      <trkpt lat="44.28799" lon="6.06154">
        <ele>898.9625922</ele>
        <time>2019-09-11T10:04:04Z</time>
      </trkpt>
      <trkpt lat="44.28788" lon="6.06155">
        <ele>899.9626973</ele>
        <time>2019-09-11T10:04:08Z</time>
      </trkpt>
      <trkpt lat="44.28777" lon="6.0615">
        <ele>899.9628406</ele>
        <time>2019-09-11T10:04:12Z</time>
      </trkpt>
      <trkpt lat="44.28765" lon="6.06135">
        <ele>901.9630453</ele>
        <time>2019-09-11T10:04:17Z</time>
      </trkpt>
      <trkpt lat="44.28753" lon="6.06117">
        <ele>901.9632657</ele>
        <time>2019-09-11T10:04:22Z</time>
      </trkpt>
      <trkpt lat="44.28744" lon="6.06103">
        <ele>901.9634393</ele>
        <time>2019-09-11T10:04:26Z</time>
      </trkpt>
      <trkpt lat="44.28733" lon="6.06091">
        <ele>901.9636159</ele>
        <time>2019-09-11T10:04:30Z</time>
      </trkpt>
      <trkpt lat="44.28723" lon="6.06081">
        <ele>903.9637794</ele>
        <time>2019-09-11T10:04:34Z</time>
      </trkpt>
      <trkpt lat="44.28711" lon="6.06076">
        <ele>905.96393</ele>
        <time>2019-09-11T10:04:38Z</time>
      </trkpt>
      <trkpt lat="44.28697" lon="6.0607">
        <ele>905.9640926</ele>
        <time>2019-09-11T10:04:43Z</time>
      </trkpt>
      <trkpt lat="44.28694" lon="6.06056">
        <ele>904.9642062</ele>
        <time>2019-09-11T10:04:47Z</time>
      </trkpt>
      <trkpt lat="44.28696" lon="6.06034">
        <ele>904.9643219</ele>
        <time>2019-09-11T10:04:51Z</time>
      </trkpt>
      <trkpt lat="44.28693" lon="6.06014">
        <ele>905.964465</ele>
        <time>2019-09-11T10:04:55Z</time>
      </trkpt>
      <trkpt lat="44.28685" lon="6.05991">
        <ele>906.9646745</ele>
        <time>2019-09-11T10:05:00Z</time>
      </trkpt>
      <trkpt lat="44.28672" lon="6.0598">
        <ele>906.9648712</ele>
        <time>2019-09-11T10:05:04Z</time>
      </trkpt>
      <trkpt lat="44.28658" lon="6.0597">
        <ele>906.9650601</ele>
        <time>2019-09-11T10:05:08Z</time>
      </trkpt>
      <trkpt lat="44.28644" lon="6.05965">
        <ele>907.9652192</ele>
        <time>2019-09-11T10:05:12Z</time>
      </trkpt>
      <trkpt lat="44.28628" lon="6.05961">
        <ele>906.9653947</ele>
        <time>2019-09-11T10:05:16Z</time>
      </trkpt>
      <trkpt lat="44.28615" lon="6.05958">
        <ele>908.9655384</ele>
        <time>2019-09-11T10:05:20Z</time>
      </trkpt>
      <trkpt lat="44.28602" lon="6.05956">
        <ele>909.9656799</ele>
        <time>2019-09-11T10:05:25Z</time>
      </trkpt>
      <trkpt lat="44.28591" lon="6.05956">
        <ele>910.9657802</ele>
        <time>2019-09-11T10:05:29Z</time>
      </trkpt>
      <trkpt lat="44.2858" lon="6.05957">
        <ele>910.9658846</ele>
        <time>2019-09-11T10:05:33Z</time>
      </trkpt>
      <trkpt lat="44.28567" lon="6.05952">
        <ele>912.966031</ele>
        <time>2019-09-11T10:05:38Z</time>
      </trkpt>
      <trkpt lat="44.28553" lon="6.05942">
        <ele>914.9662178</ele>
        <time>2019-09-11T10:05:43Z</time>
      </trkpt>
      <trkpt lat="44.28544" lon="6.05935">
        <ele>913.9663496</ele>
        <time>2019-09-11T10:05:47Z</time>
      </trkpt>
      <trkpt lat="44.28532" lon="6.05932">
        <ele>912.9664763</ele>
        <time>2019-09-11T10:05:52Z</time>
      </trkpt>
      <trkpt lat="44.28524" lon="6.0594">
        <ele>913.9665152</ele>
        <time>2019-09-11T10:05:56Z</time>
      </trkpt>
      <trkpt lat="44.28519" lon="6.05954">
        <ele>915.9664773</ele>
        <time>2019-09-11T10:06:00Z</time>
      </trkpt>
      <trkpt lat="44.28519" lon="6.05971">
        <ele>916.9663805</ele>
        <time>2019-09-11T10:06:04Z</time>
      </trkpt>
      <trkpt lat="44.28524" lon="6.05989">
        <ele>916.9662339</ele>
        <time>2019-09-11T10:06:09Z</time>
      </trkpt>
      <trkpt lat="44.28522" lon="6.06005">
        <ele>917.9661588</ele>
        <time>2019-09-11T10:06:13Z</time>
      </trkpt>
      <trkpt lat="44.28518" lon="6.06023">
        <ele>919.9660982</ele>
        <time>2019-09-11T10:06:18Z</time>
      </trkpt>
      <trkpt lat="44.28514" lon="6.06038">
        <ele>920.9660565</ele>
        <time>2019-09-11T10:06:22Z</time>
      </trkpt>
      <trkpt lat="44.28511" lon="6.06052">
        <ele>921.9659977</ele>
        <time>2019-09-11T10:06:26Z</time>
      </trkpt>
      <trkpt lat="44.2851" lon="6.06072">
        <ele>922.9659068</ele>
        <time>2019-09-11T10:06:31Z</time>
      </trkpt>
      <trkpt lat="44.28507" lon="6.06085">
        <ele>923.9658627</ele>
        <time>2019-09-11T10:06:35Z</time>
      </trkpt>
      <trkpt lat="44.28502" lon="6.06097">
        <ele>924.9658405</ele>
        <time>2019-09-11T10:06:39Z</time>
      </trkpt>
      <trkpt lat="44.28494" lon="6.06107">
        <ele>925.9658608</ele>
        <time>2019-09-11T10:06:43Z</time>
      </trkpt>
      <trkpt lat="44.28485" lon="6.06121">
        <ele>928.9658717</ele>
        <time>2019-09-11T10:06:48Z</time>
      </trkpt>
      <trkpt lat="44.28479" lon="6.06133">
        <ele>929.9658619</ele>
        <time>2019-09-11T10:06:52Z</time>
      </trkpt>
      <trkpt lat="44.28474" lon="6.06148">
        <ele>930.9658313</ele>
        <time>2019-09-11T10:06:56Z</time>
      </trkpt>
      <trkpt lat="44.28464" lon="6.06155">
        <ele>931.9658797</ele>
        <time>2019-09-11T10:07:00Z</time>
      </trkpt>
      <trkpt lat="44.28452" lon="6.06158">
        <ele>931.9659849</ele>
        <time>2019-09-11T10:07:04Z</time>
      </trkpt>
      <trkpt lat="44.28442" lon="6.06167">
        <ele>933.9660417</ele>
        <time>2019-09-11T10:07:08Z</time>
      </trkpt>
      <trkpt lat="44.28433" lon="6.06183">
        <ele>932.9660383</ele>
        <time>2019-09-11T10:07:13Z</time>
      </trkpt>
      <trkpt lat="44.28423" lon="6.06188">
        <ele>933.9661122</ele>
        <time>2019-09-11T10:07:17Z</time>
      </trkpt>
      <trkpt lat="44.28408" lon="6.06196">
        <ele>934.9662138</ele>
        <time>2019-09-11T10:07:22Z</time>
      </trkpt>
      <trkpt lat="44.28402" lon="6.06204">
        <ele>935.9662288</ele>
        <time>2019-09-11T10:07:25Z</time>
      </trkpt>
      <trkpt lat="44.28395" lon="6.06216">
        <ele>938.966238</ele>
        <time>2019-09-11T10:07:29Z</time>
      </trkpt>
      <trkpt lat="44.28387" lon="6.06228">
        <ele>939.9662519</ele>
        <time>2019-09-11T10:07:33Z</time>
      </trkpt>
      <trkpt lat="44.28379" lon="6.06245">
        <ele>940.9662406</ele>
        <time>2019-09-11T10:07:38Z</time>
      </trkpt>
      <trkpt lat="44.28372" lon="6.06258">
        <ele>940.9662373</ele>
        <time>2019-09-11T10:07:42Z</time>
      </trkpt>
      <trkpt lat="44.28364" lon="6.06269">
        <ele>938.9662589</ele>
        <time>2019-09-11T10:07:46Z</time>
      </trkpt>
      <trkpt lat="44.28353" lon="6.06275">
        <ele>938.966336</ele>
        <time>2019-09-11T10:07:50Z</time>
      </trkpt>
      <trkpt lat="44.28343" lon="6.06288">
        <ele>938.9663657</ele>
        <time>2019-09-11T10:07:55Z</time>
      </trkpt>
      <trkpt lat="44.28337" lon="6.06306">
        <ele>939.9663336</ele>
        <time>2019-09-11T10:08:00Z</time>
      </trkpt>
      <trkpt lat="44.28325" lon="6.06316">
        <ele>939.9664032</ele>
        <time>2019-09-11T10:08:04Z</time>
      </trkpt>
      <trkpt lat="44.28311" lon="6.06311">
        <ele>937.9665712</ele>
        <time>2019-09-11T10:08:08Z</time>
      </trkpt>
      <trkpt lat="44.28307" lon="6.06295">
        <ele>937.9666935</ele>
        <time>2019-09-11T10:08:12Z</time>
      </trkpt>
      <trkpt lat="44.28309" lon="6.06278">
        <ele>937.9667687</ele>
        <time>2019-09-11T10:08:16Z</time>
      </trkpt>
      <trkpt lat="44.28315" lon="6.06262">
        <ele>936.9667861</ele>
        <time>2019-09-11T10:08:20Z</time>
      </trkpt>
      <trkpt lat="44.28323" lon="6.06249">
        <ele>935.966772</ele>
        <time>2019-09-11T10:08:24Z</time>
      </trkpt>
      <trkpt lat="44.28331" lon="6.06239">
        <ele>935.966749</ele>
        <time>2019-09-11T10:08:28Z</time>
      </trkpt>
      <trkpt lat="44.28339" lon="6.06228">
        <ele>936.9667248</ele>
        <time>2019-09-11T10:08:32Z</time>
      </trkpt>
      <trkpt lat="44.28346" lon="6.06209">
        <ele>935.9667654</ele>
        <time>2019-09-11T10:08:36Z</time>
      </trkpt>
      <trkpt lat="44.28349" lon="6.06193">
        <ele>936.9668165</ele>
        <time>2019-09-11T10:08:40Z</time>
      </trkpt>
      <trkpt lat="44.28351" lon="6.06177">
        <ele>936.9668885</ele>
        <time>2019-09-11T10:08:44Z</time>
      </trkpt>
      <trkpt lat="44.2835" lon="6.06161">
        <ele>937.9669827</ele>
        <time>2019-09-11T10:08:48Z</time>
      </trkpt>
      <trkpt lat="44.28349" lon="6.06147">
        <ele>938.9670652</ele>
        <time>2019-09-11T10:08:53Z</time>
      </trkpt>
      <trkpt lat="44.28349" lon="6.06126">
        <ele>939.9671757</ele>
        <time>2019-09-11T10:08:58Z</time>
      </trkpt>
      <trkpt lat="44.28351" lon="6.06111">
        <ele>941.9672342</ele>
        <time>2019-09-11T10:09:02Z</time>
      </trkpt>
      <trkpt lat="44.28346" lon="6.06097">
        <ele>942.9673553</ele>
        <time>2019-09-11T10:09:06Z</time>
      </trkpt>
      <trkpt lat="44.28338" lon="6.06088">
        <ele>943.9674816</ele>
        <time>2019-09-11T10:09:10Z</time>
      </trkpt>
      <trkpt lat="44.28327" lon="6.06089">
        <ele>943.9675858</ele>
        <time>2019-09-11T10:09:14Z</time>
      </trkpt>
      <trkpt lat="44.28317" lon="6.06092">
        <ele>944.967674</ele>
        <time>2019-09-11T10:09:18Z</time>
      </trkpt>
      <trkpt lat="44.28302" lon="6.06092">
        <ele>947.9678147</ele>
        <time>2019-09-11T10:09:23Z</time>
      </trkpt>
      <trkpt lat="44.2829" lon="6.06086">
        <ele>949.9679685</ele>
        <time>2019-09-11T10:09:28Z</time>
      </trkpt>
      <trkpt lat="44.28279" lon="6.06076">
        <ele>951.9681225</ele>
        <time>2019-09-11T10:09:32Z</time>
      </trkpt>
      <trkpt lat="44.28269" lon="6.06067">
        <ele>958.9682622</ele>
        <time>2019-09-11T10:09:37Z</time>
      </trkpt>
      <trkpt lat="44.28266" lon="6.06049">
        <ele>956.9683917</ele>
        <time>2019-09-11T10:09:42Z</time>
      </trkpt>
      <trkpt lat="44.28261" lon="6.06038">
        <ele>957.9685032</ele>
        <time>2019-09-11T10:09:46Z</time>
      </trkpt>
      <trkpt lat="44.28251" lon="6.06033">
        <ele>957.9686213</ele>
        <time>2019-09-11T10:09:50Z</time>
      </trkpt>
      <trkpt lat="44.28242" lon="6.06037">
        <ele>956.9686891</ele>
        <time>2019-09-11T10:09:54Z</time>
      </trkpt>
      <trkpt lat="44.28233" lon="6.06045">
        <ele>957.9687325</ele>
        <time>2019-09-11T10:09:59Z</time>
      </trkpt>
      <trkpt lat="44.28224" lon="6.06058">
        <ele>961.9687528</ele>
        <time>2019-09-11T10:10:04Z</time>
      </trkpt>
      <trkpt lat="44.28216" lon="6.06065">
        <ele>961.968796</ele>
        <time>2019-09-11T10:10:08Z</time>
      </trkpt>
      <trkpt lat="44.28204" lon="6.06062">
        <ele>962.9689213</ele>
        <time>2019-09-11T10:10:12Z</time>
      </trkpt>
      <trkpt lat="44.28202" lon="6.06043">
        <ele>961.9690439</ele>
        <time>2019-09-11T10:10:16Z</time>
      </trkpt>
      <trkpt lat="44.28206" lon="6.06024">
        <ele>963.9690972</ele>
        <time>2019-09-11T10:10:21Z</time>
      </trkpt>
      <trkpt lat="44.28207" lon="6.06009">
        <ele>964.969173</ele>
        <time>2019-09-11T10:10:25Z</time>
      </trkpt>
      <trkpt lat="44.28198" lon="6.06">
        <ele>965.9693016</ele>
        <time>2019-09-11T10:10:29Z</time>
      </trkpt>
      <trkpt lat="44.28185" lon="6.05999">
        <ele>966.9694309</ele>
        <time>2019-09-11T10:10:34Z</time>
      </trkpt>
      <trkpt lat="44.28173" lon="6.06">
        <ele>967.9695359</ele>
        <time>2019-09-11T10:10:39Z</time>
      </trkpt>
      <trkpt lat="44.28164" lon="6.06003">
        <ele>967.9696149</ele>
        <time>2019-09-11T10:10:43Z</time>
      </trkpt>
      <trkpt lat="44.28156" lon="6.06009">
        <ele>969.9696612</ele>
        <time>2019-09-11T10:10:47Z</time>
      </trkpt>
      <trkpt lat="44.28149" lon="6.06016">
        <ele>970.9696886</ele>
        <time>2019-09-11T10:10:51Z</time>
      </trkpt>
      <trkpt lat="44.2814" lon="6.06024">
        <ele>972.9697373</ele>
        <time>2019-09-11T10:10:55Z</time>
      </trkpt>
      <trkpt lat="44.2813" lon="6.06034">
        <ele>974.9697842</ele>
        <time>2019-09-11T10:11:00Z</time>
      </trkpt>
      <trkpt lat="44.2812" lon="6.06046">
        <ele>976.969819</ele>
        <time>2019-09-11T10:11:05Z</time>
      </trkpt>
      <trkpt lat="44.28111" lon="6.06057">
        <ele>979.9698535</ele>
        <time>2019-09-11T10:11:10Z</time>
      </trkpt>
      <trkpt lat="44.28104" lon="6.06067">
        <ele>979.9698675</ele>
        <time>2019-09-11T10:11:14Z</time>
      </trkpt>
      <trkpt lat="44.28097" lon="6.06076">
        <ele>980.9698909</ele>
        <time>2019-09-11T10:11:18Z</time>
      </trkpt>
      <trkpt lat="44.2809" lon="6.06084">
        <ele>981.9699239</ele>
        <time>2019-09-11T10:11:22Z</time>
      </trkpt>
      <trkpt lat="44.28078" lon="6.0609">
        <ele>981.9700115</ele>
        <time>2019-09-11T10:11:27Z</time>
      </trkpt>
      <trkpt lat="44.2807" lon="6.06086">
        <ele>983.9701091</ele>
        <time>2019-09-11T10:11:31Z</time>
      </trkpt>
      <trkpt lat="44.28056" lon="6.0608">
        <ele>980.9702725</ele>
        <time>2019-09-11T10:11:36Z</time>
      </trkpt>
      <trkpt lat="44.28045" lon="6.06075">
        <ele>980.970404</ele>
        <time>2019-09-11T10:11:41Z</time>
      </trkpt>
      <trkpt lat="44.28036" lon="6.06075">
        <ele>979.970494</ele>
        <time>2019-09-11T10:11:45Z</time>
      </trkpt>
      <trkpt lat="44.28028" lon="6.06083">
        <ele>980.9705274</ele>
        <time>2019-09-11T10:11:49Z</time>
      </trkpt>
      <trkpt lat="44.28026" lon="6.06094">
        <ele>983.970491</ele>
        <time>2019-09-11T10:11:53Z</time>
      </trkpt>
      <trkpt lat="44.28029" lon="6.06107">
        <ele>988.9704052</ele>
        <time>2019-09-11T10:11:58Z</time>
      </trkpt>
      <trkpt lat="44.28035" lon="6.06117">
        <ele>989.9702966</ele>
        <time>2019-09-11T10:12:02Z</time>
      </trkpt>
      <trkpt lat="44.28044" lon="6.06129">
        <ele>991.970154</ele>
        <time>2019-09-11T10:12:07Z</time>
      </trkpt>
      <trkpt lat="44.28051" lon="6.06138">
        <ele>992.9700346</ele>
        <time>2019-09-11T10:12:11Z</time>
      </trkpt>
      <trkpt lat="44.2806" lon="6.06146">
        <ele>992.9699094</ele>
        <time>2019-09-11T10:12:15Z</time>
      </trkpt>
      <trkpt lat="44.2807" lon="6.06147">
        <ele>994.9698013</ele>
        <time>2019-09-11T10:12:19Z</time>
      </trkpt>
      <trkpt lat="44.28082" lon="6.06141">
        <ele>995.9697215</ele>
        <time>2019-09-11T10:12:24Z</time>
      </trkpt>
      <trkpt lat="44.28091" lon="6.06132">
        <ele>997.9696745</ele>
        <time>2019-09-11T10:12:28Z</time>
      </trkpt>
      <trkpt lat="44.28099" lon="6.06127">
        <ele>996.9696161</ele>
        <time>2019-09-11T10:12:32Z</time>
      </trkpt>
      <trkpt lat="44.28109" lon="6.0612">
        <ele>998.9695597</ele>
        <time>2019-09-11T10:12:36Z</time>
      </trkpt>
      <trkpt lat="44.28119" lon="6.06119">
        <ele>998.969459</ele>
        <time>2019-09-11T10:12:40Z</time>
      </trkpt>
      <trkpt lat="44.2812" lon="6.06136">
        <ele>999.9693682</ele>
        <time>2019-09-11T10:12:45Z</time>
      </trkpt>
      <trkpt lat="44.28108" lon="6.06143">
        <ele>1001.9694535</ele>
        <time>2019-09-11T10:12:50Z</time>
      </trkpt>
      <trkpt lat="44.281" lon="6.06149">
        <ele>1000.9695025</ele>
        <time>2019-09-11T10:12:54Z</time>
      </trkpt>
      <trkpt lat="44.28093" lon="6.06158">
        <ele>1001.9695261</ele>
        <time>2019-09-11T10:12:58Z</time>
      </trkpt>
      <trkpt lat="44.28088" lon="6.06167">
        <ele>1002.9695291</ele>
        <time>2019-09-11T10:13:02Z</time>
      </trkpt>
      <trkpt lat="44.28082" lon="6.06177">
        <ele>1003.9695378</ele>
        <time>2019-09-11T10:13:06Z</time>
      </trkpt>
      <trkpt lat="44.28076" lon="6.06185">
        <ele>1003.9695623</ele>
        <time>2019-09-11T10:13:10Z</time>
      </trkpt>
      <trkpt lat="44.28066" lon="6.06194">
        <ele>1004.9696115</ele>
        <time>2019-09-11T10:13:15Z</time>
      </trkpt>
      <trkpt lat="44.28057" lon="6.06201">
        <ele>1006.9696729</ele>
        <time>2019-09-11T10:13:20Z</time>
      </trkpt>
      <trkpt lat="44.28046" lon="6.06205">
        <ele>1008.9697594</ele>
        <time>2019-09-11T10:13:25Z</time>
      </trkpt>
      <trkpt lat="44.28035" lon="6.06206">
        <ele>1010.9698597</ele>
        <time>2019-09-11T10:13:30Z</time>
      </trkpt>
      <trkpt lat="44.28026" lon="6.06208">
        <ele>1012.9699412</ele>
        <time>2019-09-11T10:13:34Z</time>
      </trkpt>
      <trkpt lat="44.28018" lon="6.06211">
        <ele>1011.9700115</ele>
        <time>2019-09-11T10:13:38Z</time>
      </trkpt>
      <trkpt lat="44.28009" lon="6.06214">
        <ele>1013.9700876</ele>
        <time>2019-09-11T10:13:43Z</time>
      </trkpt>
      <trkpt lat="44.27997" lon="6.06214">
        <ele>1017.9701986</ele>
        <time>2019-09-11T10:13:48Z</time>
      </trkpt>
      <trkpt lat="44.27988" lon="6.06215">
        <ele>1019.9702889</ele>
        <time>2019-09-11T10:13:52Z</time>
      </trkpt>
      <trkpt lat="44.27977" lon="6.06218">
        <ele>1017.9703855</ele>
        <time>2019-09-11T10:13:57Z</time>
      </trkpt>
      <trkpt lat="44.27981" lon="6.06228">
        <ele>1019.9703003</ele>
        <time>2019-09-11T10:14:05Z</time>
      </trkpt>
      <trkpt lat="44.27994" lon="6.06228">
        <ele>1020.9701626</ele>
        <time>2019-09-11T10:14:10Z</time>
      </trkpt>
      <trkpt lat="44.28006" lon="6.06229">
        <ele>1021.9700385</ele>
        <time>2019-09-11T10:14:14Z</time>
      </trkpt>
      <trkpt lat="44.28015" lon="6.06233">
        <ele>1021.9699382</ele>
        <time>2019-09-11T10:14:18Z</time>
      </trkpt>
      <trkpt lat="44.28024" lon="6.06238">
        <ele>1022.9698138</ele>
        <time>2019-09-11T10:14:23Z</time>
      </trkpt>
      <trkpt lat="44.28033" lon="6.06242">
        <ele>1025.969708</ele>
        <time>2019-09-11T10:14:27Z</time>
      </trkpt>
      <trkpt lat="44.28043" lon="6.06248">
        <ele>1025.9695824</ele>
        <time>2019-09-11T10:14:32Z</time>
      </trkpt>
      <trkpt lat="44.28051" lon="6.06254">
        <ele>1025.9694724</ele>
        <time>2019-09-11T10:14:36Z</time>
      </trkpt>
      <trkpt lat="44.2806" lon="6.06257">
        <ele>1025.96937</ele>
        <time>2019-09-11T10:14:40Z</time>
      </trkpt>
      <trkpt lat="44.28059" lon="6.06272">
        <ele>1027.9693023</ele>
        <time>2019-09-11T10:14:45Z</time>
      </trkpt>
      <trkpt lat="44.2805" lon="6.06275">
        <ele>1027.9693739</ele>
        <time>2019-09-11T10:14:49Z</time>
      </trkpt>
      <trkpt lat="44.28041" lon="6.0627">
        <ele>1028.9694933</ele>
        <time>2019-09-11T10:14:53Z</time>
      </trkpt>
      <trkpt lat="44.28028" lon="6.06265">
        <ele>1029.9696436</ele>
        <time>2019-09-11T10:14:58Z</time>
      </trkpt>
      <trkpt lat="44.2802" lon="6.06266">
        <ele>1030.9697285</ele>
        <time>2019-09-11T10:15:02Z</time>
      </trkpt>
      <trkpt lat="44.28011" lon="6.06266">
        <ele>1031.969811</ele>
        <time>2019-09-11T10:15:06Z</time>
      </trkpt>
      <trkpt lat="44.28004" lon="6.06267">
        <ele>1031.9698834</ele>
        <time>2019-09-11T10:15:10Z</time>
      </trkpt>
      <trkpt lat="44.27995" lon="6.06268">
        <ele>1033.9699651</ele>
        <time>2019-09-11T10:15:14Z</time>
      </trkpt>
      <trkpt lat="44.27987" lon="6.06273">
        <ele>1031.9700236</ele>
        <time>2019-09-11T10:15:18Z</time>
      </trkpt>
      <trkpt lat="44.2798" lon="6.06279">
        <ele>1032.9700681</ele>
        <time>2019-09-11T10:15:22Z</time>
      </trkpt>
      <trkpt lat="44.27969" lon="6.06285">
        <ele>1034.9701403</ele>
        <time>2019-09-11T10:15:27Z</time>
      </trkpt>
      <trkpt lat="44.27957" lon="6.06284">
        <ele>1036.9702667</ele>
        <time>2019-09-11T10:15:32Z</time>
      </trkpt>
      <trkpt lat="44.27949" lon="6.06279">
        <ele>1037.9703781</ele>
        <time>2019-09-11T10:15:36Z</time>
      </trkpt>
      <trkpt lat="44.2794" lon="6.0627">
        <ele>1037.9705053</ele>
        <time>2019-09-11T10:15:40Z</time>
      </trkpt>
      <trkpt lat="44.27934" lon="6.06263">
        <ele>1036.9706036</ele>
        <time>2019-09-11T10:15:44Z</time>
      </trkpt>
      <trkpt lat="44.27925" lon="6.06254">
        <ele>1037.9707308</ele>
        <time>2019-09-11T10:15:49Z</time>
      </trkpt>
      <trkpt lat="44.27916" lon="6.06252">
        <ele>1038.9708358</ele>
        <time>2019-09-11T10:15:54Z</time>
      </trkpt>
      <trkpt lat="44.27906" lon="6.06262">
        <ele>1041.9708823</ele>
        <time>2019-09-11T10:15:59Z</time>
      </trkpt>
      <trkpt lat="44.27899" lon="6.06271">
        <ele>1042.9709133</ele>
        <time>2019-09-11T10:16:03Z</time>
      </trkpt>
      <trkpt lat="44.27893" lon="6.06281">
        <ele>1044.9709289</ele>
        <time>2019-09-11T10:16:07Z</time>
      </trkpt>
      <trkpt lat="44.27886" lon="6.06293">
        <ele>1045.9709408</ele>
        <time>2019-09-11T10:16:12Z</time>
      </trkpt>
      <trkpt lat="44.27879" lon="6.06305">
        <ele>1046.9709592</ele>
        <time>2019-09-11T10:16:16Z</time>
      </trkpt>
      <trkpt lat="44.27875" lon="6.06314">
        <ele>1045.970958</ele>
        <time>2019-09-11T10:16:20Z</time>
      </trkpt>
      <trkpt lat="44.27868" lon="6.06326">
        <ele>1047.9709726</ele>
        <time>2019-09-11T10:16:25Z</time>
      </trkpt>
      <trkpt lat="44.27861" lon="6.06338">
        <ele>1048.9709858</ele>
        <time>2019-09-11T10:16:29Z</time>
      </trkpt>
      <trkpt lat="44.27856" lon="6.06349">
        <ele>1052.9709887</ele>
        <time>2019-09-11T10:16:34Z</time>
      </trkpt>
      <trkpt lat="44.27849" lon="6.06361">
        <ele>1050.9710005</ele>
        <time>2019-09-11T10:16:38Z</time>
      </trkpt>
      <trkpt lat="44.27844" lon="6.0637">
        <ele>1054.9710201</ele>
        <time>2019-09-11T10:16:42Z</time>
      </trkpt>
      <trkpt lat="44.27839" lon="6.06382">
        <ele>1054.9710108</ele>
        <time>2019-09-11T10:16:47Z</time>
      </trkpt>
      <trkpt lat="44.27835" lon="6.06394">
        <ele>1054.9710017</ele>
        <time>2019-09-11T10:16:51Z</time>
      </trkpt>
      <trkpt lat="44.27829" lon="6.06407">
        <ele>1060.9709978</ele>
        <time>2019-09-11T10:16:56Z</time>
      </trkpt>
      <trkpt lat="44.27825" lon="6.06417">
        <ele>1060.9709923</ele>
        <time>2019-09-11T10:17:00Z</time>
      </trkpt>
      <trkpt lat="44.27821" lon="6.06429">
        <ele>1059.970982</ele>
        <time>2019-09-11T10:17:04Z</time>
      </trkpt>
      <trkpt lat="44.27816" lon="6.06439">
        <ele>1061.9709862</ele>
        <time>2019-09-11T10:17:08Z</time>
      </trkpt>
      <trkpt lat="44.2781" lon="6.06449">
        <ele>1062.971003</ele>
        <time>2019-09-11T10:17:12Z</time>
      </trkpt>
      <trkpt lat="44.27804" lon="6.06459">
        <ele>1064.9710176</ele>
        <time>2019-09-11T10:17:16Z</time>
      </trkpt>
      <trkpt lat="44.27798" lon="6.06468">
        <ele>1064.9710403</ele>
        <time>2019-09-11T10:17:20Z</time>
      </trkpt>
      <trkpt lat="44.27792" lon="6.06477">
        <ele>1064.9710645</ele>
        <time>2019-09-11T10:17:24Z</time>
      </trkpt>
      <trkpt lat="44.27785" lon="6.06484">
        <ele>1065.9711069</ele>
        <time>2019-09-11T10:17:28Z</time>
      </trkpt>
      <trkpt lat="44.27775" lon="6.06488">
        <ele>1067.971192</ele>
        <time>2019-09-11T10:17:33Z</time>
      </trkpt>
      <trkpt lat="44.27767" lon="6.06487">
        <ele>1068.9712806</ele>
        <time>2019-09-11T10:17:37Z</time>
      </trkpt>
      <trkpt lat="44.27756" lon="6.06486">
        <ele>1069.9713963</ele>
        <time>2019-09-11T10:17:42Z</time>
      </trkpt>
      <trkpt lat="44.27748" lon="6.06487">
        <ele>1070.9714762</ele>
        <time>2019-09-11T10:17:46Z</time>
      </trkpt>
      <trkpt lat="44.2774" lon="6.06489">
        <ele>1068.9715517</ele>
        <time>2019-09-11T10:17:50Z</time>
      </trkpt>
      <trkpt lat="44.27732" lon="6.06493">
        <ele>1068.9716208</ele>
        <time>2019-09-11T10:17:54Z</time>
      </trkpt>
      <trkpt lat="44.27718" lon="6.06497">
        <ele>1067.971741</ele>
        <time>2019-09-11T10:17:59Z</time>
      </trkpt>
      <trkpt lat="44.27706" lon="6.065">
        <ele>1067.9718547</ele>
        <time>2019-09-11T10:18:04Z</time>
      </trkpt>
      <trkpt lat="44.27697" lon="6.06498">
        <ele>1070.9719601</ele>
        <time>2019-09-11T10:18:08Z</time>
      </trkpt>
      <trkpt lat="44.27688" lon="6.06493">
        <ele>1073.9720779</ele>
        <time>2019-09-11T10:18:12Z</time>
      </trkpt>
      <trkpt lat="44.27679" lon="6.06489">
        <ele>1073.9721912</ele>
        <time>2019-09-11T10:18:16Z</time>
      </trkpt>
      <trkpt lat="44.27668" lon="6.06484">
        <ele>1073.9723226</ele>
        <time>2019-09-11T10:18:21Z</time>
      </trkpt>
      <trkpt lat="44.27655" lon="6.06484">
        <ele>1073.9724544</ele>
        <time>2019-09-11T10:18:26Z</time>
      </trkpt>
      <trkpt lat="44.27643" lon="6.06484">
        <ele>1074.9725849</ele>
        <time>2019-09-11T10:18:31Z</time>
      </trkpt>
      <trkpt lat="44.27635" lon="6.06488">
        <ele>1074.9726476</ele>
        <time>2019-09-11T10:18:35Z</time>
      </trkpt>
      <trkpt lat="44.2763" lon="6.06496">
        <ele>1076.9726682</ele>
        <time>2019-09-11T10:18:39Z</time>
      </trkpt>
      <trkpt lat="44.27625" lon="6.06507">
        <ele>1077.9726698</ele>
        <time>2019-09-11T10:18:43Z</time>
      </trkpt>
      <trkpt lat="44.2762" lon="6.06518">
        <ele>1078.9726749</ele>
        <time>2019-09-11T10:18:47Z</time>
      </trkpt>
      <trkpt lat="44.27613" lon="6.06533">
        <ele>1080.9726831</ele>
        <time>2019-09-11T10:18:52Z</time>
      </trkpt>
      <trkpt lat="44.27608" lon="6.06545">
        <ele>1081.9726891</ele>
        <time>2019-09-11T10:18:57Z</time>
      </trkpt>
      <trkpt lat="44.276" lon="6.06556">
        <ele>1081.9727248</ele>
        <time>2019-09-11T10:19:02Z</time>
      </trkpt>
      <trkpt lat="44.27593" lon="6.06562">
        <ele>1082.9727713</ele>
        <time>2019-09-11T10:19:06Z</time>
      </trkpt>
      <trkpt lat="44.27584" lon="6.06568">
        <ele>1085.9728514</ele>
        <time>2019-09-11T10:19:10Z</time>
      </trkpt>
      <trkpt lat="44.27574" lon="6.06575">
        <ele>1087.9729226</ele>
        <time>2019-09-11T10:19:15Z</time>
      </trkpt>
      <trkpt lat="44.27566" lon="6.06581">
        <ele>1087.9729823</ele>
        <time>2019-09-11T10:19:19Z</time>
      </trkpt>
      <trkpt lat="44.27553" lon="6.06588">
        <ele>1087.9730858</ele>
        <time>2019-09-11T10:19:24Z</time>
      </trkpt>
      <trkpt lat="44.27545" lon="6.06596">
        <ele>1086.9731358</ele>
        <time>2019-09-11T10:19:29Z</time>
      </trkpt>
      <trkpt lat="44.27539" lon="6.06606">
        <ele>1087.9731658</ele>
        <time>2019-09-11T10:19:33Z</time>
      </trkpt>
      <trkpt lat="44.27534" lon="6.06616">
        <ele>1088.9731794</ele>
        <time>2019-09-11T10:19:37Z</time>
      </trkpt>
      <trkpt lat="44.27529" lon="6.06626">
        <ele>1088.9731893</ele>
        <time>2019-09-11T10:19:41Z</time>
      </trkpt>
      <trkpt lat="44.27525" lon="6.06637">
        <ele>1089.973192</ele>
        <time>2019-09-11T10:19:45Z</time>
      </trkpt>
      <trkpt lat="44.2752" lon="6.06648">
        <ele>1090.9731906</ele>
        <time>2019-09-11T10:19:49Z</time>
      </trkpt>
      <trkpt lat="44.27515" lon="6.06665">
        <ele>1093.9731847</ele>
        <time>2019-09-11T10:19:54Z</time>
      </trkpt>
      <trkpt lat="44.27511" lon="6.06678">
        <ele>1093.9731681</ele>
        <time>2019-09-11T10:19:58Z</time>
      </trkpt>
      <trkpt lat="44.27509" lon="6.06694">
        <ele>1093.973132</ele>
        <time>2019-09-11T10:20:03Z</time>
      </trkpt>
      <trkpt lat="44.2751" lon="6.06705">
        <ele>1095.973076</ele>
        <time>2019-09-11T10:20:07Z</time>
      </trkpt>
      <trkpt lat="44.27511" lon="6.0672">
        <ele>1096.9729966</ele>
        <time>2019-09-11T10:20:12Z</time>
      </trkpt>
      <trkpt lat="44.2751" lon="6.06737">
        <ele>1098.9729427</ele>
        <time>2019-09-11T10:20:17Z</time>
      </trkpt>
      <trkpt lat="44.27507" lon="6.0675">
        <ele>1100.9729268</ele>
        <time>2019-09-11T10:20:21Z</time>
      </trkpt>
      <trkpt lat="44.27504" lon="6.06761">
        <ele>1101.9729105</ele>
        <time>2019-09-11T10:20:25Z</time>
      </trkpt>
      <trkpt lat="44.27501" lon="6.0677">
        <ele>1101.972913</ele>
        <time>2019-09-11T10:20:29Z</time>
      </trkpt>
      <trkpt lat="44.27498" lon="6.06786">
        <ele>1103.9728832</ele>
        <time>2019-09-11T10:20:34Z</time>
      </trkpt>
      <trkpt lat="44.2751" lon="6.06787">
        <ele>1102.9727461</ele>
        <time>2019-09-11T10:20:39Z</time>
      </trkpt>
      <trkpt lat="44.2752" lon="6.06774">
        <ele>1100.972683</ele>
        <time>2019-09-11T10:20:44Z</time>
      </trkpt>
      <trkpt lat="44.27525" lon="6.06761">
        <ele>1099.9726854</ele>
        <time>2019-09-11T10:20:48Z</time>
      </trkpt>
      <trkpt lat="44.27529" lon="6.06742">
        <ele>1099.9727246</ele>
        <time>2019-09-11T10:20:53Z</time>
      </trkpt>
      <trkpt lat="44.2753" lon="6.06726">
        <ele>1100.9727732</ele>
        <time>2019-09-11T10:20:57Z</time>
      </trkpt>
      <trkpt lat="44.27532" lon="6.06713">
        <ele>1100.9728083</ele>
        <time>2019-09-11T10:21:01Z</time>
      </trkpt>
      <trkpt lat="44.27537" lon="6.06696">
        <ele>1101.9728244</ele>
        <time>2019-09-11T10:21:06Z</time>
      </trkpt>
      <trkpt lat="44.27546" lon="6.0669">
        <ele>1099.972754</ele>
        <time>2019-09-11T10:21:10Z</time>
      </trkpt>
      <trkpt lat="44.27553" lon="6.06687">
        <ele>1101.9726832</ele>
        <time>2019-09-11T10:21:13Z</time>
      </trkpt>
      <trkpt lat="44.27567" lon="6.0669">
        <ele>1103.9725273</ele>
        <time>2019-09-11T10:21:18Z</time>
      </trkpt>
      <trkpt lat="44.27579" lon="6.06693">
        <ele>1105.9723851</ele>
        <time>2019-09-11T10:21:23Z</time>
      </trkpt>
      <trkpt lat="44.27589" lon="6.06694">
        <ele>1105.9722744</ele>
        <time>2019-09-11T10:21:27Z</time>
      </trkpt>
      <trkpt lat="44.27603" lon="6.06698">
        <ele>1108.9721092</ele>
        <time>2019-09-11T10:21:31Z</time>
      </trkpt>
      <trkpt lat="44.27611" lon="6.06696">
        <ele>1109.972024</ele>
        <time>2019-09-11T10:21:36Z</time>
      </trkpt>
      <trkpt lat="44.2762" lon="6.06692">
        <ele>1109.9719409</ele>
        <time>2019-09-11T10:21:40Z</time>
      </trkpt>
      <trkpt lat="44.27628" lon="6.06687">
        <ele>1110.9718775</ele>
        <time>2019-09-11T10:21:44Z</time>
      </trkpt>
      <trkpt lat="44.27636" lon="6.0668">
        <ele>1111.9718331</ele>
        <time>2019-09-11T10:21:48Z</time>
      </trkpt>
      <trkpt lat="44.27646" lon="6.06669">
        <ele>1113.9717611</ele>
        <time>2019-09-11T10:21:53Z</time>
      </trkpt>
      <trkpt lat="44.27656" lon="6.06666">
        <ele>1115.9716757</ele>
        <time>2019-09-11T10:21:57Z</time>
      </trkpt>
      <trkpt lat="44.27668" lon="6.06664">
        <ele>1114.9715529</ele>
        <time>2019-09-11T10:22:02Z</time>
      </trkpt>
      <trkpt lat="44.27678" lon="6.0666">
        <ele>1116.9714648</ele>
        <time>2019-09-11T10:22:06Z</time>
      </trkpt>
      <trkpt lat="44.27687" lon="6.06657">
        <ele>1117.9713875</ele>
        <time>2019-09-11T10:22:10Z</time>
      </trkpt>
      <trkpt lat="44.27696" lon="6.06658">
        <ele>1118.9712868</ele>
        <time>2019-09-11T10:22:14Z</time>
      </trkpt>
      <trkpt lat="44.27706" lon="6.06661">
        <ele>1119.9711585</ele>
        <time>2019-09-11T10:22:18Z</time>
      </trkpt>
      <trkpt lat="44.27717" lon="6.06667">
        <ele>1119.9710208</ele>
        <time>2019-09-11T10:22:22Z</time>
      </trkpt>
      <trkpt lat="44.27727" lon="6.06675">
        <ele>1120.9708815</ele>
        <time>2019-09-11T10:22:26Z</time>
      </trkpt>
      <trkpt lat="44.27735" lon="6.06681">
        <ele>1122.9707656</ele>
        <time>2019-09-11T10:22:30Z</time>
      </trkpt>
      <trkpt lat="44.27744" lon="6.06689">
        <ele>1125.9706334</ele>
        <time>2019-09-11T10:22:34Z</time>
      </trkpt>
      <trkpt lat="44.27753" lon="6.06694">
        <ele>1124.9705168</ele>
        <time>2019-09-11T10:22:39Z</time>
      </trkpt>
      <trkpt lat="44.27761" lon="6.06696">
        <ele>1125.9704188</ele>
        <time>2019-09-11T10:22:43Z</time>
      </trkpt>
      <trkpt lat="44.2777" lon="6.06695">
        <ele>1125.9703281</ele>
        <time>2019-09-11T10:22:47Z</time>
      </trkpt>
      <trkpt lat="44.27779" lon="6.06696">
        <ele>1128.9702304</ele>
        <time>2019-09-11T10:23:04Z</time>
      </trkpt>
      <trkpt lat="44.27784" lon="6.06706">
        <ele>1126.9701351</ele>
        <time>2019-09-11T10:24:02Z</time>
      </trkpt>
      <trkpt lat="44.27776" lon="6.06705">
        <ele>1126.9702217</ele>
        <time>2019-09-11T10:26:26Z</time>
      </trkpt>
      <trkpt lat="44.27762" lon="6.06704">
        <ele>1127.9703745</ele>
        <time>2019-09-11T10:26:31Z</time>
      </trkpt>
      <trkpt lat="44.27752" lon="6.06702">
        <ele>1127.9704903</ele>
        <time>2019-09-11T10:26:35Z</time>
      </trkpt>
      <trkpt lat="44.2774" lon="6.067">
        <ele>1128.9706287</ele>
        <time>2019-09-11T10:26:40Z</time>
      </trkpt>
      <trkpt lat="44.27728" lon="6.06694">
        <ele>1128.9707824</ele>
        <time>2019-09-11T10:26:45Z</time>
      </trkpt>
      <trkpt lat="44.27715" lon="6.06687">
        <ele>1129.9709511</ele>
        <time>2019-09-11T10:26:50Z</time>
      </trkpt>
      <trkpt lat="44.27707" lon="6.06684">
        <ele>1129.9710448</ele>
        <time>2019-09-11T10:26:54Z</time>
      </trkpt>
      <trkpt lat="44.27697" lon="6.06683">
        <ele>1130.9711662</ele>
        <time>2019-09-11T10:26:59Z</time>
      </trkpt>
      <trkpt lat="44.27688" lon="6.06686">
        <ele>1130.9712473</ele>
        <time>2019-09-11T10:27:03Z</time>
      </trkpt>
      <trkpt lat="44.27677" lon="6.06694">
        <ele>1130.9713256</ele>
        <time>2019-09-11T10:27:08Z</time>
      </trkpt>
      <trkpt lat="44.27665" lon="6.06709">
        <ele>1130.9713949</ele>
        <time>2019-09-11T10:27:12Z</time>
      </trkpt>
      <trkpt lat="44.27649" lon="6.06725">
        <ele>1130.9714988</ele>
        <time>2019-09-11T10:27:17Z</time>
      </trkpt>
      <trkpt lat="44.2764" lon="6.06737">
        <ele>1130.9715471</ele>
        <time>2019-09-11T10:27:21Z</time>
      </trkpt>
      <trkpt lat="44.2763" lon="6.06751">
        <ele>1131.9715981</ele>
        <time>2019-09-11T10:27:26Z</time>
      </trkpt>
      <trkpt lat="44.27622" lon="6.06761">
        <ele>1132.9716387</ele>
        <time>2019-09-11T10:27:30Z</time>
      </trkpt>
      <trkpt lat="44.27613" lon="6.06772">
        <ele>1133.971689</ele>
        <time>2019-09-11T10:27:34Z</time>
      </trkpt>
      <trkpt lat="44.27603" lon="6.06781">
        <ele>1133.9717594</ele>
        <time>2019-09-11T10:27:38Z</time>
      </trkpt>
      <trkpt lat="44.27595" lon="6.06797">
        <ele>1134.9717821</ele>
        <time>2019-09-11T10:27:43Z</time>
      </trkpt>
      <trkpt lat="44.27591" lon="6.0681">
        <ele>1136.9717733</ele>
        <time>2019-09-11T10:27:47Z</time>
      </trkpt>
      <trkpt lat="44.27581" lon="6.06823">
        <ele>1136.9718239</ele>
        <time>2019-09-11T10:27:52Z</time>
      </trkpt>
      <trkpt lat="44.27572" lon="6.06836">
        <ele>1136.9718672</ele>
        <time>2019-09-11T10:27:57Z</time>
      </trkpt>
      <trkpt lat="44.27565" lon="6.0685">
        <ele>1136.9718885</ele>
        <time>2019-09-11T10:28:01Z</time>
      </trkpt>
      <trkpt lat="44.27562" lon="6.0687">
        <ele>1136.9718413</ele>
        <time>2019-09-11T10:28:06Z</time>
      </trkpt>
      <trkpt lat="44.27561" lon="6.06894">
        <ele>1131.9717481</ele>
        <time>2019-09-11T10:28:11Z</time>
      </trkpt>
      <trkpt lat="44.27559" lon="6.06912">
        <ele>1129.9717036</ele>
        <time>2019-09-11T10:28:15Z</time>
      </trkpt>
      <trkpt lat="44.27552" lon="6.06925">
        <ele>1127.9717277</ele>
        <time>2019-09-11T10:28:19Z</time>
      </trkpt>
      <trkpt lat="44.27541" lon="6.06934">
        <ele>1126.9718033</ele>
        <time>2019-09-11T10:28:23Z</time>
      </trkpt>
      <trkpt lat="44.27533" lon="6.06945">
        <ele>1125.9718553</ele>
        <time>2019-09-11T10:28:27Z</time>
      </trkpt>
      <trkpt lat="44.27527" lon="6.06959">
        <ele>1124.9718639</ele>
        <time>2019-09-11T10:28:31Z</time>
      </trkpt>
      <trkpt lat="44.27519" lon="6.06977">
        <ele>1123.9718803</ele>
        <time>2019-09-11T10:28:36Z</time>
      </trkpt>
      <trkpt lat="44.27519" lon="6.06996">
        <ele>1124.9718061</ele>
        <time>2019-09-11T10:28:41Z</time>
      </trkpt>
      <trkpt lat="44.27515" lon="6.07014">
        <ele>1124.9717749</ele>
        <time>2019-09-11T10:28:45Z</time>
      </trkpt>
      <trkpt lat="44.27506" lon="6.0703">
        <ele>1125.9718099</ele>
        <time>2019-09-11T10:28:50Z</time>
      </trkpt>
      <trkpt lat="44.27499" lon="6.0704">
        <ele>1126.9718493</ele>
        <time>2019-09-11T10:28:54Z</time>
      </trkpt>
      <trkpt lat="44.27493" lon="6.07053">
        <ele>1124.9718675</ele>
        <time>2019-09-11T10:28:58Z</time>
      </trkpt>
      <trkpt lat="44.27486" lon="6.0707">
        <ele>1121.971881</ele>
        <time>2019-09-11T10:29:03Z</time>
      </trkpt>
      <trkpt lat="44.27479" lon="6.07094">
        <ele>1123.9718682</ele>
        <time>2019-09-11T10:29:08Z</time>
      </trkpt>
      <trkpt lat="44.27476" lon="6.07113">
        <ele>1122.9718255</ele>
        <time>2019-09-11T10:29:12Z</time>
      </trkpt>
      <trkpt lat="44.27472" lon="6.07138">
        <ele>1121.9717632</ele>
        <time>2019-09-11T10:29:17Z</time>
      </trkpt>
      <trkpt lat="44.27461" lon="6.07154">
        <ele>1119.971834</ele>
        <time>2019-09-11T10:29:21Z</time>
      </trkpt>
      <trkpt lat="44.27451" lon="6.07166">
        <ele>1121.9718977</ele>
        <time>2019-09-11T10:29:25Z</time>
      </trkpt>
      <trkpt lat="44.27437" lon="6.07171">
        <ele>1119.9720372</ele>
        <time>2019-09-11T10:29:29Z</time>
      </trkpt>
      <trkpt lat="44.27418" lon="6.07178">
        <ele>1117.9722262</ele>
        <time>2019-09-11T10:29:34Z</time>
      </trkpt>
      <trkpt lat="44.27406" lon="6.07187">
        <ele>1115.9723303</ele>
        <time>2019-09-11T10:29:38Z</time>
      </trkpt>
      <trkpt lat="44.27394" lon="6.07195">
        <ele>1115.9724431</ele>
        <time>2019-09-11T10:29:43Z</time>
      </trkpt>
      <trkpt lat="44.27382" lon="6.07206">
        <ele>1116.9725326</ele>
        <time>2019-09-11T10:29:48Z</time>
      </trkpt>
      <trkpt lat="44.27369" lon="6.07217">
        <ele>1114.9726423</ele>
        <time>2019-09-11T10:29:52Z</time>
      </trkpt>
      <trkpt lat="44.27356" lon="6.07232">
        <ele>1112.9727342</ele>
        <time>2019-09-11T10:29:56Z</time>
      </trkpt>
      <trkpt lat="44.27344" lon="6.07246">
        <ele>1111.9728223</ele>
        <time>2019-09-11T10:30:01Z</time>
      </trkpt>
      <trkpt lat="44.27327" lon="6.07257">
        <ele>1110.972984</ele>
        <time>2019-09-11T10:30:06Z</time>
      </trkpt>
      <trkpt lat="44.27306" lon="6.07262">
        <ele>1110.9732041</ele>
        <time>2019-09-11T10:30:11Z</time>
      </trkpt>
      <trkpt lat="44.27294" lon="6.07267">
        <ele>1108.9733279</ele>
        <time>2019-09-11T10:30:15Z</time>
      </trkpt>
      <trkpt lat="44.27282" lon="6.07276">
        <ele>1106.9734338</ele>
        <time>2019-09-11T10:30:20Z</time>
      </trkpt>
      <trkpt lat="44.27273" lon="6.07295">
        <ele>1105.9734709</ele>
        <time>2019-09-11T10:30:25Z</time>
      </trkpt>
      <trkpt lat="44.27269" lon="6.07322">
        <ele>1104.9734189</ele>
        <time>2019-09-11T10:30:30Z</time>
      </trkpt>
      <trkpt lat="44.27265" lon="6.0734">
        <ele>1104.9734019</ele>
        <time>2019-09-11T10:30:34Z</time>
      </trkpt>
      <trkpt lat="44.27254" lon="6.07354">
        <ele>1104.9734729</ele>
        <time>2019-09-11T10:30:38Z</time>
      </trkpt>
      <trkpt lat="44.2724" lon="6.07364">
        <ele>1103.973605</ele>
        <time>2019-09-11T10:30:42Z</time>
      </trkpt>
      <trkpt lat="44.27232" lon="6.07376">
        <ele>1102.9736595</ele>
        <time>2019-09-11T10:30:46Z</time>
      </trkpt>
      <trkpt lat="44.27225" lon="6.07397">
        <ele>1103.9736739</ele>
        <time>2019-09-11T10:30:51Z</time>
      </trkpt>
      <trkpt lat="44.27212" lon="6.07407">
        <ele>1101.973791</ele>
        <time>2019-09-11T10:30:56Z</time>
      </trkpt>
      <trkpt lat="44.272" lon="6.07417">
        <ele>1100.9738888</ele>
        <time>2019-09-11T10:31:00Z</time>
      </trkpt>
      <trkpt lat="44.27193" lon="6.07433">
        <ele>1099.9739134</ele>
        <time>2019-09-11T10:31:04Z</time>
      </trkpt>
      <trkpt lat="44.2719" lon="6.0745">
        <ele>1097.9738918</ele>
        <time>2019-09-11T10:31:08Z</time>
      </trkpt>
      <trkpt lat="44.27189" lon="6.07465">
        <ele>1097.9738519</ele>
        <time>2019-09-11T10:31:13Z</time>
      </trkpt>
      <trkpt lat="44.27187" lon="6.07476">
        <ele>1092.9738394</ele>
        <time>2019-09-11T10:35:20Z</time>
      </trkpt>
      <trkpt lat="44.27179" lon="6.07485">
        <ele>1092.973907</ele>
        <time>2019-09-11T10:35:24Z</time>
      </trkpt>
      <trkpt lat="44.27167" lon="6.07491">
        <ele>1092.9740354</ele>
        <time>2019-09-11T10:35:29Z</time>
      </trkpt>
      <trkpt lat="44.27152" lon="6.07491">
        <ele>1093.9742104</ele>
        <time>2019-09-11T10:35:34Z</time>
      </trkpt>
      <trkpt lat="44.27141" lon="6.07494">
        <ele>1094.9743322</ele>
        <time>2019-09-11T10:35:38Z</time>
      </trkpt>
      <trkpt lat="44.27128" lon="6.07497">
        <ele>1096.9744755</ele>
        <time>2019-09-11T10:35:43Z</time>
      </trkpt>
      <trkpt lat="44.27117" lon="6.07499">
        <ele>1099.9746043</ele>
        <time>2019-09-11T10:35:47Z</time>
      </trkpt>
      <trkpt lat="44.27106" lon="6.07505">
        <ele>1100.9747105</ele>
        <time>2019-09-11T10:35:52Z</time>
      </trkpt>
      <trkpt lat="44.27099" lon="6.07512">
        <ele>1102.9747741</ele>
        <time>2019-09-11T10:35:56Z</time>
      </trkpt>
      <trkpt lat="44.27087" lon="6.07524">
        <ele>1102.9748779</ele>
        <time>2019-09-11T10:36:01Z</time>
      </trkpt>
      <trkpt lat="44.27076" lon="6.0754">
        <ele>1103.9749486</ele>
        <time>2019-09-11T10:36:06Z</time>
      </trkpt>
      <trkpt lat="44.2707" lon="6.07555">
        <ele>1103.9749739</ele>
        <time>2019-09-11T10:36:10Z</time>
      </trkpt>
      <trkpt lat="44.27064" lon="6.07574">
        <ele>1103.9749825</ele>
        <time>2019-09-11T10:36:14Z</time>
      </trkpt>
      <trkpt lat="44.27061" lon="6.07594">
        <ele>1101.9749593</ele>
        <time>2019-09-11T10:36:19Z</time>
      </trkpt>
      <trkpt lat="44.27057" lon="6.0761">
        <ele>1101.9749557</ele>
        <time>2019-09-11T10:36:23Z</time>
      </trkpt>
      <trkpt lat="44.27051" lon="6.07627">
        <ele>1100.9749762</ele>
        <time>2019-09-11T10:36:28Z</time>
      </trkpt>
      <trkpt lat="44.27043" lon="6.07636">
        <ele>1100.9750392</ele>
        <time>2019-09-11T10:36:33Z</time>
      </trkpt>
      <trkpt lat="44.27034" lon="6.07643">
        <ele>1102.9751318</ele>
        <time>2019-09-11T10:36:37Z</time>
      </trkpt>
      <trkpt lat="44.27031" lon="6.07654">
        <ele>1101.9751348</ele>
        <time>2019-09-11T10:36:42Z</time>
      </trkpt>
      <trkpt lat="44.27031" lon="6.07665">
        <ele>1101.9750967</ele>
        <time>2019-09-11T10:36:46Z</time>
      </trkpt>
      <trkpt lat="44.2703" lon="6.07673">
        <ele>1100.9750802</ele>
        <time>2019-09-11T10:36:49Z</time>
      </trkpt>
      <trkpt lat="44.27029" lon="6.07687">
        <ele>1096.9750517</ele>
        <time>2019-09-11T10:36:54Z</time>
      </trkpt>
      <trkpt lat="44.27017" lon="6.07694">
        <ele>1095.9751728</ele>
        <time>2019-09-11T10:36:58Z</time>
      </trkpt>
      <trkpt lat="44.27006" lon="6.07705">
        <ele>1095.9752645</ele>
        <time>2019-09-11T10:37:03Z</time>
      </trkpt>
      <trkpt lat="44.27002" lon="6.07716">
        <ele>1096.9752789</ele>
        <time>2019-09-11T10:37:07Z</time>
      </trkpt>
      <trkpt lat="44.26995" lon="6.07729">
        <ele>1096.9753312</ele>
        <time>2019-09-11T10:37:12Z</time>
      </trkpt>
      <trkpt lat="44.26986" lon="6.0772">
        <ele>1098.9754639</ele>
        <time>2019-09-11T10:37:16Z</time>
      </trkpt>
      <trkpt lat="44.26984" lon="6.07702">
        <ele>1102.9755571</ele>
        <time>2019-09-11T10:37:20Z</time>
      </trkpt>
      <trkpt lat="44.26978" lon="6.07686">
        <ele>1102.9756767</ele>
        <time>2019-09-11T10:37:25Z</time>
      </trkpt>
      <trkpt lat="44.26973" lon="6.07674">
        <ele>1104.9757802</ele>
        <time>2019-09-11T10:37:30Z</time>
      </trkpt>
      <trkpt lat="44.26967" lon="6.07665">
        <ele>1105.9758752</ele>
        <time>2019-09-11T10:37:34Z</time>
      </trkpt>
      <trkpt lat="44.2696" lon="6.07655">
        <ele>1106.9759974</ele>
        <time>2019-09-11T10:37:39Z</time>
      </trkpt>
      <trkpt lat="44.26956" lon="6.07643">
        <ele>1108.9760768</ele>
        <time>2019-09-11T10:37:43Z</time>
      </trkpt>
      <trkpt lat="44.26955" lon="6.07629">
        <ele>1110.9761355</ele>
        <time>2019-09-11T10:37:48Z</time>
      </trkpt>
      <trkpt lat="44.26954" lon="6.07616">
        <ele>1111.9761895</ele>
        <time>2019-09-11T10:37:52Z</time>
      </trkpt>
      <trkpt lat="44.26951" lon="6.076">
        <ele>1113.9762731</ele>
        <time>2019-09-11T10:37:56Z</time>
      </trkpt>
      <trkpt lat="44.26947" lon="6.07588">
        <ele>1114.9763577</ele>
        <time>2019-09-11T10:38:01Z</time>
      </trkpt>
      <trkpt lat="44.26941" lon="6.07576">
        <ele>1115.9764674</ele>
        <time>2019-09-11T10:38:06Z</time>
      </trkpt>
      <trkpt lat="44.26937" lon="6.07564">
        <ele>1116.9765523</ele>
        <time>2019-09-11T10:38:10Z</time>
      </trkpt>
      <trkpt lat="44.26936" lon="6.07552">
        <ele>1117.9766027</ele>
        <time>2019-09-11T10:38:14Z</time>
      </trkpt>
      <trkpt lat="44.26934" lon="6.0754">
        <ele>1118.9766644</ele>
        <time>2019-09-11T10:38:18Z</time>
      </trkpt>
      <trkpt lat="44.26934" lon="6.07528">
        <ele>1119.9767072</ele>
        <time>2019-09-11T10:38:22Z</time>
      </trkpt>
      <trkpt lat="44.26935" lon="6.07516">
        <ele>1118.9767289</ele>
        <time>2019-09-11T10:38:27Z</time>
      </trkpt>
      <trkpt lat="44.26937" lon="6.07503">
        <ele>1119.9767456</ele>
        <time>2019-09-11T10:38:31Z</time>
      </trkpt>
      <trkpt lat="44.26937" lon="6.07485">
        <ele>1119.9768032</ele>
        <time>2019-09-11T10:38:36Z</time>
      </trkpt>
      <trkpt lat="44.26933" lon="6.0747">
        <ele>1121.9768926</ele>
        <time>2019-09-11T10:38:40Z</time>
      </trkpt>
      <trkpt lat="44.26938" lon="6.07458">
        <ele>1123.9768795</ele>
        <time>2019-09-11T10:38:44Z</time>
      </trkpt>
      <trkpt lat="44.2694" lon="6.07443">
        <ele>1122.9768941</ele>
        <time>2019-09-11T10:38:49Z</time>
      </trkpt>
      <trkpt lat="44.26939" lon="6.07431">
        <ele>1123.9769419</ele>
        <time>2019-09-11T10:38:53Z</time>
      </trkpt>
      <trkpt lat="44.2694" lon="6.07417">
        <ele>1124.9769791</ele>
        <time>2019-09-11T10:38:58Z</time>
      </trkpt>
      <trkpt lat="44.2694" lon="6.07404">
        <ele>1125.977015</ele>
        <time>2019-09-11T10:39:03Z</time>
      </trkpt>
      <trkpt lat="44.2694" lon="6.07389">
        <ele>1127.9770623</ele>
        <time>2019-09-11T10:39:08Z</time>
      </trkpt>
      <trkpt lat="44.26941" lon="6.07379">
        <ele>1128.9770814</ele>
        <time>2019-09-11T10:39:12Z</time>
      </trkpt>
      <trkpt lat="44.26943" lon="6.07367">
        <ele>1129.9770998</ele>
        <time>2019-09-11T10:39:15Z</time>
      </trkpt>
      <trkpt lat="44.26945" lon="6.07355">
        <ele>1129.9771115</ele>
        <time>2019-09-11T10:39:20Z</time>
      </trkpt>
      <trkpt lat="44.26949" lon="6.07342">
        <ele>1133.9770993</ele>
        <time>2019-09-11T10:39:23Z</time>
      </trkpt>
      <trkpt lat="44.26952" lon="6.07332">
        <ele>1133.9771023</ele>
        <time>2019-09-11T10:39:28Z</time>
      </trkpt>
      <trkpt lat="44.26947" lon="6.07317">
        <ele>1133.9772096</ele>
        <time>2019-09-11T10:39:32Z</time>
      </trkpt>
      <trkpt lat="44.26943" lon="6.07326">
        <ele>1133.977229</ele>
        <time>2019-09-11T10:46:01Z</time>
      </trkpt>
      <trkpt lat="44.26941" lon="6.07335">
        <ele>1133.9772253</ele>
        <time>2019-09-11T10:46:05Z</time>
      </trkpt>
      <trkpt lat="44.26937" lon="6.07347">
        <ele>1134.977228</ele>
        <time>2019-09-11T10:46:09Z</time>
      </trkpt>
      <trkpt lat="44.2693" lon="6.0736">
        <ele>1134.9772746</ele>
        <time>2019-09-11T10:46:14Z</time>
      </trkpt>
      <trkpt lat="44.26924" lon="6.0737">
        <ele>1134.9773105</ele>
        <time>2019-09-11T10:46:18Z</time>
      </trkpt>
      <trkpt lat="44.2692" lon="6.0738">
        <ele>1134.9773353</ele>
        <time>2019-09-11T10:46:22Z</time>
      </trkpt>
      <trkpt lat="44.26916" lon="6.07391">
        <ele>1136.9773393</ele>
        <time>2019-09-11T10:46:26Z</time>
      </trkpt>
      <trkpt lat="44.26913" lon="6.07402">
        <ele>1137.9773484</ele>
        <time>2019-09-11T10:46:30Z</time>
      </trkpt>
      <trkpt lat="44.26907" lon="6.07414">
        <ele>1139.9773739</ele>
        <time>2019-09-11T10:46:35Z</time>
      </trkpt>
      <trkpt lat="44.26904" lon="6.07425">
        <ele>1140.9773797</ele>
        <time>2019-09-11T10:46:39Z</time>
      </trkpt>
      <trkpt lat="44.26901" lon="6.07436">
        <ele>1142.9773834</ele>
        <time>2019-09-11T10:46:42Z</time>
      </trkpt>
      <trkpt lat="44.26899" lon="6.07449">
        <ele>1143.9773681</ele>
        <time>2019-09-11T10:46:47Z</time>
      </trkpt>
      <trkpt lat="44.26895" lon="6.07465">
        <ele>1144.9773721</ele>
        <time>2019-09-11T10:46:52Z</time>
      </trkpt>
      <trkpt lat="44.26891" lon="6.07476">
        <ele>1145.9773869</ele>
        <time>2019-09-11T10:46:56Z</time>
      </trkpt>
      <trkpt lat="44.26888" lon="6.07489">
        <ele>1145.9773818</ele>
        <time>2019-09-11T10:47:00Z</time>
      </trkpt>
      <trkpt lat="44.26881" lon="6.07499">
        <ele>1147.9774351</ele>
        <time>2019-09-11T10:47:04Z</time>
      </trkpt>
      <trkpt lat="44.26873" lon="6.0751">
        <ele>1147.9774994</ele>
        <time>2019-09-11T10:47:09Z</time>
      </trkpt>
      <trkpt lat="44.26868" lon="6.07519">
        <ele>1148.9775212</ele>
        <time>2019-09-11T10:47:13Z</time>
      </trkpt>
      <trkpt lat="44.26865" lon="6.07531">
        <ele>1151.9775305</ele>
        <time>2019-09-11T10:47:18Z</time>
      </trkpt>
      <trkpt lat="44.26864" lon="6.07545">
        <ele>1153.9774949</ele>
        <time>2019-09-11T10:47:23Z</time>
      </trkpt>
      <trkpt lat="44.26865" lon="6.07562">
        <ele>1153.9774375</ele>
        <time>2019-09-11T10:47:27Z</time>
      </trkpt>
      <trkpt lat="44.26863" lon="6.07573">
        <ele>1154.9774224</ele>
        <time>2019-09-11T10:47:31Z</time>
      </trkpt>
      <trkpt lat="44.26862" lon="6.07583">
        <ele>1155.9774043</ele>
        <time>2019-09-11T10:47:35Z</time>
      </trkpt>
      <trkpt lat="44.26861" lon="6.07595">
        <ele>1157.9773855</ele>
        <time>2019-09-11T10:47:40Z</time>
      </trkpt>
      <trkpt lat="44.2686" lon="6.07603">
        <ele>1157.9773725</ele>
        <time>2019-09-11T10:47:43Z</time>
      </trkpt>
      <trkpt lat="44.26857" lon="6.0762">
        <ele>1157.9773661</ele>
        <time>2019-09-11T10:47:48Z</time>
      </trkpt>
      <trkpt lat="44.26851" lon="6.07631">
        <ele>1158.9774011</ele>
        <time>2019-09-11T10:47:53Z</time>
      </trkpt>
      <trkpt lat="44.26842" lon="6.07626">
        <ele>1159.9775181</ele>
        <time>2019-09-11T10:47:57Z</time>
      </trkpt>
      <trkpt lat="44.26844" lon="6.07611">
        <ele>1160.9775501</ele>
        <time>2019-09-11T10:48:01Z</time>
      </trkpt>
      <trkpt lat="44.26844" lon="6.076">
        <ele>1161.9775755</ele>
        <time>2019-09-11T10:48:05Z</time>
      </trkpt>
      <trkpt lat="44.26844" lon="6.07588">
        <ele>1163.97761</ele>
        <time>2019-09-11T10:48:10Z</time>
      </trkpt>
      <trkpt lat="44.26842" lon="6.07573">
        <ele>1163.9776833</ele>
        <time>2019-09-11T10:48:14Z</time>
      </trkpt>
      <trkpt lat="44.26839" lon="6.0756">
        <ele>1164.977757</ele>
        <time>2019-09-11T10:48:19Z</time>
      </trkpt>
      <trkpt lat="44.2683" lon="6.07551">
        <ele>1166.9778852</ele>
        <time>2019-09-11T10:48:23Z</time>
      </trkpt>
      <trkpt lat="44.26826" lon="6.07541">
        <ele>1162.9779678</ele>
        <time>2019-09-11T10:48:28Z</time>
      </trkpt>
      <trkpt lat="44.26826" lon="6.07527">
        <ele>1163.9780063</ele>
        <time>2019-09-11T10:48:32Z</time>
      </trkpt>
      <trkpt lat="44.26827" lon="6.07515">
        <ele>1164.9780297</ele>
        <time>2019-09-11T10:48:36Z</time>
      </trkpt>
      <trkpt lat="44.26828" lon="6.07501">
        <ele>1166.9780591</ele>
        <time>2019-09-11T10:48:41Z</time>
      </trkpt>
      <trkpt lat="44.26819" lon="6.07502">
        <ele>1166.9781625</ele>
        <time>2019-09-11T10:48:46Z</time>
      </trkpt>
      <trkpt lat="44.26818" lon="6.07518">
        <ele>1168.9781375</ele>
        <time>2019-09-11T10:48:51Z</time>
      </trkpt>
      <trkpt lat="44.26816" lon="6.0753">
        <ele>1169.9781165</ele>
        <time>2019-09-11T10:48:55Z</time>
      </trkpt>
      <trkpt lat="44.26816" lon="6.07545">
        <ele>1170.9780802</ele>
        <time>2019-09-11T10:48:59Z</time>
      </trkpt>
      <trkpt lat="44.26814" lon="6.07557">
        <ele>1171.9780658</ele>
        <time>2019-09-11T10:49:04Z</time>
      </trkpt>
      <trkpt lat="44.26812" lon="6.07571">
        <ele>1172.9780551</ele>
        <time>2019-09-11T10:49:08Z</time>
      </trkpt>
      <trkpt lat="44.26811" lon="6.07583">
        <ele>1173.9780259</ele>
        <time>2019-09-11T10:49:13Z</time>
      </trkpt>
      <trkpt lat="44.26813" lon="6.07598">
        <ele>1176.9779621</ele>
        <time>2019-09-11T10:49:18Z</time>
      </trkpt>
      <trkpt lat="44.26808" lon="6.07607">
        <ele>1177.9779942</ele>
        <time>2019-09-11T10:49:22Z</time>
      </trkpt>
      <trkpt lat="44.26807" lon="6.07616">
        <ele>1178.9779794</ele>
        <time>2019-09-11T10:49:25Z</time>
      </trkpt>
      <trkpt lat="44.26804" lon="6.07632">
        <ele>1180.9779658</ele>
        <time>2019-09-11T10:49:29Z</time>
      </trkpt>
      <trkpt lat="44.26802" lon="6.07642">
        <ele>1180.9779727</ele>
        <time>2019-09-11T10:49:34Z</time>
      </trkpt>
      <trkpt lat="44.26796" lon="6.07653">
        <ele>1180.9780055</ele>
        <time>2019-09-11T10:49:38Z</time>
      </trkpt>
      <trkpt lat="44.2679" lon="6.07665">
        <ele>1180.9780443</ele>
        <time>2019-09-11T10:49:43Z</time>
      </trkpt>
      <trkpt lat="44.26785" lon="6.07673">
        <ele>1180.9780842</ele>
        <time>2019-09-11T10:49:47Z</time>
      </trkpt>
      <trkpt lat="44.26782" lon="6.07686">
        <ele>1182.9780928</ele>
        <time>2019-09-11T10:49:52Z</time>
      </trkpt>
      <trkpt lat="44.26775" lon="6.07698">
        <ele>1182.9781385</ele>
        <time>2019-09-11T10:49:56Z</time>
      </trkpt>
      <trkpt lat="44.26768" lon="6.0771">
        <ele>1184.9781926</ele>
        <time>2019-09-11T10:50:01Z</time>
      </trkpt>
      <trkpt lat="44.26763" lon="6.0772">
        <ele>1184.9782186</ele>
        <time>2019-09-11T10:50:05Z</time>
      </trkpt>
      <trkpt lat="44.26758" lon="6.07729">
        <ele>1183.9782665</ele>
        <time>2019-09-11T10:50:08Z</time>
      </trkpt>
      <trkpt lat="44.26752" lon="6.07737">
        <ele>1184.9783157</ele>
        <time>2019-09-11T10:50:13Z</time>
      </trkpt>
      <trkpt lat="44.26747" lon="6.07749">
        <ele>1184.9783392</ele>
        <time>2019-09-11T10:50:17Z</time>
      </trkpt>
      <trkpt lat="44.26745" lon="6.0776">
        <ele>1185.9783411</ele>
        <time>2019-09-11T10:50:21Z</time>
      </trkpt>
      <trkpt lat="44.26738" lon="6.07768">
        <ele>1186.9783938</ele>
        <time>2019-09-11T10:50:25Z</time>
      </trkpt>
      <trkpt lat="44.26727" lon="6.07774">
        <ele>1187.9785156</ele>
        <time>2019-09-11T10:50:30Z</time>
      </trkpt>
      <trkpt lat="44.26718" lon="6.07774">
        <ele>1189.9786299</ele>
        <time>2019-09-11T10:50:34Z</time>
      </trkpt>
      <trkpt lat="44.26707" lon="6.07776">
        <ele>1191.9787604</ele>
        <time>2019-09-11T10:50:39Z</time>
      </trkpt>
      <trkpt lat="44.26699" lon="6.07782">
        <ele>1192.9788444</ele>
        <time>2019-09-11T10:50:43Z</time>
      </trkpt>
      <trkpt lat="44.2669" lon="6.0779">
        <ele>1194.9789398</ele>
        <time>2019-09-11T10:50:47Z</time>
      </trkpt>
      <trkpt lat="44.26683" lon="6.07797">
        <ele>1194.979005</ele>
        <time>2019-09-11T10:50:51Z</time>
      </trkpt>
      <trkpt lat="44.26677" lon="6.07805">
        <ele>1195.9790617</ele>
        <time>2019-09-11T10:50:55Z</time>
      </trkpt>
      <trkpt lat="44.26672" lon="6.0781">
        <ele>1194.979105</ele>
        <time>2019-09-11T10:50:59Z</time>
      </trkpt>
      <trkpt lat="44.26663" lon="6.0782">
        <ele>1196.9791954</ele>
        <time>2019-09-11T10:51:04Z</time>
      </trkpt>
      <trkpt lat="44.26654" lon="6.07832">
        <ele>1201.9792805</ele>
        <time>2019-09-11T10:51:09Z</time>
      </trkpt>
      <trkpt lat="44.26646" lon="6.07843">
        <ele>1201.9793439</ele>
        <time>2019-09-11T10:51:13Z</time>
      </trkpt>
      <trkpt lat="44.26636" lon="6.07867">
        <ele>1201.9794035</ele>
        <time>2019-09-11T10:51:18Z</time>
      </trkpt>
      <trkpt lat="44.26631" lon="6.07886">
        <ele>1199.9794149</ele>
        <time>2019-09-11T10:51:22Z</time>
      </trkpt>
      <trkpt lat="44.26627" lon="6.079">
        <ele>1199.9794332</ele>
        <time>2019-09-11T10:51:26Z</time>
      </trkpt>
      <trkpt lat="44.26622" lon="6.07919">
        <ele>1200.9794471</ele>
        <time>2019-09-11T10:51:31Z</time>
      </trkpt>
      <trkpt lat="44.26619" lon="6.07931">
        <ele>1200.9794587</ele>
        <time>2019-09-11T10:51:34Z</time>
      </trkpt>
      <trkpt lat="44.26614" lon="6.07949">
        <ele>1200.9794732</ele>
        <time>2019-09-11T10:51:39Z</time>
      </trkpt>
      <trkpt lat="44.26604" lon="6.07981">
        <ele>1202.9795112</ele>
        <time>2019-09-11T10:51:43Z</time>
      </trkpt>
      <trkpt lat="44.266" lon="6.07996">
        <ele>1201.9795281</ele>
        <time>2019-09-11T10:51:48Z</time>
      </trkpt>
      <trkpt lat="44.26598" lon="6.08011">
        <ele>1201.9795231</ele>
        <time>2019-09-11T10:51:52Z</time>
      </trkpt>
      <trkpt lat="44.26594" lon="6.0803">
        <ele>1201.9795166</ele>
        <time>2019-09-11T10:51:57Z</time>
      </trkpt>
      <trkpt lat="44.26587" lon="6.08048">
        <ele>1201.9795633</ele>
        <time>2019-09-11T10:52:01Z</time>
      </trkpt>
      <trkpt lat="44.2658" lon="6.08058">
        <ele>1201.9796355</ele>
        <time>2019-09-11T10:52:06Z</time>
      </trkpt>
      <trkpt lat="44.26575" lon="6.08068">
        <ele>1201.9796648</ele>
        <time>2019-09-11T10:52:26Z</time>
      </trkpt>
      <trkpt lat="44.26566" lon="6.08073">
        <ele>1202.9797765</ele>
        <time>2019-09-11T10:52:31Z</time>
      </trkpt>
      <trkpt lat="44.26557" lon="6.08085">
        <ele>1205.9798663</ele>
        <time>2019-09-11T10:52:35Z</time>
      </trkpt>
      <trkpt lat="44.26551" lon="6.08102">
        <ele>1205.9798992</ele>
        <time>2019-09-11T10:52:39Z</time>
      </trkpt>
      <trkpt lat="44.26545" lon="6.08124">
        <ele>1206.979916</ele>
        <time>2019-09-11T10:52:44Z</time>
      </trkpt>
      <trkpt lat="44.26534" lon="6.08144">
        <ele>1207.9800101</ele>
        <time>2019-09-11T10:52:48Z</time>
      </trkpt>
      <trkpt lat="44.26527" lon="6.0816">
        <ele>1208.9800643</ele>
        <time>2019-09-11T10:52:53Z</time>
      </trkpt>
      <trkpt lat="44.26515" lon="6.08175">
        <ele>1210.9801884</ele>
        <time>2019-09-11T10:52:57Z</time>
      </trkpt>
      <trkpt lat="44.26504" lon="6.08185">
        <ele>1210.980298</ele>
        <time>2019-09-11T10:53:02Z</time>
      </trkpt>
      <trkpt lat="44.26493" lon="6.08196">
        <ele>1210.9804192</ele>
        <time>2019-09-11T10:53:07Z</time>
      </trkpt>
      <trkpt lat="44.26487" lon="6.08204">
        <ele>1211.9804783</ele>
        <time>2019-09-11T10:53:11Z</time>
      </trkpt>
      <trkpt lat="44.26481" lon="6.08213">
        <ele>1211.9805351</ele>
        <time>2019-09-11T10:53:15Z</time>
      </trkpt>
      <trkpt lat="44.26472" lon="6.08221">
        <ele>1211.9806422</ele>
        <time>2019-09-11T10:53:19Z</time>
      </trkpt>
      <trkpt lat="44.2646" lon="6.08228">
        <ele>1212.9807806</ele>
        <time>2019-09-11T10:53:24Z</time>
      </trkpt>
      <trkpt lat="44.26451" lon="6.08237">
        <ele>1213.9808798</ele>
        <time>2019-09-11T10:53:28Z</time>
      </trkpt>
      <trkpt lat="44.26438" lon="6.08244">
        <ele>1214.9810382</ele>
        <time>2019-09-11T10:53:33Z</time>
      </trkpt>
      <trkpt lat="44.26426" lon="6.08248">
        <ele>1217.9811849</ele>
        <time>2019-09-11T10:53:38Z</time>
      </trkpt>
      <trkpt lat="44.26416" lon="6.08248">
        <ele>1219.9813087</ele>
        <time>2019-09-11T10:53:42Z</time>
      </trkpt>
      <trkpt lat="44.26407" lon="6.08245">
        <ele>1220.9814383</ele>
        <time>2019-09-11T10:53:46Z</time>
      </trkpt>
      <trkpt lat="44.26395" lon="6.08244">
        <ele>1221.9815964</ele>
        <time>2019-09-11T10:53:51Z</time>
      </trkpt>
      <trkpt lat="44.26385" lon="6.08246">
        <ele>1221.9817286</ele>
        <time>2019-09-11T10:53:55Z</time>
      </trkpt>
      <trkpt lat="44.26375" lon="6.08248">
        <ele>1222.9818611</ele>
        <time>2019-09-11T10:53:59Z</time>
      </trkpt>
      <trkpt lat="44.26362" lon="6.08251">
        <ele>1223.9820186</ele>
        <time>2019-09-11T10:54:04Z</time>
      </trkpt>
      <trkpt lat="44.26353" lon="6.08258">
        <ele>1223.9821195</ele>
        <time>2019-09-11T10:54:08Z</time>
      </trkpt>
      <trkpt lat="44.26345" lon="6.08268">
        <ele>1224.9822096</ele>
        <time>2019-09-11T10:54:12Z</time>
      </trkpt>
      <trkpt lat="44.26337" lon="6.08279">
        <ele>1225.9822888</ele>
        <time>2019-09-11T10:54:16Z</time>
      </trkpt>
      <trkpt lat="44.26327" lon="6.08287">
        <ele>1225.9824031</ele>
        <time>2019-09-11T10:54:20Z</time>
      </trkpt>
      <trkpt lat="44.26315" lon="6.08297">
        <ele>1226.9825378</ele>
        <time>2019-09-11T10:54:25Z</time>
      </trkpt>
      <trkpt lat="44.26308" lon="6.08307">
        <ele>1227.98261</ele>
        <time>2019-09-11T10:54:29Z</time>
      </trkpt>
      <trkpt lat="44.26299" lon="6.08321">
        <ele>1227.9827064</ele>
        <time>2019-09-11T10:54:34Z</time>
      </trkpt>
      <trkpt lat="44.26289" lon="6.08334">
        <ele>1230.9828123</ele>
        <time>2019-09-11T10:54:39Z</time>
      </trkpt>
      <trkpt lat="44.26279" lon="6.08347">
        <ele>1230.982914</ele>
        <time>2019-09-11T10:54:44Z</time>
      </trkpt>
      <trkpt lat="44.26273" lon="6.08357">
        <ele>1232.9829822</ele>
        <time>2019-09-11T10:54:48Z</time>
      </trkpt>
      <trkpt lat="44.26266" lon="6.08369">
        <ele>1233.9830453</ele>
        <time>2019-09-11T10:54:52Z</time>
      </trkpt>
      <trkpt lat="44.26259" lon="6.08384">
        <ele>1234.9831061</ele>
        <time>2019-09-11T10:54:57Z</time>
      </trkpt>
      <trkpt lat="44.26257" lon="6.08397">
        <ele>1235.9831193</ele>
        <time>2019-09-11T10:55:01Z</time>
      </trkpt>
      <trkpt lat="44.26252" lon="6.08413">
        <ele>1239.9831535</ele>
        <time>2019-09-11T10:55:06Z</time>
      </trkpt>
      <trkpt lat="44.2624" lon="6.08416">
        <ele>1238.9832981</ele>
        <time>2019-09-11T10:55:10Z</time>
      </trkpt>
      <trkpt lat="44.26232" lon="6.08421">
        <ele>1238.9834013</ele>
        <time>2019-09-11T10:55:14Z</time>
      </trkpt>
      <trkpt lat="44.26225" lon="6.0843">
        <ele>1238.983482</ele>
        <time>2019-09-11T10:55:18Z</time>
      </trkpt>
      <trkpt lat="44.26217" lon="6.08444">
        <ele>1240.9835579</ele>
        <time>2019-09-11T10:55:23Z</time>
      </trkpt>
      <trkpt lat="44.2621" lon="6.0846">
        <ele>1241.9836192</ele>
        <time>2019-09-11T10:55:27Z</time>
      </trkpt>
      <trkpt lat="44.26204" lon="6.08472">
        <ele>1242.9836859</ele>
        <time>2019-09-11T10:55:31Z</time>
      </trkpt>
      <trkpt lat="44.26194" lon="6.08485">
        <ele>1243.9837848</ele>
        <time>2019-09-11T10:55:36Z</time>
      </trkpt>
      <trkpt lat="44.26187" lon="6.08496">
        <ele>1243.9838626</ele>
        <time>2019-09-11T10:55:40Z</time>
      </trkpt>
      <trkpt lat="44.26181" lon="6.08506">
        <ele>1244.9839274</ele>
        <time>2019-09-11T10:55:45Z</time>
      </trkpt>
      <trkpt lat="44.26174" lon="6.08518">
        <ele>1244.984003</ele>
        <time>2019-09-11T10:55:50Z</time>
      </trkpt>
      <trkpt lat="44.26169" lon="6.08528">
        <ele>1244.984056</ele>
        <time>2019-09-11T10:55:53Z</time>
      </trkpt>
      <trkpt lat="44.26163" lon="6.08541">
        <ele>1245.9841141</ele>
        <time>2019-09-11T10:55:57Z</time>
      </trkpt>
      <trkpt lat="44.26156" lon="6.08556">
        <ele>1244.9841772</ele>
        <time>2019-09-11T10:56:01Z</time>
      </trkpt>
      <trkpt lat="44.2615" lon="6.0857">
        <ele>1244.9842385</ele>
        <time>2019-09-11T10:56:05Z</time>
      </trkpt>
      <trkpt lat="44.26139" lon="6.08592">
        <ele>1243.9843459</ele>
        <time>2019-09-11T10:56:10Z</time>
      </trkpt>
      <trkpt lat="44.26134" lon="6.08613">
        <ele>1245.9843763</ele>
        <time>2019-09-11T10:56:14Z</time>
      </trkpt>
      <trkpt lat="44.26126" lon="6.08629">
        <ele>1245.9844539</ele>
        <time>2019-09-11T10:56:18Z</time>
      </trkpt>
      <trkpt lat="44.26114" lon="6.08645">
        <ele>1246.9845922</ele>
        <time>2019-09-11T10:56:22Z</time>
      </trkpt>
      <trkpt lat="44.26101" lon="6.0865">
        <ele>1244.9847608</ele>
        <time>2019-09-11T10:56:25Z</time>
      </trkpt>
      <trkpt lat="44.26082" lon="6.08649">
        <ele>1243.9850282</ele>
        <time>2019-09-11T10:56:30Z</time>
      </trkpt>
      <trkpt lat="44.26068" lon="6.08652">
        <ele>1244.9852098</ele>
        <time>2019-09-11T10:56:34Z</time>
      </trkpt>
      <trkpt lat="44.26055" lon="6.0866">
        <ele>1243.9853797</ele>
        <time>2019-09-11T10:56:38Z</time>
      </trkpt>
      <trkpt lat="44.26044" lon="6.08671">
        <ele>1243.9855147</ele>
        <time>2019-09-11T10:56:42Z</time>
      </trkpt>
      <trkpt lat="44.26038" lon="6.08685">
        <ele>1243.9855702</ele>
        <time>2019-09-11T10:56:46Z</time>
      </trkpt>
      <trkpt lat="44.26035" lon="6.08708">
        <ele>1244.9855776</ele>
        <time>2019-09-11T10:56:51Z</time>
      </trkpt>
      <trkpt lat="44.26035" lon="6.08725">
        <ele>1246.9855507</ele>
        <time>2019-09-11T10:56:55Z</time>
      </trkpt>
      <trkpt lat="44.26034" lon="6.08738">
        <ele>1248.9855481</ele>
        <time>2019-09-11T10:56:58Z</time>
      </trkpt>
      <trkpt lat="44.26025" lon="6.08752">
        <ele>1247.9856444</ele>
        <time>2019-09-11T10:57:02Z</time>
      </trkpt>
      <trkpt lat="44.26013" lon="6.08756">
        <ele>1248.9858147</ele>
        <time>2019-09-11T10:57:06Z</time>
      </trkpt>
      <trkpt lat="44.25999" lon="6.08761">
        <ele>1249.9859949</ele>
        <time>2019-09-11T10:57:11Z</time>
      </trkpt>
      <trkpt lat="44.25989" lon="6.08768">
        <ele>1249.9861203</ele>
        <time>2019-09-11T10:57:15Z</time>
      </trkpt>
      <trkpt lat="44.25977" lon="6.08775">
        <ele>1253.9862772</ele>
        <time>2019-09-11T10:57:20Z</time>
      </trkpt>
      <trkpt lat="44.25969" lon="6.08785">
        <ele>1253.9863847</ele>
        <time>2019-09-11T10:57:24Z</time>
      </trkpt>
      <trkpt lat="44.25957" lon="6.08795">
        <ele>1254.9865355</ele>
        <time>2019-09-11T10:57:28Z</time>
      </trkpt>
      <trkpt lat="44.25946" lon="6.08805">
        <ele>1255.9866708</ele>
        <time>2019-09-11T10:57:33Z</time>
      </trkpt>
      <trkpt lat="44.25938" lon="6.0881">
        <ele>1256.9867803</ele>
        <time>2019-09-11T10:57:38Z</time>
      </trkpt>
      <trkpt lat="44.25928" lon="6.0882">
        <ele>1256.9869001</ele>
        <time>2019-09-11T10:57:43Z</time>
      </trkpt>
      <trkpt lat="44.2593" lon="6.08832">
        <ele>1258.9868602</ele>
        <time>2019-09-11T10:57:47Z</time>
      </trkpt>
      <trkpt lat="44.25943" lon="6.08835">
        <ele>1259.9866674</ele>
        <time>2019-09-11T10:57:52Z</time>
      </trkpt>
      <trkpt lat="44.25954" lon="6.08832">
        <ele>1259.9865179</ele>
        <time>2019-09-11T10:57:56Z</time>
      </trkpt>
      <trkpt lat="44.25965" lon="6.08833">
        <ele>1260.9863681</ele>
        <time>2019-09-11T10:58:00Z</time>
      </trkpt>
      <trkpt lat="44.25974" lon="6.08838">
        <ele>1260.9862274</ele>
        <time>2019-09-11T10:58:04Z</time>
      </trkpt>
      <trkpt lat="44.25983" lon="6.08847">
        <ele>1261.9860901</ele>
        <time>2019-09-11T10:58:07Z</time>
      </trkpt>
      <trkpt lat="44.25989" lon="6.0886">
        <ele>1263.9859754</ele>
        <time>2019-09-11T10:58:12Z</time>
      </trkpt>
      <trkpt lat="44.25989" lon="6.08876">
        <ele>1264.9859572</ele>
        <time>2019-09-11T10:58:16Z</time>
      </trkpt>
      <trkpt lat="44.25982" lon="6.08887">
        <ele>1264.9860404</ele>
        <time>2019-09-11T10:58:21Z</time>
      </trkpt>
      <trkpt lat="44.25972" lon="6.08898">
        <ele>1264.9861695</ele>
        <time>2019-09-11T10:58:26Z</time>
      </trkpt>
      <trkpt lat="44.25962" lon="6.08904">
        <ele>1264.9862923</ele>
        <time>2019-09-11T10:58:29Z</time>
      </trkpt>
      <trkpt lat="44.25952" lon="6.0891">
        <ele>1265.9864299</ele>
        <time>2019-09-11T10:58:34Z</time>
      </trkpt>
      <trkpt lat="44.25942" lon="6.08911">
        <ele>1266.9865648</ele>
        <time>2019-09-11T10:58:38Z</time>
      </trkpt>
      <trkpt lat="44.25933" lon="6.08911">
        <ele>1268.9867034</ele>
        <time>2019-09-11T10:58:42Z</time>
      </trkpt>
      <trkpt lat="44.25921" lon="6.08907">
        <ele>1270.9868825</ele>
        <time>2019-09-11T10:58:47Z</time>
      </trkpt>
      <trkpt lat="44.25911" lon="6.08904">
        <ele>1271.9870172</ele>
        <time>2019-09-11T10:58:51Z</time>
      </trkpt>
      <trkpt lat="44.25903" lon="6.08901">
        <ele>1273.9871467</ele>
        <time>2019-09-11T10:58:55Z</time>
      </trkpt>
      <trkpt lat="44.25893" lon="6.08899">
        <ele>1274.9872822</ele>
        <time>2019-09-11T10:58:59Z</time>
      </trkpt>
      <trkpt lat="44.25881" lon="6.08902">
        <ele>1274.9874461</ele>
        <time>2019-09-11T10:59:04Z</time>
      </trkpt>
      <trkpt lat="44.25872" lon="6.08907">
        <ele>1275.9875738</ele>
        <time>2019-09-11T10:59:07Z</time>
      </trkpt>
      <trkpt lat="44.25863" lon="6.08915">
        <ele>1275.9876896</ele>
        <time>2019-09-11T10:59:12Z</time>
      </trkpt>
      <trkpt lat="44.25855" lon="6.08926">
        <ele>1275.9877921</ele>
        <time>2019-09-11T10:59:16Z</time>
      </trkpt>
      <trkpt lat="44.2585" lon="6.08937">
        <ele>1276.9878458</ele>
        <time>2019-09-11T10:59:21Z</time>
      </trkpt>
      <trkpt lat="44.25844" lon="6.08949">
        <ele>1276.9879097</ele>
        <time>2019-09-11T10:59:25Z</time>
      </trkpt>
      <trkpt lat="44.25837" lon="6.08958">
        <ele>1275.9880026</ele>
        <time>2019-09-11T10:59:29Z</time>
      </trkpt>
      <trkpt lat="44.25831" lon="6.08968">
        <ele>1276.9880754</ele>
        <time>2019-09-11T10:59:33Z</time>
      </trkpt>
      <trkpt lat="44.25826" lon="6.08983">
        <ele>1276.9881288</ele>
        <time>2019-09-11T10:59:38Z</time>
      </trkpt>
      <trkpt lat="44.25822" lon="6.08996">
        <ele>1277.9881697</ele>
        <time>2019-09-11T10:59:42Z</time>
      </trkpt>
      <trkpt lat="44.25816" lon="6.09006">
        <ele>1277.9882397</ele>
        <time>2019-09-11T10:59:46Z</time>
      </trkpt>
      <trkpt lat="44.25805" lon="6.09015">
        <ele>1277.9883844</ele>
        <time>2019-09-11T10:59:51Z</time>
      </trkpt>
      <trkpt lat="44.258" lon="6.09026">
        <ele>1277.9884521</ele>
        <time>2019-09-11T10:59:55Z</time>
      </trkpt>
      <trkpt lat="44.25794" lon="6.09041">
        <ele>1278.988513</ele>
        <time>2019-09-11T10:59:59Z</time>
      </trkpt>
      <trkpt lat="44.25792" lon="6.09053">
        <ele>1279.9885354</ele>
        <time>2019-09-11T11:00:04Z</time>
      </trkpt>
      <trkpt lat="44.25788" lon="6.09067">
        <ele>1281.9885723</ele>
        <time>2019-09-11T11:00:09Z</time>
      </trkpt>
      <trkpt lat="44.25783" lon="6.09077">
        <ele>1281.9886223</ele>
        <time>2019-09-11T11:00:12Z</time>
      </trkpt>
      <trkpt lat="44.25778" lon="6.09085">
        <ele>1280.9886932</ele>
        <time>2019-09-11T11:00:17Z</time>
      </trkpt>
      <trkpt lat="44.25773" lon="6.09096">
        <ele>1278.9887577</ele>
        <time>2019-09-11T11:00:22Z</time>
      </trkpt>
      <trkpt lat="44.25767" lon="6.09104">
        <ele>1277.9888247</ele>
        <time>2019-09-11T11:00:25Z</time>
      </trkpt>
      <trkpt lat="44.25761" lon="6.09111">
        <ele>1276.9889085</ele>
        <time>2019-09-11T11:00:28Z</time>
      </trkpt>
      <trkpt lat="44.25752" lon="6.09119">
        <ele>1277.9890307</ele>
        <time>2019-09-11T11:00:32Z</time>
      </trkpt>
      <trkpt lat="44.2574" lon="6.09127">
        <ele>1272.9891968</ele>
        <time>2019-09-11T11:00:36Z</time>
      </trkpt>
      <trkpt lat="44.25729" lon="6.09135">
        <ele>1271.9893495</ele>
        <time>2019-09-11T11:00:40Z</time>
      </trkpt>
      <trkpt lat="44.25716" lon="6.09146">
        <ele>1270.9895276</ele>
        <time>2019-09-11T11:00:44Z</time>
      </trkpt>
      <trkpt lat="44.25701" lon="6.09154">
        <ele>1270.9897414</ele>
        <time>2019-09-11T11:00:48Z</time>
      </trkpt>
      <trkpt lat="44.25689" lon="6.09154">
        <ele>1271.9899126</ele>
        <time>2019-09-11T11:00:53Z</time>
      </trkpt>
      <trkpt lat="44.2568" lon="6.09155">
        <ele>1272.990038</ele>
        <time>2019-09-11T11:00:57Z</time>
      </trkpt>
      <trkpt lat="44.25674" lon="6.09167">
        <ele>1273.9901128</ele>
        <time>2019-09-11T11:01:02Z</time>
      </trkpt>
      <trkpt lat="44.25674" lon="6.09179">
        <ele>1275.9901037</ele>
        <time>2019-09-11T11:01:06Z</time>
      </trkpt>
      <trkpt lat="44.25673" lon="6.09192">
        <ele>1276.9900989</ele>
        <time>2019-09-11T11:01:10Z</time>
      </trkpt>
      <trkpt lat="44.25669" lon="6.09206">
        <ele>1277.9901435</ele>
        <time>2019-09-11T11:01:15Z</time>
      </trkpt>
      <trkpt lat="44.25664" lon="6.09215">
        <ele>1278.9902147</ele>
        <time>2019-09-11T11:01:19Z</time>
      </trkpt>
      <trkpt lat="44.25657" lon="6.09222">
        <ele>1279.9903124</ele>
        <time>2019-09-11T11:01:23Z</time>
      </trkpt>
      <trkpt lat="44.25649" lon="6.09226">
        <ele>1281.9904214</ele>
        <time>2019-09-11T11:01:27Z</time>
      </trkpt>
      <trkpt lat="44.2564" lon="6.09233">
        <ele>1281.9905427</ele>
        <time>2019-09-11T11:01:32Z</time>
      </trkpt>
      <trkpt lat="44.25633" lon="6.09242">
        <ele>1282.9906333</ele>
        <time>2019-09-11T11:01:36Z</time>
      </trkpt>
      <trkpt lat="44.25629" lon="6.09251">
        <ele>1282.9906981</ele>
        <time>2019-09-11T11:01:40Z</time>
      </trkpt>
      <trkpt lat="44.25624" lon="6.09259">
        <ele>1284.9907548</ele>
        <time>2019-09-11T11:01:45Z</time>
      </trkpt>
      <trkpt lat="44.2562" lon="6.0927">
        <ele>1285.9907977</ele>
        <time>2019-09-11T11:01:49Z</time>
      </trkpt>
      <trkpt lat="44.25618" lon="6.09282">
        <ele>1286.9908298</ele>
        <time>2019-09-11T11:01:53Z</time>
      </trkpt>
      <trkpt lat="44.25615" lon="6.09294">
        <ele>1287.9908543</ele>
        <time>2019-09-11T11:01:56Z</time>
      </trkpt>
      <trkpt lat="44.25613" lon="6.09306">
        <ele>1288.9908781</ele>
        <time>2019-09-11T11:02:01Z</time>
      </trkpt>
      <trkpt lat="44.25611" lon="6.09317">
        <ele>1290.9908994</ele>
        <time>2019-09-11T11:02:05Z</time>
      </trkpt>
      <trkpt lat="44.25606" lon="6.09328">
        <ele>1289.9909492</ele>
        <time>2019-09-11T11:02:09Z</time>
      </trkpt>
      <trkpt lat="44.25601" lon="6.0934">
        <ele>1290.9910251</ele>
        <time>2019-09-11T11:02:14Z</time>
      </trkpt>
      <trkpt lat="44.25595" lon="6.09349">
        <ele>1290.9911061</ele>
        <time>2019-09-11T11:02:18Z</time>
      </trkpt>
      <trkpt lat="44.2559" lon="6.09357">
        <ele>1290.9911718</ele>
        <time>2019-09-11T11:02:22Z</time>
      </trkpt>
      <trkpt lat="44.25583" lon="6.09367">
        <ele>1289.9912608</ele>
        <time>2019-09-11T11:02:26Z</time>
      </trkpt>
      <trkpt lat="44.25576" lon="6.0938">
        <ele>1289.9913589</ele>
        <time>2019-09-11T11:02:31Z</time>
      </trkpt>
      <trkpt lat="44.25569" lon="6.09396">
        <ele>1289.9914413</ele>
        <time>2019-09-11T11:02:36Z</time>
      </trkpt>
      <trkpt lat="44.25566" lon="6.09408">
        <ele>1290.9914863</ele>
        <time>2019-09-11T11:02:40Z</time>
      </trkpt>
      <trkpt lat="44.25561" lon="6.0942">
        <ele>1291.9915408</ele>
        <time>2019-09-11T11:02:44Z</time>
      </trkpt>
      <trkpt lat="44.25557" lon="6.09432">
        <ele>1292.9915895</ele>
        <time>2019-09-11T11:02:48Z</time>
      </trkpt>
      <trkpt lat="44.25552" lon="6.09449">
        <ele>1293.9916607</ele>
        <time>2019-09-11T11:02:52Z</time>
      </trkpt>
      <trkpt lat="44.25547" lon="6.09459">
        <ele>1294.9917241</ele>
        <time>2019-09-11T11:02:56Z</time>
      </trkpt>
      <trkpt lat="44.2554" lon="6.09473">
        <ele>1294.9918105</ele>
        <time>2019-09-11T11:03:00Z</time>
      </trkpt>
      <trkpt lat="44.25531" lon="6.0949">
        <ele>1294.9919375</ele>
        <time>2019-09-11T11:03:05Z</time>
      </trkpt>
      <trkpt lat="44.25523" lon="6.09502">
        <ele>1294.9920565</ele>
        <time>2019-09-11T11:03:09Z</time>
      </trkpt>
      <trkpt lat="44.25515" lon="6.0951">
        <ele>1294.9921619</ele>
        <time>2019-09-11T11:03:12Z</time>
      </trkpt>
      <trkpt lat="44.25503" lon="6.09522">
        <ele>1293.9923341</ele>
        <time>2019-09-11T11:03:17Z</time>
      </trkpt>
      <trkpt lat="44.25495" lon="6.09531">
        <ele>1291.9924533</ele>
        <time>2019-09-11T11:03:21Z</time>
      </trkpt>
      <trkpt lat="44.25486" lon="6.09546">
        <ele>1292.9925799</ele>
        <time>2019-09-11T11:03:25Z</time>
      </trkpt>
      <trkpt lat="44.25479" lon="6.09557">
        <ele>1293.9926692</ele>
        <time>2019-09-11T11:03:30Z</time>
      </trkpt>
      <trkpt lat="44.25471" lon="6.09574">
        <ele>1295.9927809</ele>
        <time>2019-09-11T11:03:34Z</time>
      </trkpt>
      <trkpt lat="44.25466" lon="6.09588">
        <ele>1297.9928565</ele>
        <time>2019-09-11T11:03:39Z</time>
      </trkpt>
      <trkpt lat="44.25465" lon="6.09604">
        <ele>1301.9928619</ele>
        <time>2019-09-11T11:03:43Z</time>
      </trkpt>
      <trkpt lat="44.25464" lon="6.09622">
        <ele>1301.9928589</ele>
        <time>2019-09-11T11:03:48Z</time>
      </trkpt>
      <trkpt lat="44.25458" lon="6.0964">
        <ele>1304.9929322</ele>
        <time>2019-09-11T11:03:53Z</time>
      </trkpt>
      <trkpt lat="44.25452" lon="6.09657">
        <ele>1303.993022</ele>
        <time>2019-09-11T11:03:57Z</time>
      </trkpt>
      <trkpt lat="44.25447" lon="6.09678">
        <ele>1303.9930858</ele>
        <time>2019-09-11T11:04:02Z</time>
      </trkpt>
      <trkpt lat="44.25442" lon="6.09694">
        <ele>1303.993145</ele>
        <time>2019-09-11T11:04:06Z</time>
      </trkpt>
      <trkpt lat="44.25438" lon="6.09713">
        <ele>1304.9931977</ele>
        <time>2019-09-11T11:04:11Z</time>
      </trkpt>
      <trkpt lat="44.25435" lon="6.09723">
        <ele>1304.9932291</ele>
        <time>2019-09-11T11:04:14Z</time>
      </trkpt>
      <trkpt lat="44.2543" lon="6.09736">
        <ele>1304.9933013</ele>
        <time>2019-09-11T11:04:18Z</time>
      </trkpt>
      <trkpt lat="44.25426" lon="6.09748">
        <ele>1304.9933518</ele>
        <time>2019-09-11T11:04:22Z</time>
      </trkpt>
      <trkpt lat="44.25425" lon="6.09762">
        <ele>1305.9933628</ele>
        <time>2019-09-11T11:04:26Z</time>
      </trkpt>
      <trkpt lat="44.25425" lon="6.09771">
        <ele>1304.9933559</ele>
        <time>2019-09-11T11:04:33Z</time>
      </trkpt>
      <trkpt lat="44.25429" lon="6.0979">
        <ele>1301.9932746</ele>
        <time>2019-09-11T11:04:38Z</time>
      </trkpt>
      <trkpt lat="44.25434" lon="6.09814">
        <ele>1298.9931924</ele>
        <time>2019-09-11T11:04:42Z</time>
      </trkpt>
      <trkpt lat="44.25431" lon="6.09846">
        <ele>1295.9932057</ele>
        <time>2019-09-11T11:04:47Z</time>
      </trkpt>
      <trkpt lat="44.25425" lon="6.09873">
        <ele>1293.9932819</ele>
        <time>2019-09-11T11:04:51Z</time>
      </trkpt>
      <trkpt lat="44.2542" lon="6.09909">
        <ele>1288.9933421</ele>
        <time>2019-09-11T11:04:56Z</time>
      </trkpt>
      <trkpt lat="44.25417" lon="6.09938">
        <ele>1284.9933726</ele>
        <time>2019-09-11T11:05:00Z</time>
      </trkpt>
      <trkpt lat="44.25405" lon="6.09961">
        <ele>1281.9935483</ele>
        <time>2019-09-11T11:05:04Z</time>
      </trkpt>
      <trkpt lat="44.25391" lon="6.09983">
        <ele>1279.9937626</ele>
        <time>2019-09-11T11:05:08Z</time>
      </trkpt>
      <trkpt lat="44.25369" lon="6.10004">
        <ele>1276.9940883</ele>
        <time>2019-09-11T11:05:13Z</time>
      </trkpt>
      <trkpt lat="44.25344" lon="6.10019">
        <ele>1273.9944843</ele>
        <time>2019-09-11T11:05:18Z</time>
      </trkpt>
      <trkpt lat="44.25321" lon="6.10027">
        <ele>1272.9948543</ele>
        <time>2019-09-11T11:05:22Z</time>
      </trkpt>
      <trkpt lat="44.253" lon="6.10031">
        <ele>1271.995186</ele>
        <time>2019-09-11T11:05:26Z</time>
      </trkpt>
      <trkpt lat="44.25281" lon="6.10029">
        <ele>1271.9954994</ele>
        <time>2019-09-11T11:05:30Z</time>
      </trkpt>
      <trkpt lat="44.25262" lon="6.10031">
        <ele>1273.9957925</ele>
        <time>2019-09-11T11:05:34Z</time>
      </trkpt>
      <trkpt lat="44.25238" lon="6.10032">
        <ele>1270.9961876</ele>
        <time>2019-09-11T11:05:39Z</time>
      </trkpt>
      <trkpt lat="44.25216" lon="6.10028">
        <ele>1269.9965291</ele>
        <time>2019-09-11T11:05:43Z</time>
      </trkpt>
      <trkpt lat="44.25194" lon="6.10037">
        <ele>1268.9968933</ele>
        <time>2019-09-11T11:05:48Z</time>
      </trkpt>
      <trkpt lat="44.2518" lon="6.10047">
        <ele>1266.9971053</ele>
        <time>2019-09-11T11:05:52Z</time>
      </trkpt>
      <trkpt lat="44.25167" lon="6.10054">
        <ele>1264.9973073</ele>
        <time>2019-09-11T11:05:56Z</time>
      </trkpt>
      <trkpt lat="44.25156" lon="6.10058">
        <ele>1261.9974829</ele>
        <time>2019-09-11T11:06:01Z</time>
      </trkpt>
      <trkpt lat="44.2515" lon="6.10061">
        <ele>1261.9975865</ele>
        <time>2019-09-11T11:06:11Z</time>
      </trkpt>
      <trkpt lat="44.25136" lon="6.10073">
        <ele>1261.9978105</ele>
        <time>2019-09-11T11:06:16Z</time>
      </trkpt>
      <trkpt lat="44.25119" lon="6.10083">
        <ele>1261.998082</ele>
        <time>2019-09-11T11:06:20Z</time>
      </trkpt>
      <trkpt lat="44.25103" lon="6.10094">
        <ele>1257.9983358</ele>
        <time>2019-09-11T11:06:25Z</time>
      </trkpt>
      <trkpt lat="44.25088" lon="6.1011">
        <ele>1255.9985769</ele>
        <time>2019-09-11T11:06:29Z</time>
      </trkpt>
      <trkpt lat="44.25077" lon="6.10124">
        <ele>1256.9987475</ele>
        <time>2019-09-11T11:06:34Z</time>
      </trkpt>
      <trkpt lat="44.2507" lon="6.10135">
        <ele>1256.9988602</ele>
        <time>2019-09-11T11:06:38Z</time>
      </trkpt>
      <trkpt lat="44.25063" lon="6.10149">
        <ele>1254.9989787</ele>
        <time>2019-09-11T11:06:43Z</time>
      </trkpt>
      <trkpt lat="44.25057" lon="6.10158">
        <ele>1254.9990791</ele>
        <time>2019-09-11T11:06:47Z</time>
      </trkpt>
      <trkpt lat="44.25051" lon="6.10174">
        <ele>1253.9991735</ele>
        <time>2019-09-11T11:06:52Z</time>
      </trkpt>
      <trkpt lat="44.25045" lon="6.10183">
        <ele>1253.9992603</ele>
        <time>2019-09-11T11:06:59Z</time>
      </trkpt>
      <trkpt lat="44.2504" lon="6.10192">
        <ele>1251.9993483</ele>
        <time>2019-09-11T11:07:09Z</time>
      </trkpt>
      <trkpt lat="44.2503" lon="6.10202">
        <ele>1250.9995187</ele>
        <time>2019-09-11T11:07:13Z</time>
      </trkpt>
      <trkpt lat="44.25008" lon="6.10203">
        <ele>1249.9998665</ele>
        <time>2019-09-11T11:07:17Z</time>
      </trkpt>
      <trkpt lat="44.24993" lon="6.10207">
        <ele>1250.0002753</ele>
        <time>2019-09-11T11:07:21Z</time>
      </trkpt>
      <trkpt lat="44.24972" lon="6.10209">
        <ele>1247.0011138</ele>
        <time>2019-09-11T11:07:26Z</time>
      </trkpt>
      <trkpt lat="44.24951" lon="6.10198">
        <ele>1245.0019811</ele>
        <time>2019-09-11T11:07:30Z</time>
      </trkpt>
      <trkpt lat="44.2493" lon="6.10188">
        <ele>1246.0028202</ele>
        <time>2019-09-11T11:07:34Z</time>
      </trkpt>
      <trkpt lat="44.24911" lon="6.10179">
        <ele>1242.0035683</ele>
        <time>2019-09-11T11:07:38Z</time>
      </trkpt>
      <trkpt lat="44.24899" lon="6.10173">
        <ele>1241.0040427</ele>
        <time>2019-09-11T11:07:42Z</time>
      </trkpt>
      <trkpt lat="44.24887" lon="6.10169">
        <ele>1239.004519</ele>
        <time>2019-09-11T11:07:46Z</time>
      </trkpt>
      <trkpt lat="44.24873" lon="6.10169">
        <ele>1237.0050725</ele>
        <time>2019-09-11T11:07:50Z</time>
      </trkpt>
      <trkpt lat="44.2485" lon="6.10169">
        <ele>1233.0059947</ele>
        <time>2019-09-11T11:07:55Z</time>
      </trkpt>
      <trkpt lat="44.24822" lon="6.10169">
        <ele>1230.0071031</ele>
        <time>2019-09-11T11:07:59Z</time>
      </trkpt>
      <trkpt lat="44.24789" lon="6.1017">
        <ele>1225.0084327</ele>
        <time>2019-09-11T11:08:04Z</time>
      </trkpt>
      <trkpt lat="44.24765" lon="6.10171">
        <ele>1225.0094092</ele>
        <time>2019-09-11T11:08:08Z</time>
      </trkpt>
      <trkpt lat="44.24738" lon="6.10173">
        <ele>1221.0104844</ele>
        <time>2019-09-11T11:08:12Z</time>
      </trkpt>
      <trkpt lat="44.24708" lon="6.10175">
        <ele>1220.0116857</ele>
        <time>2019-09-11T11:08:16Z</time>
      </trkpt>
      <trkpt lat="44.24681" lon="6.10177">
        <ele>1220.0127427</ele>
        <time>2019-09-11T11:08:20Z</time>
      </trkpt>
      <trkpt lat="44.24663" lon="6.10176">
        <ele>1219.0134685</ele>
        <time>2019-09-11T11:08:25Z</time>
      </trkpt>
      <trkpt lat="44.24654" lon="6.10159">
        <ele>1221.0138229</ele>
        <time>2019-09-11T11:08:30Z</time>
      </trkpt>
      <trkpt lat="44.24657" lon="6.10142">
        <ele>1226.01373</ele>
        <time>2019-09-11T11:08:34Z</time>
      </trkpt>
      <trkpt lat="44.2466" lon="6.10119">
        <ele>1227.0136134</ele>
        <time>2019-09-11T11:08:38Z</time>
      </trkpt>
      <trkpt lat="44.24663" lon="6.10093">
        <ele>1226.0134794</ele>
        <time>2019-09-11T11:08:43Z</time>
      </trkpt>
      <trkpt lat="44.24666" lon="6.10063">
        <ele>1223.0133497</ele>
        <time>2019-09-11T11:08:48Z</time>
      </trkpt>
      <trkpt lat="44.24673" lon="6.10038">
        <ele>1221.0130806</ele>
        <time>2019-09-11T11:08:52Z</time>
      </trkpt>
      <trkpt lat="44.24682" lon="6.10012">
        <ele>1220.0127066</ele>
        <time>2019-09-11T11:08:56Z</time>
      </trkpt>
      <trkpt lat="44.24693" lon="6.09993">
        <ele>1221.0122818</ele>
        <time>2019-09-11T11:09:01Z</time>
      </trkpt>
      <trkpt lat="44.24706" lon="6.09971">
        <ele>1220.0117772</ele>
        <time>2019-09-11T11:09:05Z</time>
      </trkpt>
      <trkpt lat="44.24711" lon="6.09951">
        <ele>1220.0115756</ele>
        <time>2019-09-11T11:09:10Z</time>
      </trkpt>
      <trkpt lat="44.24707" lon="6.09931">
        <ele>1221.0117147</ele>
        <time>2019-09-11T11:09:14Z</time>
      </trkpt>
      <trkpt lat="44.24698" lon="6.09908">
        <ele>1221.0120738</ele>
        <time>2019-09-11T11:09:19Z</time>
      </trkpt>
      <trkpt lat="44.24693" lon="6.09891">
        <ele>1222.0122843</ele>
        <time>2019-09-11T11:09:24Z</time>
      </trkpt>
      <trkpt lat="44.24689" lon="6.09874">
        <ele>1222.0124411</ele>
        <time>2019-09-11T11:09:28Z</time>
      </trkpt>
      <trkpt lat="44.24685" lon="6.09853">
        <ele>1222.0126194</ele>
        <time>2019-09-11T11:09:32Z</time>
      </trkpt>
      <trkpt lat="44.24684" lon="6.09836">
        <ele>1222.0126352</ele>
        <time>2019-09-11T11:09:37Z</time>
      </trkpt>
      <trkpt lat="44.24683" lon="6.09824">
        <ele>1222.0126744</ele>
        <time>2019-09-11T11:09:40Z</time>
      </trkpt>
      <trkpt lat="44.24683" lon="6.09805">
        <ele>1225.0126915</ele>
        <time>2019-09-11T11:09:44Z</time>
      </trkpt>
      <trkpt lat="44.24681" lon="6.09787">
        <ele>1225.0127567</ele>
        <time>2019-09-11T11:09:49Z</time>
      </trkpt>
      <trkpt lat="44.2468" lon="6.09766">
        <ele>1228.0127975</ele>
        <time>2019-09-11T11:09:54Z</time>
      </trkpt>
      <trkpt lat="44.24676" lon="6.09751">
        <ele>1228.0129448</ele>
        <time>2019-09-11T11:09:58Z</time>
      </trkpt>
      <trkpt lat="44.24674" lon="6.09737">
        <ele>1227.0130342</ele>
        <time>2019-09-11T11:10:03Z</time>
      </trkpt>
      <trkpt lat="44.24672" lon="6.09724">
        <ele>1228.0131187</ele>
        <time>2019-09-11T11:10:07Z</time>
      </trkpt>
      <trkpt lat="44.24671" lon="6.09705">
        <ele>1230.0131447</ele>
        <time>2019-09-11T11:10:12Z</time>
      </trkpt>
      <trkpt lat="44.24672" lon="6.09693">
        <ele>1233.0131229</ele>
        <time>2019-09-11T11:11:57Z</time>
      </trkpt>
      <trkpt lat="44.2467" lon="6.09684">
        <ele>1232.0132114</ele>
        <time>2019-09-11T11:12:07Z</time>
      </trkpt>
      <trkpt lat="44.24664" lon="6.09669">
        <ele>1230.0134226</ele>
        <time>2019-09-11T11:12:11Z</time>
      </trkpt>
      <trkpt lat="44.2466" lon="6.09656">
        <ele>1230.0136184</ele>
        <time>2019-09-11T11:12:15Z</time>
      </trkpt>
      <trkpt lat="44.24655" lon="6.09644">
        <ele>1230.0137909</ele>
        <time>2019-09-11T11:12:19Z</time>
      </trkpt>
      <trkpt lat="44.24653" lon="6.09633">
        <ele>1230.0138787</ele>
        <time>2019-09-11T11:12:23Z</time>
      </trkpt>
      <trkpt lat="44.24646" lon="6.09636">
        <ele>1234.0141615</ele>
        <time>2019-09-11T11:14:19Z</time>
      </trkpt>
      <trkpt lat="44.24653" lon="6.09629">
        <ele>1236.013871</ele>
        <time>2019-09-11T11:17:26Z</time>
      </trkpt>
      <trkpt lat="44.24661" lon="6.09623">
        <ele>1235.0135701</ele>
        <time>2019-09-11T11:17:30Z</time>
      </trkpt>
      <trkpt lat="44.24666" lon="6.09609">
        <ele>1234.013377</ele>
        <time>2019-09-11T11:17:34Z</time>
      </trkpt>
      <trkpt lat="44.24671" lon="6.0959">
        <ele>1234.0131547</ele>
        <time>2019-09-11T11:17:39Z</time>
      </trkpt>
      <trkpt lat="44.24678" lon="6.09571">
        <ele>1237.0128994</ele>
        <time>2019-09-11T11:17:44Z</time>
      </trkpt>
      <trkpt lat="44.24681" lon="6.09558">
        <ele>1238.0127497</ele>
        <time>2019-09-11T11:17:48Z</time>
      </trkpt>
      <trkpt lat="44.24686" lon="6.09544">
        <ele>1236.0125499</ele>
        <time>2019-09-11T11:17:52Z</time>
      </trkpt>
      <trkpt lat="44.24687" lon="6.09529">
        <ele>1237.0125021</ele>
        <time>2019-09-11T11:17:56Z</time>
      </trkpt>
      <trkpt lat="44.24685" lon="6.09514">
        <ele>1234.012595</ele>
        <time>2019-09-11T11:18:00Z</time>
      </trkpt>
      <trkpt lat="44.24676" lon="6.095">
        <ele>1234.0129735</ele>
        <time>2019-09-11T11:18:05Z</time>
      </trkpt>
      <trkpt lat="44.24669" lon="6.09494">
        <ele>1234.0132387</ele>
        <time>2019-09-11T11:18:08Z</time>
      </trkpt>
      <trkpt lat="44.24658" lon="6.09481">
        <ele>1235.0136811</ele>
        <time>2019-09-11T11:18:13Z</time>
      </trkpt>
      <trkpt lat="44.24651" lon="6.09469">
        <ele>1235.0139793</ele>
        <time>2019-09-11T11:18:17Z</time>
      </trkpt>
      <trkpt lat="44.24641" lon="6.09456">
        <ele>1236.0143771</ele>
        <time>2019-09-11T11:18:22Z</time>
      </trkpt>
      <trkpt lat="44.24633" lon="6.09445">
        <ele>1238.0146645</ele>
        <time>2019-09-11T11:18:26Z</time>
      </trkpt>
      <trkpt lat="44.24623" lon="6.09432">
        <ele>1238.0150832</ele>
        <time>2019-09-11T11:18:31Z</time>
      </trkpt>
      <trkpt lat="44.24614" lon="6.09422">
        <ele>1238.0154488</ele>
        <time>2019-09-11T11:18:35Z</time>
      </trkpt>
      <trkpt lat="44.24603" lon="6.09404">
        <ele>1238.0158746</ele>
        <time>2019-09-11T11:18:40Z</time>
      </trkpt>
      <trkpt lat="44.24589" lon="6.09387">
        <ele>1236.0164361</ele>
        <time>2019-09-11T11:18:45Z</time>
      </trkpt>
      <trkpt lat="44.24578" lon="6.09371">
        <ele>1236.0168672</ele>
        <time>2019-09-11T11:18:49Z</time>
      </trkpt>
      <trkpt lat="44.24564" lon="6.0935">
        <ele>1236.0174374</ele>
        <time>2019-09-11T11:18:54Z</time>
      </trkpt>
      <trkpt lat="44.2455" lon="6.09329">
        <ele>1238.0180174</ele>
        <time>2019-09-11T11:18:58Z</time>
      </trkpt>
      <trkpt lat="44.24534" lon="6.09306">
        <ele>1235.0186242</ele>
        <time>2019-09-11T11:19:02Z</time>
      </trkpt>
      <trkpt lat="44.24519" lon="6.09283">
        <ele>1233.0192403</ele>
        <time>2019-09-11T11:19:06Z</time>
      </trkpt>
      <trkpt lat="44.24504" lon="6.09256">
        <ele>1233.0198426</ele>
        <time>2019-09-11T11:19:10Z</time>
      </trkpt>
      <trkpt lat="44.24486" lon="6.09219">
        <ele>1230.0205519</ele>
        <time>2019-09-11T11:19:15Z</time>
      </trkpt>
      <trkpt lat="44.24466" lon="6.09185">
        <ele>1229.0213529</ele>
        <time>2019-09-11T11:19:20Z</time>
      </trkpt>
      <trkpt lat="44.2445" lon="6.0916">
        <ele>1227.0219894</ele>
        <time>2019-09-11T11:19:24Z</time>
      </trkpt>
      <trkpt lat="44.24433" lon="6.09135">
        <ele>1226.022668</ele>
        <time>2019-09-11T11:19:28Z</time>
      </trkpt>
      <trkpt lat="44.24412" lon="6.09105">
        <ele>1226.0235072</ele>
        <time>2019-09-11T11:19:33Z</time>
      </trkpt>
      <trkpt lat="44.24401" lon="6.09084">
        <ele>1226.0239769</ele>
        <time>2019-09-11T11:19:37Z</time>
      </trkpt>
      <trkpt lat="44.24403" lon="6.09051">
        <ele>1226.0238768</ele>
        <time>2019-09-11T11:19:42Z</time>
      </trkpt>
      <trkpt lat="44.24412" lon="6.09027">
        <ele>1226.0235251</ele>
        <time>2019-09-11T11:19:46Z</time>
      </trkpt>
      <trkpt lat="44.24421" lon="6.09005">
        <ele>1225.0231687</ele>
        <time>2019-09-11T11:19:50Z</time>
      </trkpt>
      <trkpt lat="44.24426" lon="6.0897">
        <ele>1223.0229805</ele>
        <time>2019-09-11T11:19:55Z</time>
      </trkpt>
      <trkpt lat="44.24424" lon="6.08932">
        <ele>1221.0230417</ele>
        <time>2019-09-11T11:19:59Z</time>
      </trkpt>
      <trkpt lat="44.24432" lon="6.08894">
        <ele>1218.0227337</ele>
        <time>2019-09-11T11:20:03Z</time>
      </trkpt>
      <trkpt lat="44.24438" lon="6.08867">
        <ele>1216.0224863</ele>
        <time>2019-09-11T11:20:06Z</time>
      </trkpt>
      <trkpt lat="44.24458" lon="6.08833">
        <ele>1213.0216853</ele>
        <time>2019-09-11T11:20:11Z</time>
      </trkpt>
      <trkpt lat="44.24466" lon="6.08807">
        <ele>1212.0213457</ele>
        <time>2019-09-11T11:20:15Z</time>
      </trkpt>
      <trkpt lat="44.24464" lon="6.08772">
        <ele>1210.0214397</ele>
        <time>2019-09-11T11:20:20Z</time>
      </trkpt>
      <trkpt lat="44.24448" lon="6.08736">
        <ele>1207.0220788</ele>
        <time>2019-09-11T11:20:25Z</time>
      </trkpt>
      <trkpt lat="44.24437" lon="6.08681">
        <ele>1204.0225106</ele>
        <time>2019-09-11T11:20:30Z</time>
      </trkpt>
      <trkpt lat="44.24424" lon="6.08633">
        <ele>1201.0230291</ele>
        <time>2019-09-11T11:20:34Z</time>
      </trkpt>
      <trkpt lat="44.24411" lon="6.08594">
        <ele>1200.0235582</ele>
        <time>2019-09-11T11:20:38Z</time>
      </trkpt>
      <trkpt lat="44.2441" lon="6.08544">
        <ele>1199.0235925</ele>
        <time>2019-09-11T11:20:43Z</time>
      </trkpt>
      <trkpt lat="44.2442" lon="6.08505">
        <ele>1199.0231984</ele>
        <time>2019-09-11T11:20:47Z</time>
      </trkpt>
      <trkpt lat="44.24424" lon="6.08467">
        <ele>1200.0230537</ele>
        <time>2019-09-11T11:20:51Z</time>
      </trkpt>
      <trkpt lat="44.24415" lon="6.08433">
        <ele>1199.0234009</ele>
        <time>2019-09-11T11:20:56Z</time>
      </trkpt>
      <trkpt lat="44.24404" lon="6.08405">
        <ele>1200.0238239</ele>
        <time>2019-09-11T11:21:01Z</time>
      </trkpt>
      <trkpt lat="44.24399" lon="6.08383">
        <ele>1201.0240336</ele>
        <time>2019-09-11T11:21:05Z</time>
      </trkpt>
      <trkpt lat="44.24386" lon="6.08368">
        <ele>1200.0245803</ele>
        <time>2019-09-11T11:21:09Z</time>
      </trkpt>
      <trkpt lat="44.24373" lon="6.08362">
        <ele>1200.0250852</ele>
        <time>2019-09-11T11:21:14Z</time>
      </trkpt>
      <trkpt lat="44.24358" lon="6.08354">
        <ele>1202.0256877</ele>
        <time>2019-09-11T11:21:19Z</time>
      </trkpt>
      <trkpt lat="44.24346" lon="6.08343">
        <ele>1202.0261696</ele>
        <time>2019-09-11T11:21:23Z</time>
      </trkpt>
      <trkpt lat="44.24332" lon="6.08321">
        <ele>1202.0267109</ele>
        <time>2019-09-11T11:21:28Z</time>
      </trkpt>
      <trkpt lat="44.24323" lon="6.08305">
        <ele>1204.0270727</ele>
        <time>2019-09-11T11:21:32Z</time>
      </trkpt>
      <trkpt lat="44.24317" lon="6.08295">
        <ele>1204.0273372</ele>
        <time>2019-09-11T11:21:35Z</time>
      </trkpt>
      <trkpt lat="44.24306" lon="6.08284">
        <ele>1205.0277443</ele>
        <time>2019-09-11T11:21:39Z</time>
      </trkpt>
      <trkpt lat="44.24295" lon="6.08277">
        <ele>1206.028219</ele>
        <time>2019-09-11T11:21:43Z</time>
      </trkpt>
      <trkpt lat="44.24283" lon="6.08268">
        <ele>1206.0286783</ele>
        <time>2019-09-11T11:21:47Z</time>
      </trkpt>
      <trkpt lat="44.24274" lon="6.08254">
        <ele>1206.0290237</ele>
        <time>2019-09-11T11:21:51Z</time>
      </trkpt>
      <trkpt lat="44.24267" lon="6.08233">
        <ele>1207.0293341</ele>
        <time>2019-09-11T11:21:56Z</time>
      </trkpt>
      <trkpt lat="44.24259" lon="6.0821">
        <ele>1208.0296533</ele>
        <time>2019-09-11T11:22:01Z</time>
      </trkpt>
      <trkpt lat="44.24253" lon="6.08192">
        <ele>1209.0298783</ele>
        <time>2019-09-11T11:22:05Z</time>
      </trkpt>
      <trkpt lat="44.24248" lon="6.0817">
        <ele>1209.0300955</ele>
        <time>2019-09-11T11:22:10Z</time>
      </trkpt>
      <trkpt lat="44.2424" lon="6.08153">
        <ele>1209.0303856</ele>
        <time>2019-09-11T11:22:14Z</time>
      </trkpt>
      <trkpt lat="44.24223" lon="6.08151">
        <ele>1210.0310761</ele>
        <time>2019-09-11T11:22:19Z</time>
      </trkpt>
      <trkpt lat="44.24206" lon="6.08161">
        <ele>1209.031749</ele>
        <time>2019-09-11T11:22:24Z</time>
      </trkpt>
      <trkpt lat="44.24192" lon="6.08172">
        <ele>1210.0323278</ele>
        <time>2019-09-11T11:22:28Z</time>
      </trkpt>
      <trkpt lat="44.24178" lon="6.08161">
        <ele>1209.0328668</ele>
        <time>2019-09-11T11:22:33Z</time>
      </trkpt>
      <trkpt lat="44.24178" lon="6.08146">
        <ele>1210.0328752</ele>
        <time>2019-09-11T11:22:37Z</time>
      </trkpt>
      <trkpt lat="44.24175" lon="6.08139">
        <ele>1207.0330103</ele>
        <time>2019-09-11T11:26:48Z</time>
      </trkpt>
      <trkpt lat="44.24179" lon="6.08119">
        <ele>1207.0328552</ele>
        <time>2019-09-11T11:26:53Z</time>
      </trkpt>
      <trkpt lat="44.24186" lon="6.08087">
        <ele>1205.0325776</ele>
        <time>2019-09-11T11:26:58Z</time>
      </trkpt>
      <trkpt lat="44.24204" lon="6.08064">
        <ele>1204.0318303</ele>
        <time>2019-09-11T11:27:02Z</time>
      </trkpt>
      <trkpt lat="44.24229" lon="6.08035">
        <ele>1201.0308352</ele>
        <time>2019-09-11T11:27:07Z</time>
      </trkpt>
      <trkpt lat="44.2424" lon="6.08004">
        <ele>1200.0304048</ele>
        <time>2019-09-11T11:27:12Z</time>
      </trkpt>
      <trkpt lat="44.24222" lon="6.07964">
        <ele>1198.0311232</ele>
        <time>2019-09-11T11:27:17Z</time>
      </trkpt>
      <trkpt lat="44.24197" lon="6.07944">
        <ele>1195.0321067</ele>
        <time>2019-09-11T11:27:21Z</time>
      </trkpt>
      <trkpt lat="44.24172" lon="6.0793">
        <ele>1193.0331169</ele>
        <time>2019-09-11T11:27:25Z</time>
      </trkpt>
      <trkpt lat="44.24157" lon="6.07905">
        <ele>1191.0337177</ele>
        <time>2019-09-11T11:27:30Z</time>
      </trkpt>
      <trkpt lat="44.24168" lon="6.07865">
        <ele>1189.0332647</ele>
        <time>2019-09-11T11:27:35Z</time>
      </trkpt>
      <trkpt lat="44.24179" lon="6.07828">
        <ele>1185.0328467</ele>
        <time>2019-09-11T11:27:39Z</time>
      </trkpt>
      <trkpt lat="44.24187" lon="6.07777">
        <ele>1180.0325204</ele>
        <time>2019-09-11T11:27:44Z</time>
      </trkpt>
      <trkpt lat="44.24187" lon="6.07721">
        <ele>1178.0325166</ele>
        <time>2019-09-11T11:27:49Z</time>
      </trkpt>
      <trkpt lat="44.24191" lon="6.07671">
        <ele>1175.0323778</ele>
        <time>2019-09-11T11:27:53Z</time>
      </trkpt>
      <trkpt lat="44.24201" lon="6.07601">
        <ele>1171.0319558</ele>
        <time>2019-09-11T11:27:58Z</time>
      </trkpt>
      <trkpt lat="44.24206" lon="6.07545">
        <ele>1168.0317637</ele>
        <time>2019-09-11T11:28:02Z</time>
      </trkpt>
      <trkpt lat="44.24206" lon="6.07494">
        <ele>1164.0317634</ele>
        <time>2019-09-11T11:28:06Z</time>
      </trkpt>
      <trkpt lat="44.24207" lon="6.07439">
        <ele>1162.0317092</ele>
        <time>2019-09-11T11:28:10Z</time>
      </trkpt>
      <trkpt lat="44.24209" lon="6.0738">
        <ele>1160.0316256</ele>
        <time>2019-09-11T11:28:14Z</time>
      </trkpt>
      <trkpt lat="44.24212" lon="6.07323">
        <ele>1156.0315138</ele>
        <time>2019-09-11T11:28:18Z</time>
      </trkpt>
      <trkpt lat="44.24213" lon="6.07268">
        <ele>1155.0314851</ele>
        <time>2019-09-11T11:28:23Z</time>
      </trkpt>
      <trkpt lat="44.24205" lon="6.07234">
        <ele>1154.0318086</ele>
        <time>2019-09-11T11:28:27Z</time>
      </trkpt>
      <trkpt lat="44.24195" lon="6.07202">
        <ele>1153.0322202</ele>
        <time>2019-09-11T11:28:31Z</time>
      </trkpt>
      <trkpt lat="44.24185" lon="6.07178">
        <ele>1152.0326053</ele>
        <time>2019-09-11T11:28:35Z</time>
      </trkpt>
      <trkpt lat="44.24177" lon="6.07152">
        <ele>1152.0329337</ele>
        <time>2019-09-11T11:28:39Z</time>
      </trkpt>
      <trkpt lat="44.24171" lon="6.07123">
        <ele>1151.0331546</ele>
        <time>2019-09-11T11:28:43Z</time>
      </trkpt>
      <trkpt lat="44.2417" lon="6.07094">
        <ele>1152.0331839</ele>
        <time>2019-09-11T11:28:47Z</time>
      </trkpt>
      <trkpt lat="44.24176" lon="6.07056">
        <ele>1150.0329697</ele>
        <time>2019-09-11T11:28:52Z</time>
      </trkpt>
      <trkpt lat="44.24183" lon="6.07026">
        <ele>1149.0326877</ele>
        <time>2019-09-11T11:28:56Z</time>
      </trkpt>
      <trkpt lat="44.24189" lon="6.06997">
        <ele>1149.032441</ele>
        <time>2019-09-11T11:29:00Z</time>
      </trkpt>
      <trkpt lat="44.24195" lon="6.06968">
        <ele>1148.032187</ele>
        <time>2019-09-11T11:29:04Z</time>
      </trkpt>
      <trkpt lat="44.24201" lon="6.06939">
        <ele>1149.031959</ele>
        <time>2019-09-11T11:29:08Z</time>
      </trkpt>
      <trkpt lat="44.2421" lon="6.06904">
        <ele>1149.0316041</ele>
        <time>2019-09-11T11:29:13Z</time>
      </trkpt>
      <trkpt lat="44.24217" lon="6.06881">
        <ele>1151.0313203</ele>
        <time>2019-09-11T11:29:17Z</time>
      </trkpt>
      <trkpt lat="44.24232" lon="6.06856">
        <ele>1151.030713</ele>
        <time>2019-09-11T11:29:21Z</time>
      </trkpt>
      <trkpt lat="44.24246" lon="6.06842">
        <ele>1149.0301688</ele>
        <time>2019-09-11T11:29:25Z</time>
      </trkpt>
      <trkpt lat="44.24256" lon="6.06831">
        <ele>1149.029776</ele>
        <time>2019-09-11T11:29:29Z</time>
      </trkpt>
      <trkpt lat="44.24268" lon="6.06808">
        <ele>1150.0292632</ele>
        <time>2019-09-11T11:29:34Z</time>
      </trkpt>
      <trkpt lat="44.24274" lon="6.06788">
        <ele>1151.0290326</ele>
        <time>2019-09-11T11:29:38Z</time>
      </trkpt>
      <trkpt lat="44.24278" lon="6.06769">
        <ele>1151.0288973</ele>
        <time>2019-09-11T11:29:42Z</time>
      </trkpt>
      <trkpt lat="44.24279" lon="6.06751">
        <ele>1152.0288488</ele>
        <time>2019-09-11T11:29:46Z</time>
      </trkpt>
      <trkpt lat="44.24279" lon="6.06735">
        <ele>1152.0288394</ele>
        <time>2019-09-11T11:29:50Z</time>
      </trkpt>
      <trkpt lat="44.24278" lon="6.06719">
        <ele>1150.0288688</ele>
        <time>2019-09-11T11:29:55Z</time>
      </trkpt>
      <trkpt lat="44.24278" lon="6.06708">
        <ele>1156.0288684</ele>
        <time>2019-09-11T11:32:09Z</time>
      </trkpt>
      <trkpt lat="44.24278" lon="6.06691">
        <ele>1157.0288818</ele>
        <time>2019-09-11T11:32:13Z</time>
      </trkpt>
      <trkpt lat="44.24278" lon="6.06673">
        <ele>1157.0288725</ele>
        <time>2019-09-11T11:32:17Z</time>
      </trkpt>
      <trkpt lat="44.24278" lon="6.06654">
        <ele>1158.0288817</ele>
        <time>2019-09-11T11:32:22Z</time>
      </trkpt>
      <trkpt lat="44.24277" lon="6.06637">
        <ele>1157.028904</ele>
        <time>2019-09-11T11:32:26Z</time>
      </trkpt>
      <trkpt lat="44.24281" lon="6.06622">
        <ele>1157.0287647</ele>
        <time>2019-09-11T11:32:31Z</time>
      </trkpt>
      <trkpt lat="44.24289" lon="6.06623">
        <ele>1157.0284607</ele>
        <time>2019-09-11T11:32:36Z</time>
      </trkpt>
      <trkpt lat="44.24289" lon="6.06639">
        <ele>1159.0284455</ele>
        <time>2019-09-11T11:32:40Z</time>
      </trkpt>
      <trkpt lat="44.24292" lon="6.06653">
        <ele>1160.0283206</ele>
        <time>2019-09-11T11:32:44Z</time>
      </trkpt>
      <trkpt lat="44.24304" lon="6.06662">
        <ele>1161.0278527</ele>
        <time>2019-09-11T11:32:49Z</time>
      </trkpt>
      <trkpt lat="44.24314" lon="6.06662">
        <ele>1161.0274224</ele>
        <time>2019-09-11T11:32:54Z</time>
      </trkpt>
      <trkpt lat="44.24324" lon="6.0666">
        <ele>1163.0270511</ele>
        <time>2019-09-11T11:32:58Z</time>
      </trkpt>
      <trkpt lat="44.24332" lon="6.06657">
        <ele>1163.0267027</ele>
        <time>2019-09-11T11:33:02Z</time>
      </trkpt>
      <trkpt lat="44.24343" lon="6.06655">
        <ele>1165.0262768</ele>
        <time>2019-09-11T11:33:06Z</time>
      </trkpt>
      <trkpt lat="44.24352" lon="6.06654">
        <ele>1165.025917</ele>
        <time>2019-09-11T11:33:10Z</time>
      </trkpt>
      <trkpt lat="44.2436" lon="6.06653">
        <ele>1167.0256216</ele>
        <time>2019-09-11T11:33:14Z</time>
      </trkpt>
      <trkpt lat="44.24367" lon="6.06652">
        <ele>1167.0253227</ele>
        <time>2019-09-11T11:33:18Z</time>
      </trkpt>
      <trkpt lat="44.24376" lon="6.06652">
        <ele>1169.0249698</ele>
        <time>2019-09-11T11:33:23Z</time>
      </trkpt>
      <trkpt lat="44.24384" lon="6.06653">
        <ele>1171.0246337</ele>
        <time>2019-09-11T11:33:28Z</time>
      </trkpt>
      <trkpt lat="44.24391" lon="6.06652">
        <ele>1172.0243613</ele>
        <time>2019-09-11T11:33:32Z</time>
      </trkpt>
      <trkpt lat="44.244" lon="6.06652">
        <ele>1175.0240158</ele>
        <time>2019-09-11T11:33:37Z</time>
      </trkpt>
      <trkpt lat="44.24408" lon="6.06652">
        <ele>1176.0237018</ele>
        <time>2019-09-11T11:33:41Z</time>
      </trkpt>
      <trkpt lat="44.24416" lon="6.06651">
        <ele>1178.023359</ele>
        <time>2019-09-11T11:33:47Z</time>
      </trkpt>
      <trkpt lat="44.24421" lon="6.06653">
        <ele>1179.0231471</ele>
        <time>2019-09-11T11:33:50Z</time>
      </trkpt>
      <trkpt lat="44.24429" lon="6.06653">
        <ele>1181.0228393</ele>
        <time>2019-09-11T11:33:54Z</time>
      </trkpt>
      <trkpt lat="44.24437" lon="6.0665">
        <ele>1182.0225203</ele>
        <time>2019-09-11T11:33:59Z</time>
      </trkpt>
      <trkpt lat="44.24444" lon="6.06641">
        <ele>1184.0222556</ele>
        <time>2019-09-11T11:34:04Z</time>
      </trkpt>
      <trkpt lat="44.24446" lon="6.06632">
        <ele>1186.0221619</ele>
        <time>2019-09-11T11:34:08Z</time>
      </trkpt>
      <trkpt lat="44.24447" lon="6.0662">
        <ele>1187.0221126</ele>
        <time>2019-09-11T11:34:13Z</time>
      </trkpt>
      <trkpt lat="44.24449" lon="6.06608">
        <ele>1187.0220318</ele>
        <time>2019-09-11T11:34:18Z</time>
      </trkpt>
      <trkpt lat="44.24453" lon="6.06598">
        <ele>1189.0218846</ele>
        <time>2019-09-11T11:34:22Z</time>
      </trkpt>
      <trkpt lat="44.24457" lon="6.06587">
        <ele>1190.0217361</ele>
        <time>2019-09-11T11:34:27Z</time>
      </trkpt>
      <trkpt lat="44.24462" lon="6.0658">
        <ele>1193.021514</ele>
        <time>2019-09-11T11:34:32Z</time>
      </trkpt>
      <trkpt lat="44.24469" lon="6.06567">
        <ele>1195.0212619</ele>
        <time>2019-09-11T11:34:37Z</time>
      </trkpt>
      <trkpt lat="44.24475" lon="6.06562">
        <ele>1193.0210173</ele>
        <time>2019-09-11T11:34:41Z</time>
      </trkpt>
      <trkpt lat="44.24483" lon="6.06557">
        <ele>1194.0206911</ele>
        <time>2019-09-11T11:34:46Z</time>
      </trkpt>
      <trkpt lat="44.24489" lon="6.06552">
        <ele>1196.020431</ele>
        <time>2019-09-11T11:34:50Z</time>
      </trkpt>
      <trkpt lat="44.24497" lon="6.06547">
        <ele>1197.0201077</ele>
        <time>2019-09-11T11:34:55Z</time>
      </trkpt>
      <trkpt lat="44.24507" lon="6.06544">
        <ele>1199.0197204</ele>
        <time>2019-09-11T11:35:00Z</time>
      </trkpt>
      <trkpt lat="44.24516" lon="6.06543">
        <ele>1198.0193669</ele>
        <time>2019-09-11T11:35:05Z</time>
      </trkpt>
      <trkpt lat="44.24525" lon="6.0654">
        <ele>1198.0189966</ele>
        <time>2019-09-11T11:35:10Z</time>
      </trkpt>
      <trkpt lat="44.24533" lon="6.06538">
        <ele>1198.0186921</ele>
        <time>2019-09-11T11:35:14Z</time>
      </trkpt>
      <trkpt lat="44.24541" lon="6.06535">
        <ele>1198.0183577</ele>
        <time>2019-09-11T11:35:19Z</time>
      </trkpt>
      <trkpt lat="44.24548" lon="6.06532">
        <ele>1199.0180796</ele>
        <time>2019-09-11T11:35:23Z</time>
      </trkpt>
      <trkpt lat="44.24556" lon="6.06529">
        <ele>1198.017774</ele>
        <time>2019-09-11T11:35:27Z</time>
      </trkpt>
      <trkpt lat="44.24562" lon="6.06523">
        <ele>1200.0175219</ele>
        <time>2019-09-11T11:35:32Z</time>
      </trkpt>
      <trkpt lat="44.24568" lon="6.06517">
        <ele>1200.0172629</ele>
        <time>2019-09-11T11:35:36Z</time>
      </trkpt>
      <trkpt lat="44.24573" lon="6.06507">
        <ele>1200.0170637</ele>
        <time>2019-09-11T11:35:41Z</time>
      </trkpt>
      <trkpt lat="44.24578" lon="6.06497">
        <ele>1201.0168967</ele>
        <time>2019-09-11T11:35:46Z</time>
      </trkpt>
      <trkpt lat="44.24586" lon="6.06494">
        <ele>1203.0165477</ele>
        <time>2019-09-11T11:35:50Z</time>
      </trkpt>
      <trkpt lat="44.2459" lon="6.06505">
        <ele>1202.0164092</ele>
        <time>2019-09-11T11:35:55Z</time>
      </trkpt>
      <trkpt lat="44.24581" lon="6.06519">
        <ele>1203.016762</ele>
        <time>2019-09-11T11:36:00Z</time>
      </trkpt>
      <trkpt lat="44.24576" lon="6.0653">
        <ele>1204.0169635</ele>
        <time>2019-09-11T11:36:05Z</time>
      </trkpt>
      <trkpt lat="44.24573" lon="6.06542">
        <ele>1205.0170749</ele>
        <time>2019-09-11T11:36:10Z</time>
      </trkpt>
      <trkpt lat="44.24574" lon="6.06554">
        <ele>1207.0170473</ele>
        <time>2019-09-11T11:36:14Z</time>
      </trkpt>
      <trkpt lat="44.24577" lon="6.06566">
        <ele>1210.0169395</ele>
        <time>2019-09-11T11:36:19Z</time>
      </trkpt>
      <trkpt lat="44.24577" lon="6.06578">
        <ele>1210.016936</ele>
        <time>2019-09-11T11:36:24Z</time>
      </trkpt>
      <trkpt lat="44.2457" lon="6.06592">
        <ele>1209.0171921</ele>
        <time>2019-09-11T11:36:29Z</time>
      </trkpt>
      <trkpt lat="44.24563" lon="6.066">
        <ele>1209.0174747</ele>
        <time>2019-09-11T11:36:33Z</time>
      </trkpt>
      <trkpt lat="44.24556" lon="6.06607">
        <ele>1211.0177614</ele>
        <time>2019-09-11T11:36:37Z</time>
      </trkpt>
      <trkpt lat="44.24548" lon="6.0661">
        <ele>1211.0180895</ele>
        <time>2019-09-11T11:36:41Z</time>
      </trkpt>
      <trkpt lat="44.24542" lon="6.06621">
        <ele>1212.0183253</ele>
        <time>2019-09-11T11:36:46Z</time>
      </trkpt>
      <trkpt lat="44.24547" lon="6.06631">
        <ele>1212.01813</ele>
        <time>2019-09-11T11:36:50Z</time>
      </trkpt>
      <trkpt lat="44.24558" lon="6.06631">
        <ele>1213.0176729</ele>
        <time>2019-09-11T11:36:55Z</time>
      </trkpt>
      <trkpt lat="44.24567" lon="6.06622">
        <ele>1215.0173252</ele>
        <time>2019-09-11T11:37:00Z</time>
      </trkpt>
      <trkpt lat="44.24576" lon="6.06615">
        <ele>1217.0169524</ele>
        <time>2019-09-11T11:37:04Z</time>
      </trkpt>
      <trkpt lat="44.24584" lon="6.06611">
        <ele>1217.0166272</ele>
        <time>2019-09-11T11:37:09Z</time>
      </trkpt>
      <trkpt lat="44.24592" lon="6.06608">
        <ele>1216.0163122</ele>
        <time>2019-09-11T11:37:13Z</time>
      </trkpt>
      <trkpt lat="44.24601" lon="6.06598">
        <ele>1219.0159712</ele>
        <time>2019-09-11T11:37:18Z</time>
      </trkpt>
      <trkpt lat="44.24603" lon="6.06591">
        <ele>1219.0158869</ele>
        <time>2019-09-11T11:37:21Z</time>
      </trkpt>
      <trkpt lat="44.24606" lon="6.0658">
        <ele>1220.0157526</ele>
        <time>2019-09-11T11:37:25Z</time>
      </trkpt>
      <trkpt lat="44.24613" lon="6.06572">
        <ele>1221.0154745</ele>
        <time>2019-09-11T11:37:29Z</time>
      </trkpt>
      <trkpt lat="44.24621" lon="6.06568">
        <ele>1221.0151751</ele>
        <time>2019-09-11T11:37:33Z</time>
      </trkpt>
      <trkpt lat="44.2463" lon="6.06564">
        <ele>1222.0148031</ele>
        <time>2019-09-11T11:37:37Z</time>
      </trkpt>
      <trkpt lat="44.24637" lon="6.06561">
        <ele>1224.0145025</ele>
        <time>2019-09-11T11:37:41Z</time>
      </trkpt>
      <trkpt lat="44.24648" lon="6.06556">
        <ele>1224.0140687</ele>
        <time>2019-09-11T11:37:46Z</time>
      </trkpt>
      <trkpt lat="44.24656" lon="6.06549">
        <ele>1227.013773</ele>
        <time>2019-09-11T11:37:51Z</time>
      </trkpt>
      <trkpt lat="44.24661" lon="6.06542">
        <ele>1228.0135763</ele>
        <time>2019-09-11T11:37:55Z</time>
      </trkpt>
      <trkpt lat="44.24667" lon="6.06533">
        <ele>1228.0133324</ele>
        <time>2019-09-11T11:37:59Z</time>
      </trkpt>
      <trkpt lat="44.24675" lon="6.06522">
        <ele>1228.0130191</ele>
        <time>2019-09-11T11:38:04Z</time>
      </trkpt>
      <trkpt lat="44.24681" lon="6.06515">
        <ele>1228.0127453</ele>
        <time>2019-09-11T11:38:08Z</time>
      </trkpt>
      <trkpt lat="44.24691" lon="6.0651">
        <ele>1228.0123621</ele>
        <time>2019-09-11T11:38:13Z</time>
      </trkpt>
      <trkpt lat="44.24698" lon="6.06506">
        <ele>1229.0120698</ele>
        <time>2019-09-11T11:38:17Z</time>
      </trkpt>
      <trkpt lat="44.24706" lon="6.06502">
        <ele>1230.0117611</ele>
        <time>2019-09-11T11:38:21Z</time>
      </trkpt>
      <trkpt lat="44.24716" lon="6.06496">
        <ele>1230.0113727</ele>
        <time>2019-09-11T11:38:26Z</time>
      </trkpt>
      <trkpt lat="44.24725" lon="6.0649">
        <ele>1232.0109863</ele>
        <time>2019-09-11T11:38:31Z</time>
      </trkpt>
      <trkpt lat="44.24732" lon="6.06485">
        <ele>1234.010704</ele>
        <time>2019-09-11T11:38:35Z</time>
      </trkpt>
      <trkpt lat="44.2474" lon="6.06479">
        <ele>1236.0104175</ele>
        <time>2019-09-11T11:38:39Z</time>
      </trkpt>
      <trkpt lat="44.24747" lon="6.06477">
        <ele>1237.0101397</ele>
        <time>2019-09-11T11:38:43Z</time>
      </trkpt>
      <trkpt lat="44.24755" lon="6.06474">
        <ele>1238.0097885</ele>
        <time>2019-09-11T11:38:47Z</time>
      </trkpt>
      <trkpt lat="44.24762" lon="6.06468">
        <ele>1239.0095403</ele>
        <time>2019-09-11T11:38:51Z</time>
      </trkpt>
      <trkpt lat="44.24769" lon="6.0646">
        <ele>1239.0092613</ele>
        <time>2019-09-11T11:38:56Z</time>
      </trkpt>
      <trkpt lat="44.24774" lon="6.06455">
        <ele>1240.0090337</ele>
        <time>2019-09-11T11:39:00Z</time>
      </trkpt>
      <trkpt lat="44.24784" lon="6.06457">
        <ele>1240.0086347</ele>
        <time>2019-09-11T11:39:05Z</time>
      </trkpt>
      <trkpt lat="44.24782" lon="6.06471">
        <ele>1240.0087044</ele>
        <time>2019-09-11T11:39:10Z</time>
      </trkpt>
      <trkpt lat="44.24775" lon="6.06479">
        <ele>1240.0089824</ele>
        <time>2019-09-11T11:39:14Z</time>
      </trkpt>
      <trkpt lat="44.24766" lon="6.06486">
        <ele>1241.0093715</ele>
        <time>2019-09-11T11:39:19Z</time>
      </trkpt>
      <trkpt lat="44.24759" lon="6.06491">
        <ele>1241.0096452</ele>
        <time>2019-09-11T11:39:23Z</time>
      </trkpt>
      <trkpt lat="44.2475" lon="6.06501">
        <ele>1242.0099931</ele>
        <time>2019-09-11T11:39:28Z</time>
      </trkpt>
      <trkpt lat="44.24744" lon="6.06509">
        <ele>1242.0102363</ele>
        <time>2019-09-11T11:39:32Z</time>
      </trkpt>
      <trkpt lat="44.24738" lon="6.06521">
        <ele>1244.0105008</ele>
        <time>2019-09-11T11:39:37Z</time>
      </trkpt>
      <trkpt lat="44.24732" lon="6.06534">
        <ele>1245.0107059</ele>
        <time>2019-09-11T11:39:42Z</time>
      </trkpt>
      <trkpt lat="44.24729" lon="6.06541">
        <ele>1247.0108222</ele>
        <time>2019-09-11T11:39:45Z</time>
      </trkpt>
      <trkpt lat="44.24725" lon="6.0655">
        <ele>1249.0109922</ele>
        <time>2019-09-11T11:39:49Z</time>
      </trkpt>
      <trkpt lat="44.2472" lon="6.0656">
        <ele>1250.011196</ele>
        <time>2019-09-11T11:39:53Z</time>
      </trkpt>
      <trkpt lat="44.24715" lon="6.06573">
        <ele>1253.011392</ele>
        <time>2019-09-11T11:39:58Z</time>
      </trkpt>
      <trkpt lat="44.24713" lon="6.06587">
        <ele>1254.0114783</ele>
        <time>2019-09-11T11:40:03Z</time>
      </trkpt>
      <trkpt lat="44.24713" lon="6.06599">
        <ele>1255.0114819</ele>
        <time>2019-09-11T11:40:07Z</time>
      </trkpt>
      <trkpt lat="44.24713" lon="6.06607">
        <ele>1255.0114725</ele>
        <time>2019-09-11T11:40:10Z</time>
      </trkpt>
      <trkpt lat="44.24714" lon="6.06619">
        <ele>1255.0114552</ele>
        <time>2019-09-11T11:40:14Z</time>
      </trkpt>
      <trkpt lat="44.24714" lon="6.0663">
        <ele>1256.0114616</ele>
        <time>2019-09-11T11:40:18Z</time>
      </trkpt>
      <trkpt lat="44.24715" lon="6.06643">
        <ele>1257.0114079</ele>
        <time>2019-09-11T11:40:22Z</time>
      </trkpt>
      <trkpt lat="44.24711" lon="6.06657">
        <ele>1257.0115444</ele>
        <time>2019-09-11T11:40:27Z</time>
      </trkpt>
      <trkpt lat="44.24708" lon="6.06667">
        <ele>1255.0116763</ele>
        <time>2019-09-11T11:40:31Z</time>
      </trkpt>
      <trkpt lat="44.24704" lon="6.0668">
        <ele>1257.0118424</ele>
        <time>2019-09-11T11:40:36Z</time>
      </trkpt>
      <trkpt lat="44.247" lon="6.0669">
        <ele>1258.0120096</ele>
        <time>2019-09-11T11:40:40Z</time>
      </trkpt>
      <trkpt lat="44.24695" lon="6.06703">
        <ele>1260.0122</ele>
        <time>2019-09-11T11:40:45Z</time>
      </trkpt>
      <trkpt lat="44.24692" lon="6.06711">
        <ele>1261.0123254</ele>
        <time>2019-09-11T11:40:48Z</time>
      </trkpt>
      <trkpt lat="44.24686" lon="6.06723">
        <ele>1261.0125484</ele>
        <time>2019-09-11T11:40:53Z</time>
      </trkpt>
      <trkpt lat="44.24679" lon="6.06734">
        <ele>1263.0128513</ele>
        <time>2019-09-11T11:40:58Z</time>
      </trkpt>
      <trkpt lat="44.2467" lon="6.06743">
        <ele>1264.0132131</ele>
        <time>2019-09-11T11:41:03Z</time>
      </trkpt>
      <trkpt lat="44.24664" lon="6.0675">
        <ele>1265.0134488</ele>
        <time>2019-09-11T11:41:07Z</time>
      </trkpt>
      <trkpt lat="44.24659" lon="6.06757">
        <ele>1266.0136583</ele>
        <time>2019-09-11T11:41:11Z</time>
      </trkpt>
      <trkpt lat="44.24654" lon="6.06766">
        <ele>1269.0138548</ele>
        <time>2019-09-11T11:41:15Z</time>
      </trkpt>
      <trkpt lat="44.24648" lon="6.06775">
        <ele>1269.0140623</ele>
        <time>2019-09-11T11:41:19Z</time>
      </trkpt>
      <trkpt lat="44.24643" lon="6.06784">
        <ele>1270.0142871</ele>
        <time>2019-09-11T11:41:23Z</time>
      </trkpt>
      <trkpt lat="44.24638" lon="6.06792">
        <ele>1271.0144784</ele>
        <time>2019-09-11T11:41:27Z</time>
      </trkpt>
      <trkpt lat="44.2463" lon="6.06804">
        <ele>1274.0148122</ele>
        <time>2019-09-11T11:41:32Z</time>
      </trkpt>
      <trkpt lat="44.24625" lon="6.06816">
        <ele>1274.0150199</ele>
        <time>2019-09-11T11:41:37Z</time>
      </trkpt>
      <trkpt lat="44.24619" lon="6.06824">
        <ele>1276.0152455</ele>
        <time>2019-09-11T11:41:41Z</time>
      </trkpt>
      <trkpt lat="44.24613" lon="6.06835">
        <ele>1276.0154624</ele>
        <time>2019-09-11T11:41:45Z</time>
      </trkpt>
      <trkpt lat="44.24608" lon="6.06846">
        <ele>1278.0156797</ele>
        <time>2019-09-11T11:41:49Z</time>
      </trkpt>
      <trkpt lat="44.24602" lon="6.06856">
        <ele>1279.0159311</ele>
        <time>2019-09-11T11:41:54Z</time>
      </trkpt>
      <trkpt lat="44.24594" lon="6.06864">
        <ele>1280.0162426</ele>
        <time>2019-09-11T11:41:59Z</time>
      </trkpt>
      <trkpt lat="44.24587" lon="6.06868">
        <ele>1280.0165241</ele>
        <time>2019-09-11T11:42:03Z</time>
      </trkpt>
      <trkpt lat="44.24579" lon="6.06874">
        <ele>1282.0168593</ele>
        <time>2019-09-11T11:42:08Z</time>
      </trkpt>
      <trkpt lat="44.2457" lon="6.06885">
        <ele>1285.0171911</ele>
        <time>2019-09-11T11:42:13Z</time>
      </trkpt>
      <trkpt lat="44.2457" lon="6.06897">
        <ele>1285.0171824</ele>
        <time>2019-09-11T11:42:17Z</time>
      </trkpt>
      <trkpt lat="44.24573" lon="6.0691">
        <ele>1287.0170977</ele>
        <time>2019-09-11T11:42:21Z</time>
      </trkpt>
      <trkpt lat="44.24577" lon="6.06919">
        <ele>1286.0169396</ele>
        <time>2019-09-11T11:42:25Z</time>
      </trkpt>
      <trkpt lat="44.24582" lon="6.06928">
        <ele>1286.0167061</ele>
        <time>2019-09-11T11:42:29Z</time>
      </trkpt>
      <trkpt lat="44.24589" lon="6.06934">
        <ele>1286.0164371</ele>
        <time>2019-09-11T11:42:33Z</time>
      </trkpt>
      <trkpt lat="44.24601" lon="6.06938">
        <ele>1288.0159482</ele>
        <time>2019-09-11T11:42:38Z</time>
      </trkpt>
      <trkpt lat="44.24612" lon="6.06935">
        <ele>1287.0155248</ele>
        <time>2019-09-11T11:42:43Z</time>
      </trkpt>
      <trkpt lat="44.24622" lon="6.06928">
        <ele>1287.0151419</ele>
        <time>2019-09-11T11:42:48Z</time>
      </trkpt>
      <trkpt lat="44.24629" lon="6.06924">
        <ele>1286.0148323</ele>
        <time>2019-09-11T11:42:52Z</time>
      </trkpt>
      <trkpt lat="44.24639" lon="6.06917">
        <ele>1285.0144361</ele>
        <time>2019-09-11T11:42:57Z</time>
      </trkpt>
      <trkpt lat="44.24645" lon="6.06909">
        <ele>1286.0142058</ele>
        <time>2019-09-11T11:43:01Z</time>
      </trkpt>
      <trkpt lat="44.2465" lon="6.06899">
        <ele>1286.014003</ele>
        <time>2019-09-11T11:43:05Z</time>
      </trkpt>
      <trkpt lat="44.24653" lon="6.06888">
        <ele>1287.0138955</ele>
        <time>2019-09-11T11:43:09Z</time>
      </trkpt>
      <trkpt lat="44.24656" lon="6.06875">
        <ele>1289.0137451</ele>
        <time>2019-09-11T11:43:14Z</time>
      </trkpt>
      <trkpt lat="44.24661" lon="6.06865">
        <ele>1289.0135542</ele>
        <time>2019-09-11T11:43:18Z</time>
      </trkpt>
      <trkpt lat="44.24668" lon="6.06858">
        <ele>1290.0132657</ele>
        <time>2019-09-11T11:43:23Z</time>
      </trkpt>
      <trkpt lat="44.24676" lon="6.06853">
        <ele>1290.0129656</ele>
        <time>2019-09-11T11:43:27Z</time>
      </trkpt>
      <trkpt lat="44.24684" lon="6.06846">
        <ele>1291.0126273</ele>
        <time>2019-09-11T11:43:32Z</time>
      </trkpt>
      <trkpt lat="44.24692" lon="6.0684">
        <ele>1292.0123385</ele>
        <time>2019-09-11T11:43:36Z</time>
      </trkpt>
      <trkpt lat="44.247" lon="6.06841">
        <ele>1293.0120116</ele>
        <time>2019-09-11T11:43:40Z</time>
      </trkpt>
      <trkpt lat="44.24701" lon="6.06854">
        <ele>1294.0119481</ele>
        <time>2019-09-11T11:43:44Z</time>
      </trkpt>
      <trkpt lat="44.24693" lon="6.06863">
        <ele>1295.0122848</ele>
        <time>2019-09-11T11:43:49Z</time>
      </trkpt>
      <trkpt lat="44.24683" lon="6.06869">
        <ele>1295.0127006</ele>
        <time>2019-09-11T11:43:54Z</time>
      </trkpt>
      <trkpt lat="44.24675" lon="6.06882">
        <ele>1297.0130032</ele>
        <time>2019-09-11T11:43:59Z</time>
      </trkpt>
      <trkpt lat="44.24673" lon="6.06898">
        <ele>1298.0130727</ele>
        <time>2019-09-11T11:44:04Z</time>
      </trkpt>
      <trkpt lat="44.24673" lon="6.06913">
        <ele>1301.0130744</ele>
        <time>2019-09-11T11:44:08Z</time>
      </trkpt>
      <trkpt lat="44.24671" lon="6.06925">
        <ele>1302.0131639</ele>
        <time>2019-09-11T11:44:12Z</time>
      </trkpt>
      <trkpt lat="44.24666" lon="6.06933">
        <ele>1302.013351</ele>
        <time>2019-09-11T11:44:15Z</time>
      </trkpt>
      <trkpt lat="44.24659" lon="6.06943">
        <ele>1302.0136548</ele>
        <time>2019-09-11T11:44:19Z</time>
      </trkpt>
      <trkpt lat="44.24651" lon="6.06951">
        <ele>1303.0139492</ele>
        <time>2019-09-11T11:44:23Z</time>
      </trkpt>
      <trkpt lat="44.24644" lon="6.06959">
        <ele>1302.0142294</ele>
        <time>2019-09-11T11:44:27Z</time>
      </trkpt>
      <trkpt lat="44.24638" lon="6.06969">
        <ele>1303.014474</ele>
        <time>2019-09-11T11:44:31Z</time>
      </trkpt>
      <trkpt lat="44.24633" lon="6.06978">
        <ele>1304.0146859</ele>
        <time>2019-09-11T11:44:35Z</time>
      </trkpt>
      <trkpt lat="44.2463" lon="6.0699">
        <ele>1305.0147853</ele>
        <time>2019-09-11T11:44:39Z</time>
      </trkpt>
      <trkpt lat="44.24631" lon="6.07003">
        <ele>1305.014756</ele>
        <time>2019-09-11T11:44:43Z</time>
      </trkpt>
      <trkpt lat="44.24636" lon="6.07016">
        <ele>1305.0145511</ele>
        <time>2019-09-11T11:44:47Z</time>
      </trkpt>
      <trkpt lat="44.24643" lon="6.07029">
        <ele>1306.0143012</ele>
        <time>2019-09-11T11:44:52Z</time>
      </trkpt>
      <trkpt lat="44.24642" lon="6.07043">
        <ele>1308.0143042</ele>
        <time>2019-09-11T11:44:56Z</time>
      </trkpt>
      <trkpt lat="44.24639" lon="6.07053">
        <ele>1308.0144415</ele>
        <time>2019-09-11T11:45:00Z</time>
      </trkpt>
      <trkpt lat="44.24631" lon="6.07067">
        <ele>1314.0147468</ele>
        <time>2019-09-11T11:45:05Z</time>
      </trkpt>
      <trkpt lat="44.2463" lon="6.07086">
        <ele>1313.0147996</ele>
        <time>2019-09-11T11:45:10Z</time>
      </trkpt>
      <trkpt lat="44.24629" lon="6.07098">
        <ele>1313.0148521</ele>
        <time>2019-09-11T11:45:14Z</time>
      </trkpt>
      <trkpt lat="44.24627" lon="6.07115">
        <ele>1313.0149263</ele>
        <time>2019-09-11T11:45:19Z</time>
      </trkpt>
      <trkpt lat="44.24623" lon="6.07126">
        <ele>1313.0150779</ele>
        <time>2019-09-11T11:45:23Z</time>
      </trkpt>
      <trkpt lat="44.24618" lon="6.07135">
        <ele>1313.015271</ele>
        <time>2019-09-11T11:45:26Z</time>
      </trkpt>
      <trkpt lat="44.24611" lon="6.07148">
        <ele>1314.0155613</ele>
        <time>2019-09-11T11:45:31Z</time>
      </trkpt>
      <trkpt lat="44.24604" lon="6.07164">
        <ele>1316.0158265</ele>
        <time>2019-09-11T11:45:36Z</time>
      </trkpt>
      <trkpt lat="44.24602" lon="6.07175">
        <ele>1316.015936</ele>
        <time>2019-09-11T11:45:40Z</time>
      </trkpt>
      <trkpt lat="44.24605" lon="6.07187">
        <ele>1315.0158161</ele>
        <time>2019-09-11T11:45:44Z</time>
      </trkpt>
      <trkpt lat="44.2461" lon="6.07197">
        <ele>1315.0155831</ele>
        <time>2019-09-11T11:45:48Z</time>
      </trkpt>
      <trkpt lat="44.24619" lon="6.0721">
        <ele>1316.0152534</ele>
        <time>2019-09-11T11:45:53Z</time>
      </trkpt>
      <trkpt lat="44.24626" lon="6.07223">
        <ele>1317.0149602</ele>
        <time>2019-09-11T11:45:58Z</time>
      </trkpt>
      <trkpt lat="44.24632" lon="6.07233">
        <ele>1317.0147059</ele>
        <time>2019-09-11T11:46:02Z</time>
      </trkpt>
      <trkpt lat="44.24637" lon="6.07247">
        <ele>1317.0145347</ele>
        <time>2019-09-11T11:46:07Z</time>
      </trkpt>
      <trkpt lat="44.24637" lon="6.07261">
        <ele>1319.0145174</ele>
        <time>2019-09-11T11:46:12Z</time>
      </trkpt>
      <trkpt lat="44.24641" lon="6.07275">
        <ele>1319.0143733</ele>
        <time>2019-09-11T11:46:17Z</time>
      </trkpt>
      <trkpt lat="44.24644" lon="6.07285">
        <ele>1320.014234</ele>
        <time>2019-09-11T11:46:21Z</time>
      </trkpt>
      <trkpt lat="44.24638" lon="6.07292">
        <ele>1322.0144655</ele>
        <time>2019-09-11T11:46:26Z</time>
      </trkpt>
      <trkpt lat="44.24642" lon="6.07283">
        <ele>1324.0143403</ele>
        <time>2019-09-11T11:47:38Z</time>
      </trkpt>
      <trkpt lat="44.24646" lon="6.07265">
        <ele>1325.0141569</ele>
        <time>2019-09-11T11:47:43Z</time>
      </trkpt>
      <trkpt lat="44.24648" lon="6.07254">
        <ele>1323.0140722</ele>
        <time>2019-09-11T11:47:47Z</time>
      </trkpt>
      <trkpt lat="44.24647" lon="6.07239">
        <ele>1321.0141409</ele>
        <time>2019-09-11T11:47:52Z</time>
      </trkpt>
      <trkpt lat="44.24642" lon="6.07227">
        <ele>1319.0143302</ele>
        <time>2019-09-11T11:47:56Z</time>
      </trkpt>
      <trkpt lat="44.24637" lon="6.07213">
        <ele>1319.0145151</ele>
        <time>2019-09-11T11:48:01Z</time>
      </trkpt>
      <trkpt lat="44.24633" lon="6.07197">
        <ele>1319.0146821</ele>
        <time>2019-09-11T11:48:06Z</time>
      </trkpt>
      <trkpt lat="44.24632" lon="6.07187">
        <ele>1318.0147137</ele>
        <time>2019-09-11T11:48:09Z</time>
      </trkpt>
      <trkpt lat="44.24632" lon="6.0717">
        <ele>1319.0147226</ele>
        <time>2019-09-11T11:48:14Z</time>
      </trkpt>
      <trkpt lat="44.24634" lon="6.07156">
        <ele>1319.014635</ele>
        <time>2019-09-11T11:48:18Z</time>
      </trkpt>
      <trkpt lat="44.24639" lon="6.07144">
        <ele>1319.0144574</ele>
        <time>2019-09-11T11:48:22Z</time>
      </trkpt>
      <trkpt lat="44.24645" lon="6.07132">
        <ele>1319.0142185</ele>
        <time>2019-09-11T11:48:26Z</time>
      </trkpt>
      <trkpt lat="44.24655" lon="6.07121">
        <ele>1320.0137912</ele>
        <time>2019-09-11T11:48:31Z</time>
      </trkpt>
      <trkpt lat="44.24664" lon="6.07118">
        <ele>1320.0134472</ele>
        <time>2019-09-11T11:48:35Z</time>
      </trkpt>
      <trkpt lat="44.24676" lon="6.07116">
        <ele>1323.0129616</ele>
        <time>2019-09-11T11:48:40Z</time>
      </trkpt>
      <trkpt lat="44.24681" lon="6.07117">
        <ele>1327.0127643</ele>
        <time>2019-09-11T11:48:43Z</time>
      </trkpt>
      <trkpt lat="44.24689" lon="6.07127">
        <ele>1326.0124241</ele>
        <time>2019-09-11T11:48:47Z</time>
      </trkpt>
      <trkpt lat="44.24699" lon="6.0714">
        <ele>1325.0120253</ele>
        <time>2019-09-11T11:48:52Z</time>
      </trkpt>
      <trkpt lat="44.2471" lon="6.07152">
        <ele>1325.011591</ele>
        <time>2019-09-11T11:48:57Z</time>
      </trkpt>
      <trkpt lat="44.2472" lon="6.07156">
        <ele>1326.011183</ele>
        <time>2019-09-11T11:49:01Z</time>
      </trkpt>
      <trkpt lat="44.24731" lon="6.07157">
        <ele>1326.0107612</ele>
        <time>2019-09-11T11:49:05Z</time>
      </trkpt>
      <trkpt lat="44.24744" lon="6.07156">
        <ele>1327.0102527</ele>
        <time>2019-09-11T11:49:10Z</time>
      </trkpt>
      <trkpt lat="44.24756" lon="6.07152">
        <ele>1327.0097605</ele>
        <time>2019-09-11T11:49:15Z</time>
      </trkpt>
      <trkpt lat="44.24766" lon="6.07148">
        <ele>1327.0093659</ele>
        <time>2019-09-11T11:49:19Z</time>
      </trkpt>
      <trkpt lat="44.24773" lon="6.07143">
        <ele>1329.0090955</ele>
        <time>2019-09-11T11:49:22Z</time>
      </trkpt>
      <trkpt lat="44.24784" lon="6.07133">
        <ele>1326.0086426</ele>
        <time>2019-09-11T11:49:27Z</time>
      </trkpt>
      <trkpt lat="44.2479" lon="6.07124">
        <ele>1328.0084015</ele>
        <time>2019-09-11T11:49:31Z</time>
      </trkpt>
      <trkpt lat="44.24798" lon="6.07109">
        <ele>1328.0080754</ele>
        <time>2019-09-11T11:49:36Z</time>
      </trkpt>
      <trkpt lat="44.248" lon="6.07096">
        <ele>1329.0079884</ele>
        <time>2019-09-11T11:49:40Z</time>
      </trkpt>
      <trkpt lat="44.248" lon="6.07082">
        <ele>1330.0079893</ele>
        <time>2019-09-11T11:49:44Z</time>
      </trkpt>
      <trkpt lat="44.248" lon="6.07068">
        <ele>1330.008</ele>
        <time>2019-09-11T11:49:48Z</time>
      </trkpt>
      <trkpt lat="44.24798" lon="6.07052">
        <ele>1333.0080817</ele>
        <time>2019-09-11T11:49:53Z</time>
      </trkpt>
      <trkpt lat="44.24796" lon="6.07034">
        <ele>1334.0081573</ele>
        <time>2019-09-11T11:49:58Z</time>
      </trkpt>
      <trkpt lat="44.24796" lon="6.07021">
        <ele>1334.0081422</ele>
        <time>2019-09-11T11:50:02Z</time>
      </trkpt>
      <trkpt lat="44.24797" lon="6.07008">
        <ele>1335.0081309</ele>
        <time>2019-09-11T11:50:06Z</time>
      </trkpt>
      <trkpt lat="44.24799" lon="6.06995">
        <ele>1336.008047</ele>
        <time>2019-09-11T11:50:10Z</time>
      </trkpt>
      <trkpt lat="44.24799" lon="6.06982">
        <ele>1336.0080456</ele>
        <time>2019-09-11T11:50:14Z</time>
      </trkpt>
      <trkpt lat="44.24801" lon="6.06969">
        <ele>1337.0079812</ele>
        <time>2019-09-11T11:50:18Z</time>
      </trkpt>
      <trkpt lat="44.24806" lon="6.06957">
        <ele>1338.0077695</ele>
        <time>2019-09-11T11:50:22Z</time>
      </trkpt>
      <trkpt lat="44.24817" lon="6.06946">
        <ele>1341.0073326</ele>
        <time>2019-09-11T11:50:27Z</time>
      </trkpt>
      <trkpt lat="44.24826" lon="6.06936">
        <ele>1341.0069724</ele>
        <time>2019-09-11T11:50:32Z</time>
      </trkpt>
      <trkpt lat="44.2483" lon="6.06924">
        <ele>1343.0068071</ele>
        <time>2019-09-11T11:50:36Z</time>
      </trkpt>
      <trkpt lat="44.24832" lon="6.06907">
        <ele>1345.0067322</ele>
        <time>2019-09-11T11:50:41Z</time>
      </trkpt>
      <trkpt lat="44.24836" lon="6.06891">
        <ele>1346.0065659</ele>
        <time>2019-09-11T11:50:46Z</time>
      </trkpt>
      <trkpt lat="44.2484" lon="6.0688">
        <ele>1346.0063852</ele>
        <time>2019-09-11T11:50:50Z</time>
      </trkpt>
      <trkpt lat="44.24845" lon="6.06873">
        <ele>1346.0061892</ele>
        <time>2019-09-11T11:50:53Z</time>
      </trkpt>
      <trkpt lat="44.24852" lon="6.06865">
        <ele>1347.0059032</ele>
        <time>2019-09-11T11:50:57Z</time>
      </trkpt>
      <trkpt lat="44.2486" lon="6.06857">
        <ele>1347.0056066</ele>
        <time>2019-09-11T11:51:01Z</time>
      </trkpt>
      <trkpt lat="44.24868" lon="6.06845">
        <ele>1347.0052792</ele>
        <time>2019-09-11T11:51:06Z</time>
      </trkpt>
      <trkpt lat="44.24872" lon="6.06834">
        <ele>1347.0051056</ele>
        <time>2019-09-11T11:51:10Z</time>
      </trkpt>
      <trkpt lat="44.24877" lon="6.06824">
        <ele>1349.004927</ele>
        <time>2019-09-11T11:51:14Z</time>
      </trkpt>
      <trkpt lat="44.24882" lon="6.06809">
        <ele>1350.004717</ele>
        <time>2019-09-11T11:51:19Z</time>
      </trkpt>
      <trkpt lat="44.24887" lon="6.06795">
        <ele>1351.0045027</ele>
        <time>2019-09-11T11:51:24Z</time>
      </trkpt>
      <trkpt lat="44.24892" lon="6.06784">
        <ele>1352.0043328</ele>
        <time>2019-09-11T11:51:28Z</time>
      </trkpt>
      <trkpt lat="44.24896" lon="6.06773">
        <ele>1355.0041713</ele>
        <time>2019-09-11T11:51:32Z</time>
      </trkpt>
      <trkpt lat="44.24898" lon="6.06763">
        <ele>1355.0040701</ele>
        <time>2019-09-11T11:51:36Z</time>
      </trkpt>
      <trkpt lat="44.24902" lon="6.06751">
        <ele>1357.0039231</ele>
        <time>2019-09-11T11:51:40Z</time>
      </trkpt>
      <trkpt lat="44.24906" lon="6.06738">
        <ele>1357.003745</ele>
        <time>2019-09-11T11:51:44Z</time>
      </trkpt>
      <trkpt lat="44.2491" lon="6.06724">
        <ele>1358.0035849</ele>
        <time>2019-09-11T11:51:49Z</time>
      </trkpt>
      <trkpt lat="44.24915" lon="6.06709">
        <ele>1359.0033898</ele>
        <time>2019-09-11T11:51:54Z</time>
      </trkpt>
      <trkpt lat="44.24919" lon="6.06696">
        <ele>1360.0032446</ele>
        <time>2019-09-11T11:51:58Z</time>
      </trkpt>
      <trkpt lat="44.2492" lon="6.06684">
        <ele>1363.003216</ele>
        <time>2019-09-11T11:54:03Z</time>
      </trkpt>
      <trkpt lat="44.24919" lon="6.06672">
        <ele>1359.003229</ele>
        <time>2019-09-11T11:54:23Z</time>
      </trkpt>
      <trkpt lat="44.24919" lon="6.0666">
        <ele>1358.0032517</ele>
        <time>2019-09-11T11:54:40Z</time>
      </trkpt>
      <trkpt lat="44.24918" lon="6.06671">
        <ele>1358.0032785</ele>
        <time>2019-09-11T11:57:02Z</time>
      </trkpt>
      <trkpt lat="44.24918" lon="6.06684">
        <ele>1360.0032746</ele>
        <time>2019-09-11T11:57:18Z</time>
      </trkpt>
      <trkpt lat="44.24919" lon="6.06695">
        <ele>1361.0032347</ele>
        <time>2019-09-11T11:57:36Z</time>
      </trkpt>
      <trkpt lat="44.2492" lon="6.06707">
        <ele>1360.0031977</ele>
        <time>2019-09-11T11:57:58Z</time>
      </trkpt>
      <trkpt lat="44.24919" lon="6.0672">
        <ele>1360.0032265</ele>
        <time>2019-09-11T11:58:11Z</time>
      </trkpt>
      <trkpt lat="44.24919" lon="6.06707">
        <ele>1360.0032297</ele>
        <time>2019-09-11T12:02:29Z</time>
      </trkpt>
      <trkpt lat="44.24923" lon="6.06693">
        <ele>1360.0030921</ele>
        <time>2019-09-11T12:02:33Z</time>
      </trkpt>
      <trkpt lat="44.24929" lon="6.06678">
        <ele>1360.0028472</ele>
        <time>2019-09-11T12:02:38Z</time>
      </trkpt>
      <trkpt lat="44.24936" lon="6.06667">
        <ele>1360.0025774</ele>
        <time>2019-09-11T12:02:42Z</time>
      </trkpt>
      <trkpt lat="44.24946" lon="6.06656">
        <ele>1361.0021722</ele>
        <time>2019-09-11T12:02:47Z</time>
      </trkpt>
      <trkpt lat="44.24955" lon="6.06649">
        <ele>1361.0018167</ele>
        <time>2019-09-11T12:02:51Z</time>
      </trkpt>
      <trkpt lat="44.24964" lon="6.06647">
        <ele>1362.0014603</ele>
        <time>2019-09-11T12:02:55Z</time>
      </trkpt>
      <trkpt lat="44.24974" lon="6.06645">
        <ele>1361.0010569</ele>
        <time>2019-09-11T12:02:59Z</time>
      </trkpt>
      <trkpt lat="44.24985" lon="6.06637">
        <ele>1361.0005924</ele>
        <time>2019-09-11T12:03:03Z</time>
      </trkpt>
      <trkpt lat="44.24991" lon="6.06625">
        <ele>1362.0003678</ele>
        <time>2019-09-11T12:03:07Z</time>
      </trkpt>
      <trkpt lat="44.24996" lon="6.06611">
        <ele>1362.000176</ele>
        <time>2019-09-11T12:03:12Z</time>
      </trkpt>
      <trkpt lat="44.25" lon="6.066">
        <ele>1363.0000062</ele>
        <time>2019-09-11T12:03:16Z</time>
      </trkpt>
      <trkpt lat="44.25005" lon="6.06588">
        <ele>1364.9999445</ele>
        <time>2019-09-11T12:03:20Z</time>
      </trkpt>
      <trkpt lat="44.25013" lon="6.06574">
        <ele>1364.9998604</ele>
        <time>2019-09-11T12:03:25Z</time>
      </trkpt>
      <trkpt lat="44.25022" lon="6.06564">
        <ele>1364.9997685</ele>
        <time>2019-09-11T12:03:29Z</time>
      </trkpt>
      <trkpt lat="44.25031" lon="6.06555">
        <ele>1365.9996789</ele>
        <time>2019-09-11T12:03:33Z</time>
      </trkpt>
      <trkpt lat="44.25037" lon="6.06547">
        <ele>1363.9996173</ele>
        <time>2019-09-11T12:03:37Z</time>
      </trkpt>
      <trkpt lat="44.25039" lon="6.06535">
        <ele>1361.9995884</ele>
        <time>2019-09-11T12:03:41Z</time>
      </trkpt>
      <trkpt lat="44.25041" lon="6.06517">
        <ele>1362.9995735</ele>
        <time>2019-09-11T12:03:45Z</time>
      </trkpt>
      <trkpt lat="44.25042" lon="6.06502">
        <ele>1361.9995637</ele>
        <time>2019-09-11T12:03:49Z</time>
      </trkpt>
      <trkpt lat="44.25044" lon="6.06487">
        <ele>1360.9995431</ele>
        <time>2019-09-11T12:03:53Z</time>
      </trkpt>
      <trkpt lat="44.25046" lon="6.06472">
        <ele>1359.9995255</ele>
        <time>2019-09-11T12:03:57Z</time>
      </trkpt>
      <trkpt lat="44.25048" lon="6.06462">
        <ele>1359.9994997</ele>
        <time>2019-09-11T12:04:01Z</time>
      </trkpt>
      <trkpt lat="44.25053" lon="6.06451">
        <ele>1360.9994574</ele>
        <time>2019-09-11T12:04:55Z</time>
      </trkpt>
      <trkpt lat="44.25056" lon="6.06446">
        <ele>1359.9994239</ele>
        <time>2019-09-11T12:05:09Z</time>
      </trkpt>
      <trkpt lat="44.2506" lon="6.0643">
        <ele>1361.9993879</ele>
        <time>2019-09-11T12:05:14Z</time>
      </trkpt>
      <trkpt lat="44.25065" lon="6.0642">
        <ele>1360.9993337</ele>
        <time>2019-09-11T12:05:18Z</time>
      </trkpt>
      <trkpt lat="44.25079" lon="6.0641">
        <ele>1358.9991855</ele>
        <time>2019-09-11T12:05:23Z</time>
      </trkpt>
      <trkpt lat="44.25092" lon="6.06402">
        <ele>1357.9990555</ele>
        <time>2019-09-11T12:05:28Z</time>
      </trkpt>
      <trkpt lat="44.25105" lon="6.06394">
        <ele>1356.998925</ele>
        <time>2019-09-11T12:05:33Z</time>
      </trkpt>
      <trkpt lat="44.25113" lon="6.06388">
        <ele>1354.998844</ele>
        <time>2019-09-11T12:05:37Z</time>
      </trkpt>
      <trkpt lat="44.25119" lon="6.06372">
        <ele>1354.9987911</ele>
        <time>2019-09-11T12:05:42Z</time>
      </trkpt>
      <trkpt lat="44.2512" lon="6.06361">
        <ele>1353.99878</ele>
        <time>2019-09-11T12:05:46Z</time>
      </trkpt>
      <trkpt lat="44.25124" lon="6.06352">
        <ele>1353.998737</ele>
        <time>2019-09-11T12:06:19Z</time>
      </trkpt>
      <trkpt lat="44.2513" lon="6.06345">
        <ele>1351.9986853</ele>
        <time>2019-09-11T12:06:23Z</time>
      </trkpt>
      <trkpt lat="44.25136" lon="6.06337">
        <ele>1350.9986218</ele>
        <time>2019-09-11T12:06:28Z</time>
      </trkpt>
      <trkpt lat="44.25143" lon="6.06329">
        <ele>1351.9985531</ele>
        <time>2019-09-11T12:06:32Z</time>
      </trkpt>
      <trkpt lat="44.25156" lon="6.06319">
        <ele>1350.9984259</ele>
        <time>2019-09-11T12:06:37Z</time>
      </trkpt>
      <trkpt lat="44.25166" lon="6.06312">
        <ele>1348.9983192</ele>
        <time>2019-09-11T12:06:41Z</time>
      </trkpt>
      <trkpt lat="44.2518" lon="6.06303">
        <ele>1347.9981855</ele>
        <time>2019-09-11T12:06:46Z</time>
      </trkpt>
      <trkpt lat="44.25195" lon="6.06296">
        <ele>1346.9980403</ele>
        <time>2019-09-11T12:06:51Z</time>
      </trkpt>
      <trkpt lat="44.25203" lon="6.06294">
        <ele>1346.9979561</ele>
        <time>2019-09-11T12:06:55Z</time>
      </trkpt>
      <trkpt lat="44.25214" lon="6.06289">
        <ele>1349.9978518</ele>
        <time>2019-09-11T12:07:00Z</time>
      </trkpt>
      <trkpt lat="44.25222" lon="6.06283">
        <ele>1349.9977711</ele>
        <time>2019-09-11T12:07:04Z</time>
      </trkpt>
      <trkpt lat="44.25229" lon="6.06275">
        <ele>1350.9977064</ele>
        <time>2019-09-11T12:07:08Z</time>
      </trkpt>
      <trkpt lat="44.25238" lon="6.06268">
        <ele>1348.9976145</ele>
        <time>2019-09-11T12:07:12Z</time>
      </trkpt>
      <trkpt lat="44.25252" lon="6.06267">
        <ele>1346.9974712</ele>
        <time>2019-09-11T12:07:17Z</time>
      </trkpt>
      <trkpt lat="44.25268" lon="6.0626">
        <ele>1346.9973181</ele>
        <time>2019-09-11T12:07:22Z</time>
      </trkpt>
      <trkpt lat="44.25277" lon="6.06258">
        <ele>1343.9972249</ele>
        <time>2019-09-11T12:07:26Z</time>
      </trkpt>
      <trkpt lat="44.25285" lon="6.06253">
        <ele>1345.9971459</ele>
        <time>2019-09-11T12:07:30Z</time>
      </trkpt>
      <trkpt lat="44.25294" lon="6.06246">
        <ele>1344.9970623</ele>
        <time>2019-09-11T12:07:34Z</time>
      </trkpt>
      <trkpt lat="44.25308" lon="6.06238">
        <ele>1345.9969232</ele>
        <time>2019-09-11T12:07:39Z</time>
      </trkpt>
      <trkpt lat="44.25328" lon="6.06236">
        <ele>1341.9967288</ele>
        <time>2019-09-11T12:07:44Z</time>
      </trkpt>
      <trkpt lat="44.25341" lon="6.0623">
        <ele>1340.9965977</ele>
        <time>2019-09-11T12:07:49Z</time>
      </trkpt>
      <trkpt lat="44.25351" lon="6.06221">
        <ele>1337.9965102</ele>
        <time>2019-09-11T12:07:54Z</time>
      </trkpt>
      <trkpt lat="44.25359" lon="6.06212">
        <ele>1336.9964317</ele>
        <time>2019-09-11T12:07:59Z</time>
      </trkpt>
      <trkpt lat="44.25368" lon="6.06204">
        <ele>1336.9963434</ele>
        <time>2019-09-11T12:08:04Z</time>
      </trkpt>
      <trkpt lat="44.25377" lon="6.06199">
        <ele>1335.9962638</ele>
        <time>2019-09-11T12:08:08Z</time>
      </trkpt>
      <trkpt lat="44.25382" lon="6.06193">
        <ele>1334.996211</ele>
        <time>2019-09-11T12:08:12Z</time>
      </trkpt>
      <trkpt lat="44.2539" lon="6.06187">
        <ele>1333.9961446</ele>
        <time>2019-09-11T12:08:16Z</time>
      </trkpt>
      <trkpt lat="44.25399" lon="6.0618">
        <ele>1333.9960594</ele>
        <time>2019-09-11T12:08:20Z</time>
      </trkpt>
      <trkpt lat="44.2541" lon="6.06168">
        <ele>1331.995957</ele>
        <time>2019-09-11T12:08:25Z</time>
      </trkpt>
      <trkpt lat="44.2542" lon="6.06152">
        <ele>1331.9958623</ele>
        <time>2019-09-11T12:08:30Z</time>
      </trkpt>
      <trkpt lat="44.25429" lon="6.06136">
        <ele>1329.9957866</ele>
        <time>2019-09-11T12:08:35Z</time>
      </trkpt>
      <trkpt lat="44.25438" lon="6.06121">
        <ele>1325.9957094</ele>
        <time>2019-09-11T12:08:40Z</time>
      </trkpt>
      <trkpt lat="44.25447" lon="6.06109">
        <ele>1324.9956336</ele>
        <time>2019-09-11T12:08:45Z</time>
      </trkpt>
      <trkpt lat="44.25456" lon="6.06097">
        <ele>1324.9955504</ele>
        <time>2019-09-11T12:08:50Z</time>
      </trkpt>
      <trkpt lat="44.25473" lon="6.0609">
        <ele>1317.9953964</ele>
        <time>2019-09-11T12:08:55Z</time>
      </trkpt>
      <trkpt lat="44.25485" lon="6.06092">
        <ele>1314.9952713</ele>
        <time>2019-09-11T12:08:59Z</time>
      </trkpt>
      <trkpt lat="44.25496" lon="6.06094">
        <ele>1314.9951675</ele>
        <time>2019-09-11T12:09:03Z</time>
      </trkpt>
      <trkpt lat="44.25508" lon="6.06095">
        <ele>1312.9950496</ele>
        <time>2019-09-11T12:09:08Z</time>
      </trkpt>
      <trkpt lat="44.25513" lon="6.06085">
        <ele>1311.9950082</ele>
        <time>2019-09-11T12:09:13Z</time>
      </trkpt>
      <trkpt lat="44.25505" lon="6.0608">
        <ele>1306.9950907</ele>
        <time>2019-09-11T12:09:20Z</time>
      </trkpt>
      <trkpt lat="44.25496" lon="6.0608">
        <ele>1305.9951763</ele>
        <time>2019-09-11T12:09:24Z</time>
      </trkpt>
      <trkpt lat="44.25485" lon="6.06078">
        <ele>1304.9952827</ele>
        <time>2019-09-11T12:09:28Z</time>
      </trkpt>
      <trkpt lat="44.25473" lon="6.06076">
        <ele>1304.9953994</ele>
        <time>2019-09-11T12:09:33Z</time>
      </trkpt>
      <trkpt lat="44.25463" lon="6.06076">
        <ele>1304.9955014</ele>
        <time>2019-09-11T12:09:38Z</time>
      </trkpt>
      <trkpt lat="44.25451" lon="6.06081">
        <ele>1302.9956161</ele>
        <time>2019-09-11T12:09:43Z</time>
      </trkpt>
      <trkpt lat="44.25441" lon="6.06088">
        <ele>1302.9957089</ele>
        <time>2019-09-11T12:09:48Z</time>
      </trkpt>
      <trkpt lat="44.25428" lon="6.06095">
        <ele>1302.9958237</ele>
        <time>2019-09-11T12:09:53Z</time>
      </trkpt>
      <trkpt lat="44.2542" lon="6.061">
        <ele>1301.9959049</ele>
        <time>2019-09-11T12:09:57Z</time>
      </trkpt>
      <trkpt lat="44.25414" lon="6.06104">
        <ele>1304.9959589</ele>
        <time>2019-09-11T12:10:00Z</time>
      </trkpt>
      <trkpt lat="44.25403" lon="6.06111">
        <ele>1304.9960615</ele>
        <time>2019-09-11T12:10:05Z</time>
      </trkpt>
      <trkpt lat="44.25392" lon="6.0611">
        <ele>1302.9961671</ele>
        <time>2019-09-11T12:10:09Z</time>
      </trkpt>
      <trkpt lat="44.25379" lon="6.06102">
        <ele>1302.9963019</ele>
        <time>2019-09-11T12:10:14Z</time>
      </trkpt>
      <trkpt lat="44.25374" lon="6.0609">
        <ele>1302.9963536</ele>
        <time>2019-09-11T12:10:18Z</time>
      </trkpt>
      <trkpt lat="44.25367" lon="6.0608">
        <ele>1296.9964304</ele>
        <time>2019-09-11T12:10:22Z</time>
      </trkpt>
      <trkpt lat="44.25357" lon="6.06076">
        <ele>1294.9965285</ele>
        <time>2019-09-11T12:10:26Z</time>
      </trkpt>
      <trkpt lat="44.25347" lon="6.06072">
        <ele>1293.9966273</ele>
        <time>2019-09-11T12:10:30Z</time>
      </trkpt>
      <trkpt lat="44.25337" lon="6.06067">
        <ele>1291.9967335</ele>
        <time>2019-09-11T12:10:34Z</time>
      </trkpt>
      <trkpt lat="44.25324" lon="6.06059">
        <ele>1291.9968553</ele>
        <time>2019-09-11T12:10:39Z</time>
      </trkpt>
      <trkpt lat="44.25314" lon="6.06052">
        <ele>1288.9969553</ele>
        <time>2019-09-11T12:10:44Z</time>
      </trkpt>
      <trkpt lat="44.25304" lon="6.06047">
        <ele>1286.9970596</ele>
        <time>2019-09-11T12:10:49Z</time>
      </trkpt>
      <trkpt lat="44.25293" lon="6.0605">
        <ele>1285.997169</ele>
        <time>2019-09-11T12:10:53Z</time>
      </trkpt>
      <trkpt lat="44.25283" lon="6.06057">
        <ele>1283.9972592</ele>
        <time>2019-09-11T12:10:58Z</time>
      </trkpt>
      <trkpt lat="44.25273" lon="6.06061">
        <ele>1281.9973551</ele>
        <time>2019-09-11T12:11:03Z</time>
      </trkpt>
      <trkpt lat="44.25266" lon="6.06055">
        <ele>1279.9974256</ele>
        <time>2019-09-11T12:11:08Z</time>
      </trkpt>
      <trkpt lat="44.25265" lon="6.06042">
        <ele>1279.9974391</ele>
        <time>2019-09-11T12:11:12Z</time>
      </trkpt>
      <trkpt lat="44.25271" lon="6.06031">
        <ele>1278.9973813</ele>
        <time>2019-09-11T12:11:16Z</time>
      </trkpt>
      <trkpt lat="44.2528" lon="6.06021">
        <ele>1278.9973053</ele>
        <time>2019-09-11T12:11:21Z</time>
      </trkpt>
      <trkpt lat="44.25286" lon="6.06012">
        <ele>1279.9972528</ele>
        <time>2019-09-11T12:11:25Z</time>
      </trkpt>
      <trkpt lat="44.25294" lon="6.05999">
        <ele>1280.9971779</ele>
        <time>2019-09-11T12:11:30Z</time>
      </trkpt>
      <trkpt lat="44.25302" lon="6.05989">
        <ele>1281.9971096</ele>
        <time>2019-09-11T12:11:34Z</time>
      </trkpt>
      <trkpt lat="44.2531" lon="6.05982">
        <ele>1280.9970305</ele>
        <time>2019-09-11T12:11:38Z</time>
      </trkpt>
      <trkpt lat="44.2532" lon="6.05971">
        <ele>1280.9969406</ele>
        <time>2019-09-11T12:11:43Z</time>
      </trkpt>
      <trkpt lat="44.25329" lon="6.05964">
        <ele>1279.9968634</ele>
        <time>2019-09-11T12:11:48Z</time>
      </trkpt>
      <trkpt lat="44.25343" lon="6.05958">
        <ele>1276.9967325</ele>
        <time>2019-09-11T12:11:53Z</time>
      </trkpt>
      <trkpt lat="44.25357" lon="6.05949">
        <ele>1276.9966048</ele>
        <time>2019-09-11T12:11:58Z</time>
      </trkpt>
      <trkpt lat="44.25368" lon="6.05941">
        <ele>1276.9965048</ele>
        <time>2019-09-11T12:12:02Z</time>
      </trkpt>
      <trkpt lat="44.25379" lon="6.05929">
        <ele>1275.9964055</ele>
        <time>2019-09-11T12:12:06Z</time>
      </trkpt>
      <trkpt lat="44.25386" lon="6.05922">
        <ele>1274.9963398</ele>
        <time>2019-09-11T12:12:09Z</time>
      </trkpt>
      <trkpt lat="44.25395" lon="6.05915">
        <ele>1271.9962602</ele>
        <time>2019-09-11T12:12:13Z</time>
      </trkpt>
      <trkpt lat="44.25402" lon="6.05905">
        <ele>1270.9962035</ele>
        <time>2019-09-11T12:12:17Z</time>
      </trkpt>
      <trkpt lat="44.25415" lon="6.05899">
        <ele>1267.9960828</ele>
        <time>2019-09-11T12:12:22Z</time>
      </trkpt>
      <trkpt lat="44.25426" lon="6.05898">
        <ele>1266.9959808</ele>
        <time>2019-09-11T12:12:26Z</time>
      </trkpt>
      <trkpt lat="44.25439" lon="6.05907">
        <ele>1265.9958493</ele>
        <time>2019-09-11T12:12:31Z</time>
      </trkpt>
      <trkpt lat="44.25447" lon="6.05918">
        <ele>1264.9957693</ele>
        <time>2019-09-11T12:12:36Z</time>
      </trkpt>
      <trkpt lat="44.25459" lon="6.05922">
        <ele>1262.995654</ele>
        <time>2019-09-11T12:12:40Z</time>
      </trkpt>
      <trkpt lat="44.25468" lon="6.05923">
        <ele>1262.9955639</ele>
        <time>2019-09-11T12:12:44Z</time>
      </trkpt>
      <trkpt lat="44.25477" lon="6.05917">
        <ele>1262.9954804</ele>
        <time>2019-09-11T12:12:48Z</time>
      </trkpt>
      <trkpt lat="44.25487" lon="6.05908">
        <ele>1265.9953965</ele>
        <time>2019-09-11T12:12:53Z</time>
      </trkpt>
      <trkpt lat="44.25493" lon="6.05897">
        <ele>1265.9953525</ele>
        <time>2019-09-11T12:12:58Z</time>
      </trkpt>
      <trkpt lat="44.25498" lon="6.05884">
        <ele>1262.9953128</ele>
        <time>2019-09-11T12:13:02Z</time>
      </trkpt>
      <trkpt lat="44.25508" lon="6.05866">
        <ele>1261.9952373</ele>
        <time>2019-09-11T12:13:07Z</time>
      </trkpt>
      <trkpt lat="44.25514" lon="6.05856">
        <ele>1262.9951849</ele>
        <time>2019-09-11T12:13:11Z</time>
      </trkpt>
      <trkpt lat="44.25524" lon="6.05846">
        <ele>1259.9951008</ele>
        <time>2019-09-11T12:13:16Z</time>
      </trkpt>
      <trkpt lat="44.25532" lon="6.05839">
        <ele>1258.9950346</ele>
        <time>2019-09-11T12:13:20Z</time>
      </trkpt>
      <trkpt lat="44.25539" lon="6.05832">
        <ele>1256.9949708</ele>
        <time>2019-09-11T12:13:24Z</time>
      </trkpt>
      <trkpt lat="44.25552" lon="6.05829">
        <ele>1253.9948565</ele>
        <time>2019-09-11T12:13:29Z</time>
      </trkpt>
      <trkpt lat="44.25566" lon="6.05835">
        <ele>1249.9947156</ele>
        <time>2019-09-11T12:13:34Z</time>
      </trkpt>
      <trkpt lat="44.25582" lon="6.05836">
        <ele>1247.9945671</ele>
        <time>2019-09-11T12:13:39Z</time>
      </trkpt>
      <trkpt lat="44.25592" lon="6.05837">
        <ele>1246.9944754</ele>
        <time>2019-09-11T12:13:43Z</time>
      </trkpt>
      <trkpt lat="44.25601" lon="6.05843">
        <ele>1240.9943853</ele>
        <time>2019-09-11T12:13:47Z</time>
      </trkpt>
      <trkpt lat="44.25608" lon="6.05846">
        <ele>1239.9943092</ele>
        <time>2019-09-11T12:14:04Z</time>
      </trkpt>
      <trkpt lat="44.25622" lon="6.05851">
        <ele>1237.9941771</ele>
        <time>2019-09-11T12:14:09Z</time>
      </trkpt>
      <trkpt lat="44.25639" lon="6.05851">
        <ele>1234.9940139</ele>
        <time>2019-09-11T12:14:14Z</time>
      </trkpt>
      <trkpt lat="44.25652" lon="6.05847">
        <ele>1233.9939041</ele>
        <time>2019-09-11T12:14:19Z</time>
      </trkpt>
      <trkpt lat="44.25662" lon="6.05844">
        <ele>1233.9938068</ele>
        <time>2019-09-11T12:14:24Z</time>
      </trkpt>
      <trkpt lat="44.25671" lon="6.05844">
        <ele>1232.9937291</ele>
        <time>2019-09-11T12:14:35Z</time>
      </trkpt>
      <trkpt lat="44.25679" lon="6.05845">
        <ele>1232.9936536</ele>
        <time>2019-09-11T12:14:40Z</time>
      </trkpt>
      <trkpt lat="44.25689" lon="6.05846">
        <ele>1231.9935546</ele>
        <time>2019-09-11T12:14:45Z</time>
      </trkpt>
      <trkpt lat="44.25703" lon="6.05848">
        <ele>1231.9934189</ele>
        <time>2019-09-11T12:14:50Z</time>
      </trkpt>
      <trkpt lat="44.25712" lon="6.05852">
        <ele>1231.9933301</ele>
        <time>2019-09-11T12:14:54Z</time>
      </trkpt>
      <trkpt lat="44.25721" lon="6.05857">
        <ele>1233.9932419</ele>
        <time>2019-09-11T12:14:58Z</time>
      </trkpt>
      <trkpt lat="44.25729" lon="6.05855">
        <ele>1230.9931699</ele>
        <time>2019-09-11T12:15:02Z</time>
      </trkpt>
      <trkpt lat="44.25731" lon="6.05843">
        <ele>1230.9931652</ele>
        <time>2019-09-11T12:15:08Z</time>
      </trkpt>
      <trkpt lat="44.25724" lon="6.05836">
        <ele>1232.9932381</ele>
        <time>2019-09-11T12:15:15Z</time>
      </trkpt>
      <trkpt lat="44.25717" lon="6.05839">
        <ele>1235.993306</ele>
        <time>2019-09-11T12:15:20Z</time>
      </trkpt>
      <trkpt lat="44.25709" lon="6.05835">
        <ele>1237.9933777</ele>
        <time>2019-09-11T12:15:33Z</time>
      </trkpt>
      <trkpt lat="44.25697" lon="6.05831">
        <ele>1233.9934962</ele>
        <time>2019-09-11T12:15:38Z</time>
      </trkpt>
      <trkpt lat="44.25687" lon="6.05828">
        <ele>1231.9935969</ele>
        <time>2019-09-11T12:15:42Z</time>
      </trkpt>
      <trkpt lat="44.25675" lon="6.05824">
        <ele>1229.9937104</ele>
        <time>2019-09-11T12:15:46Z</time>
      </trkpt>
      <trkpt lat="44.25662" lon="6.05818">
        <ele>1226.9938351</ele>
        <time>2019-09-11T12:15:51Z</time>
      </trkpt>
      <trkpt lat="44.25652" lon="6.05812">
        <ele>1226.9939352</ele>
        <time>2019-09-11T12:15:56Z</time>
      </trkpt>
      <trkpt lat="44.25643" lon="6.05806">
        <ele>1226.9940249</ele>
        <time>2019-09-11T12:16:00Z</time>
      </trkpt>
      <trkpt lat="44.25635" lon="6.058">
        <ele>1225.9941074</ele>
        <time>2019-09-11T12:16:04Z</time>
      </trkpt>
      <trkpt lat="44.25628" lon="6.05794">
        <ele>1221.9941829</ele>
        <time>2019-09-11T12:16:08Z</time>
      </trkpt>
      <trkpt lat="44.2562" lon="6.05791">
        <ele>1220.9942514</ele>
        <time>2019-09-11T12:16:12Z</time>
      </trkpt>
      <trkpt lat="44.25613" lon="6.05786">
        <ele>1220.9943264</ele>
        <time>2019-09-11T12:16:16Z</time>
      </trkpt>
      <trkpt lat="44.25604" lon="6.05776">
        <ele>1219.9944179</ele>
        <time>2019-09-11T12:16:20Z</time>
      </trkpt>
      <trkpt lat="44.25596" lon="6.05762">
        <ele>1218.9945084</ele>
        <time>2019-09-11T12:16:25Z</time>
      </trkpt>
      <trkpt lat="44.2559" lon="6.05744">
        <ele>1216.9945803</ele>
        <time>2019-09-11T12:16:30Z</time>
      </trkpt>
      <trkpt lat="44.25584" lon="6.05733">
        <ele>1216.9946478</ele>
        <time>2019-09-11T12:16:34Z</time>
      </trkpt>
      <trkpt lat="44.25572" lon="6.05724">
        <ele>1212.9947594</ele>
        <time>2019-09-11T12:16:39Z</time>
      </trkpt>
      <trkpt lat="44.25563" lon="6.05723">
        <ele>1211.9948496</ele>
        <time>2019-09-11T12:16:44Z</time>
      </trkpt>
      <trkpt lat="44.25554" lon="6.05725">
        <ele>1210.9949261</ele>
        <time>2019-09-11T12:16:48Z</time>
      </trkpt>
      <trkpt lat="44.25542" lon="6.05728">
        <ele>1209.9950292</ele>
        <time>2019-09-11T12:16:52Z</time>
      </trkpt>
      <trkpt lat="44.25529" lon="6.05731">
        <ele>1210.9951525</ele>
        <time>2019-09-11T12:16:57Z</time>
      </trkpt>
      <trkpt lat="44.25519" lon="6.05734">
        <ele>1209.9952347</ele>
        <time>2019-09-11T12:17:01Z</time>
      </trkpt>
      <trkpt lat="44.25509" lon="6.05727">
        <ele>1208.9953394</ele>
        <time>2019-09-11T12:17:05Z</time>
      </trkpt>
      <trkpt lat="44.25503" lon="6.0571">
        <ele>1206.9954083</ele>
        <time>2019-09-11T12:17:10Z</time>
      </trkpt>
      <trkpt lat="44.25501" lon="6.05695">
        <ele>1207.9954326</ele>
        <time>2019-09-11T12:17:14Z</time>
      </trkpt>
      <trkpt lat="44.25495" lon="6.05684">
        <ele>1204.9954994</ele>
        <time>2019-09-11T12:17:18Z</time>
      </trkpt>
      <trkpt lat="44.25485" lon="6.05683">
        <ele>1202.9955882</ele>
        <time>2019-09-11T12:17:22Z</time>
      </trkpt>
      <trkpt lat="44.25469" lon="6.05686">
        <ele>1198.9957316</ele>
        <time>2019-09-11T12:17:27Z</time>
      </trkpt>
      <trkpt lat="44.25456" lon="6.05689">
        <ele>1200.9958526</ele>
        <time>2019-09-11T12:17:32Z</time>
      </trkpt>
      <trkpt lat="44.25446" lon="6.05691">
        <ele>1199.9959372</ele>
        <time>2019-09-11T12:17:37Z</time>
      </trkpt>
      <trkpt lat="44.25438" lon="6.05689">
        <ele>1199.9960095</ele>
        <time>2019-09-11T12:17:42Z</time>
      </trkpt>
      <trkpt lat="44.25424" lon="6.05684">
        <ele>1200.996141</ele>
        <time>2019-09-11T12:17:47Z</time>
      </trkpt>
      <trkpt lat="44.25412" lon="6.05682">
        <ele>1199.9962533</ele>
        <time>2019-09-11T12:17:51Z</time>
      </trkpt>
      <trkpt lat="44.25397" lon="6.05678">
        <ele>1198.9963951</ele>
        <time>2019-09-11T12:17:56Z</time>
      </trkpt>
      <trkpt lat="44.25386" lon="6.05671">
        <ele>1197.9964935</ele>
        <time>2019-09-11T12:18:00Z</time>
      </trkpt>
      <trkpt lat="44.25378" lon="6.05666">
        <ele>1195.9965709</ele>
        <time>2019-09-11T12:18:04Z</time>
      </trkpt>
      <trkpt lat="44.25367" lon="6.0566">
        <ele>1195.9966731</ele>
        <time>2019-09-11T12:18:09Z</time>
      </trkpt>
      <trkpt lat="44.25358" lon="6.05656">
        <ele>1191.9967615</ele>
        <time>2019-09-11T12:18:13Z</time>
      </trkpt>
      <trkpt lat="44.25347" lon="6.0565">
        <ele>1189.9968668</ele>
        <time>2019-09-11T12:18:18Z</time>
      </trkpt>
      <trkpt lat="44.25352" lon="6.05639">
        <ele>1180.9968277</ele>
        <time>2019-09-11T12:18:54Z</time>
      </trkpt>
      <trkpt lat="44.25359" lon="6.05641">
        <ele>1180.9967634</ele>
        <time>2019-09-11T12:18:58Z</time>
      </trkpt>
      <trkpt lat="44.25372" lon="6.05645">
        <ele>1181.9966419</ele>
        <time>2019-09-11T12:19:03Z</time>
      </trkpt>
      <trkpt lat="44.25382" lon="6.05646">
        <ele>1182.9965469</ele>
        <time>2019-09-11T12:19:07Z</time>
      </trkpt>
      <trkpt lat="44.25393" lon="6.0565">
        <ele>1182.9964516</ele>
        <time>2019-09-11T12:19:11Z</time>
      </trkpt>
      <trkpt lat="44.25408" lon="6.05652">
        <ele>1181.9963121</ele>
        <time>2019-09-11T12:19:16Z</time>
      </trkpt>
      <trkpt lat="44.25418" lon="6.05649">
        <ele>1181.9962236</ele>
        <time>2019-09-11T12:19:20Z</time>
      </trkpt>
      <trkpt lat="44.25427" lon="6.05645">
        <ele>1182.9961437</ele>
        <time>2019-09-11T12:19:24Z</time>
      </trkpt>
      <trkpt lat="44.25436" lon="6.05645">
        <ele>1182.9960669</ele>
        <time>2019-09-11T12:19:28Z</time>
      </trkpt>
      <trkpt lat="44.25444" lon="6.05638">
        <ele>1183.9959941</ele>
        <time>2019-09-11T12:19:32Z</time>
      </trkpt>
      <trkpt lat="44.25456" lon="6.05634">
        <ele>1182.9958925</ele>
        <time>2019-09-11T12:19:37Z</time>
      </trkpt>
      <trkpt lat="44.25464" lon="6.05629">
        <ele>1181.9958247</ele>
        <time>2019-09-11T12:19:41Z</time>
      </trkpt>
      <trkpt lat="44.25472" lon="6.0562">
        <ele>1181.9957576</ele>
        <time>2019-09-11T12:19:45Z</time>
      </trkpt>
      <trkpt lat="44.25478" lon="6.05611">
        <ele>1181.9957076</ele>
        <time>2019-09-11T12:19:49Z</time>
      </trkpt>
      <trkpt lat="44.25485" lon="6.05603">
        <ele>1180.9956552</ele>
        <time>2019-09-11T12:19:53Z</time>
      </trkpt>
      <trkpt lat="44.25495" lon="6.05596">
        <ele>1177.9955644</ele>
        <time>2019-09-11T12:19:58Z</time>
      </trkpt>
      <trkpt lat="44.25506" lon="6.05593">
        <ele>1175.9954741</ele>
        <time>2019-09-11T12:20:03Z</time>
      </trkpt>
      <trkpt lat="44.25518" lon="6.05594">
        <ele>1170.9953624</ele>
        <time>2019-09-11T12:20:07Z</time>
      </trkpt>
      <trkpt lat="44.25532" lon="6.05595">
        <ele>1169.9952398</ele>
        <time>2019-09-11T12:20:12Z</time>
      </trkpt>
      <trkpt lat="44.25543" lon="6.05595">
        <ele>1169.9951358</ele>
        <time>2019-09-11T12:20:16Z</time>
      </trkpt>
      <trkpt lat="44.25552" lon="6.05591">
        <ele>1170.9950659</ele>
        <time>2019-09-11T12:20:20Z</time>
      </trkpt>
      <trkpt lat="44.25562" lon="6.05584">
        <ele>1169.9949824</ele>
        <time>2019-09-11T12:20:24Z</time>
      </trkpt>
      <trkpt lat="44.25573" lon="6.05574">
        <ele>1169.9948922</ele>
        <time>2019-09-11T12:20:28Z</time>
      </trkpt>
      <trkpt lat="44.25586" lon="6.05569">
        <ele>1165.9947756</ele>
        <time>2019-09-11T12:20:33Z</time>
      </trkpt>
      <trkpt lat="44.25583" lon="6.05558">
        <ele>1157.9948124</ele>
        <time>2019-09-11T12:20:40Z</time>
      </trkpt>
      <trkpt lat="44.25575" lon="6.0556">
        <ele>1157.9948867</ele>
        <time>2019-09-11T12:20:45Z</time>
      </trkpt>
      <trkpt lat="44.25568" lon="6.05565">
        <ele>1153.9949433</ele>
        <time>2019-09-11T12:20:49Z</time>
      </trkpt>
      <trkpt lat="44.25556" lon="6.05568">
        <ele>1153.9950476</ele>
        <time>2019-09-11T12:20:54Z</time>
      </trkpt>
      <trkpt lat="44.25544" lon="6.05566">
        <ele>1152.9951566</ele>
        <time>2019-09-11T12:20:58Z</time>
      </trkpt>
      <trkpt lat="44.25535" lon="6.05564">
        <ele>1151.9952387</ele>
        <time>2019-09-11T12:21:02Z</time>
      </trkpt>
      <trkpt lat="44.25519" lon="6.05555">
        <ele>1147.9953894</ele>
        <time>2019-09-11T12:21:07Z</time>
      </trkpt>
      <trkpt lat="44.25507" lon="6.05546">
        <ele>1146.9954989</ele>
        <time>2019-09-11T12:21:11Z</time>
      </trkpt>
      <trkpt lat="44.25497" lon="6.05535">
        <ele>1144.995598</ele>
        <time>2019-09-11T12:21:15Z</time>
      </trkpt>
      <trkpt lat="44.25484" lon="6.0553">
        <ele>1145.9957153</ele>
        <time>2019-09-11T12:21:20Z</time>
      </trkpt>
      <trkpt lat="44.25474" lon="6.05536">
        <ele>1146.9957987</ele>
        <time>2019-09-11T12:21:24Z</time>
      </trkpt>
      <trkpt lat="44.25468" lon="6.05544">
        <ele>1146.9958477</ele>
        <time>2019-09-11T12:21:28Z</time>
      </trkpt>
      <trkpt lat="44.25457" lon="6.05537">
        <ele>1145.9959529</ele>
        <time>2019-09-11T12:21:33Z</time>
      </trkpt>
      <trkpt lat="44.25448" lon="6.05524">
        <ele>1142.9960383</ele>
        <time>2019-09-11T12:21:37Z</time>
      </trkpt>
      <trkpt lat="44.25441" lon="6.05505">
        <ele>1137.996119</ele>
        <time>2019-09-11T12:21:42Z</time>
      </trkpt>
      <trkpt lat="44.25432" lon="6.05503">
        <ele>1135.9961998</ele>
        <time>2019-09-11T12:21:46Z</time>
      </trkpt>
      <trkpt lat="44.25422" lon="6.05511">
        <ele>1135.9962778</ele>
        <time>2019-09-11T12:21:50Z</time>
      </trkpt>
      <trkpt lat="44.25412" lon="6.0552">
        <ele>1133.9963641</ele>
        <time>2019-09-11T12:21:54Z</time>
      </trkpt>
      <trkpt lat="44.254" lon="6.05523">
        <ele>1132.9964614</ele>
        <time>2019-09-11T12:21:59Z</time>
      </trkpt>
      <trkpt lat="44.25392" lon="6.05523">
        <ele>1131.9965401</ele>
        <time>2019-09-11T12:22:03Z</time>
      </trkpt>
      <trkpt lat="44.25385" lon="6.0552">
        <ele>1131.9965981</ele>
        <time>2019-09-11T12:24:33Z</time>
      </trkpt>
      <trkpt lat="44.25374" lon="6.05522">
        <ele>1129.9966988</ele>
        <time>2019-09-11T12:24:37Z</time>
      </trkpt>
      <trkpt lat="44.25365" lon="6.05523">
        <ele>1126.9967732</ele>
        <time>2019-09-11T12:25:06Z</time>
      </trkpt>
      <trkpt lat="44.25371" lon="6.05515">
        <ele>1130.996731</ele>
        <time>2019-09-11T12:25:27Z</time>
      </trkpt>
      <trkpt lat="44.2538" lon="6.05505">
        <ele>1129.996655</ele>
        <time>2019-09-11T12:25:32Z</time>
      </trkpt>
      <trkpt lat="44.25382" lon="6.05493">
        <ele>1130.9966396</ele>
        <time>2019-09-11T12:25:36Z</time>
      </trkpt>
      <trkpt lat="44.25385" lon="6.05478">
        <ele>1131.9966232</ele>
        <time>2019-09-11T12:25:40Z</time>
      </trkpt>
      <trkpt lat="44.25387" lon="6.05462">
        <ele>1128.9966166</ele>
        <time>2019-09-11T12:25:44Z</time>
      </trkpt>
      <trkpt lat="44.25387" lon="6.05443">
        <ele>1126.9966291</ele>
        <time>2019-09-11T12:25:49Z</time>
      </trkpt>
      <trkpt lat="44.25387" lon="6.05427">
        <ele>1123.9966368</ele>
        <time>2019-09-11T12:25:54Z</time>
      </trkpt>
      <trkpt lat="44.25389" lon="6.05418">
        <ele>1121.9966248</ele>
        <time>2019-09-11T12:25:58Z</time>
      </trkpt>
      <trkpt lat="44.25393" lon="6.05407">
        <ele>1121.996603</ele>
        <time>2019-09-11T12:26:02Z</time>
      </trkpt>
      <trkpt lat="44.25398" lon="6.05397">
        <ele>1121.9965646</ele>
        <time>2019-09-11T12:26:06Z</time>
      </trkpt>
      <trkpt lat="44.25405" lon="6.05387">
        <ele>1119.9965128</ele>
        <time>2019-09-11T12:26:10Z</time>
      </trkpt>
      <trkpt lat="44.25415" lon="6.05378">
        <ele>1113.9964322</ele>
        <time>2019-09-11T12:26:14Z</time>
      </trkpt>
      <trkpt lat="44.25423" lon="6.05375">
        <ele>1111.9963618</ele>
        <time>2019-09-11T12:26:18Z</time>
      </trkpt>
      <trkpt lat="44.25432" lon="6.05374">
        <ele>1110.9962882</ele>
        <time>2019-09-11T12:26:22Z</time>
      </trkpt>
      <trkpt lat="44.25439" lon="6.05372">
        <ele>1110.9962243</ele>
        <time>2019-09-11T12:26:26Z</time>
      </trkpt>
      <trkpt lat="44.2545" lon="6.05372">
        <ele>1109.9961287</ele>
        <time>2019-09-11T12:26:31Z</time>
      </trkpt>
      <trkpt lat="44.25463" lon="6.05373">
        <ele>1107.9960242</ele>
        <time>2019-09-11T12:26:36Z</time>
      </trkpt>
      <trkpt lat="44.25472" lon="6.05372">
        <ele>1105.9959444</ele>
        <time>2019-09-11T12:26:40Z</time>
      </trkpt>
      <trkpt lat="44.25483" lon="6.05367">
        <ele>1105.9958502</ele>
        <time>2019-09-11T12:26:45Z</time>
      </trkpt>
      <trkpt lat="44.25495" lon="6.05361">
        <ele>1103.9957558</ele>
        <time>2019-09-11T12:26:50Z</time>
      </trkpt>
      <trkpt lat="44.25505" lon="6.0536">
        <ele>1108.9956707</ele>
        <time>2019-09-11T12:26:54Z</time>
      </trkpt>
      <trkpt lat="44.25512" lon="6.0536">
        <ele>1106.9956054</ele>
        <time>2019-09-11T12:26:58Z</time>
      </trkpt>
      <trkpt lat="44.2552" lon="6.05359">
        <ele>1105.9955434</ele>
        <time>2019-09-11T12:27:02Z</time>
      </trkpt>
      <trkpt lat="44.2553" lon="6.05352">
        <ele>1104.9954627</ele>
        <time>2019-09-11T12:27:07Z</time>
      </trkpt>
      <trkpt lat="44.2554" lon="6.05343">
        <ele>1104.9953824</ele>
        <time>2019-09-11T12:27:12Z</time>
      </trkpt>
      <trkpt lat="44.25548" lon="6.05338">
        <ele>1104.9953185</ele>
        <time>2019-09-11T12:27:16Z</time>
      </trkpt>
      <trkpt lat="44.25557" lon="6.05339">
        <ele>1104.9952461</ele>
        <time>2019-09-11T12:27:20Z</time>
      </trkpt>
      <trkpt lat="44.25566" lon="6.05336">
        <ele>1102.9951646</ele>
        <time>2019-09-11T12:27:24Z</time>
      </trkpt>
      <trkpt lat="44.25575" lon="6.05331">
        <ele>1100.9950967</ele>
        <time>2019-09-11T12:27:28Z</time>
      </trkpt>
      <trkpt lat="44.25585" lon="6.05323">
        <ele>1100.9950163</ele>
        <time>2019-09-11T12:27:33Z</time>
      </trkpt>
      <trkpt lat="44.25595" lon="6.05313">
        <ele>1100.994945</ele>
        <time>2019-09-11T12:27:37Z</time>
      </trkpt>
      <trkpt lat="44.25604" lon="6.05309">
        <ele>1099.9948681</ele>
        <time>2019-09-11T12:27:40Z</time>
      </trkpt>
      <trkpt lat="44.25613" lon="6.05305">
        <ele>1098.9947969</ele>
        <time>2019-09-11T12:27:45Z</time>
      </trkpt>
      <trkpt lat="44.2562" lon="6.05299">
        <ele>1096.9947423</ele>
        <time>2019-09-11T12:27:50Z</time>
      </trkpt>
      <trkpt lat="44.25612" lon="6.05299">
        <ele>1085.9948132</ele>
        <time>2019-09-11T12:28:00Z</time>
      </trkpt>
      <trkpt lat="44.25604" lon="6.053">
        <ele>1084.9948758</ele>
        <time>2019-09-11T12:28:04Z</time>
      </trkpt>
      <trkpt lat="44.25596" lon="6.05302">
        <ele>1083.9949401</ele>
        <time>2019-09-11T12:28:08Z</time>
      </trkpt>
      <trkpt lat="44.25588" lon="6.05299">
        <ele>1082.9950183</ele>
        <time>2019-09-11T12:28:12Z</time>
      </trkpt>
      <trkpt lat="44.25573" lon="6.05295">
        <ele>1085.995149</ele>
        <time>2019-09-11T12:28:17Z</time>
      </trkpt>
      <trkpt lat="44.25559" lon="6.0529">
        <ele>1081.9952701</ele>
        <time>2019-09-11T12:28:21Z</time>
      </trkpt>
      <trkpt lat="44.25549" lon="6.05283">
        <ele>1079.9953612</ele>
        <time>2019-09-11T12:28:25Z</time>
      </trkpt>
      <trkpt lat="44.2554" lon="6.0528">
        <ele>1077.9954353</ele>
        <time>2019-09-11T12:28:29Z</time>
      </trkpt>
      <trkpt lat="44.25531" lon="6.05274">
        <ele>1075.9955196</ele>
        <time>2019-09-11T12:28:33Z</time>
      </trkpt>
      <trkpt lat="44.25523" lon="6.05265">
        <ele>1073.9955968</ele>
        <time>2019-09-11T12:28:37Z</time>
      </trkpt>
      <trkpt lat="44.25516" lon="6.05256">
        <ele>1071.9956642</ele>
        <time>2019-09-11T12:28:41Z</time>
      </trkpt>
      <trkpt lat="44.25505" lon="6.05241">
        <ele>1071.9957687</ele>
        <time>2019-09-11T12:28:46Z</time>
      </trkpt>
      <trkpt lat="44.25497" lon="6.05227">
        <ele>1068.9958445</ele>
        <time>2019-09-11T12:28:50Z</time>
      </trkpt>
      <trkpt lat="44.2549" lon="6.0521">
        <ele>1065.9959162</ele>
        <time>2019-09-11T12:28:54Z</time>
      </trkpt>
      <trkpt lat="44.25482" lon="6.05198">
        <ele>1064.9959921</ele>
        <time>2019-09-11T12:28:58Z</time>
      </trkpt>
      <trkpt lat="44.25474" lon="6.05192">
        <ele>1061.9960623</ele>
        <time>2019-09-11T12:29:02Z</time>
      </trkpt>
      <trkpt lat="44.25465" lon="6.05191">
        <ele>1060.9961356</ele>
        <time>2019-09-11T12:29:06Z</time>
      </trkpt>
      <trkpt lat="44.25456" lon="6.05187">
        <ele>1060.9962157</ele>
        <time>2019-09-11T12:29:11Z</time>
      </trkpt>
      <trkpt lat="44.25459" lon="6.05176">
        <ele>1056.9961983</ele>
        <time>2019-09-11T12:29:54Z</time>
      </trkpt>
      <trkpt lat="44.25467" lon="6.05172">
        <ele>1054.9961392</ele>
        <time>2019-09-11T12:29:58Z</time>
      </trkpt>
      <trkpt lat="44.25474" lon="6.05166">
        <ele>1056.9960782</ele>
        <time>2019-09-11T12:30:02Z</time>
      </trkpt>
      <trkpt lat="44.25483" lon="6.05164">
        <ele>1053.9960088</ele>
        <time>2019-09-11T12:30:07Z</time>
      </trkpt>
      <trkpt lat="44.25491" lon="6.0516">
        <ele>1053.9959467</ele>
        <time>2019-09-11T12:30:14Z</time>
      </trkpt>
      <trkpt lat="44.2549" lon="6.05149">
        <ele>1051.9959639</ele>
        <time>2019-09-11T12:30:21Z</time>
      </trkpt>
      <trkpt lat="44.25482" lon="6.05144">
        <ele>1052.9960343</ele>
        <time>2019-09-11T12:30:26Z</time>
      </trkpt>
      <trkpt lat="44.25472" lon="6.05139">
        <ele>1048.9961212</ele>
        <time>2019-09-11T12:30:31Z</time>
      </trkpt>
      <trkpt lat="44.25464" lon="6.05133">
        <ele>1045.9961878</ele>
        <time>2019-09-11T12:30:36Z</time>
      </trkpt>
      <trkpt lat="44.25469" lon="6.05124">
        <ele>1047.9961531</ele>
        <time>2019-09-11T12:30:43Z</time>
      </trkpt>
      <trkpt lat="44.25478" lon="6.05125">
        <ele>1046.9960792</ele>
        <time>2019-09-11T12:30:47Z</time>
      </trkpt>
      <trkpt lat="44.25491" lon="6.05126">
        <ele>1043.9959763</ele>
        <time>2019-09-11T12:30:51Z</time>
      </trkpt>
      <trkpt lat="44.25504" lon="6.05127">
        <ele>1041.9958675</ele>
        <time>2019-09-11T12:30:55Z</time>
      </trkpt>
      <trkpt lat="44.25516" lon="6.0513">
        <ele>1040.9957657</ele>
        <time>2019-09-11T12:31:00Z</time>
      </trkpt>
      <trkpt lat="44.25526" lon="6.05128">
        <ele>1042.9956811</ele>
        <time>2019-09-11T12:31:05Z</time>
      </trkpt>
      <trkpt lat="44.25537" lon="6.05126">
        <ele>1038.9955979</ele>
        <time>2019-09-11T12:31:09Z</time>
      </trkpt>
      <trkpt lat="44.25547" lon="6.05127">
        <ele>1038.9955124</ele>
        <time>2019-09-11T12:31:13Z</time>
      </trkpt>
      <trkpt lat="44.25559" lon="6.05131">
        <ele>1037.9954147</ele>
        <time>2019-09-11T12:31:18Z</time>
      </trkpt>
      <trkpt lat="44.25569" lon="6.05137">
        <ele>1035.9953231</ele>
        <time>2019-09-11T12:31:22Z</time>
      </trkpt>
      <trkpt lat="44.25581" lon="6.05143">
        <ele>1033.9952174</ele>
        <time>2019-09-11T12:31:27Z</time>
      </trkpt>
      <trkpt lat="44.25593" lon="6.05149">
        <ele>1033.9951149</ele>
        <time>2019-09-11T12:31:31Z</time>
      </trkpt>
      <trkpt lat="44.25603" lon="6.0515">
        <ele>1031.9950326</ele>
        <time>2019-09-11T12:31:36Z</time>
      </trkpt>
      <trkpt lat="44.25613" lon="6.05152">
        <ele>1032.9949456</ele>
        <time>2019-09-11T12:31:40Z</time>
      </trkpt>
      <trkpt lat="44.25623" lon="6.05153">
        <ele>1030.9948619</ele>
        <time>2019-09-11T12:31:45Z</time>
      </trkpt>
      <trkpt lat="44.25633" lon="6.05156">
        <ele>1027.9947791</ele>
        <time>2019-09-11T12:31:49Z</time>
      </trkpt>
      <trkpt lat="44.25642" lon="6.05158">
        <ele>1024.9947027</ele>
        <time>2019-09-11T12:31:53Z</time>
      </trkpt>
      <trkpt lat="44.25651" lon="6.0516">
        <ele>1023.9946247</ele>
        <time>2019-09-11T12:31:57Z</time>
      </trkpt>
      <trkpt lat="44.25661" lon="6.05165">
        <ele>1022.9945368</ele>
        <time>2019-09-11T12:32:02Z</time>
      </trkpt>
      <trkpt lat="44.2567" lon="6.05168">
        <ele>1021.9944621</ele>
        <time>2019-09-11T12:32:06Z</time>
      </trkpt>
      <trkpt lat="44.25678" lon="6.05164">
        <ele>1021.9943997</ele>
        <time>2019-09-11T12:32:11Z</time>
      </trkpt>
      <trkpt lat="44.25689" lon="6.0516">
        <ele>1020.9943103</ele>
        <time>2019-09-11T12:32:16Z</time>
      </trkpt>
      <trkpt lat="44.25698" lon="6.05158">
        <ele>1019.9942413</ele>
        <time>2019-09-11T12:32:20Z</time>
      </trkpt>
      <trkpt lat="44.25708" lon="6.05159">
        <ele>1018.9941593</ele>
        <time>2019-09-11T12:32:24Z</time>
      </trkpt>
      <trkpt lat="44.2572" lon="6.05162">
        <ele>1016.9940563</ele>
        <time>2019-09-11T12:32:29Z</time>
      </trkpt>
      <trkpt lat="44.2573" lon="6.05161">
        <ele>1014.9939723</ele>
        <time>2019-09-11T12:32:34Z</time>
      </trkpt>
      <trkpt lat="44.25738" lon="6.05157">
        <ele>1016.9939099</ele>
        <time>2019-09-11T12:33:05Z</time>
      </trkpt>
      <trkpt lat="44.25746" lon="6.05155">
        <ele>1014.9938499</ele>
        <time>2019-09-11T12:33:09Z</time>
      </trkpt>
      <trkpt lat="44.25757" lon="6.05151">
        <ele>1012.9937641</ele>
        <time>2019-09-11T12:33:14Z</time>
      </trkpt>
      <trkpt lat="44.25767" lon="6.05147">
        <ele>1011.9936849</ele>
        <time>2019-09-11T12:33:19Z</time>
      </trkpt>
      <trkpt lat="44.25775" lon="6.05145">
        <ele>1011.9936205</ele>
        <time>2019-09-11T12:33:23Z</time>
      </trkpt>
      <trkpt lat="44.25787" lon="6.05145">
        <ele>1008.9935193</ele>
        <time>2019-09-11T12:33:28Z</time>
      </trkpt>
      <trkpt lat="44.25801" lon="6.05149">
        <ele>1006.9934049</ele>
        <time>2019-09-11T12:33:33Z</time>
      </trkpt>
      <trkpt lat="44.2581" lon="6.0515">
        <ele>1006.9933235</ele>
        <time>2019-09-11T12:33:37Z</time>
      </trkpt>
      <trkpt lat="44.25818" lon="6.05145">
        <ele>1002.9932628</ele>
        <time>2019-09-11T12:33:42Z</time>
      </trkpt>
      <trkpt lat="44.25826" lon="6.05137">
        <ele>1000.9932154</ele>
        <time>2019-09-11T12:33:46Z</time>
      </trkpt>
      <trkpt lat="44.25838" lon="6.05129">
        <ele>1000.9931232</ele>
        <time>2019-09-11T12:33:51Z</time>
      </trkpt>
      <trkpt lat="44.25847" lon="6.05126">
        <ele>997.9930565</ele>
        <time>2019-09-11T12:33:55Z</time>
      </trkpt>
      <trkpt lat="44.25859" lon="6.05122">
        <ele>996.9929608</ele>
        <time>2019-09-11T12:34:00Z</time>
      </trkpt>
      <trkpt lat="44.25867" lon="6.05114">
        <ele>993.9929081</ele>
        <time>2019-09-11T12:34:04Z</time>
      </trkpt>
      <trkpt lat="44.25875" lon="6.05104">
        <ele>991.992854</ele>
        <time>2019-09-11T12:34:08Z</time>
      </trkpt>
      <trkpt lat="44.25882" lon="6.05093">
        <ele>990.9928121</ele>
        <time>2019-09-11T12:34:12Z</time>
      </trkpt>
      <trkpt lat="44.25889" lon="6.0508">
        <ele>989.9927715</ele>
        <time>2019-09-11T12:34:16Z</time>
      </trkpt>
      <trkpt lat="44.25895" lon="6.05069">
        <ele>988.992743</ele>
        <time>2019-09-11T12:34:20Z</time>
      </trkpt>
      <trkpt lat="44.259" lon="6.05061">
        <ele>988.9927169</ele>
        <time>2019-09-11T12:34:31Z</time>
      </trkpt>
      <trkpt lat="44.25906" lon="6.05051">
        <ele>987.9926826</ele>
        <time>2019-09-11T12:34:35Z</time>
      </trkpt>
      <trkpt lat="44.25913" lon="6.05042">
        <ele>984.9926358</ele>
        <time>2019-09-11T12:34:40Z</time>
      </trkpt>
      <trkpt lat="44.2592" lon="6.05035">
        <ele>983.9925894</ele>
        <time>2019-09-11T12:34:45Z</time>
      </trkpt>
      <trkpt lat="44.25929" lon="6.05031">
        <ele>982.9925245</ele>
        <time>2019-09-11T12:34:49Z</time>
      </trkpt>
      <trkpt lat="44.25941" lon="6.05028">
        <ele>981.9924341</ele>
        <time>2019-09-11T12:34:54Z</time>
      </trkpt>
      <trkpt lat="44.2595" lon="6.05026">
        <ele>979.992361</ele>
        <time>2019-09-11T12:34:58Z</time>
      </trkpt>
      <trkpt lat="44.25961" lon="6.05022">
        <ele>978.9922803</ele>
        <time>2019-09-11T12:35:02Z</time>
      </trkpt>
      <trkpt lat="44.2597" lon="6.05018">
        <ele>976.9922085</ele>
        <time>2019-09-11T12:35:06Z</time>
      </trkpt>
      <trkpt lat="44.25982" lon="6.05017">
        <ele>974.992122</ele>
        <time>2019-09-11T12:35:10Z</time>
      </trkpt>
      <trkpt lat="44.25993" lon="6.05019">
        <ele>974.9920227</ele>
        <time>2019-09-11T12:35:14Z</time>
      </trkpt>
      <trkpt lat="44.26001" lon="6.05023">
        <ele>972.9919593</ele>
        <time>2019-09-11T12:35:18Z</time>
      </trkpt>
      <trkpt lat="44.26008" lon="6.05033">
        <ele>972.9918822</ele>
        <time>2019-09-11T12:35:22Z</time>
      </trkpt>
      <trkpt lat="44.26014" lon="6.05043">
        <ele>971.9918158</ele>
        <time>2019-09-11T12:35:26Z</time>
      </trkpt>
      <trkpt lat="44.26023" lon="6.0506">
        <ele>970.9917188</ele>
        <time>2019-09-11T12:35:31Z</time>
      </trkpt>
      <trkpt lat="44.26032" lon="6.05068">
        <ele>968.9916348</ele>
        <time>2019-09-11T12:35:36Z</time>
      </trkpt>
      <trkpt lat="44.26035" lon="6.05056">
        <ele>966.9916272</ele>
        <time>2019-09-11T12:35:51Z</time>
      </trkpt>
      <trkpt lat="44.26027" lon="6.05045">
        <ele>966.991707</ele>
        <time>2019-09-11T12:35:55Z</time>
      </trkpt>
      <trkpt lat="44.26022" lon="6.05032">
        <ele>964.9917751</ele>
        <time>2019-09-11T12:35:59Z</time>
      </trkpt>
      <trkpt lat="44.26015" lon="6.0501">
        <ele>963.9918622</ele>
        <time>2019-09-11T12:36:04Z</time>
      </trkpt>
      <trkpt lat="44.2601" lon="6.04991">
        <ele>961.9919352</ele>
        <time>2019-09-11T12:36:09Z</time>
      </trkpt>
      <trkpt lat="44.26004" lon="6.04972">
        <ele>960.9920114</ele>
        <time>2019-09-11T12:36:13Z</time>
      </trkpt>
      <trkpt lat="44.25999" lon="6.04954">
        <ele>958.9920818</ele>
        <time>2019-09-11T12:36:18Z</time>
      </trkpt>
      <trkpt lat="44.26003" lon="6.04944">
        <ele>957.9920699</ele>
        <time>2019-09-11T12:36:24Z</time>
      </trkpt>
      <trkpt lat="44.26009" lon="6.04949">
        <ele>959.9920149</ele>
        <time>2019-09-11T12:37:02Z</time>
      </trkpt>
      <trkpt lat="44.26014" lon="6.04966">
        <ele>960.9919422</ele>
        <time>2019-09-11T12:37:06Z</time>
      </trkpt>
      <trkpt lat="44.26026" lon="6.04987">
        <ele>958.9918176</ele>
        <time>2019-09-11T12:37:11Z</time>
      </trkpt>
      <trkpt lat="44.26037" lon="6.05001">
        <ele>957.9917064</ele>
        <time>2019-09-11T12:37:16Z</time>
      </trkpt>
      <trkpt lat="44.26046" lon="6.0501">
        <ele>957.9916143</ele>
        <time>2019-09-11T12:37:20Z</time>
      </trkpt>
      <trkpt lat="44.26054" lon="6.05015">
        <ele>959.9915412</ele>
        <time>2019-09-11T12:37:24Z</time>
      </trkpt>
      <trkpt lat="44.26063" lon="6.0502">
        <ele>958.9914583</ele>
        <time>2019-09-11T12:37:27Z</time>
      </trkpt>
      <trkpt lat="44.26073" lon="6.05028">
        <ele>956.9913715</ele>
        <time>2019-09-11T12:37:31Z</time>
      </trkpt>
      <trkpt lat="44.2608" lon="6.05034">
        <ele>954.991298</ele>
        <time>2019-09-11T12:37:35Z</time>
      </trkpt>
      <trkpt lat="44.26078" lon="6.05022">
        <ele>951.9913374</ele>
        <time>2019-09-11T12:37:44Z</time>
      </trkpt>
      <trkpt lat="44.26069" lon="6.05015">
        <ele>949.9914263</ele>
        <time>2019-09-11T12:37:49Z</time>
      </trkpt>
      <trkpt lat="44.2606" lon="6.05001">
        <ele>951.9915231</ele>
        <time>2019-09-11T12:37:54Z</time>
      </trkpt>
      <trkpt lat="44.2605" lon="6.04984">
        <ele>948.9916282</ele>
        <time>2019-09-11T12:37:58Z</time>
      </trkpt>
      <trkpt lat="44.26045" lon="6.04962">
        <ele>947.9917039</ele>
        <time>2019-09-11T12:38:02Z</time>
      </trkpt>
      <trkpt lat="44.26044" lon="6.04939">
        <ele>943.9917529</ele>
        <time>2019-09-11T12:38:06Z</time>
      </trkpt>
      <trkpt lat="44.26045" lon="6.04915">
        <ele>943.9917818</ele>
        <time>2019-09-11T12:38:10Z</time>
      </trkpt>
      <trkpt lat="44.26051" lon="6.04885">
        <ele>942.9917894</ele>
        <time>2019-09-11T12:38:15Z</time>
      </trkpt>
      <trkpt lat="44.26053" lon="6.04869">
        <ele>942.9917971</ele>
        <time>2019-09-11T12:38:19Z</time>
      </trkpt>
      <trkpt lat="44.26061" lon="6.04869">
        <ele>942.9917316</ele>
        <time>2019-09-11T12:38:51Z</time>
      </trkpt>
      <trkpt lat="44.26063" lon="6.04892">
        <ele>943.9916756</ele>
        <time>2019-09-11T12:38:56Z</time>
      </trkpt>
      <trkpt lat="44.26063" lon="6.04914">
        <ele>941.9916441</ele>
        <time>2019-09-11T12:39:01Z</time>
      </trkpt>
      <trkpt lat="44.26063" lon="6.04932">
        <ele>941.9916092</ele>
        <time>2019-09-11T12:39:05Z</time>
      </trkpt>
      <trkpt lat="44.26068" lon="6.04948">
        <ele>940.9915493</ele>
        <time>2019-09-11T12:39:10Z</time>
      </trkpt>
      <trkpt lat="44.26075" lon="6.04957">
        <ele>940.9914705</ele>
        <time>2019-09-11T12:39:14Z</time>
      </trkpt>
      <trkpt lat="44.26087" lon="6.0497">
        <ele>938.9913578</ele>
        <time>2019-09-11T12:39:18Z</time>
      </trkpt>
      <trkpt lat="44.26097" lon="6.04976">
        <ele>936.9912689</ele>
        <time>2019-09-11T12:39:22Z</time>
      </trkpt>
      <trkpt lat="44.26105" lon="6.0498">
        <ele>934.9911929</ele>
        <time>2019-09-11T12:39:26Z</time>
      </trkpt>
      <trkpt lat="44.26114" lon="6.04981">
        <ele>932.9911242</ele>
        <time>2019-09-11T12:39:30Z</time>
      </trkpt>
      <trkpt lat="44.26123" lon="6.04979">
        <ele>928.9910543</ele>
        <time>2019-09-11T12:39:34Z</time>
      </trkpt>
      <trkpt lat="44.26135" lon="6.04975">
        <ele>928.9909688</ele>
        <time>2019-09-11T12:39:38Z</time>
      </trkpt>
      <trkpt lat="44.26145" lon="6.04967">
        <ele>925.9909</ele>
        <time>2019-09-11T12:39:43Z</time>
      </trkpt>
      <trkpt lat="44.26153" lon="6.04961">
        <ele>922.9908438</ele>
        <time>2019-09-11T12:39:47Z</time>
      </trkpt>
      <trkpt lat="44.26164" lon="6.04956">
        <ele>920.9907725</ele>
        <time>2019-09-11T12:39:51Z</time>
      </trkpt>
      <trkpt lat="44.26173" lon="6.0495">
        <ele>918.9907095</ele>
        <time>2019-09-11T12:39:55Z</time>
      </trkpt>
      <trkpt lat="44.26182" lon="6.04944">
        <ele>916.9906532</ele>
        <time>2019-09-11T12:39:59Z</time>
      </trkpt>
      <trkpt lat="44.26193" lon="6.04939">
        <ele>915.990573</ele>
        <time>2019-09-11T12:40:04Z</time>
      </trkpt>
      <trkpt lat="44.26204" lon="6.04928">
        <ele>914.9905035</ele>
        <time>2019-09-11T12:40:09Z</time>
      </trkpt>
      <trkpt lat="44.26208" lon="6.04913">
        <ele>916.9905026</ele>
        <time>2019-09-11T12:40:14Z</time>
      </trkpt>
      <trkpt lat="44.2621" lon="6.04898">
        <ele>915.9905203</ele>
        <time>2019-09-11T12:40:19Z</time>
      </trkpt>
      <trkpt lat="44.26208" lon="6.04886">
        <ele>914.9905549</ele>
        <time>2019-09-11T12:40:24Z</time>
      </trkpt>
      <trkpt lat="44.26205" lon="6.04871">
        <ele>911.9906087</ele>
        <time>2019-09-11T12:40:29Z</time>
      </trkpt>
      <trkpt lat="44.26207" lon="6.04854">
        <ele>910.99063</ele>
        <time>2019-09-11T12:40:34Z</time>
      </trkpt>
      <trkpt lat="44.26215" lon="6.04848">
        <ele>908.9905792</ele>
        <time>2019-09-11T12:40:38Z</time>
      </trkpt>
      <trkpt lat="44.26226" lon="6.04846">
        <ele>908.9904957</ele>
        <time>2019-09-11T12:40:42Z</time>
      </trkpt>
      <trkpt lat="44.26237" lon="6.04847">
        <ele>904.9904073</ele>
        <time>2019-09-11T12:40:46Z</time>
      </trkpt>
      <trkpt lat="44.26247" lon="6.04844">
        <ele>902.9903327</ele>
        <time>2019-09-11T12:40:51Z</time>
      </trkpt>
      <trkpt lat="44.26256" lon="6.04844">
        <ele>901.9902635</ele>
        <time>2019-09-11T12:40:55Z</time>
      </trkpt>
      <trkpt lat="44.26265" lon="6.04843">
        <ele>898.990198</ele>
        <time>2019-09-11T12:40:59Z</time>
      </trkpt>
      <trkpt lat="44.26276" lon="6.04839">
        <ele>895.9901232</ele>
        <time>2019-09-11T12:41:03Z</time>
      </trkpt>
      <trkpt lat="44.26285" lon="6.04833">
        <ele>892.9900655</ele>
        <time>2019-09-11T12:41:07Z</time>
      </trkpt>
      <trkpt lat="44.26295" lon="6.04825">
        <ele>890.990002</ele>
        <time>2019-09-11T12:41:11Z</time>
      </trkpt>
      <trkpt lat="44.26305" lon="6.04818">
        <ele>888.989945</ele>
        <time>2019-09-11T12:41:16Z</time>
      </trkpt>
      <trkpt lat="44.26314" lon="6.04815">
        <ele>887.9898751</ele>
        <time>2019-09-11T12:41:20Z</time>
      </trkpt>
      <trkpt lat="44.26321" lon="6.0482">
        <ele>886.9898118</ele>
        <time>2019-09-11T12:41:24Z</time>
      </trkpt>
      <trkpt lat="44.26323" lon="6.04829">
        <ele>887.9897762</ele>
        <time>2019-09-11T12:41:28Z</time>
      </trkpt>
      <trkpt lat="44.26321" lon="6.04844">
        <ele>886.9897653</ele>
        <time>2019-09-11T12:41:33Z</time>
      </trkpt>
      <trkpt lat="44.26315" lon="6.0486">
        <ele>886.9897755</ele>
        <time>2019-09-11T12:41:38Z</time>
      </trkpt>
      <trkpt lat="44.26311" lon="6.04875">
        <ele>884.9897755</ele>
        <time>2019-09-11T12:41:42Z</time>
      </trkpt>
      <trkpt lat="44.26306" lon="6.04892">
        <ele>885.9897761</ele>
        <time>2019-09-11T12:41:47Z</time>
      </trkpt>
      <trkpt lat="44.26313" lon="6.049">
        <ele>884.9897084</ele>
        <time>2019-09-11T12:41:52Z</time>
      </trkpt>
      <trkpt lat="44.26322" lon="6.04901">
        <ele>888.9896378</ele>
        <time>2019-09-11T12:41:57Z</time>
      </trkpt>
      <trkpt lat="44.26331" lon="6.04894">
        <ele>889.9895755</ele>
        <time>2019-09-11T12:42:01Z</time>
      </trkpt>
      <trkpt lat="44.26341" lon="6.04883">
        <ele>889.989525</ele>
        <time>2019-09-11T12:42:05Z</time>
      </trkpt>
      <trkpt lat="44.26351" lon="6.04874">
        <ele>887.9894668</ele>
        <time>2019-09-11T12:42:09Z</time>
      </trkpt>
      <trkpt lat="44.26363" lon="6.04864">
        <ele>885.9893932</ele>
        <time>2019-09-11T12:42:14Z</time>
      </trkpt>
      <trkpt lat="44.26375" lon="6.04853">
        <ele>884.9893281</ele>
        <time>2019-09-11T12:42:19Z</time>
      </trkpt>
      <trkpt lat="44.26386" lon="6.04843">
        <ele>881.9892639</ele>
        <time>2019-09-11T12:42:24Z</time>
      </trkpt>
      <trkpt lat="44.26395" lon="6.04834">
        <ele>879.9892115</ele>
        <time>2019-09-11T12:42:28Z</time>
      </trkpt>
      <trkpt lat="44.26404" lon="6.04828">
        <ele>882.9891531</ele>
        <time>2019-09-11T12:42:32Z</time>
      </trkpt>
      <trkpt lat="44.26418" lon="6.04832">
        <ele>879.9890361</ele>
        <time>2019-09-11T12:42:36Z</time>
      </trkpt>
      <trkpt lat="44.2643" lon="6.04835">
        <ele>877.9889349</ele>
        <time>2019-09-11T12:42:40Z</time>
      </trkpt>
      <trkpt lat="44.26444" lon="6.04841">
        <ele>872.9888114</ele>
        <time>2019-09-11T12:42:45Z</time>
      </trkpt>
      <trkpt lat="44.26452" lon="6.04837">
        <ele>873.9887616</ele>
        <time>2019-09-11T12:42:50Z</time>
      </trkpt>
      <trkpt lat="44.26449" lon="6.04825">
        <ele>867.988816</ele>
        <time>2019-09-11T12:42:58Z</time>
      </trkpt>
      <trkpt lat="44.2644" lon="6.04821">
        <ele>868.9888901</ele>
        <time>2019-09-11T12:43:02Z</time>
      </trkpt>
      <trkpt lat="44.26429" lon="6.04813">
        <ele>868.9889989</ele>
        <time>2019-09-11T12:43:06Z</time>
      </trkpt>
      <trkpt lat="44.26412" lon="6.04806">
        <ele>865.9891459</ele>
        <time>2019-09-11T12:43:11Z</time>
      </trkpt>
      <trkpt lat="44.26399" lon="6.04807">
        <ele>863.9892364</ele>
        <time>2019-09-11T12:43:15Z</time>
      </trkpt>
      <trkpt lat="44.26391" lon="6.04802">
        <ele>863.9893156</ele>
        <time>2019-09-11T12:43:20Z</time>
      </trkpt>
      <trkpt lat="44.26386" lon="6.04789">
        <ele>863.9893809</ele>
        <time>2019-09-11T12:43:25Z</time>
      </trkpt>
      <trkpt lat="44.26392" lon="6.0478">
        <ele>861.9893544</ele>
        <time>2019-09-11T12:43:30Z</time>
      </trkpt>
      <trkpt lat="44.26401" lon="6.0478">
        <ele>858.9892848</ele>
        <time>2019-09-11T12:43:34Z</time>
      </trkpt>
      <trkpt lat="44.2641" lon="6.04782">
        <ele>859.9892113</ele>
        <time>2019-09-11T12:43:38Z</time>
      </trkpt>
      <trkpt lat="44.2642" lon="6.0478">
        <ele>858.9891385</ele>
        <time>2019-09-11T12:43:43Z</time>
      </trkpt>
      <trkpt lat="44.2643" lon="6.0478">
        <ele>858.9890663</ele>
        <time>2019-09-11T12:43:48Z</time>
      </trkpt>
      <trkpt lat="44.26438" lon="6.04775">
        <ele>858.9890116</ele>
        <time>2019-09-11T12:43:53Z</time>
      </trkpt>
      <trkpt lat="44.26442" lon="6.04765">
        <ele>857.989009</ele>
        <time>2019-09-11T12:44:00Z</time>
      </trkpt>
      <trkpt lat="44.26443" lon="6.04754">
        <ele>858.9890211</ele>
        <time>2019-09-11T12:44:06Z</time>
      </trkpt>
      <trkpt lat="44.26448" lon="6.04743">
        <ele>857.9890148</ele>
        <time>2019-09-11T12:44:10Z</time>
      </trkpt>
      <trkpt lat="44.26457" lon="6.04735">
        <ele>855.9889606</ele>
        <time>2019-09-11T12:44:14Z</time>
      </trkpt>
      <trkpt lat="44.26466" lon="6.04732">
        <ele>852.9888993</ele>
        <time>2019-09-11T12:44:18Z</time>
      </trkpt>
      <trkpt lat="44.26473" lon="6.04725">
        <ele>846.9888657</ele>
        <time>2019-09-11T12:46:05Z</time>
      </trkpt>
      <trkpt lat="44.26483" lon="6.04722">
        <ele>844.9887995</ele>
        <time>2019-09-11T12:46:09Z</time>
      </trkpt>
      <trkpt lat="44.26493" lon="6.04717">
        <ele>843.9887318</ele>
        <time>2019-09-11T12:46:13Z</time>
      </trkpt>
      <trkpt lat="44.26507" lon="6.04712">
        <ele>837.9886398</ele>
        <time>2019-09-11T12:46:18Z</time>
      </trkpt>
      <trkpt lat="44.26515" lon="6.0471">
        <ele>836.988581</ele>
        <time>2019-09-11T12:46:21Z</time>
      </trkpt>
      <trkpt lat="44.26525" lon="6.04706">
        <ele>836.9885164</ele>
        <time>2019-09-11T12:46:25Z</time>
      </trkpt>
      <trkpt lat="44.26532" lon="6.04702">
        <ele>836.9884754</ele>
        <time>2019-09-11T12:46:28Z</time>
      </trkpt>
      <trkpt lat="44.26543" lon="6.04697">
        <ele>834.9884064</ele>
        <time>2019-09-11T12:46:32Z</time>
      </trkpt>
      <trkpt lat="44.26554" lon="6.0469">
        <ele>832.9883386</ele>
        <time>2019-09-11T12:46:36Z</time>
      </trkpt>
      <trkpt lat="44.26563" lon="6.04682">
        <ele>831.988289</ele>
        <time>2019-09-11T12:46:40Z</time>
      </trkpt>
      <trkpt lat="44.26573" lon="6.04673">
        <ele>829.9882378</ele>
        <time>2019-09-11T12:46:45Z</time>
      </trkpt>
      <trkpt lat="44.2658" lon="6.04662">
        <ele>829.9882117</ele>
        <time>2019-09-11T12:46:50Z</time>
      </trkpt>
      <trkpt lat="44.2659" lon="6.0465">
        <ele>828.9881678</ele>
        <time>2019-09-11T12:46:55Z</time>
      </trkpt>
      <trkpt lat="44.26606" lon="6.04636">
        <ele>830.9880865</ele>
        <time>2019-09-11T12:47:00Z</time>
      </trkpt>
      <trkpt lat="44.26621" lon="6.04625">
        <ele>828.9880082</ele>
        <time>2019-09-11T12:47:05Z</time>
      </trkpt>
      <trkpt lat="44.26636" lon="6.0461">
        <ele>824.9879333</ele>
        <time>2019-09-11T12:47:10Z</time>
      </trkpt>
      <trkpt lat="44.26647" lon="6.04596">
        <ele>822.9878856</ele>
        <time>2019-09-11T12:47:15Z</time>
      </trkpt>
      <trkpt lat="44.26662" lon="6.04585">
        <ele>819.9878106</ele>
        <time>2019-09-11T12:47:19Z</time>
      </trkpt>
      <trkpt lat="44.26672" lon="6.04572">
        <ele>817.9877669</ele>
        <time>2019-09-11T12:47:23Z</time>
      </trkpt>
      <trkpt lat="44.26682" lon="6.04557">
        <ele>818.9877329</ele>
        <time>2019-09-11T12:47:28Z</time>
      </trkpt>
      <trkpt lat="44.26692" lon="6.04543">
        <ele>817.9877049</ele>
        <time>2019-09-11T12:47:32Z</time>
      </trkpt>
      <trkpt lat="44.26701" lon="6.0453">
        <ele>818.9876708</ele>
        <time>2019-09-11T12:47:36Z</time>
      </trkpt>
      <trkpt lat="44.2671" lon="6.04519">
        <ele>816.9876342</ele>
        <time>2019-09-11T12:47:40Z</time>
      </trkpt>
      <trkpt lat="44.2672" lon="6.04509">
        <ele>813.9875948</ele>
        <time>2019-09-11T12:47:44Z</time>
      </trkpt>
      <trkpt lat="44.2673" lon="6.04502">
        <ele>810.9875394</ele>
        <time>2019-09-11T12:47:48Z</time>
      </trkpt>
      <trkpt lat="44.26741" lon="6.04498">
        <ele>808.9874727</ele>
        <time>2019-09-11T12:47:52Z</time>
      </trkpt>
      <trkpt lat="44.26753" lon="6.04489">
        <ele>803.9874081</ele>
        <time>2019-09-11T12:47:57Z</time>
      </trkpt>
      <trkpt lat="44.26763" lon="6.04481">
        <ele>799.9873596</ele>
        <time>2019-09-11T12:48:02Z</time>
      </trkpt>
      <trkpt lat="44.26772" lon="6.04473">
        <ele>798.9873169</ele>
        <time>2019-09-11T12:48:07Z</time>
      </trkpt>
      <trkpt lat="44.2678" lon="6.04462">
        <ele>799.9872906</ele>
        <time>2019-09-11T12:48:12Z</time>
      </trkpt>
      <trkpt lat="44.26787" lon="6.04448">
        <ele>799.9872852</ele>
        <time>2019-09-11T12:48:16Z</time>
      </trkpt>
      <trkpt lat="44.26794" lon="6.04431">
        <ele>801.9872804</ele>
        <time>2019-09-11T12:48:21Z</time>
      </trkpt>
      <trkpt lat="44.26801" lon="6.04418">
        <ele>802.9872656</ele>
        <time>2019-09-11T12:48:25Z</time>
      </trkpt>
      <trkpt lat="44.26808" lon="6.04401">
        <ele>801.9872666</ele>
        <time>2019-09-11T12:48:30Z</time>
      </trkpt>
      <trkpt lat="44.26814" lon="6.04386">
        <ele>802.9872668</ele>
        <time>2019-09-11T12:48:34Z</time>
      </trkpt>
      <trkpt lat="44.26821" lon="6.04369">
        <ele>802.9872678</ele>
        <time>2019-09-11T12:48:39Z</time>
      </trkpt>
      <trkpt lat="44.2683" lon="6.04354">
        <ele>802.9872512</ele>
        <time>2019-09-11T12:48:44Z</time>
      </trkpt>
      <trkpt lat="44.26838" lon="6.04344">
        <ele>799.9872243</ele>
        <time>2019-09-11T12:48:48Z</time>
      </trkpt>
      <trkpt lat="44.26847" lon="6.04333">
        <ele>797.9871992</ele>
        <time>2019-09-11T12:48:52Z</time>
      </trkpt>
      <trkpt lat="44.26851" lon="6.04317">
        <ele>794.9872155</ele>
        <time>2019-09-11T12:48:57Z</time>
      </trkpt>
      <trkpt lat="44.26849" lon="6.04303">
        <ele>788.9872732</ele>
        <time>2019-09-11T12:49:02Z</time>
      </trkpt>
      <trkpt lat="44.26846" lon="6.04288">
        <ele>784.9873355</ele>
        <time>2019-09-11T12:49:07Z</time>
      </trkpt>
      <trkpt lat="44.26842" lon="6.04272">
        <ele>782.9874074</ele>
        <time>2019-09-11T12:49:11Z</time>
      </trkpt>
      <trkpt lat="44.26841" lon="6.04252">
        <ele>780.9874735</ele>
        <time>2019-09-11T12:49:15Z</time>
      </trkpt>
      <trkpt lat="44.26838" lon="6.04238">
        <ele>778.9875352</ele>
        <time>2019-09-11T12:49:19Z</time>
      </trkpt>
      <trkpt lat="44.26836" lon="6.04218">
        <ele>773.9876123</ele>
        <time>2019-09-11T12:49:24Z</time>
      </trkpt>
      <trkpt lat="44.26835" lon="6.04204">
        <ele>772.9876615</ele>
        <time>2019-09-11T12:49:28Z</time>
      </trkpt>
      <trkpt lat="44.26837" lon="6.04187">
        <ele>771.9876929</ele>
        <time>2019-09-11T12:49:33Z</time>
      </trkpt>
      <trkpt lat="44.26841" lon="6.04173">
        <ele>773.9877078</ele>
        <time>2019-09-11T12:49:37Z</time>
      </trkpt>
      <trkpt lat="44.26844" lon="6.04149">
        <ele>771.9877586</ele>
        <time>2019-09-11T12:49:42Z</time>
      </trkpt>
      <trkpt lat="44.26844" lon="6.04133">
        <ele>772.9878043</ele>
        <time>2019-09-11T12:49:46Z</time>
      </trkpt>
      <trkpt lat="44.26844" lon="6.04121">
        <ele>771.9878447</ele>
        <time>2019-09-11T12:49:50Z</time>
      </trkpt>
      <trkpt lat="44.26843" lon="6.04111">
        <ele>769.9878784</ele>
        <time>2019-09-11T12:50:01Z</time>
      </trkpt>
      <trkpt lat="44.26848" lon="6.04094">
        <ele>768.9878996</ele>
        <time>2019-09-11T12:50:06Z</time>
      </trkpt>
      <trkpt lat="44.26851" lon="6.04068">
        <ele>770.9879495</ele>
        <time>2019-09-11T12:50:11Z</time>
      </trkpt>
      <trkpt lat="44.26852" lon="6.04049">
        <ele>766.9879988</ele>
        <time>2019-09-11T12:50:16Z</time>
      </trkpt>
      <trkpt lat="44.26846" lon="6.0403">
        <ele>763.9880956</ele>
        <time>2019-09-11T12:50:21Z</time>
      </trkpt>
      <trkpt lat="44.26837" lon="6.04012">
        <ele>757.9882077</ele>
        <time>2019-09-11T12:50:26Z</time>
      </trkpt>
      <trkpt lat="44.26829" lon="6.03998">
        <ele>754.9882998</ele>
        <time>2019-09-11T12:50:30Z</time>
      </trkpt>
      <trkpt lat="44.26821" lon="6.03983">
        <ele>752.988396</ele>
        <time>2019-09-11T12:50:34Z</time>
      </trkpt>
      <trkpt lat="44.26812" lon="6.03966">
        <ele>753.9885021</ele>
        <time>2019-09-11T12:50:38Z</time>
      </trkpt>
      <trkpt lat="44.26801" lon="6.0394">
        <ele>752.9886493</ele>
        <time>2019-09-11T12:50:43Z</time>
      </trkpt>
      <trkpt lat="44.26794" lon="6.03914">
        <ele>752.9887677</ele>
        <time>2019-09-11T12:50:47Z</time>
      </trkpt>
      <trkpt lat="44.26789" lon="6.03892">
        <ele>753.9888633</ele>
        <time>2019-09-11T12:50:52Z</time>
      </trkpt>
      <trkpt lat="44.26785" lon="6.03871">
        <ele>751.9889452</ele>
        <time>2019-09-11T12:50:56Z</time>
      </trkpt>
      <trkpt lat="44.26784" lon="6.03851">
        <ele>750.9890057</ele>
        <time>2019-09-11T12:51:00Z</time>
      </trkpt>
      <trkpt lat="44.26781" lon="6.03833">
        <ele>748.9890786</ele>
        <time>2019-09-11T12:51:04Z</time>
      </trkpt>
      <trkpt lat="44.26777" lon="6.03815">
        <ele>746.989154</ele>
        <time>2019-09-11T12:51:08Z</time>
      </trkpt>
      <trkpt lat="44.26774" lon="6.03791">
        <ele>744.989241</ele>
        <time>2019-09-11T12:51:13Z</time>
      </trkpt>
      <trkpt lat="44.26776" lon="6.03769">
        <ele>744.9892907</ele>
        <time>2019-09-11T12:51:18Z</time>
      </trkpt>
      <trkpt lat="44.26781" lon="6.03753">
        <ele>748.9893043</ele>
        <time>2019-09-11T12:51:22Z</time>
      </trkpt>
      <trkpt lat="44.26794" lon="6.03723">
        <ele>751.9893109</ele>
        <time>2019-09-11T12:51:27Z</time>
      </trkpt>
      <trkpt lat="44.26803" lon="6.03701">
        <ele>751.9893218</ele>
        <time>2019-09-11T12:51:31Z</time>
      </trkpt>
      <trkpt lat="44.26814" lon="6.03683">
        <ele>750.989315</ele>
        <time>2019-09-11T12:51:35Z</time>
      </trkpt>
      <trkpt lat="44.26824" lon="6.03667">
        <ele>749.9892987</ele>
        <time>2019-09-11T12:51:40Z</time>
      </trkpt>
      <trkpt lat="44.2683" lon="6.03659">
        <ele>746.9892881</ele>
        <time>2019-09-11T12:52:00Z</time>
      </trkpt>
      <trkpt lat="44.26835" lon="6.03648">
        <ele>745.9892896</ele>
        <time>2019-09-11T12:52:04Z</time>
      </trkpt>
      <trkpt lat="44.26839" lon="6.03635">
        <ele>745.9893069</ele>
        <time>2019-09-11T12:52:08Z</time>
      </trkpt>
      <trkpt lat="44.26843" lon="6.03611">
        <ele>745.9893501</ele>
        <time>2019-09-11T12:52:12Z</time>
      </trkpt>
      <trkpt lat="44.26846" lon="6.03589">
        <ele>743.9893991</ele>
        <time>2019-09-11T12:52:16Z</time>
      </trkpt>
      <trkpt lat="44.26846" lon="6.03569">
        <ele>744.9894578</ele>
        <time>2019-09-11T12:52:21Z</time>
      </trkpt>
      <trkpt lat="44.26845" lon="6.03553">
        <ele>742.9895124</ele>
        <time>2019-09-11T12:52:25Z</time>
      </trkpt>
      <trkpt lat="44.26843" lon="6.0353">
        <ele>740.9895895</ele>
        <time>2019-09-11T12:52:30Z</time>
      </trkpt>
      <trkpt lat="44.26841" lon="6.03506">
        <ele>738.9896728</ele>
        <time>2019-09-11T12:52:35Z</time>
      </trkpt>
      <trkpt lat="44.26843" lon="6.03479">
        <ele>736.9897387</ele>
        <time>2019-09-11T12:52:39Z</time>
      </trkpt>
      <trkpt lat="44.26845" lon="6.03457">
        <ele>735.9897982</ele>
        <time>2019-09-11T12:52:43Z</time>
      </trkpt>
      <trkpt lat="44.26849" lon="6.03433">
        <ele>734.9898461</ele>
        <time>2019-09-11T12:52:48Z</time>
      </trkpt>
      <trkpt lat="44.26853" lon="6.03411">
        <ele>734.989887</ele>
        <time>2019-09-11T12:52:53Z</time>
      </trkpt>
      <trkpt lat="44.26855" lon="6.03392">
        <ele>734.9899363</ele>
        <time>2019-09-11T12:52:57Z</time>
      </trkpt>
      <trkpt lat="44.26855" lon="6.03378">
        <ele>733.9899759</ele>
        <time>2019-09-11T12:53:00Z</time>
      </trkpt>
      <trkpt lat="44.26852" lon="6.03354">
        <ele>736.9900629</ele>
        <time>2019-09-11T12:53:05Z</time>
      </trkpt>
      <trkpt lat="44.26842" lon="6.03337">
        <ele>735.9901653</ele>
        <time>2019-09-11T12:53:09Z</time>
      </trkpt>
      <trkpt lat="44.2683" lon="6.03321">
        <ele>732.9902752</ele>
        <time>2019-09-11T12:53:14Z</time>
      </trkpt>
      <trkpt lat="44.26819" lon="6.03312">
        <ele>731.9903621</ele>
        <time>2019-09-11T12:53:18Z</time>
      </trkpt>
      <trkpt lat="44.26806" lon="6.03303">
        <ele>729.9904573</ele>
        <time>2019-09-11T12:53:23Z</time>
      </trkpt>
      <trkpt lat="44.26791" lon="6.03295">
        <ele>728.990557</ele>
        <time>2019-09-11T12:53:28Z</time>
      </trkpt>
      <trkpt lat="44.26776" lon="6.03289">
        <ele>728.9906548</ele>
        <time>2019-09-11T12:53:33Z</time>
      </trkpt>
      <trkpt lat="44.26765" lon="6.03282">
        <ele>727.9907332</ele>
        <time>2019-09-11T12:53:37Z</time>
      </trkpt>
      <trkpt lat="44.26753" lon="6.03264">
        <ele>726.9908444</ele>
        <time>2019-09-11T12:53:42Z</time>
      </trkpt>
      <trkpt lat="44.26746" lon="6.03248">
        <ele>727.990924</ele>
        <time>2019-09-11T12:53:46Z</time>
      </trkpt>
      <trkpt lat="44.26737" lon="6.03228">
        <ele>725.9910303</ele>
        <time>2019-09-11T12:53:51Z</time>
      </trkpt>
      <trkpt lat="44.26729" lon="6.03212">
        <ele>725.9911137</ele>
        <time>2019-09-11T12:53:55Z</time>
      </trkpt>
      <trkpt lat="44.26723" lon="6.03195">
        <ele>727.9911918</ele>
        <time>2019-09-11T12:53:59Z</time>
      </trkpt>
      <trkpt lat="44.26719" lon="6.03172">
        <ele>729.9912756</ele>
        <time>2019-09-11T12:54:04Z</time>
      </trkpt>
      <trkpt lat="44.26714" lon="6.03153">
        <ele>730.991353</ele>
        <time>2019-09-11T12:54:08Z</time>
      </trkpt>
      <trkpt lat="44.26705" lon="6.0314">
        <ele>729.9914337</ele>
        <time>2019-09-11T12:54:12Z</time>
      </trkpt>
      <trkpt lat="44.26696" lon="6.03127">
        <ele>729.9915154</ele>
        <time>2019-09-11T12:54:16Z</time>
      </trkpt>
      <trkpt lat="44.26687" lon="6.03109">
        <ele>728.9916077</ele>
        <time>2019-09-11T12:54:21Z</time>
      </trkpt>
      <trkpt lat="44.26682" lon="6.03094">
        <ele>729.9916743</ele>
        <time>2019-09-11T12:54:25Z</time>
      </trkpt>
      <trkpt lat="44.26682" lon="6.03075">
        <ele>732.9917251</ele>
        <time>2019-09-11T12:54:29Z</time>
      </trkpt>
      <trkpt lat="44.26687" lon="6.03061">
        <ele>733.9917388</ele>
        <time>2019-09-11T12:54:33Z</time>
      </trkpt>
      <trkpt lat="44.2669" lon="6.03042">
        <ele>734.9917729</ele>
        <time>2019-09-11T12:54:38Z</time>
      </trkpt>
      <trkpt lat="44.26695" lon="6.03023">
        <ele>737.9918033</ele>
        <time>2019-09-11T12:54:43Z</time>
      </trkpt>
      <trkpt lat="44.26695" lon="6.03006">
        <ele>739.9918483</ele>
        <time>2019-09-11T12:54:47Z</time>
      </trkpt>
      <trkpt lat="44.26694" lon="6.02993">
        <ele>739.9918901</ele>
        <time>2019-09-11T12:54:51Z</time>
      </trkpt>
      <trkpt lat="44.26691" lon="6.02981">
        <ele>740.9919354</ele>
        <time>2019-09-11T12:54:55Z</time>
      </trkpt>
      <trkpt lat="44.26688" lon="6.02972">
        <ele>741.9919763</ele>
        <time>2019-09-11T12:55:05Z</time>
      </trkpt>
      <trkpt lat="44.26679" lon="6.02963">
        <ele>740.992038</ele>
        <time>2019-09-11T12:55:09Z</time>
      </trkpt>
      <trkpt lat="44.26671" lon="6.02958">
        <ele>740.9920953</ele>
        <time>2019-09-11T12:55:14Z</time>
      </trkpt>
      <trkpt lat="44.26665" lon="6.0295">
        <ele>737.9921445</ele>
        <time>2019-09-11T12:55:38Z</time>
      </trkpt>
      <trkpt lat="44.26655" lon="6.02939">
        <ele>738.9922169</ele>
        <time>2019-09-11T12:55:43Z</time>
      </trkpt>
      <trkpt lat="44.26646" lon="6.02926">
        <ele>738.9922943</ele>
        <time>2019-09-11T12:55:47Z</time>
      </trkpt>
      <trkpt lat="44.26639" lon="6.02911">
        <ele>739.9923682</ele>
        <time>2019-09-11T12:55:51Z</time>
      </trkpt>
      <trkpt lat="44.26629" lon="6.02893">
        <ele>739.9924592</ele>
        <time>2019-09-11T12:55:55Z</time>
      </trkpt>
      <trkpt lat="44.26621" lon="6.02878">
        <ele>740.9925357</ele>
        <time>2019-09-11T12:55:59Z</time>
      </trkpt>
      <trkpt lat="44.26612" lon="6.0287">
        <ele>737.9926004</ele>
        <time>2019-09-11T12:56:03Z</time>
      </trkpt>
      <trkpt lat="44.26607" lon="6.02863">
        <ele>737.9926409</ele>
        <time>2019-09-11T12:56:06Z</time>
      </trkpt>
      <trkpt lat="44.26598" lon="6.02852">
        <ele>739.9927063</ele>
        <time>2019-09-11T12:56:10Z</time>
      </trkpt>
      <trkpt lat="44.2659" lon="6.02836">
        <ele>738.9927832</ele>
        <time>2019-09-11T12:56:14Z</time>
      </trkpt>
      <trkpt lat="44.26588" lon="6.02807">
        <ele>734.9928702</ele>
        <time>2019-09-11T12:56:18Z</time>
      </trkpt>
      <trkpt lat="44.26589" lon="6.02784">
        <ele>733.9929214</ele>
        <time>2019-09-11T12:56:23Z</time>
      </trkpt>
      <trkpt lat="44.26583" lon="6.02757">
        <ele>732.9930187</ele>
        <time>2019-09-11T12:56:28Z</time>
      </trkpt>
      <trkpt lat="44.26572" lon="6.02748">
        <ele>732.993088</ele>
        <time>2019-09-11T12:56:32Z</time>
      </trkpt>
      <trkpt lat="44.2656" lon="6.0274">
        <ele>730.9931613</ele>
        <time>2019-09-11T12:56:36Z</time>
      </trkpt>
      <trkpt lat="44.26562" lon="6.02727">
        <ele>730.9931872</ele>
        <time>2019-09-11T12:56:40Z</time>
      </trkpt>
      <trkpt lat="44.26574" lon="6.02712">
        <ele>733.9931698</ele>
        <time>2019-09-11T12:56:44Z</time>
      </trkpt>
      <trkpt lat="44.26591" lon="6.02698">
        <ele>736.9931331</ele>
        <time>2019-09-11T12:56:49Z</time>
      </trkpt>
      <trkpt lat="44.26611" lon="6.02683">
        <ele>736.9930856</ele>
        <time>2019-09-11T12:56:54Z</time>
      </trkpt>
      <trkpt lat="44.26639" lon="6.0268">
        <ele>732.9929734</ele>
        <time>2019-09-11T12:56:59Z</time>
      </trkpt>
      <trkpt lat="44.26661" lon="6.02682">
        <ele>729.99287</ele>
        <time>2019-09-11T12:57:03Z</time>
      </trkpt>
      <trkpt lat="44.26683" lon="6.02687">
        <ele>726.9927658</ele>
        <time>2019-09-11T12:57:08Z</time>
      </trkpt>
      <trkpt lat="44.26702" lon="6.02679">
        <ele>723.9927023</ele>
        <time>2019-09-11T12:57:12Z</time>
      </trkpt>
      <trkpt lat="44.26722" lon="6.02676">
        <ele>719.9926293</ele>
        <time>2019-09-11T12:57:17Z</time>
      </trkpt>
      <trkpt lat="44.26729" lon="6.02676">
        <ele>715.9925974</ele>
        <time>2019-09-11T13:00:07Z</time>
      </trkpt>
      <trkpt lat="44.26738" lon="6.02673">
        <ele>714.992567</ele>
        <time>2019-09-11T13:00:11Z</time>
      </trkpt>
      <trkpt lat="44.26751" lon="6.02666">
        <ele>713.9925321</ele>
        <time>2019-09-11T13:00:16Z</time>
      </trkpt>
      <trkpt lat="44.26765" lon="6.02656">
        <ele>711.9925001</ele>
        <time>2019-09-11T13:00:21Z</time>
      </trkpt>
      <trkpt lat="44.2678" lon="6.02647">
        <ele>708.9924624</ele>
        <time>2019-09-11T13:00:25Z</time>
      </trkpt>
      <trkpt lat="44.26805" lon="6.02634">
        <ele>706.9923963</ele>
        <time>2019-09-11T13:00:30Z</time>
      </trkpt>
      <trkpt lat="44.26822" lon="6.02625">
        <ele>704.9923462</ele>
        <time>2019-09-11T13:00:34Z</time>
      </trkpt>
      <trkpt lat="44.26848" lon="6.02616">
        <ele>703.9922628</ele>
        <time>2019-09-11T13:00:39Z</time>
      </trkpt>
      <trkpt lat="44.26866" lon="6.02605">
        <ele>699.992223</ele>
        <time>2019-09-11T13:00:43Z</time>
      </trkpt>
      <trkpt lat="44.26882" lon="6.02595">
        <ele>698.9921843</ele>
        <time>2019-09-11T13:00:47Z</time>
      </trkpt>
      <trkpt lat="44.26902" lon="6.02582">
        <ele>698.9921423</ele>
        <time>2019-09-11T13:00:51Z</time>
      </trkpt>
      <trkpt lat="44.26931" lon="6.02575">
        <ele>693.9920437</ele>
        <time>2019-09-11T13:00:56Z</time>
      </trkpt>
      <trkpt lat="44.26952" lon="6.02564">
        <ele>690.9919924</ele>
        <time>2019-09-11T13:01:00Z</time>
      </trkpt>
      <trkpt lat="44.26976" lon="6.02548">
        <ele>688.9919447</ele>
        <time>2019-09-11T13:01:05Z</time>
      </trkpt>
      <trkpt lat="44.26986" lon="6.02538">
        <ele>688.9919355</ele>
        <time>2019-09-11T13:01:09Z</time>
      </trkpt>
      <trkpt lat="44.26983" lon="6.02525">
        <ele>685.9919906</ele>
        <time>2019-09-11T13:01:13Z</time>
      </trkpt>
      <trkpt lat="44.26968" lon="6.02522">
        <ele>685.9920563</ele>
        <time>2019-09-11T13:01:17Z</time>
      </trkpt>
      <trkpt lat="44.26961" lon="6.02496">
        <ele>682.9921671</ele>
        <time>2019-09-11T13:01:22Z</time>
      </trkpt>
      <trkpt lat="44.26967" lon="6.02477">
        <ele>682.9922019</ele>
        <time>2019-09-11T13:01:25Z</time>
      </trkpt>
      <trkpt lat="44.26976" lon="6.0245">
        <ele>677.9922558</ele>
        <time>2019-09-11T13:01:30Z</time>
      </trkpt>
      <trkpt lat="44.26987" lon="6.02449">
        <ele>674.9922126</ele>
        <time>2019-09-11T13:01:34Z</time>
      </trkpt>
      <trkpt lat="44.2699" lon="6.02466">
        <ele>673.9921515</ele>
        <time>2019-09-11T13:01:38Z</time>
      </trkpt>
      <trkpt lat="44.26995" lon="6.02488">
        <ele>672.9920585</ele>
        <time>2019-09-11T13:01:43Z</time>
      </trkpt>
      <trkpt lat="44.27012" lon="6.02508">
        <ele>669.9919262</ele>
        <time>2019-09-11T13:01:48Z</time>
      </trkpt>
      <trkpt lat="44.27018" lon="6.0251">
        <ele>668.9918957</ele>
        <time>2019-09-11T13:01:51Z</time>
      </trkpt>
      <trkpt lat="44.27024" lon="6.02492">
        <ele>666.9919287</ele>
        <time>2019-09-11T13:01:55Z</time>
      </trkpt>
      <trkpt lat="44.27027" lon="6.02472">
        <ele>664.9919805</ele>
        <time>2019-09-11T13:01:58Z</time>
      </trkpt>
      <trkpt lat="44.27035" lon="6.02449">
        <ele>660.9920287</ele>
        <time>2019-09-11T13:02:02Z</time>
      </trkpt>
      <trkpt lat="44.27043" lon="6.02417">
        <ele>656.9921012</ele>
        <time>2019-09-11T13:02:07Z</time>
      </trkpt>
      <trkpt lat="44.27047" lon="6.02392">
        <ele>653.9921667</ele>
        <time>2019-09-11T13:02:11Z</time>
      </trkpt>
      <trkpt lat="44.27056" lon="6.02368">
        <ele>652.9922097</ele>
        <time>2019-09-11T13:02:16Z</time>
      </trkpt>
      <trkpt lat="44.27055" lon="6.02342">
        <ele>649.9922989</ele>
        <time>2019-09-11T13:02:20Z</time>
      </trkpt>
      <trkpt lat="44.27061" lon="6.02332">
        <ele>648.9923101</ele>
        <time>2019-09-11T13:02:24Z</time>
      </trkpt>
      <trkpt lat="44.27068" lon="6.0235">
        <ele>647.9922235</ele>
        <time>2019-09-11T13:02:29Z</time>
      </trkpt>
      <trkpt lat="44.27072" lon="6.02383">
        <ele>647.9920998</ele>
        <time>2019-09-11T13:02:34Z</time>
      </trkpt>
      <trkpt lat="44.27075" lon="6.0241">
        <ele>643.9920005</ele>
        <time>2019-09-11T13:02:39Z</time>
      </trkpt>
      <trkpt lat="44.2707" lon="6.02439">
        <ele>642.9919201</ele>
        <time>2019-09-11T13:02:44Z</time>
      </trkpt>
      <trkpt lat="44.27076" lon="6.02448">
        <ele>638.9918688</ele>
        <time>2019-09-11T13:02:50Z</time>
      </trkpt>
      <trkpt lat="44.27084" lon="6.02437">
        <ele>637.9918755</ele>
        <time>2019-09-11T13:02:54Z</time>
      </trkpt>
      <trkpt lat="44.27098" lon="6.02418">
        <ele>636.9918813</ele>
        <time>2019-09-11T13:02:58Z</time>
      </trkpt>
      <trkpt lat="44.27115" lon="6.02404">
        <ele>633.9918653</ele>
        <time>2019-09-11T13:03:02Z</time>
      </trkpt>
      <trkpt lat="44.27139" lon="6.02399">
        <ele>630.991788</ele>
        <time>2019-09-11T13:03:07Z</time>
      </trkpt>
      <trkpt lat="44.27146" lon="6.02391">
        <ele>631.9917923</ele>
        <time>2019-09-11T13:03:10Z</time>
      </trkpt>
      <trkpt lat="44.27149" lon="6.02376">
        <ele>632.9918313</ele>
        <time>2019-09-11T13:03:14Z</time>
      </trkpt>
      <trkpt lat="44.27155" lon="6.0236">
        <ele>633.9918613</ele>
        <time>2019-09-11T13:03:18Z</time>
      </trkpt>
      <trkpt lat="44.27161" lon="6.02343">
        <ele>633.9919001</ele>
        <time>2019-09-11T13:03:22Z</time>
      </trkpt>
      <trkpt lat="44.27168" lon="6.02327">
        <ele>634.9919279</ele>
        <time>2019-09-11T13:03:26Z</time>
      </trkpt>
      <trkpt lat="44.27183" lon="6.02316">
        <ele>634.9919144</ele>
        <time>2019-09-11T13:03:30Z</time>
      </trkpt>
      <trkpt lat="44.27198" lon="6.02313">
        <ele>634.9918665</ele>
        <time>2019-09-11T13:03:35Z</time>
      </trkpt>
      <trkpt lat="44.27217" lon="6.02313">
        <ele>635.9917939</ele>
        <time>2019-09-11T13:03:40Z</time>
      </trkpt>
      <trkpt lat="44.27231" lon="6.02309">
        <ele>637.9917566</ele>
        <time>2019-09-11T13:03:44Z</time>
      </trkpt>
      <trkpt lat="44.27241" lon="6.02292">
        <ele>639.991783</ele>
        <time>2019-09-11T13:03:48Z</time>
      </trkpt>
      <trkpt lat="44.27251" lon="6.02267">
        <ele>634.9918361</ele>
        <time>2019-09-11T13:03:52Z</time>
      </trkpt>
      <trkpt lat="44.27269" lon="6.02242">
        <ele>633.9918624</ele>
        <time>2019-09-11T13:03:57Z</time>
      </trkpt>
      <trkpt lat="44.2729" lon="6.02225">
        <ele>632.9918491</ele>
        <time>2019-09-11T13:04:01Z</time>
      </trkpt>
      <trkpt lat="44.27303" lon="6.02205">
        <ele>633.9918722</ele>
        <time>2019-09-11T13:04:05Z</time>
      </trkpt>
      <trkpt lat="44.2732" lon="6.02188">
        <ele>633.9918783</ele>
        <time>2019-09-11T13:04:10Z</time>
      </trkpt>
      <trkpt lat="44.27336" lon="6.02183">
        <ele>632.9918437</ele>
        <time>2019-09-11T13:04:14Z</time>
      </trkpt>
      <trkpt lat="44.2735" lon="6.02179">
        <ele>634.9918056</ele>
        <time>2019-09-11T13:04:19Z</time>
      </trkpt>
      <trkpt lat="44.27365" lon="6.02168">
        <ele>632.9917946</ele>
        <time>2019-09-11T13:04:23Z</time>
      </trkpt>
      <trkpt lat="44.27383" lon="6.0216">
        <ele>631.991766</ele>
        <time>2019-09-11T13:04:27Z</time>
      </trkpt>
      <trkpt lat="44.27397" lon="6.0215">
        <ele>631.9917551</ele>
        <time>2019-09-11T13:04:31Z</time>
      </trkpt>
      <trkpt lat="44.27402" lon="6.02132">
        <ele>632.9918049</ele>
        <time>2019-09-11T13:04:36Z</time>
      </trkpt>
      <trkpt lat="44.27405" lon="6.0211">
        <ele>632.9918813</ele>
        <time>2019-09-11T13:04:40Z</time>
      </trkpt>
      <trkpt lat="44.27404" lon="6.02092">
        <ele>632.9919552</ele>
        <time>2019-09-11T13:04:44Z</time>
      </trkpt>
      <trkpt lat="44.27404" lon="6.02075">
        <ele>632.9920212</ele>
        <time>2019-09-11T13:04:48Z</time>
      </trkpt>
      <trkpt lat="44.27407" lon="6.02057">
        <ele>634.9920782</ele>
        <time>2019-09-11T13:04:53Z</time>
      </trkpt>
      <trkpt lat="44.27413" lon="6.02046">
        <ele>637.9921026</ele>
        <time>2019-09-11T13:04:57Z</time>
      </trkpt>
      <trkpt lat="44.27427" lon="6.02028">
        <ele>639.9921277</ele>
        <time>2019-09-11T13:05:02Z</time>
      </trkpt>
      <trkpt lat="44.27442" lon="6.02009">
        <ele>640.9921523</ele>
        <time>2019-09-11T13:05:07Z</time>
      </trkpt>
      <trkpt lat="44.27456" lon="6.01994">
        <ele>641.9921647</ele>
        <time>2019-09-11T13:05:12Z</time>
      </trkpt>
      <trkpt lat="44.27467" lon="6.01981">
        <ele>642.9921824</ele>
        <time>2019-09-11T13:05:16Z</time>
      </trkpt>
      <trkpt lat="44.27479" lon="6.01969">
        <ele>642.9921901</ele>
        <time>2019-09-11T13:05:21Z</time>
      </trkpt>
      <trkpt lat="44.27482" lon="6.01963">
        <ele>642.9922036</ele>
        <time>2019-09-11T13:05:24Z</time>
      </trkpt>
      <trkpt lat="44.27486" lon="6.01944">
        <ele>644.9922702</ele>
        <time>2019-09-11T13:05:29Z</time>
      </trkpt>
      <trkpt lat="44.27487" lon="6.0191">
        <ele>640.9924001</ele>
        <time>2019-09-11T13:05:34Z</time>
      </trkpt>
      <trkpt lat="44.2748" lon="6.01888">
        <ele>638.992506</ele>
        <time>2019-09-11T13:05:38Z</time>
      </trkpt>
      <trkpt lat="44.2747" lon="6.01863">
        <ele>637.992636</ele>
        <time>2019-09-11T13:05:43Z</time>
      </trkpt>
      <trkpt lat="44.27462" lon="6.01845">
        <ele>637.9927304</ele>
        <time>2019-09-11T13:05:47Z</time>
      </trkpt>
      <trkpt lat="44.27455" lon="6.01826">
        <ele>637.9928272</ele>
        <time>2019-09-11T13:05:51Z</time>
      </trkpt>
      <trkpt lat="44.27452" lon="6.018">
        <ele>638.9929371</ele>
        <time>2019-09-11T13:05:56Z</time>
      </trkpt>
      <trkpt lat="44.27454" lon="6.01774">
        <ele>637.9930355</ele>
        <time>2019-09-11T13:06:00Z</time>
      </trkpt>
      <trkpt lat="44.27455" lon="6.01752">
        <ele>637.9931175</ele>
        <time>2019-09-11T13:06:05Z</time>
      </trkpt>
      <trkpt lat="44.27451" lon="6.01741">
        <ele>641.9931723</ele>
        <time>2019-09-11T13:09:11Z</time>
      </trkpt>
      <trkpt lat="44.2746" lon="6.01742">
        <ele>640.9931459</ele>
        <time>2019-09-11T13:09:45Z</time>
      </trkpt>
      <trkpt lat="44.27469" lon="6.01741">
        <ele>640.993124</ele>
        <time>2019-09-11T13:09:48Z</time>
      </trkpt>
      <trkpt lat="44.2748" lon="6.01733">
        <ele>638.9931243</ele>
        <time>2019-09-11T13:09:52Z</time>
      </trkpt>
      <trkpt lat="44.27488" lon="6.01699">
        <ele>633.9932356</ele>
        <time>2019-09-11T13:09:57Z</time>
      </trkpt>
      <trkpt lat="44.27487" lon="6.01669">
        <ele>631.9933601</ele>
        <time>2019-09-11T13:10:01Z</time>
      </trkpt>
      <trkpt lat="44.27476" lon="6.01638">
        <ele>628.9935109</ele>
        <time>2019-09-11T13:10:05Z</time>
      </trkpt>
      <trkpt lat="44.27461" lon="6.0161">
        <ele>620.9936618</ele>
        <time>2019-09-11T13:10:09Z</time>
      </trkpt>
      <trkpt lat="44.27451" lon="6.01574">
        <ele>616.99383</ele>
        <time>2019-09-11T13:10:13Z</time>
      </trkpt>
      <trkpt lat="44.27448" lon="6.01535">
        <ele>612.9939865</ele>
        <time>2019-09-11T13:10:17Z</time>
      </trkpt>
      <trkpt lat="44.27445" lon="6.01501">
        <ele>608.9941291</ele>
        <time>2019-09-11T13:10:21Z</time>
      </trkpt>
      <trkpt lat="44.27443" lon="6.01457">
        <ele>607.9943064</ele>
        <time>2019-09-11T13:10:26Z</time>
      </trkpt>
      <trkpt lat="44.27434" lon="6.01432">
        <ele>607.9944215</ele>
        <time>2019-09-11T13:10:30Z</time>
      </trkpt>
      <trkpt lat="44.27438" lon="6.01417">
        <ele>606.9944735</ele>
        <time>2019-09-11T13:10:34Z</time>
      </trkpt>
      <trkpt lat="44.27448" lon="6.0143">
        <ele>602.9943974</ele>
        <time>2019-09-11T13:10:38Z</time>
      </trkpt>
      <trkpt lat="44.2746" lon="6.01456">
        <ele>602.9942705</ele>
        <time>2019-09-11T13:10:43Z</time>
      </trkpt>
      <trkpt lat="44.27471" lon="6.01449">
        <ele>598.9942701</ele>
        <time>2019-09-11T13:10:47Z</time>
      </trkpt>
      <trkpt lat="44.27468" lon="6.01422">
        <ele>595.9943863</ele>
        <time>2019-09-11T13:10:52Z</time>
      </trkpt>
      <trkpt lat="44.27454" lon="6.01403">
        <ele>592.9944921</ele>
        <time>2019-09-11T13:10:56Z</time>
      </trkpt>
      <trkpt lat="44.27447" lon="6.01381">
        <ele>589.9945929</ele>
        <time>2019-09-11T13:11:00Z</time>
      </trkpt>
      <trkpt lat="44.27462" lon="6.01368">
        <ele>588.9946096</ele>
        <time>2019-09-11T13:11:04Z</time>
      </trkpt>
      <trkpt lat="44.27489" lon="6.0138">
        <ele>587.9945037</ele>
        <time>2019-09-11T13:11:09Z</time>
      </trkpt>
      <trkpt lat="44.2751" lon="6.01391">
        <ele>583.994411</ele>
        <time>2019-09-11T13:11:13Z</time>
      </trkpt>
      <trkpt lat="44.27533" lon="6.0139">
        <ele>579.9943651</ele>
        <time>2019-09-11T13:11:17Z</time>
      </trkpt>
      <trkpt lat="44.27552" lon="6.01378">
        <ele>577.9943763</ele>
        <time>2019-09-11T13:11:21Z</time>
      </trkpt>
      <trkpt lat="44.27577" lon="6.01361">
        <ele>578.9943874</ele>
        <time>2019-09-11T13:11:26Z</time>
      </trkpt>
      <trkpt lat="44.27607" lon="6.01344">
        <ele>577.9943952</ele>
        <time>2019-09-11T13:11:31Z</time>
      </trkpt>
      <trkpt lat="44.27631" lon="6.01326">
        <ele>574.9944163</ele>
        <time>2019-09-11T13:11:36Z</time>
      </trkpt>
      <trkpt lat="44.27642" lon="6.01321">
        <ele>576.9944156</ele>
        <time>2019-09-11T13:11:39Z</time>
      </trkpt>
      <trkpt lat="44.27657" lon="6.01327">
        <ele>578.9943609</ele>
        <time>2019-09-11T13:11:43Z</time>
      </trkpt>
      <trkpt lat="44.27671" lon="6.01344">
        <ele>576.9942564</ele>
        <time>2019-09-11T13:11:47Z</time>
      </trkpt>
      <trkpt lat="44.27683" lon="6.01365">
        <ele>577.9941381</ele>
        <time>2019-09-11T13:11:51Z</time>
      </trkpt>
      <trkpt lat="44.27694" lon="6.01384">
        <ele>577.9940345</ele>
        <time>2019-09-11T13:11:55Z</time>
      </trkpt>
      <trkpt lat="44.27705" lon="6.01401">
        <ele>576.9939354</ele>
        <time>2019-09-11T13:11:59Z</time>
      </trkpt>
      <trkpt lat="44.27715" lon="6.01415">
        <ele>576.9938509</ele>
        <time>2019-09-11T13:12:03Z</time>
      </trkpt>
      <trkpt lat="44.27729" lon="6.01429">
        <ele>577.9937598</ele>
        <time>2019-09-11T13:12:07Z</time>
      </trkpt>
      <trkpt lat="44.27741" lon="6.01435">
        <ele>577.9937094</ele>
        <time>2019-09-11T13:12:10Z</time>
      </trkpt>
      <trkpt lat="44.27754" lon="6.01444">
        <ele>577.9936364</ele>
        <time>2019-09-11T13:12:14Z</time>
      </trkpt>
      <trkpt lat="44.27772" lon="6.01454">
        <ele>578.9935515</ele>
        <time>2019-09-11T13:12:19Z</time>
      </trkpt>
      <trkpt lat="44.27789" lon="6.01461">
        <ele>577.99348</ele>
        <time>2019-09-11T13:12:23Z</time>
      </trkpt>
      <trkpt lat="44.27809" lon="6.01467">
        <ele>576.9934042</ele>
        <time>2019-09-11T13:12:28Z</time>
      </trkpt>
      <trkpt lat="44.27825" lon="6.01471">
        <ele>578.9933529</ele>
        <time>2019-09-11T13:12:32Z</time>
      </trkpt>
      <trkpt lat="44.27838" lon="6.01477">
        <ele>580.9932956</ele>
        <time>2019-09-11T13:12:36Z</time>
      </trkpt>
      <trkpt lat="44.27853" lon="6.01484">
        <ele>582.9932291</ele>
        <time>2019-09-11T13:12:40Z</time>
      </trkpt>
      <trkpt lat="44.27866" lon="6.01493">
        <ele>583.9931539</ele>
        <time>2019-09-11T13:12:44Z</time>
      </trkpt>
      <trkpt lat="44.27881" lon="6.01508">
        <ele>583.9930464</ele>
        <time>2019-09-11T13:12:48Z</time>
      </trkpt>
      <trkpt lat="44.27899" lon="6.01527">
        <ele>582.992917</ele>
        <time>2019-09-11T13:12:53Z</time>
      </trkpt>
      <trkpt lat="44.27913" lon="6.01537">
        <ele>582.9928358</ele>
        <time>2019-09-11T13:12:57Z</time>
      </trkpt>
      <trkpt lat="44.27927" lon="6.01554">
        <ele>584.9927198</ele>
        <time>2019-09-11T13:13:02Z</time>
      </trkpt>
      <trkpt lat="44.27941" lon="6.01562">
        <ele>584.9926495</ele>
        <time>2019-09-11T13:13:06Z</time>
      </trkpt>
      <trkpt lat="44.27955" lon="6.01565">
        <ele>587.9925977</ele>
        <time>2019-09-11T13:13:10Z</time>
      </trkpt>
      <trkpt lat="44.27975" lon="6.01571">
        <ele>587.9925212</ele>
        <time>2019-09-11T13:13:15Z</time>
      </trkpt>
      <trkpt lat="44.27992" lon="6.01571">
        <ele>585.9924823</ele>
        <time>2019-09-11T13:13:19Z</time>
      </trkpt>
      <trkpt lat="44.28009" lon="6.0157">
        <ele>585.9924406</ele>
        <time>2019-09-11T13:13:23Z</time>
      </trkpt>
      <trkpt lat="44.28024" lon="6.01567">
        <ele>584.992418</ele>
        <time>2019-09-11T13:13:27Z</time>
      </trkpt>
      <trkpt lat="44.28036" lon="6.01566">
        <ele>586.9923901</ele>
        <time>2019-09-11T13:13:31Z</time>
      </trkpt>
      <trkpt lat="44.28043" lon="6.0158">
        <ele>588.992306</ele>
        <time>2019-09-11T13:13:35Z</time>
      </trkpt>
      <trkpt lat="44.28049" lon="6.01609">
        <ele>587.9921491</ele>
        <time>2019-09-11T13:13:40Z</time>
      </trkpt>
      <trkpt lat="44.28052" lon="6.01623">
        <ele>588.9920758</ele>
        <time>2019-09-11T13:13:43Z</time>
      </trkpt>
      <trkpt lat="44.28056" lon="6.0164">
        <ele>587.9919833</ele>
        <time>2019-09-11T13:13:47Z</time>
      </trkpt>
      <trkpt lat="44.28061" lon="6.01659">
        <ele>587.9918762</ele>
        <time>2019-09-11T13:13:51Z</time>
      </trkpt>
      <trkpt lat="44.28064" lon="6.01687">
        <ele>584.9917274</ele>
        <time>2019-09-11T13:13:56Z</time>
      </trkpt>
      <trkpt lat="44.2807" lon="6.01712">
        <ele>585.9915928</ele>
        <time>2019-09-11T13:14:01Z</time>
      </trkpt>
      <trkpt lat="44.28081" lon="6.0173">
        <ele>585.9914705</ele>
        <time>2019-09-11T13:14:06Z</time>
      </trkpt>
      <trkpt lat="44.28091" lon="6.01745">
        <ele>588.9913703</ele>
        <time>2019-09-11T13:14:10Z</time>
      </trkpt>
      <trkpt lat="44.281" lon="6.01767">
        <ele>588.991234</ele>
        <time>2019-09-11T13:14:15Z</time>
      </trkpt>
      <trkpt lat="44.28103" lon="6.01788">
        <ele>591.9911211</ele>
        <time>2019-09-11T13:14:19Z</time>
      </trkpt>
      <trkpt lat="44.28112" lon="6.01802">
        <ele>592.991029</ele>
        <time>2019-09-11T13:14:23Z</time>
      </trkpt>
      <trkpt lat="44.28125" lon="6.01814">
        <ele>592.9909328</ele>
        <time>2019-09-11T13:14:27Z</time>
      </trkpt>
      <trkpt lat="44.28138" lon="6.01825">
        <ele>593.9908372</ele>
        <time>2019-09-11T13:14:31Z</time>
      </trkpt>
      <trkpt lat="44.2815" lon="6.01835">
        <ele>595.9907521</ele>
        <time>2019-09-11T13:14:35Z</time>
      </trkpt>
      <trkpt lat="44.28162" lon="6.01842">
        <ele>597.9906816</ele>
        <time>2019-09-11T13:14:39Z</time>
      </trkpt>
      <trkpt lat="44.28174" lon="6.01845">
        <ele>601.9906273</ele>
        <time>2019-09-11T13:14:44Z</time>
      </trkpt>
      <trkpt lat="44.28184" lon="6.01855">
        <ele>603.9905487</ele>
        <time>2019-09-11T13:14:48Z</time>
      </trkpt>
      <trkpt lat="44.28199" lon="6.01861">
        <ele>606.9904767</ele>
        <time>2019-09-11T13:14:53Z</time>
      </trkpt>
      <trkpt lat="44.28206" lon="6.01867">
        <ele>609.9904259</ele>
        <time>2019-09-11T13:15:11Z</time>
      </trkpt>
      <trkpt lat="44.28214" lon="6.01866">
        <ele>606.9904048</ele>
        <time>2019-09-11T13:16:37Z</time>
      </trkpt>
      <trkpt lat="44.28227" lon="6.01866">
        <ele>605.9903626</ele>
        <time>2019-09-11T13:16:41Z</time>
      </trkpt>
      <trkpt lat="44.28243" lon="6.01871">
        <ele>605.9902937</ele>
        <time>2019-09-11T13:16:45Z</time>
      </trkpt>
      <trkpt lat="44.28257" lon="6.01878">
        <ele>607.990212</ele>
        <time>2019-09-11T13:16:49Z</time>
      </trkpt>
      <trkpt lat="44.28272" lon="6.0189">
        <ele>606.9901049</ele>
        <time>2019-09-11T13:16:53Z</time>
      </trkpt>
      <trkpt lat="44.28285" lon="6.01902">
        <ele>608.9900041</ele>
        <time>2019-09-11T13:16:57Z</time>
      </trkpt>
      <trkpt lat="44.283" lon="6.01913">
        <ele>609.9898964</ele>
        <time>2019-09-11T13:17:01Z</time>
      </trkpt>
      <trkpt lat="44.28318" lon="6.01927">
        <ele>609.9897711</ele>
        <time>2019-09-11T13:17:06Z</time>
      </trkpt>
      <trkpt lat="44.28333" lon="6.01938">
        <ele>608.9896645</ele>
        <time>2019-09-11T13:17:10Z</time>
      </trkpt>
      <trkpt lat="44.2835" lon="6.01952">
        <ele>611.9895378</ele>
        <time>2019-09-11T13:17:15Z</time>
      </trkpt>
      <trkpt lat="44.28365" lon="6.01958">
        <ele>610.9894594</ele>
        <time>2019-09-11T13:17:19Z</time>
      </trkpt>
      <trkpt lat="44.28381" lon="6.01968">
        <ele>610.9893512</ele>
        <time>2019-09-11T13:17:23Z</time>
      </trkpt>
      <trkpt lat="44.28397" lon="6.0198">
        <ele>609.9892405</ele>
        <time>2019-09-11T13:17:27Z</time>
      </trkpt>
      <trkpt lat="44.28415" lon="6.01992">
        <ele>612.9891191</ele>
        <time>2019-09-11T13:17:32Z</time>
      </trkpt>
      <trkpt lat="44.28435" lon="6.02008">
        <ele>613.9889625</ele>
        <time>2019-09-11T13:17:37Z</time>
      </trkpt>
      <trkpt lat="44.28454" lon="6.02027">
        <ele>613.9888007</ele>
        <time>2019-09-11T13:17:41Z</time>
      </trkpt>
      <trkpt lat="44.28469" lon="6.02047">
        <ele>612.9886408</ele>
        <time>2019-09-11T13:17:45Z</time>
      </trkpt>
      <trkpt lat="44.28489" lon="6.02068">
        <ele>611.9884554</ele>
        <time>2019-09-11T13:17:50Z</time>
      </trkpt>
      <trkpt lat="44.28504" lon="6.02088">
        <ele>610.988292</ele>
        <time>2019-09-11T13:17:54Z</time>
      </trkpt>
      <trkpt lat="44.28525" lon="6.02113">
        <ele>611.9880805</ele>
        <time>2019-09-11T13:17:59Z</time>
      </trkpt>
      <trkpt lat="44.28546" lon="6.02135">
        <ele>611.9878892</ele>
        <time>2019-09-11T13:18:04Z</time>
      </trkpt>
      <trkpt lat="44.28561" lon="6.02153">
        <ele>612.9877341</ele>
        <time>2019-09-11T13:18:08Z</time>
      </trkpt>
      <trkpt lat="44.28576" lon="6.02171">
        <ele>612.9875784</ele>
        <time>2019-09-11T13:18:12Z</time>
      </trkpt>
      <trkpt lat="44.28597" lon="6.02193">
        <ele>614.9873778</ele>
        <time>2019-09-11T13:18:17Z</time>
      </trkpt>
      <trkpt lat="44.28611" lon="6.02212">
        <ele>614.9872169</ele>
        <time>2019-09-11T13:18:21Z</time>
      </trkpt>
      <trkpt lat="44.28628" lon="6.02231">
        <ele>614.9870517</ele>
        <time>2019-09-11T13:18:25Z</time>
      </trkpt>
      <trkpt lat="44.28645" lon="6.02249">
        <ele>614.9868859</ele>
        <time>2019-09-11T13:18:29Z</time>
      </trkpt>
      <trkpt lat="44.28664" lon="6.02272">
        <ele>614.9866826</ele>
        <time>2019-09-11T13:18:34Z</time>
      </trkpt>
      <trkpt lat="44.28685" lon="6.02293">
        <ele>617.9864793</ele>
        <time>2019-09-11T13:18:39Z</time>
      </trkpt>
      <trkpt lat="44.28699" lon="6.0231">
        <ele>616.986329</ele>
        <time>2019-09-11T13:18:43Z</time>
      </trkpt>
      <trkpt lat="44.28714" lon="6.02327">
        <ele>616.9861752</ele>
        <time>2019-09-11T13:18:47Z</time>
      </trkpt>
      <trkpt lat="44.28731" lon="6.02347">
        <ele>616.9859881</ele>
        <time>2019-09-11T13:18:52Z</time>
      </trkpt>
      <trkpt lat="44.28749" lon="6.02367">
        <ele>616.9858006</ele>
        <time>2019-09-11T13:18:57Z</time>
      </trkpt>
      <trkpt lat="44.28765" lon="6.02386">
        <ele>616.9856251</ele>
        <time>2019-09-11T13:19:01Z</time>
      </trkpt>
      <trkpt lat="44.28782" lon="6.02413">
        <ele>616.9854018</ele>
        <time>2019-09-11T13:19:06Z</time>
      </trkpt>
      <trkpt lat="44.28792" lon="6.02429">
        <ele>616.9852666</ele>
        <time>2019-09-11T13:19:09Z</time>
      </trkpt>
      <trkpt lat="44.28804" lon="6.02449">
        <ele>618.9850974</ele>
        <time>2019-09-11T13:19:13Z</time>
      </trkpt>
      <trkpt lat="44.28816" lon="6.02461">
        <ele>619.9849781</ele>
        <time>2019-09-11T13:19:16Z</time>
      </trkpt>
      <trkpt lat="44.28829" lon="6.02472">
        <ele>618.9848533</ele>
        <time>2019-09-11T13:19:19Z</time>
      </trkpt>
      <trkpt lat="44.28848" lon="6.02481">
        <ele>620.9847267</ele>
        <time>2019-09-11T13:19:23Z</time>
      </trkpt>
      <trkpt lat="44.28868" lon="6.02486">
        <ele>619.984618</ele>
        <time>2019-09-11T13:19:27Z</time>
      </trkpt>
      <trkpt lat="44.28894" lon="6.02493">
        <ele>619.9844705</ele>
        <time>2019-09-11T13:19:32Z</time>
      </trkpt>
      <trkpt lat="44.28923" lon="6.02502">
        <ele>617.9842956</ele>
        <time>2019-09-11T13:19:37Z</time>
      </trkpt>
      <trkpt lat="44.28957" lon="6.02516">
        <ele>616.9840704</ele>
        <time>2019-09-11T13:19:42Z</time>
      </trkpt>
      <trkpt lat="44.28982" lon="6.02536">
        <ele>615.9838435</ele>
        <time>2019-09-11T13:19:46Z</time>
      </trkpt>
      <trkpt lat="44.29006" lon="6.02559">
        <ele>614.9835995</ele>
        <time>2019-09-11T13:19:50Z</time>
      </trkpt>
      <trkpt lat="44.29033" lon="6.02581">
        <ele>612.9833455</ele>
        <time>2019-09-11T13:19:54Z</time>
      </trkpt>
      <trkpt lat="44.29063" lon="6.02604">
        <ele>610.9830764</ele>
        <time>2019-09-11T13:19:58Z</time>
      </trkpt>
      <trkpt lat="44.29094" lon="6.02628">
        <ele>608.9827825</ele>
        <time>2019-09-11T13:20:02Z</time>
      </trkpt>
      <trkpt lat="44.29136" lon="6.02661">
        <ele>606.9823914</ele>
        <time>2019-09-11T13:20:07Z</time>
      </trkpt>
      <trkpt lat="44.2918" lon="6.0269">
        <ele>608.9820054</ele>
        <time>2019-09-11T13:20:12Z</time>
      </trkpt>
      <trkpt lat="44.29216" lon="6.02699">
        <ele>609.9817932</ele>
        <time>2019-09-11T13:20:16Z</time>
      </trkpt>
      <trkpt lat="44.29252" lon="6.02704">
        <ele>609.9816056</ele>
        <time>2019-09-11T13:20:21Z</time>
      </trkpt>
      <trkpt lat="44.29278" lon="6.02707">
        <ele>610.9814673</ele>
        <time>2019-09-11T13:20:25Z</time>
      </trkpt>
      <trkpt lat="44.29304" lon="6.02718">
        <ele>609.9812846</ele>
        <time>2019-09-11T13:20:29Z</time>
      </trkpt>
      <trkpt lat="44.29333" lon="6.02732">
        <ele>609.9810589</ele>
        <time>2019-09-11T13:20:34Z</time>
      </trkpt>
      <trkpt lat="44.29353" lon="6.02741">
        <ele>609.980907</ele>
        <time>2019-09-11T13:20:38Z</time>
      </trkpt>
      <trkpt lat="44.29367" lon="6.02749">
        <ele>611.9807878</ele>
        <time>2019-09-11T13:20:42Z</time>
      </trkpt>
      <trkpt lat="44.29381" lon="6.02755">
        <ele>614.9806889</ele>
        <time>2019-09-11T13:20:46Z</time>
      </trkpt>
      <trkpt lat="44.29393" lon="6.0276">
        <ele>612.9806015</ele>
        <time>2019-09-11T13:20:51Z</time>
      </trkpt>
      <trkpt lat="44.29401" lon="6.02766">
        <ele>611.9805266</ele>
        <time>2019-09-11T13:21:04Z</time>
      </trkpt>
      <trkpt lat="44.29408" lon="6.02768">
        <ele>611.9804783</ele>
        <time>2019-09-11T13:21:12Z</time>
      </trkpt>
      <trkpt lat="44.29422" lon="6.02773">
        <ele>612.9803824</ele>
        <time>2019-09-11T13:21:16Z</time>
      </trkpt>
      <trkpt lat="44.29431" lon="6.02777">
        <ele>612.980311</ele>
        <time>2019-09-11T13:21:19Z</time>
      </trkpt>
      <trkpt lat="44.29446" lon="6.02786">
        <ele>614.9801797</ele>
        <time>2019-09-11T13:21:23Z</time>
      </trkpt>
      <trkpt lat="44.29462" lon="6.02789">
        <ele>618.9800849</ele>
        <time>2019-09-11T13:21:27Z</time>
      </trkpt>
      <trkpt lat="44.2948" lon="6.02798">
        <ele>619.9799428</ele>
        <time>2019-09-11T13:21:31Z</time>
      </trkpt>
      <trkpt lat="44.29497" lon="6.02807">
        <ele>619.9798051</ele>
        <time>2019-09-11T13:21:35Z</time>
      </trkpt>
      <trkpt lat="44.29516" lon="6.02819">
        <ele>617.9796336</ele>
        <time>2019-09-11T13:21:39Z</time>
      </trkpt>
      <trkpt lat="44.29533" lon="6.02829">
        <ele>617.9794844</ele>
        <time>2019-09-11T13:21:43Z</time>
      </trkpt>
      <trkpt lat="44.2955" lon="6.0284">
        <ele>615.9793255</ele>
        <time>2019-09-11T13:21:47Z</time>
      </trkpt>
      <trkpt lat="44.29566" lon="6.02851">
        <ele>615.9791732</ele>
        <time>2019-09-11T13:21:51Z</time>
      </trkpt>
      <trkpt lat="44.29577" lon="6.02859">
        <ele>621.9790629</ele>
        <time>2019-09-11T13:21:55Z</time>
      </trkpt>
      <trkpt lat="44.29584" lon="6.02867">
        <ele>619.9789743</ele>
        <time>2019-09-11T13:22:18Z</time>
      </trkpt>
      <trkpt lat="44.29595" lon="6.0289">
        <ele>619.9787563</ele>
        <time>2019-09-11T13:22:23Z</time>
      </trkpt>
      <trkpt lat="44.29607" lon="6.02915">
        <ele>618.9785111</ele>
        <time>2019-09-11T13:22:27Z</time>
      </trkpt>
      <trkpt lat="44.29619" lon="6.02941">
        <ele>619.9782691</ele>
        <time>2019-09-11T13:22:31Z</time>
      </trkpt>
      <trkpt lat="44.29628" lon="6.02964">
        <ele>621.9780536</ele>
        <time>2019-09-11T13:22:35Z</time>
      </trkpt>
      <trkpt lat="44.29636" lon="6.02991">
        <ele>621.9778097</ele>
        <time>2019-09-11T13:22:39Z</time>
      </trkpt>
      <trkpt lat="44.29646" lon="6.03017">
        <ele>620.9775783</ele>
        <time>2019-09-11T13:22:43Z</time>
      </trkpt>
      <trkpt lat="44.29659" lon="6.03048">
        <ele>619.9772757</ele>
        <time>2019-09-11T13:22:48Z</time>
      </trkpt>
      <trkpt lat="44.29672" lon="6.03072">
        <ele>620.9770402</ele>
        <time>2019-09-11T13:22:52Z</time>
      </trkpt>
      <trkpt lat="44.2968" lon="6.03088">
        <ele>617.976882</ele>
        <time>2019-09-11T13:22:55Z</time>
      </trkpt>
      <trkpt lat="44.2969" lon="6.03107">
        <ele>617.9766855</ele>
        <time>2019-09-11T13:22:59Z</time>
      </trkpt>
      <trkpt lat="44.29702" lon="6.03125">
        <ele>617.9764941</ele>
        <time>2019-09-11T13:23:03Z</time>
      </trkpt>
      <trkpt lat="44.29716" lon="6.03149">
        <ele>618.9762385</ele>
        <time>2019-09-11T13:23:08Z</time>
      </trkpt>
      <trkpt lat="44.29732" lon="6.03171">
        <ele>619.9759925</ele>
        <time>2019-09-11T13:23:13Z</time>
      </trkpt>
      <trkpt lat="44.29746" lon="6.03186">
        <ele>619.9758128</ele>
        <time>2019-09-11T13:23:17Z</time>
      </trkpt>
      <trkpt lat="44.29761" lon="6.03199">
        <ele>620.9756307</ele>
        <time>2019-09-11T13:23:21Z</time>
      </trkpt>
      <trkpt lat="44.2978" lon="6.03214">
        <ele>621.9754186</ele>
        <time>2019-09-11T13:23:26Z</time>
      </trkpt>
      <trkpt lat="44.29795" lon="6.03226">
        <ele>625.9752467</ele>
        <time>2019-09-11T13:23:30Z</time>
      </trkpt>
      <trkpt lat="44.29817" lon="6.03238">
        <ele>623.9750484</ele>
        <time>2019-09-11T13:23:35Z</time>
      </trkpt>
      <trkpt lat="44.29835" lon="6.03246">
        <ele>625.9748909</ele>
        <time>2019-09-11T13:23:39Z</time>
      </trkpt>
      <trkpt lat="44.29861" lon="6.03255">
        <ele>622.9746814</ele>
        <time>2019-09-11T13:23:44Z</time>
      </trkpt>
      <trkpt lat="44.29884" lon="6.0326">
        <ele>622.974525</ele>
        <time>2019-09-11T13:23:48Z</time>
      </trkpt>
      <trkpt lat="44.2991" lon="6.03266">
        <ele>624.9743435</ele>
        <time>2019-09-11T13:23:53Z</time>
      </trkpt>
      <trkpt lat="44.29931" lon="6.0327">
        <ele>625.9742013</ele>
        <time>2019-09-11T13:23:57Z</time>
      </trkpt>
      <trkpt lat="44.29958" lon="6.03277">
        <ele>625.974004</ele>
        <time>2019-09-11T13:24:02Z</time>
      </trkpt>
      <trkpt lat="44.29984" lon="6.03284">
        <ele>622.9738139</ele>
        <time>2019-09-11T13:24:07Z</time>
      </trkpt>
      <trkpt lat="44.30004" lon="6.03286">
        <ele>620.973688</ele>
        <time>2019-09-11T13:24:11Z</time>
      </trkpt>
      <trkpt lat="44.30026" lon="6.03291">
        <ele>621.973533</ele>
        <time>2019-09-11T13:24:15Z</time>
      </trkpt>
      <trkpt lat="44.30052" lon="6.03299">
        <ele>621.9733345</ele>
        <time>2019-09-11T13:24:20Z</time>
      </trkpt>
      <trkpt lat="44.30073" lon="6.03303">
        <ele>622.9731892</ele>
        <time>2019-09-11T13:24:24Z</time>
      </trkpt>
      <trkpt lat="44.30094" lon="6.03306">
        <ele>621.9730573</ele>
        <time>2019-09-11T13:24:28Z</time>
      </trkpt>
      <trkpt lat="44.30115" lon="6.03311">
        <ele>620.9729034</ele>
        <time>2019-09-11T13:24:32Z</time>
      </trkpt>
      <trkpt lat="44.30136" lon="6.03316">
        <ele>619.9727518</ele>
        <time>2019-09-11T13:24:36Z</time>
      </trkpt>
      <trkpt lat="44.30156" lon="6.03319">
        <ele>621.9726202</ele>
        <time>2019-09-11T13:24:40Z</time>
      </trkpt>
      <trkpt lat="44.30181" lon="6.03324">
        <ele>623.9724463</ele>
        <time>2019-09-11T13:24:45Z</time>
      </trkpt>
      <trkpt lat="44.30205" lon="6.03329">
        <ele>622.9722793</ele>
        <time>2019-09-11T13:24:50Z</time>
      </trkpt>
      <trkpt lat="44.30224" lon="6.03335">
        <ele>623.9721274</ele>
        <time>2019-09-11T13:24:54Z</time>
      </trkpt>
      <trkpt lat="44.30248" lon="6.0334">
        <ele>624.9719535</ele>
        <time>2019-09-11T13:24:59Z</time>
      </trkpt>
      <trkpt lat="44.30267" lon="6.03339">
        <ele>628.9718618</ele>
        <time>2019-09-11T13:25:04Z</time>
      </trkpt>
      <trkpt lat="44.30291" lon="6.03349">
        <ele>626.9716481</ele>
        <time>2019-09-11T13:25:09Z</time>
      </trkpt>
      <trkpt lat="44.30305" lon="6.03354">
        <ele>624.9715349</ele>
        <time>2019-09-11T13:25:12Z</time>
      </trkpt>
      <trkpt lat="44.3032" lon="6.03354">
        <ele>625.9714501</ele>
        <time>2019-09-11T13:25:16Z</time>
      </trkpt>
      <trkpt lat="44.30338" lon="6.03358">
        <ele>626.9713161</ele>
        <time>2019-09-11T13:25:20Z</time>
      </trkpt>
      <trkpt lat="44.30355" lon="6.03357">
        <ele>628.9712347</ele>
        <time>2019-09-11T13:25:24Z</time>
      </trkpt>
      <trkpt lat="44.30378" lon="6.03364">
        <ele>632.9710536</ele>
        <time>2019-09-11T13:25:29Z</time>
      </trkpt>
      <trkpt lat="44.30398" lon="6.03369">
        <ele>631.9709002</ele>
        <time>2019-09-11T13:25:33Z</time>
      </trkpt>
      <trkpt lat="44.30421" lon="6.03376">
        <ele>630.9707163</ele>
        <time>2019-09-11T13:25:38Z</time>
      </trkpt>
      <trkpt lat="44.30439" lon="6.03382">
        <ele>630.9705703</ele>
        <time>2019-09-11T13:25:42Z</time>
      </trkpt>
      <trkpt lat="44.30457" lon="6.03386">
        <ele>632.9704358</ele>
        <time>2019-09-11T13:25:46Z</time>
      </trkpt>
      <trkpt lat="44.3048" lon="6.03393">
        <ele>632.9702492</ele>
        <time>2019-09-11T13:25:51Z</time>
      </trkpt>
      <trkpt lat="44.30502" lon="6.03401">
        <ele>631.970056</ele>
        <time>2019-09-11T13:25:56Z</time>
      </trkpt>
      <trkpt lat="44.30524" lon="6.03409">
        <ele>629.9698692</ele>
        <time>2019-09-11T13:26:01Z</time>
      </trkpt>
      <trkpt lat="44.30542" lon="6.03416">
        <ele>633.9697163</ele>
        <time>2019-09-11T13:26:05Z</time>
      </trkpt>
      <trkpt lat="44.30562" lon="6.03426">
        <ele>634.9695167</ele>
        <time>2019-09-11T13:26:10Z</time>
      </trkpt>
      <trkpt lat="44.30577" lon="6.03438">
        <ele>638.9693275</ele>
        <time>2019-09-11T13:26:14Z</time>
      </trkpt>
      <trkpt lat="44.30592" lon="6.03454">
        <ele>637.9690991</ele>
        <time>2019-09-11T13:26:18Z</time>
      </trkpt>
      <trkpt lat="44.30607" lon="6.03467">
        <ele>643.9688996</ele>
        <time>2019-09-11T13:26:22Z</time>
      </trkpt>
      <trkpt lat="44.30626" lon="6.03475">
        <ele>640.9687158</ele>
        <time>2019-09-11T13:26:26Z</time>
      </trkpt>
      <trkpt lat="44.30644" lon="6.03493">
        <ele>638.9684582</ele>
        <time>2019-09-11T13:26:31Z</time>
      </trkpt>
      <trkpt lat="44.30663" lon="6.03506">
        <ele>642.9682294</ele>
        <time>2019-09-11T13:26:36Z</time>
      </trkpt>
      <trkpt lat="44.3068" lon="6.03509">
        <ele>643.9681094</ele>
        <time>2019-09-11T13:26:40Z</time>
      </trkpt>
      <trkpt lat="44.30699" lon="6.03514">
        <ele>641.9679647</ele>
        <time>2019-09-11T13:26:44Z</time>
      </trkpt>
      <trkpt lat="44.30716" lon="6.03518">
        <ele>638.9678218</ele>
        <time>2019-09-11T13:26:48Z</time>
      </trkpt>
      <trkpt lat="44.30735" lon="6.03518">
        <ele>643.9677204</ele>
        <time>2019-09-11T13:26:53Z</time>
      </trkpt>
      <trkpt lat="44.30758" lon="6.03518">
        <ele>643.9675907</ele>
        <time>2019-09-11T13:26:58Z</time>
      </trkpt>
      <trkpt lat="44.30773" lon="6.03518">
        <ele>643.9675064</ele>
        <time>2019-09-11T13:27:02Z</time>
      </trkpt>
      <trkpt lat="44.30796" lon="6.03517">
        <ele>642.9673801</ele>
        <time>2019-09-11T13:27:07Z</time>
      </trkpt>
      <trkpt lat="44.30818" lon="6.03524">
        <ele>638.9671947</ele>
        <time>2019-09-11T13:27:11Z</time>
      </trkpt>
      <trkpt lat="44.30839" lon="6.03528">
        <ele>634.9670461</ele>
        <time>2019-09-11T13:27:15Z</time>
      </trkpt>
      <trkpt lat="44.30863" lon="6.0353">
        <ele>631.9668892</ele>
        <time>2019-09-11T13:27:20Z</time>
      </trkpt>
      <trkpt lat="44.3088" lon="6.03529">
        <ele>631.9667988</ele>
        <time>2019-09-11T13:27:24Z</time>
      </trkpt>
      <trkpt lat="44.30898" lon="6.03528">
        <ele>631.9667051</ele>
        <time>2019-09-11T13:27:28Z</time>
      </trkpt>
      <trkpt lat="44.30919" lon="6.03527">
        <ele>631.9665993</ele>
        <time>2019-09-11T13:27:33Z</time>
      </trkpt>
      <trkpt lat="44.30937" lon="6.03527">
        <ele>631.9664976</ele>
        <time>2019-09-11T13:27:37Z</time>
      </trkpt>
      <trkpt lat="44.30961" lon="6.03526">
        <ele>635.9663752</ele>
        <time>2019-09-11T13:27:41Z</time>
      </trkpt>
      <trkpt lat="44.30977" lon="6.03525">
        <ele>634.9662921</ele>
        <time>2019-09-11T13:27:46Z</time>
      </trkpt>
      <trkpt lat="44.30995" lon="6.03524">
        <ele>634.9662033</ele>
        <time>2019-09-11T13:27:50Z</time>
      </trkpt>
      <trkpt lat="44.31017" lon="6.03523">
        <ele>636.9660873</ele>
        <time>2019-09-11T13:27:55Z</time>
      </trkpt>
      <trkpt lat="44.31034" lon="6.03521">
        <ele>640.9660058</ele>
        <time>2019-09-11T13:27:59Z</time>
      </trkpt>
      <trkpt lat="44.31055" lon="6.03528">
        <ele>639.9658253</ele>
        <time>2019-09-11T13:28:04Z</time>
      </trkpt>
      <trkpt lat="44.31077" lon="6.03532">
        <ele>639.9656624</ele>
        <time>2019-09-11T13:28:09Z</time>
      </trkpt>
      <trkpt lat="44.31099" lon="6.03538">
        <ele>639.9654759</ele>
        <time>2019-09-11T13:28:14Z</time>
      </trkpt>
      <trkpt lat="44.31115" lon="6.03541">
        <ele>640.9653562</ele>
        <time>2019-09-11T13:28:18Z</time>
      </trkpt>
      <trkpt lat="44.31127" lon="6.03543">
        <ele>639.9652662</ele>
        <time>2019-09-11T13:28:21Z</time>
      </trkpt>
      <trkpt lat="44.3115" lon="6.03545">
        <ele>639.9651213</ele>
        <time>2019-09-11T13:28:26Z</time>
      </trkpt>
      <trkpt lat="44.31172" lon="6.03546">
        <ele>639.9649821</ele>
        <time>2019-09-11T13:28:31Z</time>
      </trkpt>
      <trkpt lat="44.31186" lon="6.03545">
        <ele>639.9649146</ele>
        <time>2019-09-11T13:28:34Z</time>
      </trkpt>
      <trkpt lat="44.31204" lon="6.03545">
        <ele>636.9648098</ele>
        <time>2019-09-11T13:28:38Z</time>
      </trkpt>
      <trkpt lat="44.31228" lon="6.03543">
        <ele>637.9646974</ele>
        <time>2019-09-11T13:28:43Z</time>
      </trkpt>
      <trkpt lat="44.3125" lon="6.03543">
        <ele>636.964568</ele>
        <time>2019-09-11T13:28:48Z</time>
      </trkpt>
      <trkpt lat="44.31268" lon="6.03542">
        <ele>635.9644775</ele>
        <time>2019-09-11T13:28:52Z</time>
      </trkpt>
      <trkpt lat="44.3129" lon="6.03541">
        <ele>635.96437</ele>
        <time>2019-09-11T13:28:56Z</time>
      </trkpt>
      <trkpt lat="44.31308" lon="6.0354">
        <ele>638.9642702</ele>
        <time>2019-09-11T13:29:01Z</time>
      </trkpt>
      <trkpt lat="44.31331" lon="6.0354">
        <ele>639.9641457</ele>
        <time>2019-09-11T13:29:06Z</time>
      </trkpt>
      <trkpt lat="44.31348" lon="6.03538">
        <ele>638.9640673</ele>
        <time>2019-09-11T13:29:10Z</time>
      </trkpt>
      <trkpt lat="44.31371" lon="6.03537">
        <ele>637.9639479</ele>
        <time>2019-09-11T13:29:14Z</time>
      </trkpt>
      <trkpt lat="44.31388" lon="6.03536">
        <ele>639.9638542</ele>
        <time>2019-09-11T13:29:19Z</time>
      </trkpt>
      <trkpt lat="44.3141" lon="6.03531">
        <ele>641.9637842</ele>
        <time>2019-09-11T13:29:23Z</time>
      </trkpt>
      <trkpt lat="44.31428" lon="6.03525">
        <ele>640.96375</ele>
        <time>2019-09-11T13:29:28Z</time>
      </trkpt>
      <trkpt lat="44.31449" lon="6.03518">
        <ele>645.9637036</ele>
        <time>2019-09-11T13:29:32Z</time>
      </trkpt>
      <trkpt lat="44.31462" lon="6.03512">
        <ele>644.963695</ele>
        <time>2019-09-11T13:29:36Z</time>
      </trkpt>
      <trkpt lat="44.31479" lon="6.03507">
        <ele>643.9636417</ele>
        <time>2019-09-11T13:29:40Z</time>
      </trkpt>
      <trkpt lat="44.315" lon="6.03499">
        <ele>643.9636127</ele>
        <time>2019-09-11T13:29:45Z</time>
      </trkpt>
      <trkpt lat="44.31519" lon="6.03486">
        <ele>644.9636436</ele>
        <time>2019-09-11T13:29:49Z</time>
      </trkpt>
      <trkpt lat="44.31536" lon="6.03474">
        <ele>643.9636749</ele>
        <time>2019-09-11T13:29:54Z</time>
      </trkpt>
      <trkpt lat="44.31551" lon="6.03456">
        <ele>642.9637718</ele>
        <time>2019-09-11T13:29:58Z</time>
      </trkpt>
      <trkpt lat="44.3157" lon="6.03433">
        <ele>641.9639088</ele>
        <time>2019-09-11T13:30:03Z</time>
      </trkpt>
      <trkpt lat="44.31582" lon="6.0342">
        <ele>641.9639788</ele>
        <time>2019-09-11T13:30:06Z</time>
      </trkpt>
      <trkpt lat="44.31597" lon="6.034">
        <ele>641.96411</ele>
        <time>2019-09-11T13:30:10Z</time>
      </trkpt>
      <trkpt lat="44.31611" lon="6.03382">
        <ele>641.9642272</ele>
        <time>2019-09-11T13:30:14Z</time>
      </trkpt>
      <trkpt lat="44.31626" lon="6.03367">
        <ele>642.9643096</ele>
        <time>2019-09-11T13:30:18Z</time>
      </trkpt>
      <trkpt lat="44.31644" lon="6.03346">
        <ele>642.9644278</ele>
        <time>2019-09-11T13:30:22Z</time>
      </trkpt>
      <trkpt lat="44.31657" lon="6.03329">
        <ele>642.9645396</ele>
        <time>2019-09-11T13:30:27Z</time>
      </trkpt>
      <trkpt lat="44.31676" lon="6.03309">
        <ele>645.9646584</ele>
        <time>2019-09-11T13:30:32Z</time>
      </trkpt>
      <trkpt lat="44.31691" lon="6.03293">
        <ele>648.9647465</ele>
        <time>2019-09-11T13:30:36Z</time>
      </trkpt>
      <trkpt lat="44.31705" lon="6.03279">
        <ele>649.9648234</ele>
        <time>2019-09-11T13:30:40Z</time>
      </trkpt>
      <trkpt lat="44.31721" lon="6.03259">
        <ele>648.9649551</ele>
        <time>2019-09-11T13:30:45Z</time>
      </trkpt>
      <trkpt lat="44.31734" lon="6.03242">
        <ele>647.9650691</ele>
        <time>2019-09-11T13:30:49Z</time>
      </trkpt>
      <trkpt lat="44.31749" lon="6.03223">
        <ele>648.965198</ele>
        <time>2019-09-11T13:30:54Z</time>
      </trkpt>
      <trkpt lat="44.31764" lon="6.03203">
        <ele>649.9653326</ele>
        <time>2019-09-11T13:30:59Z</time>
      </trkpt>
      <trkpt lat="44.31781" lon="6.03182">
        <ele>649.965477</ele>
        <time>2019-09-11T13:31:04Z</time>
      </trkpt>
      <trkpt lat="44.31798" lon="6.03165">
        <ele>653.9655759</ele>
        <time>2019-09-11T13:31:08Z</time>
      </trkpt>
      <trkpt lat="44.31811" lon="6.0315">
        <ele>654.9656688</ele>
        <time>2019-09-11T13:31:13Z</time>
      </trkpt>
      <trkpt lat="44.31827" lon="6.0313">
        <ele>654.9658069</ele>
        <time>2019-09-11T13:31:18Z</time>
      </trkpt>
      <trkpt lat="44.31839" lon="6.03115">
        <ele>654.9659171</ele>
        <time>2019-09-11T13:31:22Z</time>
      </trkpt>
      <trkpt lat="44.31856" lon="6.03097">
        <ele>656.9660232</ele>
        <time>2019-09-11T13:31:26Z</time>
      </trkpt>
      <trkpt lat="44.3187" lon="6.03081">
        <ele>656.966136</ele>
        <time>2019-09-11T13:31:31Z</time>
      </trkpt>
      <trkpt lat="44.31886" lon="6.03061">
        <ele>657.9662699</ele>
        <time>2019-09-11T13:31:35Z</time>
      </trkpt>
      <trkpt lat="44.31901" lon="6.0305">
        <ele>655.9663292</ele>
        <time>2019-09-11T13:31:40Z</time>
      </trkpt>
      <trkpt lat="44.3192" lon="6.03036">
        <ele>655.9663866</ele>
        <time>2019-09-11T13:31:44Z</time>
      </trkpt>
      <trkpt lat="44.31935" lon="6.03028">
        <ele>654.9663955</ele>
        <time>2019-09-11T13:31:49Z</time>
      </trkpt>
      <trkpt lat="44.31947" lon="6.03023">
        <ele>654.9664018</ele>
        <time>2019-09-11T13:31:52Z</time>
      </trkpt>
      <trkpt lat="44.31963" lon="6.03015">
        <ele>653.9664053</ele>
        <time>2019-09-11T13:31:56Z</time>
      </trkpt>
      <trkpt lat="44.31979" lon="6.03009">
        <ele>654.9663976</ele>
        <time>2019-09-11T13:32:00Z</time>
      </trkpt>
      <trkpt lat="44.31996" lon="6.03009">
        <ele>656.966325</ele>
        <time>2019-09-11T13:32:04Z</time>
      </trkpt>
      <trkpt lat="44.32017" lon="6.03008">
        <ele>658.9662271</ele>
        <time>2019-09-11T13:32:09Z</time>
      </trkpt>
      <trkpt lat="44.32036" lon="6.03008">
        <ele>658.9661453</ele>
        <time>2019-09-11T13:32:13Z</time>
      </trkpt>
      <trkpt lat="44.32055" lon="6.03001">
        <ele>665.9661193</ele>
        <time>2019-09-11T13:32:17Z</time>
      </trkpt>
      <trkpt lat="44.32071" lon="6.03001">
        <ele>668.9660457</ele>
        <time>2019-09-11T13:32:22Z</time>
      </trkpt>
      <trkpt lat="44.32084" lon="6.03006">
        <ele>667.9659307</ele>
        <time>2019-09-11T13:32:25Z</time>
      </trkpt>
      <trkpt lat="44.32107" lon="6.0301">
        <ele>664.9657755</ele>
        <time>2019-09-11T13:32:29Z</time>
      </trkpt>
      <trkpt lat="44.32118" lon="6.03005">
        <ele>668.9657744</ele>
        <time>2019-09-11T13:32:33Z</time>
      </trkpt>
      <trkpt lat="44.32142" lon="6.03006">
        <ele>667.965648</ele>
        <time>2019-09-11T13:32:38Z</time>
      </trkpt>
      <trkpt lat="44.32163" lon="6.03012">
        <ele>663.9654813</ele>
        <time>2019-09-11T13:32:42Z</time>
      </trkpt>
      <trkpt lat="44.32183" lon="6.03015">
        <ele>664.9653446</ele>
        <time>2019-09-11T13:32:46Z</time>
      </trkpt>
      <trkpt lat="44.32203" lon="6.03018">
        <ele>665.9652172</ele>
        <time>2019-09-11T13:32:50Z</time>
      </trkpt>
      <trkpt lat="44.32223" lon="6.03019">
        <ele>667.9651157</ele>
        <time>2019-09-11T13:32:54Z</time>
      </trkpt>
      <trkpt lat="44.32243" lon="6.03019">
        <ele>667.9650116</ele>
        <time>2019-09-11T13:32:58Z</time>
      </trkpt>
      <trkpt lat="44.32263" lon="6.03021">
        <ele>667.9648946</ele>
        <time>2019-09-11T13:33:02Z</time>
      </trkpt>
      <trkpt lat="44.32284" lon="6.03023">
        <ele>666.9647724</ele>
        <time>2019-09-11T13:33:06Z</time>
      </trkpt>
      <trkpt lat="44.32309" lon="6.0302">
        <ele>663.9646776</ele>
        <time>2019-09-11T13:33:11Z</time>
      </trkpt>
      <trkpt lat="44.32332" lon="6.03016">
        <ele>664.9646267</ele>
        <time>2019-09-11T13:33:16Z</time>
      </trkpt>
      <trkpt lat="44.32354" lon="6.03014">
        <ele>669.9645361</ele>
        <time>2019-09-11T13:33:20Z</time>
      </trkpt>
      <trkpt lat="44.32372" lon="6.03003">
        <ele>672.9645806</ele>
        <time>2019-09-11T13:33:25Z</time>
      </trkpt>
      <trkpt lat="44.32396" lon="6.02991">
        <ele>673.9646045</ele>
        <time>2019-09-11T13:33:30Z</time>
      </trkpt>
      <trkpt lat="44.3241" lon="6.02984">
        <ele>678.9646222</ele>
        <time>2019-09-11T13:33:34Z</time>
      </trkpt>
      <trkpt lat="44.32429" lon="6.0298">
        <ele>675.9645782</ele>
        <time>2019-09-11T13:33:38Z</time>
      </trkpt>
      <trkpt lat="44.32445" lon="6.02977">
        <ele>676.9645354</ele>
        <time>2019-09-11T13:33:41Z</time>
      </trkpt>
      <trkpt lat="44.32459" lon="6.02971">
        <ele>678.9645478</ele>
        <time>2019-09-11T13:33:46Z</time>
      </trkpt>
      <trkpt lat="44.32474" lon="6.02965">
        <ele>681.9645478</ele>
        <time>2019-09-11T13:33:51Z</time>
      </trkpt>
      <trkpt lat="44.32496" lon="6.02957">
        <ele>678.9645302</ele>
        <time>2019-09-11T13:33:56Z</time>
      </trkpt>
      <trkpt lat="44.32513" lon="6.02953">
        <ele>675.9645049</ele>
        <time>2019-09-11T13:34:00Z</time>
      </trkpt>
      <trkpt lat="44.32529" lon="6.02949">
        <ele>673.964476</ele>
        <time>2019-09-11T13:34:04Z</time>
      </trkpt>
      <trkpt lat="44.32546" lon="6.02944">
        <ele>671.9644553</ele>
        <time>2019-09-11T13:34:08Z</time>
      </trkpt>
      <trkpt lat="44.32566" lon="6.02939">
        <ele>671.9644255</ele>
        <time>2019-09-11T13:34:13Z</time>
      </trkpt>
      <trkpt lat="44.32588" lon="6.02933">
        <ele>667.9643958</ele>
        <time>2019-09-11T13:34:18Z</time>
      </trkpt>
      <trkpt lat="44.32604" lon="6.02929">
        <ele>667.9643727</ele>
        <time>2019-09-11T13:34:22Z</time>
      </trkpt>
      <trkpt lat="44.32622" lon="6.02928">
        <ele>669.9642963</ele>
        <time>2019-09-11T13:34:26Z</time>
      </trkpt>
      <trkpt lat="44.32638" lon="6.02925">
        <ele>669.9642541</ele>
        <time>2019-09-11T13:34:31Z</time>
      </trkpt>
      <trkpt lat="44.32663" lon="6.02925">
        <ele>667.9641435</ele>
        <time>2019-09-11T13:34:36Z</time>
      </trkpt>
      <trkpt lat="44.3268" lon="6.02923">
        <ele>669.9640862</ele>
        <time>2019-09-11T13:34:40Z</time>
      </trkpt>
      <trkpt lat="44.32703" lon="6.02923">
        <ele>671.9639747</ele>
        <time>2019-09-11T13:34:44Z</time>
      </trkpt>
      <trkpt lat="44.32721" lon="6.02927">
        <ele>667.9638456</ele>
        <time>2019-09-11T13:34:49Z</time>
      </trkpt>
      <trkpt lat="44.32744" lon="6.02927">
        <ele>670.9637343</ele>
        <time>2019-09-11T13:34:53Z</time>
      </trkpt>
      <trkpt lat="44.32762" lon="6.02929">
        <ele>673.9636283</ele>
        <time>2019-09-11T13:34:58Z</time>
      </trkpt>
      <trkpt lat="44.32779" lon="6.02929">
        <ele>671.9635455</ele>
        <time>2019-09-11T13:35:02Z</time>
      </trkpt>
      <trkpt lat="44.32796" lon="6.02931">
        <ele>671.9634424</ele>
        <time>2019-09-11T13:35:06Z</time>
      </trkpt>
      <trkpt lat="44.32813" lon="6.02931">
        <ele>671.9633592</ele>
        <time>2019-09-11T13:35:10Z</time>
      </trkpt>
      <trkpt lat="44.32831" lon="6.02931">
        <ele>671.9632751</ele>
        <time>2019-09-11T13:35:14Z</time>
      </trkpt>
      <trkpt lat="44.32853" lon="6.02932">
        <ele>672.9631648</ele>
        <time>2019-09-11T13:35:19Z</time>
      </trkpt>
      <trkpt lat="44.32874" lon="6.02933">
        <ele>672.9630497</ele>
        <time>2019-09-11T13:35:24Z</time>
      </trkpt>
      <trkpt lat="44.32892" lon="6.02932">
        <ele>672.9629745</ele>
        <time>2019-09-11T13:35:28Z</time>
      </trkpt>
      <trkpt lat="44.32904" lon="6.02933">
        <ele>673.9629137</ele>
        <time>2019-09-11T13:35:31Z</time>
      </trkpt>
      <trkpt lat="44.32923" lon="6.02932">
        <ele>672.9628327</ele>
        <time>2019-09-11T13:35:35Z</time>
      </trkpt>
      <trkpt lat="44.32944" lon="6.02933">
        <ele>672.9627209</ele>
        <time>2019-09-11T13:35:40Z</time>
      </trkpt>
      <trkpt lat="44.32962" lon="6.02934">
        <ele>672.9626303</ele>
        <time>2019-09-11T13:35:44Z</time>
      </trkpt>
      <trkpt lat="44.32984" lon="6.02934">
        <ele>672.9625265</ele>
        <time>2019-09-11T13:35:49Z</time>
      </trkpt>
      <trkpt lat="44.33005" lon="6.02932">
        <ele>673.9624539</ele>
        <time>2019-09-11T13:35:54Z</time>
      </trkpt>
      <trkpt lat="44.33022" lon="6.0293">
        <ele>673.9623967</ele>
        <time>2019-09-11T13:35:58Z</time>
      </trkpt>
      <trkpt lat="44.3304" lon="6.02927">
        <ele>676.9623423</ele>
        <time>2019-09-11T13:36:02Z</time>
      </trkpt>
      <trkpt lat="44.33061" lon="6.02923">
        <ele>677.9623027</ele>
        <time>2019-09-11T13:36:07Z</time>
      </trkpt>
      <trkpt lat="44.33074" lon="6.0292">
        <ele>676.9622812</ele>
        <time>2019-09-11T13:36:10Z</time>
      </trkpt>
      <trkpt lat="44.33091" lon="6.02915">
        <ele>676.9622588</ele>
        <time>2019-09-11T13:36:14Z</time>
      </trkpt>
      <trkpt lat="44.33109" lon="6.0291">
        <ele>675.962247</ele>
        <time>2019-09-11T13:36:18Z</time>
      </trkpt>
      <trkpt lat="44.33132" lon="6.02904">
        <ele>675.9622235</ele>
        <time>2019-09-11T13:36:23Z</time>
      </trkpt>
      <trkpt lat="44.33149" lon="6.02898">
        <ele>676.9622107</ele>
        <time>2019-09-11T13:36:26Z</time>
      </trkpt>
      <trkpt lat="44.33165" lon="6.0289">
        <ele>679.9622433</ele>
        <time>2019-09-11T13:36:31Z</time>
      </trkpt>
      <trkpt lat="44.33181" lon="6.02882">
        <ele>680.9622699</ele>
        <time>2019-09-11T13:36:35Z</time>
      </trkpt>
      <trkpt lat="44.33203" lon="6.02872">
        <ele>679.9623105</ele>
        <time>2019-09-11T13:36:40Z</time>
      </trkpt>
      <trkpt lat="44.33224" lon="6.02859">
        <ele>680.9623728</ele>
        <time>2019-09-11T13:36:44Z</time>
      </trkpt>
      <trkpt lat="44.3324" lon="6.02852">
        <ele>680.9624</ele>
        <time>2019-09-11T13:36:49Z</time>
      </trkpt>
      <trkpt lat="44.33255" lon="6.02844">
        <ele>680.9624368</ele>
        <time>2019-09-11T13:36:52Z</time>
      </trkpt>
      <trkpt lat="44.33268" lon="6.02836">
        <ele>681.9624858</ele>
        <time>2019-09-11T13:36:57Z</time>
      </trkpt>
      <trkpt lat="44.33283" lon="6.02829">
        <ele>681.962511</ele>
        <time>2019-09-11T13:37:01Z</time>
      </trkpt>
      <trkpt lat="44.33293" lon="6.02824">
        <ele>684.9625345</ele>
        <time>2019-09-11T13:37:04Z</time>
      </trkpt>
      <trkpt lat="44.33309" lon="6.02816">
        <ele>684.96256</ele>
        <time>2019-09-11T13:37:08Z</time>
      </trkpt>
      <trkpt lat="44.33327" lon="6.02809">
        <ele>685.9625797</ele>
        <time>2019-09-11T13:37:13Z</time>
      </trkpt>
      <trkpt lat="44.33346" lon="6.02802">
        <ele>684.9625859</ele>
        <time>2019-09-11T13:37:17Z</time>
      </trkpt>
      <trkpt lat="44.33363" lon="6.02799">
        <ele>684.9625516</ele>
        <time>2019-09-11T13:37:22Z</time>
      </trkpt>
      <trkpt lat="44.33384" lon="6.02798">
        <ele>684.9624688</ele>
        <time>2019-09-11T13:37:27Z</time>
      </trkpt>
      <trkpt lat="44.33401" lon="6.02796">
        <ele>683.9624181</ele>
        <time>2019-09-11T13:37:31Z</time>
      </trkpt>
      <trkpt lat="44.33418" lon="6.02796">
        <ele>682.9623382</ele>
        <time>2019-09-11T13:37:35Z</time>
      </trkpt>
      <trkpt lat="44.33436" lon="6.02795">
        <ele>682.9622808</ele>
        <time>2019-09-11T13:37:39Z</time>
      </trkpt>
      <trkpt lat="44.33459" lon="6.02794">
        <ele>684.9621808</ele>
        <time>2019-09-11T13:37:44Z</time>
      </trkpt>
      <trkpt lat="44.33486" lon="6.02792">
        <ele>683.962099</ele>
        <time>2019-09-11T13:37:49Z</time>
      </trkpt>
      <trkpt lat="44.33509" lon="6.0279">
        <ele>685.9620101</ele>
        <time>2019-09-11T13:37:54Z</time>
      </trkpt>
      <trkpt lat="44.33534" lon="6.02789">
        <ele>684.9619245</ele>
        <time>2019-09-11T13:37:58Z</time>
      </trkpt>
      <trkpt lat="44.33559" lon="6.02789">
        <ele>684.961803</ele>
        <time>2019-09-11T13:38:03Z</time>
      </trkpt>
      <trkpt lat="44.33577" lon="6.02792">
        <ele>687.9616885</ele>
        <time>2019-09-11T13:38:08Z</time>
      </trkpt>
      <trkpt lat="44.33601" lon="6.02792">
        <ele>688.9615812</ele>
        <time>2019-09-11T13:38:13Z</time>
      </trkpt>
      <trkpt lat="44.33625" lon="6.02797">
        <ele>691.9614068</ele>
        <time>2019-09-11T13:38:17Z</time>
      </trkpt>
      <trkpt lat="44.33645" lon="6.028">
        <ele>691.9612697</ele>
        <time>2019-09-11T13:38:22Z</time>
      </trkpt>
      <trkpt lat="44.33664" lon="6.02802">
        <ele>689.9611542</ele>
        <time>2019-09-11T13:38:26Z</time>
      </trkpt>
      <trkpt lat="44.33687" lon="6.02806">
        <ele>687.9610024</ele>
        <time>2019-09-11T13:38:31Z</time>
      </trkpt>
      <trkpt lat="44.33704" lon="6.02808">
        <ele>690.9608868</ele>
        <time>2019-09-11T13:38:35Z</time>
      </trkpt>
      <trkpt lat="44.33721" lon="6.02811">
        <ele>689.9607828</ele>
        <time>2019-09-11T13:38:39Z</time>
      </trkpt>
      <trkpt lat="44.33738" lon="6.02813">
        <ele>690.960679</ele>
        <time>2019-09-11T13:38:43Z</time>
      </trkpt>
      <trkpt lat="44.33758" lon="6.02816">
        <ele>690.9605475</ele>
        <time>2019-09-11T13:38:48Z</time>
      </trkpt>
      <trkpt lat="44.33778" lon="6.02817">
        <ele>691.960443</ele>
        <time>2019-09-11T13:38:53Z</time>
      </trkpt>
      <trkpt lat="44.33798" lon="6.02819">
        <ele>690.9603223</ele>
        <time>2019-09-11T13:38:58Z</time>
      </trkpt>
      <trkpt lat="44.33813" lon="6.02818">
        <ele>691.9602599</ele>
        <time>2019-09-11T13:39:02Z</time>
      </trkpt>
      <trkpt lat="44.33829" lon="6.02818">
        <ele>691.9601949</ele>
        <time>2019-09-11T13:39:06Z</time>
      </trkpt>
      <trkpt lat="44.33844" lon="6.02818">
        <ele>692.9601302</ele>
        <time>2019-09-11T13:39:10Z</time>
      </trkpt>
      <trkpt lat="44.33866" lon="6.02814">
        <ele>695.9600814</ele>
        <time>2019-09-11T13:39:14Z</time>
      </trkpt>
      <trkpt lat="44.33882" lon="6.02813">
        <ele>695.9600252</ele>
        <time>2019-09-11T13:39:19Z</time>
      </trkpt>
      <trkpt lat="44.33903" lon="6.02812">
        <ele>696.9599425</ele>
        <time>2019-09-11T13:39:23Z</time>
      </trkpt>
      <trkpt lat="44.33921" lon="6.02812">
        <ele>695.9598609</ele>
        <time>2019-09-11T13:39:28Z</time>
      </trkpt>
      <trkpt lat="44.33945" lon="6.0281">
        <ele>696.9597771</ele>
        <time>2019-09-11T13:39:32Z</time>
      </trkpt>
      <trkpt lat="44.33966" lon="6.02807">
        <ele>695.9597273</ele>
        <time>2019-09-11T13:39:37Z</time>
      </trkpt>
      <trkpt lat="44.33986" lon="6.02804">
        <ele>694.9596823</ele>
        <time>2019-09-11T13:39:41Z</time>
      </trkpt>
      <trkpt lat="44.34005" lon="6.02801">
        <ele>693.9596358</ele>
        <time>2019-09-11T13:39:45Z</time>
      </trkpt>
      <trkpt lat="44.34024" lon="6.02795">
        <ele>693.9596395</ele>
        <time>2019-09-11T13:39:49Z</time>
      </trkpt>
      <trkpt lat="44.34046" lon="6.02785">
        <ele>694.9596982</ele>
        <time>2019-09-11T13:39:53Z</time>
      </trkpt>
      <trkpt lat="44.34065" lon="6.02775">
        <ele>694.9597484</ele>
        <time>2019-09-11T13:39:58Z</time>
      </trkpt>
      <trkpt lat="44.34081" lon="6.02767">
        <ele>696.9598029</ele>
        <time>2019-09-11T13:40:02Z</time>
      </trkpt>
    </trkseg>
  </trk>
</gpx>